<?xml version="1.0" encoding="UTF-8" standalone="no" ?>
<gpx xmlns="http://www.topografix.com/GPX/1/1" xmlns:xsi="http://www.w3.org/2001/XMLSchema-instance" xsi:schemaLocation="http://www.topografix.com/GPX/1/1 http://www.topografix.com/GPX/1/1/gpx.xsd" version="1.1" creator="VisuGPX - https://www.visugpx.com">
  <metadata>
    <name>La POITEVINIERE</name>
    <desc><![CDATA[Groupe de Randonnée sur CHOLET effectuant Sorties Hebdomadaires]]></desc>
  </metadata>
  <trk>
    <name><![CDATA[foyer laique]]></name>
    <trkseg>
      <trkpt lat="47.22748" lon="-0.8964">
        <ele>84</ele>
        <time>2012-02-23T14:17:23Z</time>
      </trkpt>
      <trkpt lat="47.22744" lon="-0.8968">
        <ele>85</ele>
        <time>2012-02-23T14:17:49Z</time>
      </trkpt>
      <trkpt lat="47.22743" lon="-0.89681">
        <ele>85</ele>
        <time>2012-02-23T14:17:50Z</time>
      </trkpt>
      <trkpt lat="47.22742" lon="-0.89682">
        <ele>85</ele>
        <time>2012-02-23T14:17:51Z</time>
      </trkpt>
      <trkpt lat="47.2274" lon="-0.89685">
        <ele>85</ele>
        <time>2012-02-23T14:17:53Z</time>
      </trkpt>
      <trkpt lat="47.22739" lon="-0.89686">
        <ele>85</ele>
        <time>2012-02-23T14:17:54Z</time>
      </trkpt>
      <trkpt lat="47.22738" lon="-0.89687">
        <ele>85</ele>
        <time>2012-02-23T14:17:55Z</time>
      </trkpt>
      <trkpt lat="47.22736" lon="-0.89688">
        <ele>85</ele>
        <time>2012-02-23T14:17:56Z</time>
      </trkpt>
      <trkpt lat="47.22735" lon="-0.89689">
        <ele>85</ele>
        <time>2012-02-23T14:17:57Z</time>
      </trkpt>
      <trkpt lat="47.22734" lon="-0.8969">
        <ele>85</ele>
        <time>2012-02-23T14:17:58Z</time>
      </trkpt>
      <trkpt lat="47.22733" lon="-0.89691">
        <ele>85</ele>
        <time>2012-02-23T14:17:59Z</time>
      </trkpt>
      <trkpt lat="47.22731" lon="-0.89692">
        <ele>85</ele>
        <time>2012-02-23T14:18:01Z</time>
      </trkpt>
      <trkpt lat="47.22729" lon="-0.89694">
        <ele>85</ele>
        <time>2012-02-23T14:18:03Z</time>
      </trkpt>
      <trkpt lat="47.22728" lon="-0.89695">
        <ele>85</ele>
        <time>2012-02-23T14:18:04Z</time>
      </trkpt>
      <trkpt lat="47.22726" lon="-0.89697">
        <ele>85</ele>
        <time>2012-02-23T14:18:06Z</time>
      </trkpt>
      <trkpt lat="47.22725" lon="-0.89697">
        <ele>85</ele>
        <time>2012-02-23T14:18:07Z</time>
      </trkpt>
      <trkpt lat="47.22723" lon="-0.89698">
        <ele>85</ele>
        <time>2012-02-23T14:18:08Z</time>
      </trkpt>
      <trkpt lat="47.22722" lon="-0.89698">
        <ele>85</ele>
        <time>2012-02-23T14:18:09Z</time>
      </trkpt>
      <trkpt lat="47.2272" lon="-0.897">
        <ele>85</ele>
        <time>2012-02-23T14:18:11Z</time>
      </trkpt>
      <trkpt lat="47.22718" lon="-0.89701">
        <ele>85</ele>
        <time>2012-02-23T14:18:13Z</time>
      </trkpt>
      <trkpt lat="47.22717" lon="-0.89703">
        <ele>85</ele>
        <time>2012-02-23T14:18:15Z</time>
      </trkpt>
      <trkpt lat="47.22715" lon="-0.89705">
        <ele>85</ele>
        <time>2012-02-23T14:18:17Z</time>
      </trkpt>
      <trkpt lat="47.22713" lon="-0.89705">
        <ele>85</ele>
        <time>2012-02-23T14:18:18Z</time>
      </trkpt>
      <trkpt lat="47.22712" lon="-0.89706">
        <ele>85</ele>
        <time>2012-02-23T14:18:19Z</time>
      </trkpt>
      <trkpt lat="47.2271" lon="-0.89708">
        <ele>85</ele>
        <time>2012-02-23T14:18:21Z</time>
      </trkpt>
      <trkpt lat="47.22708" lon="-0.89709">
        <ele>85</ele>
        <time>2012-02-23T14:18:23Z</time>
      </trkpt>
      <trkpt lat="47.22707" lon="-0.89711">
        <ele>85</ele>
        <time>2012-02-23T14:18:25Z</time>
      </trkpt>
      <trkpt lat="47.22706" lon="-0.89714">
        <ele>85</ele>
        <time>2012-02-23T14:18:27Z</time>
      </trkpt>
      <trkpt lat="47.22705" lon="-0.89716">
        <ele>85</ele>
        <time>2012-02-23T14:18:29Z</time>
      </trkpt>
      <trkpt lat="47.22702" lon="-0.8972">
        <ele>85</ele>
        <time>2012-02-23T14:18:31Z</time>
      </trkpt>
      <trkpt lat="47.22701" lon="-0.89723">
        <ele>85</ele>
        <time>2012-02-23T14:18:33Z</time>
      </trkpt>
      <trkpt lat="47.227" lon="-0.89724">
        <ele>85</ele>
        <time>2012-02-23T14:18:34Z</time>
      </trkpt>
      <trkpt lat="47.22699" lon="-0.89726">
        <ele>85</ele>
        <time>2012-02-23T14:18:35Z</time>
      </trkpt>
      <trkpt lat="47.22699" lon="-0.89728">
        <ele>85</ele>
        <time>2012-02-23T14:18:36Z</time>
      </trkpt>
      <trkpt lat="47.22698" lon="-0.8973">
        <ele>85</ele>
        <time>2012-02-23T14:18:37Z</time>
      </trkpt>
      <trkpt lat="47.22698" lon="-0.89732">
        <ele>85</ele>
        <time>2012-02-23T14:18:38Z</time>
      </trkpt>
      <trkpt lat="47.22698" lon="-0.89734">
        <ele>85</ele>
        <time>2012-02-23T14:18:39Z</time>
      </trkpt>
      <trkpt lat="47.22699" lon="-0.89735">
        <ele>85</ele>
        <time>2012-02-23T14:18:40Z</time>
      </trkpt>
      <trkpt lat="47.22699" lon="-0.89737">
        <ele>85</ele>
        <time>2012-02-23T14:18:41Z</time>
      </trkpt>
      <trkpt lat="47.22699" lon="-0.89739">
        <ele>85</ele>
        <time>2012-02-23T14:18:42Z</time>
      </trkpt>
      <trkpt lat="47.22699" lon="-0.89741">
        <ele>85</ele>
        <time>2012-02-23T14:18:43Z</time>
      </trkpt>
      <trkpt lat="47.22699" lon="-0.89743">
        <ele>85</ele>
        <time>2012-02-23T14:18:44Z</time>
      </trkpt>
      <trkpt lat="47.22699" lon="-0.89746">
        <ele>85</ele>
        <time>2012-02-23T14:18:45Z</time>
      </trkpt>
      <trkpt lat="47.22699" lon="-0.89748">
        <ele>85</ele>
        <time>2012-02-23T14:18:46Z</time>
      </trkpt>
      <trkpt lat="47.22699" lon="-0.8975">
        <ele>85</ele>
        <time>2012-02-23T14:18:47Z</time>
      </trkpt>
      <trkpt lat="47.22699" lon="-0.89752">
        <ele>85</ele>
        <time>2012-02-23T14:18:48Z</time>
      </trkpt>
      <trkpt lat="47.22698" lon="-0.89755">
        <ele>85</ele>
        <time>2012-02-23T14:18:49Z</time>
      </trkpt>
      <trkpt lat="47.22698" lon="-0.89757">
        <ele>85</ele>
        <time>2012-02-23T14:18:50Z</time>
      </trkpt>
      <trkpt lat="47.22698" lon="-0.8976">
        <ele>85</ele>
        <time>2012-02-23T14:18:51Z</time>
      </trkpt>
      <trkpt lat="47.22697" lon="-0.89763">
        <ele>85</ele>
        <time>2012-02-23T14:18:52Z</time>
      </trkpt>
      <trkpt lat="47.22697" lon="-0.89765">
        <ele>85</ele>
        <time>2012-02-23T14:18:53Z</time>
      </trkpt>
      <trkpt lat="47.22697" lon="-0.89767">
        <ele>85</ele>
        <time>2012-02-23T14:18:54Z</time>
      </trkpt>
      <trkpt lat="47.22696" lon="-0.8977">
        <ele>85</ele>
        <time>2012-02-23T14:18:55Z</time>
      </trkpt>
      <trkpt lat="47.22696" lon="-0.89773">
        <ele>85</ele>
        <time>2012-02-23T14:18:56Z</time>
      </trkpt>
      <trkpt lat="47.22696" lon="-0.89775">
        <ele>84</ele>
        <time>2012-02-23T14:18:57Z</time>
      </trkpt>
      <trkpt lat="47.22696" lon="-0.89777">
        <ele>84</ele>
        <time>2012-02-23T14:18:58Z</time>
      </trkpt>
      <trkpt lat="47.22696" lon="-0.89779">
        <ele>84</ele>
        <time>2012-02-23T14:18:59Z</time>
      </trkpt>
      <trkpt lat="47.22696" lon="-0.89781">
        <ele>84</ele>
        <time>2012-02-23T14:19:00Z</time>
      </trkpt>
      <trkpt lat="47.22696" lon="-0.89783">
        <ele>84</ele>
        <time>2012-02-23T14:19:01Z</time>
      </trkpt>
      <trkpt lat="47.22695" lon="-0.89785">
        <ele>84</ele>
        <time>2012-02-23T14:19:02Z</time>
      </trkpt>
      <trkpt lat="47.22695" lon="-0.89787">
        <ele>84</ele>
        <time>2012-02-23T14:19:03Z</time>
      </trkpt>
      <trkpt lat="47.22695" lon="-0.89789">
        <ele>84</ele>
        <time>2012-02-23T14:19:04Z</time>
      </trkpt>
      <trkpt lat="47.22695" lon="-0.89791">
        <ele>84</ele>
        <time>2012-02-23T14:19:05Z</time>
      </trkpt>
      <trkpt lat="47.22694" lon="-0.89793">
        <ele>84</ele>
        <time>2012-02-23T14:19:06Z</time>
      </trkpt>
      <trkpt lat="47.22694" lon="-0.89794">
        <ele>84</ele>
        <time>2012-02-23T14:19:07Z</time>
      </trkpt>
      <trkpt lat="47.22694" lon="-0.89796">
        <ele>84</ele>
        <time>2012-02-23T14:19:08Z</time>
      </trkpt>
      <trkpt lat="47.22694" lon="-0.89798">
        <ele>84</ele>
        <time>2012-02-23T14:19:09Z</time>
      </trkpt>
      <trkpt lat="47.22693" lon="-0.89799">
        <ele>84</ele>
        <time>2012-02-23T14:19:10Z</time>
      </trkpt>
      <trkpt lat="47.22693" lon="-0.89801">
        <ele>84</ele>
        <time>2012-02-23T14:19:11Z</time>
      </trkpt>
      <trkpt lat="47.22693" lon="-0.89803">
        <ele>84</ele>
        <time>2012-02-23T14:19:12Z</time>
      </trkpt>
      <trkpt lat="47.22692" lon="-0.89805">
        <ele>84</ele>
        <time>2012-02-23T14:19:13Z</time>
      </trkpt>
      <trkpt lat="47.22692" lon="-0.89806">
        <ele>84</ele>
        <time>2012-02-23T14:19:14Z</time>
      </trkpt>
      <trkpt lat="47.22691" lon="-0.89808">
        <ele>84</ele>
        <time>2012-02-23T14:19:16Z</time>
      </trkpt>
      <trkpt lat="47.22691" lon="-0.8981">
        <ele>84</ele>
        <time>2012-02-23T14:19:17Z</time>
      </trkpt>
      <trkpt lat="47.2269" lon="-0.89812">
        <ele>84</ele>
        <time>2012-02-23T14:19:18Z</time>
      </trkpt>
      <trkpt lat="47.2269" lon="-0.89814">
        <ele>84</ele>
        <time>2012-02-23T14:19:19Z</time>
      </trkpt>
      <trkpt lat="47.22689" lon="-0.89815">
        <ele>84</ele>
        <time>2012-02-23T14:19:20Z</time>
      </trkpt>
      <trkpt lat="47.22689" lon="-0.89817">
        <ele>84</ele>
        <time>2012-02-23T14:19:21Z</time>
      </trkpt>
      <trkpt lat="47.22689" lon="-0.89819">
        <ele>84</ele>
        <time>2012-02-23T14:19:22Z</time>
      </trkpt>
      <trkpt lat="47.22688" lon="-0.89821">
        <ele>84</ele>
        <time>2012-02-23T14:19:23Z</time>
      </trkpt>
      <trkpt lat="47.22688" lon="-0.89822">
        <ele>84</ele>
        <time>2012-02-23T14:19:24Z</time>
      </trkpt>
      <trkpt lat="47.22688" lon="-0.89824">
        <ele>84</ele>
        <time>2012-02-23T14:19:25Z</time>
      </trkpt>
      <trkpt lat="47.22688" lon="-0.89826">
        <ele>84</ele>
        <time>2012-02-23T14:19:26Z</time>
      </trkpt>
      <trkpt lat="47.22687" lon="-0.89827">
        <ele>84</ele>
        <time>2012-02-23T14:19:27Z</time>
      </trkpt>
      <trkpt lat="47.22687" lon="-0.89829">
        <ele>84</ele>
        <time>2012-02-23T14:19:28Z</time>
      </trkpt>
      <trkpt lat="47.22687" lon="-0.8983">
        <ele>84</ele>
        <time>2012-02-23T14:19:29Z</time>
      </trkpt>
      <trkpt lat="47.22686" lon="-0.89832">
        <ele>84</ele>
        <time>2012-02-23T14:19:30Z</time>
      </trkpt>
      <trkpt lat="47.22686" lon="-0.89834">
        <ele>84</ele>
        <time>2012-02-23T14:19:31Z</time>
      </trkpt>
      <trkpt lat="47.22686" lon="-0.89836">
        <ele>84</ele>
        <time>2012-02-23T14:19:32Z</time>
      </trkpt>
      <trkpt lat="47.22685" lon="-0.89838">
        <ele>84</ele>
        <time>2012-02-23T14:19:34Z</time>
      </trkpt>
      <trkpt lat="47.22685" lon="-0.8984">
        <ele>84</ele>
        <time>2012-02-23T14:19:35Z</time>
      </trkpt>
      <trkpt lat="47.22685" lon="-0.89842">
        <ele>84</ele>
        <time>2012-02-23T14:19:36Z</time>
      </trkpt>
      <trkpt lat="47.22685" lon="-0.89844">
        <ele>84</ele>
        <time>2012-02-23T14:19:37Z</time>
      </trkpt>
      <trkpt lat="47.22685" lon="-0.89847">
        <ele>84</ele>
        <time>2012-02-23T14:19:39Z</time>
      </trkpt>
      <trkpt lat="47.22685" lon="-0.89849">
        <ele>84</ele>
        <time>2012-02-23T14:19:40Z</time>
      </trkpt>
      <trkpt lat="47.22684" lon="-0.8985">
        <ele>84</ele>
        <time>2012-02-23T14:19:41Z</time>
      </trkpt>
      <trkpt lat="47.22684" lon="-0.89852">
        <ele>84</ele>
        <time>2012-02-23T14:19:42Z</time>
      </trkpt>
      <trkpt lat="47.22684" lon="-0.89855">
        <ele>85</ele>
        <time>2012-02-23T14:19:44Z</time>
      </trkpt>
      <trkpt lat="47.22684" lon="-0.89857">
        <ele>85</ele>
        <time>2012-02-23T14:19:45Z</time>
      </trkpt>
      <trkpt lat="47.22683" lon="-0.89859">
        <ele>85</ele>
        <time>2012-02-23T14:19:46Z</time>
      </trkpt>
      <trkpt lat="47.22683" lon="-0.8986">
        <ele>85</ele>
        <time>2012-02-23T14:19:47Z</time>
      </trkpt>
      <trkpt lat="47.22683" lon="-0.89862">
        <ele>85</ele>
        <time>2012-02-23T14:19:48Z</time>
      </trkpt>
      <trkpt lat="47.22683" lon="-0.89864">
        <ele>85</ele>
        <time>2012-02-23T14:19:49Z</time>
      </trkpt>
      <trkpt lat="47.22683" lon="-0.89865">
        <ele>85</ele>
        <time>2012-02-23T14:19:50Z</time>
      </trkpt>
      <trkpt lat="47.22682" lon="-0.89867">
        <ele>85</ele>
        <time>2012-02-23T14:19:51Z</time>
      </trkpt>
      <trkpt lat="47.22682" lon="-0.89869">
        <ele>85</ele>
        <time>2012-02-23T14:19:52Z</time>
      </trkpt>
      <trkpt lat="47.22682" lon="-0.8987">
        <ele>85</ele>
        <time>2012-02-23T14:19:53Z</time>
      </trkpt>
      <trkpt lat="47.22682" lon="-0.89872">
        <ele>86</ele>
        <time>2012-02-23T14:19:54Z</time>
      </trkpt>
      <trkpt lat="47.22682" lon="-0.89874">
        <ele>86</ele>
        <time>2012-02-23T14:19:55Z</time>
      </trkpt>
      <trkpt lat="47.22682" lon="-0.89875">
        <ele>86</ele>
        <time>2012-02-23T14:19:56Z</time>
      </trkpt>
      <trkpt lat="47.22682" lon="-0.89877">
        <ele>86</ele>
        <time>2012-02-23T14:19:57Z</time>
      </trkpt>
      <trkpt lat="47.22682" lon="-0.89878">
        <ele>86</ele>
        <time>2012-02-23T14:19:58Z</time>
      </trkpt>
      <trkpt lat="47.22682" lon="-0.8988">
        <ele>86</ele>
        <time>2012-02-23T14:19:59Z</time>
      </trkpt>
      <trkpt lat="47.22682" lon="-0.89881">
        <ele>86</ele>
        <time>2012-02-23T14:20:00Z</time>
      </trkpt>
      <trkpt lat="47.22681" lon="-0.89883">
        <ele>86</ele>
        <time>2012-02-23T14:20:01Z</time>
      </trkpt>
      <trkpt lat="47.22681" lon="-0.89885">
        <ele>86</ele>
        <time>2012-02-23T14:20:02Z</time>
      </trkpt>
      <trkpt lat="47.22681" lon="-0.89886">
        <ele>86</ele>
        <time>2012-02-23T14:20:03Z</time>
      </trkpt>
      <trkpt lat="47.22681" lon="-0.89888">
        <ele>86</ele>
        <time>2012-02-23T14:20:04Z</time>
      </trkpt>
      <trkpt lat="47.22681" lon="-0.8989">
        <ele>86</ele>
        <time>2012-02-23T14:20:05Z</time>
      </trkpt>
      <trkpt lat="47.2268" lon="-0.89891">
        <ele>86</ele>
        <time>2012-02-23T14:20:06Z</time>
      </trkpt>
      <trkpt lat="47.2268" lon="-0.89893">
        <ele>86</ele>
        <time>2012-02-23T14:20:07Z</time>
      </trkpt>
      <trkpt lat="47.2268" lon="-0.89895">
        <ele>86</ele>
        <time>2012-02-23T14:20:08Z</time>
      </trkpt>
      <trkpt lat="47.2268" lon="-0.89897">
        <ele>86</ele>
        <time>2012-02-23T14:20:09Z</time>
      </trkpt>
      <trkpt lat="47.2268" lon="-0.89898">
        <ele>86</ele>
        <time>2012-02-23T14:20:10Z</time>
      </trkpt>
      <trkpt lat="47.22679" lon="-0.89899">
        <ele>87</ele>
        <time>2012-02-23T14:20:11Z</time>
      </trkpt>
      <trkpt lat="47.22679" lon="-0.89901">
        <ele>87</ele>
        <time>2012-02-23T14:20:12Z</time>
      </trkpt>
      <trkpt lat="47.22679" lon="-0.89903">
        <ele>87</ele>
        <time>2012-02-23T14:20:13Z</time>
      </trkpt>
      <trkpt lat="47.22679" lon="-0.89905">
        <ele>87</ele>
        <time>2012-02-23T14:20:14Z</time>
      </trkpt>
      <trkpt lat="47.22679" lon="-0.89906">
        <ele>87</ele>
        <time>2012-02-23T14:20:15Z</time>
      </trkpt>
      <trkpt lat="47.22678" lon="-0.89908">
        <ele>87</ele>
        <time>2012-02-23T14:20:16Z</time>
      </trkpt>
      <trkpt lat="47.22678" lon="-0.8991">
        <ele>87</ele>
        <time>2012-02-23T14:20:17Z</time>
      </trkpt>
      <trkpt lat="47.22678" lon="-0.89912">
        <ele>87</ele>
        <time>2012-02-23T14:20:18Z</time>
      </trkpt>
      <trkpt lat="47.22678" lon="-0.89914">
        <ele>87</ele>
        <time>2012-02-23T14:20:20Z</time>
      </trkpt>
      <trkpt lat="47.22678" lon="-0.89916">
        <ele>88</ele>
        <time>2012-02-23T14:20:21Z</time>
      </trkpt>
      <trkpt lat="47.22677" lon="-0.89918">
        <ele>88</ele>
        <time>2012-02-23T14:20:22Z</time>
      </trkpt>
      <trkpt lat="47.22677" lon="-0.89921">
        <ele>88</ele>
        <time>2012-02-23T14:20:24Z</time>
      </trkpt>
      <trkpt lat="47.22677" lon="-0.89922">
        <ele>88</ele>
        <time>2012-02-23T14:20:25Z</time>
      </trkpt>
      <trkpt lat="47.22677" lon="-0.89924">
        <ele>88</ele>
        <time>2012-02-23T14:20:26Z</time>
      </trkpt>
      <trkpt lat="47.22677" lon="-0.89925">
        <ele>88</ele>
        <time>2012-02-23T14:20:27Z</time>
      </trkpt>
      <trkpt lat="47.22676" lon="-0.89928">
        <ele>88</ele>
        <time>2012-02-23T14:20:29Z</time>
      </trkpt>
      <trkpt lat="47.22676" lon="-0.8993">
        <ele>88</ele>
        <time>2012-02-23T14:20:30Z</time>
      </trkpt>
      <trkpt lat="47.22676" lon="-0.89932">
        <ele>88</ele>
        <time>2012-02-23T14:20:31Z</time>
      </trkpt>
      <trkpt lat="47.22676" lon="-0.89933">
        <ele>88</ele>
        <time>2012-02-23T14:20:32Z</time>
      </trkpt>
      <trkpt lat="47.22675" lon="-0.89937">
        <ele>89</ele>
        <time>2012-02-23T14:20:34Z</time>
      </trkpt>
      <trkpt lat="47.22675" lon="-0.89938">
        <ele>89</ele>
        <time>2012-02-23T14:20:35Z</time>
      </trkpt>
      <trkpt lat="47.22675" lon="-0.8994">
        <ele>89</ele>
        <time>2012-02-23T14:20:36Z</time>
      </trkpt>
      <trkpt lat="47.22675" lon="-0.89941">
        <ele>89</ele>
        <time>2012-02-23T14:20:37Z</time>
      </trkpt>
      <trkpt lat="47.22675" lon="-0.89943">
        <ele>89</ele>
        <time>2012-02-23T14:20:38Z</time>
      </trkpt>
      <trkpt lat="47.22674" lon="-0.89945">
        <ele>89</ele>
        <time>2012-02-23T14:20:39Z</time>
      </trkpt>
      <trkpt lat="47.22674" lon="-0.89947">
        <ele>89</ele>
        <time>2012-02-23T14:20:40Z</time>
      </trkpt>
      <trkpt lat="47.22673" lon="-0.89949">
        <ele>89</ele>
        <time>2012-02-23T14:20:42Z</time>
      </trkpt>
      <trkpt lat="47.22673" lon="-0.89951">
        <ele>89</ele>
        <time>2012-02-23T14:20:43Z</time>
      </trkpt>
      <trkpt lat="47.22673" lon="-0.89953">
        <ele>89</ele>
        <time>2012-02-23T14:20:44Z</time>
      </trkpt>
      <trkpt lat="47.22673" lon="-0.89954">
        <ele>89</ele>
        <time>2012-02-23T14:20:45Z</time>
      </trkpt>
      <trkpt lat="47.22673" lon="-0.89956">
        <ele>89</ele>
        <time>2012-02-23T14:20:46Z</time>
      </trkpt>
      <trkpt lat="47.22672" lon="-0.89958">
        <ele>89</ele>
        <time>2012-02-23T14:20:47Z</time>
      </trkpt>
      <trkpt lat="47.22672" lon="-0.8996">
        <ele>89</ele>
        <time>2012-02-23T14:20:48Z</time>
      </trkpt>
      <trkpt lat="47.22672" lon="-0.89961">
        <ele>89</ele>
        <time>2012-02-23T14:20:49Z</time>
      </trkpt>
      <trkpt lat="47.22672" lon="-0.89963">
        <ele>89</ele>
        <time>2012-02-23T14:20:50Z</time>
      </trkpt>
      <trkpt lat="47.22672" lon="-0.89964">
        <ele>89</ele>
        <time>2012-02-23T14:20:51Z</time>
      </trkpt>
      <trkpt lat="47.22671" lon="-0.89966">
        <ele>89</ele>
        <time>2012-02-23T14:20:52Z</time>
      </trkpt>
      <trkpt lat="47.22671" lon="-0.89968">
        <ele>89</ele>
        <time>2012-02-23T14:20:53Z</time>
      </trkpt>
      <trkpt lat="47.22671" lon="-0.89969">
        <ele>89</ele>
        <time>2012-02-23T14:20:54Z</time>
      </trkpt>
      <trkpt lat="47.2267" lon="-0.89971">
        <ele>89</ele>
        <time>2012-02-23T14:20:55Z</time>
      </trkpt>
      <trkpt lat="47.2267" lon="-0.89973">
        <ele>89</ele>
        <time>2012-02-23T14:20:56Z</time>
      </trkpt>
      <trkpt lat="47.2267" lon="-0.89974">
        <ele>90</ele>
        <time>2012-02-23T14:20:57Z</time>
      </trkpt>
      <trkpt lat="47.2267" lon="-0.89977">
        <ele>90</ele>
        <time>2012-02-23T14:20:59Z</time>
      </trkpt>
      <trkpt lat="47.22669" lon="-0.89979">
        <ele>90</ele>
        <time>2012-02-23T14:21:00Z</time>
      </trkpt>
      <trkpt lat="47.22669" lon="-0.89981">
        <ele>90</ele>
        <time>2012-02-23T14:21:01Z</time>
      </trkpt>
      <trkpt lat="47.22669" lon="-0.89983">
        <ele>90</ele>
        <time>2012-02-23T14:21:02Z</time>
      </trkpt>
      <trkpt lat="47.22669" lon="-0.89984">
        <ele>90</ele>
        <time>2012-02-23T14:21:03Z</time>
      </trkpt>
      <trkpt lat="47.22669" lon="-0.89986">
        <ele>90</ele>
        <time>2012-02-23T14:21:04Z</time>
      </trkpt>
      <trkpt lat="47.22668" lon="-0.89987">
        <ele>90</ele>
        <time>2012-02-23T14:21:05Z</time>
      </trkpt>
      <trkpt lat="47.22668" lon="-0.8999">
        <ele>90</ele>
        <time>2012-02-23T14:21:07Z</time>
      </trkpt>
      <trkpt lat="47.22667" lon="-0.89992">
        <ele>90</ele>
        <time>2012-02-23T14:21:08Z</time>
      </trkpt>
      <trkpt lat="47.22667" lon="-0.89994">
        <ele>90</ele>
        <time>2012-02-23T14:21:09Z</time>
      </trkpt>
      <trkpt lat="47.22667" lon="-0.89995">
        <ele>90</ele>
        <time>2012-02-23T14:21:10Z</time>
      </trkpt>
      <trkpt lat="47.22667" lon="-0.89997">
        <ele>90</ele>
        <time>2012-02-23T14:21:11Z</time>
      </trkpt>
      <trkpt lat="47.22667" lon="-0.9">
        <ele>90</ele>
        <time>2012-02-23T14:21:13Z</time>
      </trkpt>
      <trkpt lat="47.22667" lon="-0.90002">
        <ele>90</ele>
        <time>2012-02-23T14:21:14Z</time>
      </trkpt>
      <trkpt lat="47.22666" lon="-0.90004">
        <ele>90</ele>
        <time>2012-02-23T14:21:15Z</time>
      </trkpt>
      <trkpt lat="47.22666" lon="-0.90005">
        <ele>90</ele>
        <time>2012-02-23T14:21:16Z</time>
      </trkpt>
      <trkpt lat="47.22665" lon="-0.90008">
        <ele>90</ele>
        <time>2012-02-23T14:21:18Z</time>
      </trkpt>
      <trkpt lat="47.22665" lon="-0.9001">
        <ele>90</ele>
        <time>2012-02-23T14:21:19Z</time>
      </trkpt>
      <trkpt lat="47.22665" lon="-0.90012">
        <ele>90</ele>
        <time>2012-02-23T14:21:20Z</time>
      </trkpt>
      <trkpt lat="47.22665" lon="-0.90013">
        <ele>90</ele>
        <time>2012-02-23T14:21:21Z</time>
      </trkpt>
      <trkpt lat="47.22665" lon="-0.90015">
        <ele>91</ele>
        <time>2012-02-23T14:21:22Z</time>
      </trkpt>
      <trkpt lat="47.22665" lon="-0.90017">
        <ele>91</ele>
        <time>2012-02-23T14:21:23Z</time>
      </trkpt>
      <trkpt lat="47.22664" lon="-0.90019">
        <ele>91</ele>
        <time>2012-02-23T14:21:24Z</time>
      </trkpt>
      <trkpt lat="47.22664" lon="-0.9002">
        <ele>91</ele>
        <time>2012-02-23T14:21:25Z</time>
      </trkpt>
      <trkpt lat="47.22664" lon="-0.90022">
        <ele>91</ele>
        <time>2012-02-23T14:21:26Z</time>
      </trkpt>
      <trkpt lat="47.22664" lon="-0.90023">
        <ele>91</ele>
        <time>2012-02-23T14:21:27Z</time>
      </trkpt>
      <trkpt lat="47.22663" lon="-0.90025">
        <ele>91</ele>
        <time>2012-02-23T14:21:28Z</time>
      </trkpt>
      <trkpt lat="47.22663" lon="-0.90027">
        <ele>91</ele>
        <time>2012-02-23T14:21:29Z</time>
      </trkpt>
      <trkpt lat="47.22663" lon="-0.90029">
        <ele>91</ele>
        <time>2012-02-23T14:21:30Z</time>
      </trkpt>
      <trkpt lat="47.22663" lon="-0.90031">
        <ele>91</ele>
        <time>2012-02-23T14:21:31Z</time>
      </trkpt>
      <trkpt lat="47.22662" lon="-0.90032">
        <ele>91</ele>
        <time>2012-02-23T14:21:32Z</time>
      </trkpt>
      <trkpt lat="47.22662" lon="-0.90034">
        <ele>91</ele>
        <time>2012-02-23T14:21:33Z</time>
      </trkpt>
      <trkpt lat="47.22662" lon="-0.90036">
        <ele>91</ele>
        <time>2012-02-23T14:21:34Z</time>
      </trkpt>
      <trkpt lat="47.22662" lon="-0.90038">
        <ele>91</ele>
        <time>2012-02-23T14:21:35Z</time>
      </trkpt>
      <trkpt lat="47.22662" lon="-0.90039">
        <ele>91</ele>
        <time>2012-02-23T14:21:36Z</time>
      </trkpt>
      <trkpt lat="47.22661" lon="-0.90041">
        <ele>91</ele>
        <time>2012-02-23T14:21:37Z</time>
      </trkpt>
      <trkpt lat="47.22661" lon="-0.90042">
        <ele>91</ele>
        <time>2012-02-23T14:21:38Z</time>
      </trkpt>
      <trkpt lat="47.22661" lon="-0.90044">
        <ele>91</ele>
        <time>2012-02-23T14:21:39Z</time>
      </trkpt>
      <trkpt lat="47.2266" lon="-0.90046">
        <ele>91</ele>
        <time>2012-02-23T14:21:40Z</time>
      </trkpt>
      <trkpt lat="47.2266" lon="-0.90047">
        <ele>91</ele>
        <time>2012-02-23T14:21:41Z</time>
      </trkpt>
      <trkpt lat="47.2266" lon="-0.90049">
        <ele>91</ele>
        <time>2012-02-23T14:21:42Z</time>
      </trkpt>
      <trkpt lat="47.2266" lon="-0.90051">
        <ele>92</ele>
        <time>2012-02-23T14:21:43Z</time>
      </trkpt>
      <trkpt lat="47.22659" lon="-0.90052">
        <ele>92</ele>
        <time>2012-02-23T14:21:44Z</time>
      </trkpt>
      <trkpt lat="47.22659" lon="-0.90054">
        <ele>92</ele>
        <time>2012-02-23T14:21:45Z</time>
      </trkpt>
      <trkpt lat="47.22659" lon="-0.90056">
        <ele>92</ele>
        <time>2012-02-23T14:21:46Z</time>
      </trkpt>
      <trkpt lat="47.22658" lon="-0.90057">
        <ele>92</ele>
        <time>2012-02-23T14:21:47Z</time>
      </trkpt>
      <trkpt lat="47.22658" lon="-0.90059">
        <ele>92</ele>
        <time>2012-02-23T14:21:48Z</time>
      </trkpt>
      <trkpt lat="47.22658" lon="-0.90061">
        <ele>92</ele>
        <time>2012-02-23T14:21:49Z</time>
      </trkpt>
      <trkpt lat="47.22657" lon="-0.90062">
        <ele>92</ele>
        <time>2012-02-23T14:21:50Z</time>
      </trkpt>
      <trkpt lat="47.22657" lon="-0.90065">
        <ele>92</ele>
        <time>2012-02-23T14:21:52Z</time>
      </trkpt>
      <trkpt lat="47.22657" lon="-0.90067">
        <ele>92</ele>
        <time>2012-02-23T14:21:53Z</time>
      </trkpt>
      <trkpt lat="47.22656" lon="-0.90069">
        <ele>92</ele>
        <time>2012-02-23T14:21:54Z</time>
      </trkpt>
      <trkpt lat="47.22656" lon="-0.9007">
        <ele>92</ele>
        <time>2012-02-23T14:21:55Z</time>
      </trkpt>
      <trkpt lat="47.22655" lon="-0.90073">
        <ele>93</ele>
        <time>2012-02-23T14:21:57Z</time>
      </trkpt>
      <trkpt lat="47.22655" lon="-0.90075">
        <ele>93</ele>
        <time>2012-02-23T14:21:58Z</time>
      </trkpt>
      <trkpt lat="47.22654" lon="-0.90077">
        <ele>93</ele>
        <time>2012-02-23T14:21:59Z</time>
      </trkpt>
      <trkpt lat="47.22654" lon="-0.90078">
        <ele>93</ele>
        <time>2012-02-23T14:22:00Z</time>
      </trkpt>
      <trkpt lat="47.22653" lon="-0.90081">
        <ele>93</ele>
        <time>2012-02-23T14:22:02Z</time>
      </trkpt>
      <trkpt lat="47.22653" lon="-0.90083">
        <ele>93</ele>
        <time>2012-02-23T14:22:03Z</time>
      </trkpt>
      <trkpt lat="47.22652" lon="-0.90084">
        <ele>93</ele>
        <time>2012-02-23T14:22:04Z</time>
      </trkpt>
      <trkpt lat="47.22652" lon="-0.90086">
        <ele>93</ele>
        <time>2012-02-23T14:22:05Z</time>
      </trkpt>
      <trkpt lat="47.22651" lon="-0.90089">
        <ele>93</ele>
        <time>2012-02-23T14:22:07Z</time>
      </trkpt>
      <trkpt lat="47.22651" lon="-0.9009">
        <ele>93</ele>
        <time>2012-02-23T14:22:08Z</time>
      </trkpt>
      <trkpt lat="47.2265" lon="-0.90092">
        <ele>93</ele>
        <time>2012-02-23T14:22:09Z</time>
      </trkpt>
      <trkpt lat="47.22649" lon="-0.90095">
        <ele>93</ele>
        <time>2012-02-23T14:22:11Z</time>
      </trkpt>
      <trkpt lat="47.22649" lon="-0.90096">
        <ele>93</ele>
        <time>2012-02-23T14:22:12Z</time>
      </trkpt>
      <trkpt lat="47.22648" lon="-0.90098">
        <ele>93</ele>
        <time>2012-02-23T14:22:13Z</time>
      </trkpt>
      <trkpt lat="47.22647" lon="-0.90101">
        <ele>93</ele>
        <time>2012-02-23T14:22:15Z</time>
      </trkpt>
      <trkpt lat="47.22647" lon="-0.90102">
        <ele>93</ele>
        <time>2012-02-23T14:22:16Z</time>
      </trkpt>
      <trkpt lat="47.22646" lon="-0.90105">
        <ele>93</ele>
        <time>2012-02-23T14:22:18Z</time>
      </trkpt>
      <trkpt lat="47.22645" lon="-0.90106">
        <ele>93</ele>
        <time>2012-02-23T14:22:19Z</time>
      </trkpt>
      <trkpt lat="47.22644" lon="-0.90109">
        <ele>93</ele>
        <time>2012-02-23T14:22:21Z</time>
      </trkpt>
      <trkpt lat="47.22643" lon="-0.90111">
        <ele>93</ele>
        <time>2012-02-23T14:22:23Z</time>
      </trkpt>
      <trkpt lat="47.22641" lon="-0.90113">
        <ele>93</ele>
        <time>2012-02-23T14:22:24Z</time>
      </trkpt>
      <trkpt lat="47.22641" lon="-0.90114">
        <ele>93</ele>
        <time>2012-02-23T14:22:25Z</time>
      </trkpt>
      <trkpt lat="47.22641" lon="-0.90116">
        <ele>93</ele>
        <time>2012-02-23T14:22:26Z</time>
      </trkpt>
      <trkpt lat="47.2264" lon="-0.90118">
        <ele>93</ele>
        <time>2012-02-23T14:22:27Z</time>
      </trkpt>
      <trkpt lat="47.2264" lon="-0.90119">
        <ele>93</ele>
        <time>2012-02-23T14:22:28Z</time>
      </trkpt>
      <trkpt lat="47.22639" lon="-0.90121">
        <ele>93</ele>
        <time>2012-02-23T14:22:29Z</time>
      </trkpt>
      <trkpt lat="47.22638" lon="-0.90124">
        <ele>93</ele>
        <time>2012-02-23T14:22:31Z</time>
      </trkpt>
      <trkpt lat="47.22637" lon="-0.90126">
        <ele>93</ele>
        <time>2012-02-23T14:22:32Z</time>
      </trkpt>
      <trkpt lat="47.22637" lon="-0.90127">
        <ele>93</ele>
        <time>2012-02-23T14:22:33Z</time>
      </trkpt>
      <trkpt lat="47.22636" lon="-0.90129">
        <ele>93</ele>
        <time>2012-02-23T14:22:34Z</time>
      </trkpt>
      <trkpt lat="47.22636" lon="-0.90131">
        <ele>93</ele>
        <time>2012-02-23T14:22:35Z</time>
      </trkpt>
      <trkpt lat="47.22635" lon="-0.90133">
        <ele>93</ele>
        <time>2012-02-23T14:22:36Z</time>
      </trkpt>
      <trkpt lat="47.22635" lon="-0.90134">
        <ele>93</ele>
        <time>2012-02-23T14:22:37Z</time>
      </trkpt>
      <trkpt lat="47.22634" lon="-0.90136">
        <ele>93</ele>
        <time>2012-02-23T14:22:38Z</time>
      </trkpt>
      <trkpt lat="47.22633" lon="-0.90138">
        <ele>93</ele>
        <time>2012-02-23T14:22:39Z</time>
      </trkpt>
      <trkpt lat="47.22633" lon="-0.9014">
        <ele>93</ele>
        <time>2012-02-23T14:22:40Z</time>
      </trkpt>
      <trkpt lat="47.22633" lon="-0.90141">
        <ele>93</ele>
        <time>2012-02-23T14:22:41Z</time>
      </trkpt>
      <trkpt lat="47.22632" lon="-0.90143">
        <ele>93</ele>
        <time>2012-02-23T14:22:42Z</time>
      </trkpt>
      <trkpt lat="47.22631" lon="-0.90145">
        <ele>93</ele>
        <time>2012-02-23T14:22:43Z</time>
      </trkpt>
      <trkpt lat="47.22631" lon="-0.90147">
        <ele>94</ele>
        <time>2012-02-23T14:22:44Z</time>
      </trkpt>
      <trkpt lat="47.2263" lon="-0.90149">
        <ele>94</ele>
        <time>2012-02-23T14:22:45Z</time>
      </trkpt>
      <trkpt lat="47.2263" lon="-0.9015">
        <ele>94</ele>
        <time>2012-02-23T14:22:46Z</time>
      </trkpt>
      <trkpt lat="47.2263" lon="-0.90152">
        <ele>94</ele>
        <time>2012-02-23T14:22:47Z</time>
      </trkpt>
      <trkpt lat="47.2263" lon="-0.90154">
        <ele>94</ele>
        <time>2012-02-23T14:22:48Z</time>
      </trkpt>
      <trkpt lat="47.22629" lon="-0.90156">
        <ele>94</ele>
        <time>2012-02-23T14:22:49Z</time>
      </trkpt>
      <trkpt lat="47.22629" lon="-0.90158">
        <ele>94</ele>
        <time>2012-02-23T14:22:50Z</time>
      </trkpt>
      <trkpt lat="47.22629" lon="-0.9016">
        <ele>94</ele>
        <time>2012-02-23T14:22:51Z</time>
      </trkpt>
      <trkpt lat="47.22628" lon="-0.90162">
        <ele>94</ele>
        <time>2012-02-23T14:22:52Z</time>
      </trkpt>
      <trkpt lat="47.22628" lon="-0.90163">
        <ele>94</ele>
        <time>2012-02-23T14:22:53Z</time>
      </trkpt>
      <trkpt lat="47.22628" lon="-0.90165">
        <ele>94</ele>
        <time>2012-02-23T14:22:54Z</time>
      </trkpt>
      <trkpt lat="47.22628" lon="-0.90167">
        <ele>94</ele>
        <time>2012-02-23T14:22:55Z</time>
      </trkpt>
      <trkpt lat="47.22628" lon="-0.90169">
        <ele>94</ele>
        <time>2012-02-23T14:22:56Z</time>
      </trkpt>
      <trkpt lat="47.22627" lon="-0.90171">
        <ele>94</ele>
        <time>2012-02-23T14:22:57Z</time>
      </trkpt>
      <trkpt lat="47.22627" lon="-0.90173">
        <ele>94</ele>
        <time>2012-02-23T14:22:58Z</time>
      </trkpt>
      <trkpt lat="47.22627" lon="-0.90175">
        <ele>94</ele>
        <time>2012-02-23T14:22:59Z</time>
      </trkpt>
      <trkpt lat="47.22626" lon="-0.90176">
        <ele>94</ele>
        <time>2012-02-23T14:23:00Z</time>
      </trkpt>
      <trkpt lat="47.22626" lon="-0.90178">
        <ele>94</ele>
        <time>2012-02-23T14:23:01Z</time>
      </trkpt>
      <trkpt lat="47.22626" lon="-0.9018">
        <ele>94</ele>
        <time>2012-02-23T14:23:02Z</time>
      </trkpt>
      <trkpt lat="47.22625" lon="-0.90182">
        <ele>94</ele>
        <time>2012-02-23T14:23:03Z</time>
      </trkpt>
      <trkpt lat="47.22625" lon="-0.90184">
        <ele>94</ele>
        <time>2012-02-23T14:23:04Z</time>
      </trkpt>
      <trkpt lat="47.22625" lon="-0.90186">
        <ele>94</ele>
        <time>2012-02-23T14:23:05Z</time>
      </trkpt>
      <trkpt lat="47.22625" lon="-0.90188">
        <ele>94</ele>
        <time>2012-02-23T14:23:06Z</time>
      </trkpt>
      <trkpt lat="47.22625" lon="-0.90189">
        <ele>94</ele>
        <time>2012-02-23T14:23:07Z</time>
      </trkpt>
      <trkpt lat="47.22626" lon="-0.90191">
        <ele>94</ele>
        <time>2012-02-23T14:23:08Z</time>
      </trkpt>
      <trkpt lat="47.22626" lon="-0.90193">
        <ele>94</ele>
        <time>2012-02-23T14:23:09Z</time>
      </trkpt>
      <trkpt lat="47.22626" lon="-0.90195">
        <ele>94</ele>
        <time>2012-02-23T14:23:10Z</time>
      </trkpt>
      <trkpt lat="47.22626" lon="-0.90197">
        <ele>94</ele>
        <time>2012-02-23T14:23:11Z</time>
      </trkpt>
      <trkpt lat="47.22626" lon="-0.90198">
        <ele>94</ele>
        <time>2012-02-23T14:23:12Z</time>
      </trkpt>
      <trkpt lat="47.22626" lon="-0.902">
        <ele>94</ele>
        <time>2012-02-23T14:23:13Z</time>
      </trkpt>
      <trkpt lat="47.22626" lon="-0.90202">
        <ele>94</ele>
        <time>2012-02-23T14:23:14Z</time>
      </trkpt>
      <trkpt lat="47.22626" lon="-0.90203">
        <ele>94</ele>
        <time>2012-02-23T14:23:15Z</time>
      </trkpt>
      <trkpt lat="47.22626" lon="-0.90205">
        <ele>94</ele>
        <time>2012-02-23T14:23:16Z</time>
      </trkpt>
      <trkpt lat="47.22626" lon="-0.90207">
        <ele>94</ele>
        <time>2012-02-23T14:23:17Z</time>
      </trkpt>
      <trkpt lat="47.22626" lon="-0.90209">
        <ele>94</ele>
        <time>2012-02-23T14:23:18Z</time>
      </trkpt>
      <trkpt lat="47.22626" lon="-0.9021">
        <ele>94</ele>
        <time>2012-02-23T14:23:19Z</time>
      </trkpt>
      <trkpt lat="47.22626" lon="-0.90212">
        <ele>94</ele>
        <time>2012-02-23T14:23:20Z</time>
      </trkpt>
      <trkpt lat="47.22626" lon="-0.90214">
        <ele>94</ele>
        <time>2012-02-23T14:23:21Z</time>
      </trkpt>
      <trkpt lat="47.22626" lon="-0.90215">
        <ele>94</ele>
        <time>2012-02-23T14:23:22Z</time>
      </trkpt>
      <trkpt lat="47.22626" lon="-0.90218">
        <ele>94</ele>
        <time>2012-02-23T14:23:23Z</time>
      </trkpt>
      <trkpt lat="47.22626" lon="-0.90219">
        <ele>94</ele>
        <time>2012-02-23T14:23:24Z</time>
      </trkpt>
      <trkpt lat="47.22626" lon="-0.90221">
        <ele>94</ele>
        <time>2012-02-23T14:23:25Z</time>
      </trkpt>
      <trkpt lat="47.22626" lon="-0.90223">
        <ele>94</ele>
        <time>2012-02-23T14:23:26Z</time>
      </trkpt>
      <trkpt lat="47.22626" lon="-0.90225">
        <ele>94</ele>
        <time>2012-02-23T14:23:27Z</time>
      </trkpt>
      <trkpt lat="47.22626" lon="-0.90226">
        <ele>94</ele>
        <time>2012-02-23T14:23:28Z</time>
      </trkpt>
      <trkpt lat="47.22626" lon="-0.90228">
        <ele>94</ele>
        <time>2012-02-23T14:23:29Z</time>
      </trkpt>
      <trkpt lat="47.22626" lon="-0.9023">
        <ele>94</ele>
        <time>2012-02-23T14:23:30Z</time>
      </trkpt>
      <trkpt lat="47.22626" lon="-0.90232">
        <ele>94</ele>
        <time>2012-02-23T14:23:31Z</time>
      </trkpt>
      <trkpt lat="47.22626" lon="-0.90234">
        <ele>94</ele>
        <time>2012-02-23T14:23:32Z</time>
      </trkpt>
      <trkpt lat="47.22626" lon="-0.90236">
        <ele>94</ele>
        <time>2012-02-23T14:23:33Z</time>
      </trkpt>
      <trkpt lat="47.22626" lon="-0.90237">
        <ele>94</ele>
        <time>2012-02-23T14:23:34Z</time>
      </trkpt>
      <trkpt lat="47.22626" lon="-0.90239">
        <ele>94</ele>
        <time>2012-02-23T14:23:35Z</time>
      </trkpt>
      <trkpt lat="47.22626" lon="-0.90241">
        <ele>94</ele>
        <time>2012-02-23T14:23:36Z</time>
      </trkpt>
      <trkpt lat="47.22626" lon="-0.90243">
        <ele>94</ele>
        <time>2012-02-23T14:23:37Z</time>
      </trkpt>
      <trkpt lat="47.22627" lon="-0.90245">
        <ele>94</ele>
        <time>2012-02-23T14:23:38Z</time>
      </trkpt>
      <trkpt lat="47.22627" lon="-0.90247">
        <ele>94</ele>
        <time>2012-02-23T14:23:39Z</time>
      </trkpt>
      <trkpt lat="47.22627" lon="-0.90249">
        <ele>94</ele>
        <time>2012-02-23T14:23:40Z</time>
      </trkpt>
      <trkpt lat="47.22627" lon="-0.9025">
        <ele>94</ele>
        <time>2012-02-23T14:23:41Z</time>
      </trkpt>
      <trkpt lat="47.22627" lon="-0.90252">
        <ele>94</ele>
        <time>2012-02-23T14:23:42Z</time>
      </trkpt>
      <trkpt lat="47.22627" lon="-0.90254">
        <ele>94</ele>
        <time>2012-02-23T14:23:43Z</time>
      </trkpt>
      <trkpt lat="47.22627" lon="-0.90256">
        <ele>94</ele>
        <time>2012-02-23T14:23:44Z</time>
      </trkpt>
      <trkpt lat="47.22627" lon="-0.90258">
        <ele>94</ele>
        <time>2012-02-23T14:23:45Z</time>
      </trkpt>
      <trkpt lat="47.22627" lon="-0.90259">
        <ele>94</ele>
        <time>2012-02-23T14:23:46Z</time>
      </trkpt>
      <trkpt lat="47.22627" lon="-0.90262">
        <ele>94</ele>
        <time>2012-02-23T14:23:47Z</time>
      </trkpt>
      <trkpt lat="47.22628" lon="-0.90263">
        <ele>94</ele>
        <time>2012-02-23T14:23:48Z</time>
      </trkpt>
      <trkpt lat="47.22628" lon="-0.90265">
        <ele>94</ele>
        <time>2012-02-23T14:23:49Z</time>
      </trkpt>
      <trkpt lat="47.22628" lon="-0.90267">
        <ele>94</ele>
        <time>2012-02-23T14:23:50Z</time>
      </trkpt>
      <trkpt lat="47.22628" lon="-0.90269">
        <ele>94</ele>
        <time>2012-02-23T14:23:51Z</time>
      </trkpt>
      <trkpt lat="47.22628" lon="-0.90271">
        <ele>94</ele>
        <time>2012-02-23T14:23:52Z</time>
      </trkpt>
      <trkpt lat="47.22628" lon="-0.90272">
        <ele>94</ele>
        <time>2012-02-23T14:23:53Z</time>
      </trkpt>
      <trkpt lat="47.22627" lon="-0.90274">
        <ele>94</ele>
        <time>2012-02-23T14:23:54Z</time>
      </trkpt>
      <trkpt lat="47.22627" lon="-0.90276">
        <ele>94</ele>
        <time>2012-02-23T14:23:55Z</time>
      </trkpt>
      <trkpt lat="47.22627" lon="-0.90278">
        <ele>94</ele>
        <time>2012-02-23T14:23:56Z</time>
      </trkpt>
      <trkpt lat="47.22627" lon="-0.9028">
        <ele>94</ele>
        <time>2012-02-23T14:23:57Z</time>
      </trkpt>
      <trkpt lat="47.22627" lon="-0.90281">
        <ele>94</ele>
        <time>2012-02-23T14:23:58Z</time>
      </trkpt>
      <trkpt lat="47.22627" lon="-0.90283">
        <ele>94</ele>
        <time>2012-02-23T14:23:59Z</time>
      </trkpt>
      <trkpt lat="47.22628" lon="-0.90285">
        <ele>94</ele>
        <time>2012-02-23T14:24:00Z</time>
      </trkpt>
      <trkpt lat="47.22628" lon="-0.90287">
        <ele>94</ele>
        <time>2012-02-23T14:24:01Z</time>
      </trkpt>
      <trkpt lat="47.22628" lon="-0.90289">
        <ele>94</ele>
        <time>2012-02-23T14:24:02Z</time>
      </trkpt>
      <trkpt lat="47.22628" lon="-0.9029">
        <ele>94</ele>
        <time>2012-02-23T14:24:03Z</time>
      </trkpt>
      <trkpt lat="47.22628" lon="-0.90292">
        <ele>94</ele>
        <time>2012-02-23T14:24:04Z</time>
      </trkpt>
      <trkpt lat="47.22628" lon="-0.90294">
        <ele>94</ele>
        <time>2012-02-23T14:24:05Z</time>
      </trkpt>
      <trkpt lat="47.22628" lon="-0.90296">
        <ele>94</ele>
        <time>2012-02-23T14:24:06Z</time>
      </trkpt>
      <trkpt lat="47.22628" lon="-0.90298">
        <ele>94</ele>
        <time>2012-02-23T14:24:07Z</time>
      </trkpt>
      <trkpt lat="47.22628" lon="-0.903">
        <ele>94</ele>
        <time>2012-02-23T14:24:08Z</time>
      </trkpt>
      <trkpt lat="47.22628" lon="-0.90302">
        <ele>94</ele>
        <time>2012-02-23T14:24:09Z</time>
      </trkpt>
      <trkpt lat="47.22628" lon="-0.90303">
        <ele>94</ele>
        <time>2012-02-23T14:24:10Z</time>
      </trkpt>
      <trkpt lat="47.22628" lon="-0.90305">
        <ele>94</ele>
        <time>2012-02-23T14:24:11Z</time>
      </trkpt>
      <trkpt lat="47.22628" lon="-0.90307">
        <ele>94</ele>
        <time>2012-02-23T14:24:12Z</time>
      </trkpt>
      <trkpt lat="47.22628" lon="-0.90309">
        <ele>94</ele>
        <time>2012-02-23T14:24:13Z</time>
      </trkpt>
      <trkpt lat="47.22628" lon="-0.90311">
        <ele>94</ele>
        <time>2012-02-23T14:24:14Z</time>
      </trkpt>
      <trkpt lat="47.22628" lon="-0.90313">
        <ele>94</ele>
        <time>2012-02-23T14:24:15Z</time>
      </trkpt>
      <trkpt lat="47.22628" lon="-0.90315">
        <ele>94</ele>
        <time>2012-02-23T14:24:16Z</time>
      </trkpt>
      <trkpt lat="47.22628" lon="-0.90316">
        <ele>94</ele>
        <time>2012-02-23T14:24:17Z</time>
      </trkpt>
      <trkpt lat="47.22628" lon="-0.90318">
        <ele>94</ele>
        <time>2012-02-23T14:24:18Z</time>
      </trkpt>
      <trkpt lat="47.22628" lon="-0.9032">
        <ele>94</ele>
        <time>2012-02-23T14:24:19Z</time>
      </trkpt>
      <trkpt lat="47.22628" lon="-0.90322">
        <ele>94</ele>
        <time>2012-02-23T14:24:20Z</time>
      </trkpt>
      <trkpt lat="47.22628" lon="-0.90324">
        <ele>94</ele>
        <time>2012-02-23T14:24:21Z</time>
      </trkpt>
      <trkpt lat="47.22628" lon="-0.90326">
        <ele>94</ele>
        <time>2012-02-23T14:24:22Z</time>
      </trkpt>
      <trkpt lat="47.22628" lon="-0.90327">
        <ele>94</ele>
        <time>2012-02-23T14:24:23Z</time>
      </trkpt>
      <trkpt lat="47.22628" lon="-0.90329">
        <ele>94</ele>
        <time>2012-02-23T14:24:24Z</time>
      </trkpt>
      <trkpt lat="47.22628" lon="-0.90331">
        <ele>94</ele>
        <time>2012-02-23T14:24:25Z</time>
      </trkpt>
      <trkpt lat="47.22628" lon="-0.90333">
        <ele>94</ele>
        <time>2012-02-23T14:24:26Z</time>
      </trkpt>
      <trkpt lat="47.22628" lon="-0.90335">
        <ele>94</ele>
        <time>2012-02-23T14:24:27Z</time>
      </trkpt>
      <trkpt lat="47.22628" lon="-0.90336">
        <ele>94</ele>
        <time>2012-02-23T14:24:28Z</time>
      </trkpt>
      <trkpt lat="47.22628" lon="-0.90338">
        <ele>94</ele>
        <time>2012-02-23T14:24:29Z</time>
      </trkpt>
      <trkpt lat="47.22628" lon="-0.9034">
        <ele>94</ele>
        <time>2012-02-23T14:24:30Z</time>
      </trkpt>
      <trkpt lat="47.22628" lon="-0.90342">
        <ele>94</ele>
        <time>2012-02-23T14:24:31Z</time>
      </trkpt>
      <trkpt lat="47.22628" lon="-0.90344">
        <ele>94</ele>
        <time>2012-02-23T14:24:32Z</time>
      </trkpt>
      <trkpt lat="47.22628" lon="-0.90346">
        <ele>94</ele>
        <time>2012-02-23T14:24:33Z</time>
      </trkpt>
      <trkpt lat="47.22628" lon="-0.90347">
        <ele>94</ele>
        <time>2012-02-23T14:24:34Z</time>
      </trkpt>
      <trkpt lat="47.22628" lon="-0.90349">
        <ele>94</ele>
        <time>2012-02-23T14:24:35Z</time>
      </trkpt>
      <trkpt lat="47.22628" lon="-0.90351">
        <ele>94</ele>
        <time>2012-02-23T14:24:36Z</time>
      </trkpt>
      <trkpt lat="47.22628" lon="-0.90352">
        <ele>94</ele>
        <time>2012-02-23T14:24:37Z</time>
      </trkpt>
      <trkpt lat="47.22628" lon="-0.90354">
        <ele>94</ele>
        <time>2012-02-23T14:24:38Z</time>
      </trkpt>
      <trkpt lat="47.22628" lon="-0.90356">
        <ele>94</ele>
        <time>2012-02-23T14:24:39Z</time>
      </trkpt>
      <trkpt lat="47.22628" lon="-0.90358">
        <ele>94</ele>
        <time>2012-02-23T14:24:40Z</time>
      </trkpt>
      <trkpt lat="47.22628" lon="-0.9036">
        <ele>94</ele>
        <time>2012-02-23T14:24:41Z</time>
      </trkpt>
      <trkpt lat="47.22628" lon="-0.90361">
        <ele>94</ele>
        <time>2012-02-23T14:24:42Z</time>
      </trkpt>
      <trkpt lat="47.22628" lon="-0.90363">
        <ele>94</ele>
        <time>2012-02-23T14:24:43Z</time>
      </trkpt>
      <trkpt lat="47.22628" lon="-0.90365">
        <ele>94</ele>
        <time>2012-02-23T14:24:44Z</time>
      </trkpt>
      <trkpt lat="47.22628" lon="-0.90367">
        <ele>94</ele>
        <time>2012-02-23T14:24:45Z</time>
      </trkpt>
      <trkpt lat="47.22628" lon="-0.90369">
        <ele>94</ele>
        <time>2012-02-23T14:24:46Z</time>
      </trkpt>
      <trkpt lat="47.22628" lon="-0.90371">
        <ele>94</ele>
        <time>2012-02-23T14:24:47Z</time>
      </trkpt>
      <trkpt lat="47.22628" lon="-0.90372">
        <ele>94</ele>
        <time>2012-02-23T14:24:48Z</time>
      </trkpt>
      <trkpt lat="47.22628" lon="-0.90374">
        <ele>94</ele>
        <time>2012-02-23T14:24:49Z</time>
      </trkpt>
      <trkpt lat="47.22628" lon="-0.90376">
        <ele>94</ele>
        <time>2012-02-23T14:24:50Z</time>
      </trkpt>
      <trkpt lat="47.22628" lon="-0.90378">
        <ele>94</ele>
        <time>2012-02-23T14:24:51Z</time>
      </trkpt>
      <trkpt lat="47.22628" lon="-0.90379">
        <ele>94</ele>
        <time>2012-02-23T14:24:52Z</time>
      </trkpt>
      <trkpt lat="47.22628" lon="-0.90381">
        <ele>94</ele>
        <time>2012-02-23T14:24:53Z</time>
      </trkpt>
      <trkpt lat="47.22628" lon="-0.90383">
        <ele>94</ele>
        <time>2012-02-23T14:24:54Z</time>
      </trkpt>
      <trkpt lat="47.22628" lon="-0.90384">
        <ele>94</ele>
        <time>2012-02-23T14:24:55Z</time>
      </trkpt>
      <trkpt lat="47.22628" lon="-0.90386">
        <ele>94</ele>
        <time>2012-02-23T14:24:56Z</time>
      </trkpt>
      <trkpt lat="47.22628" lon="-0.90388">
        <ele>94</ele>
        <time>2012-02-23T14:24:57Z</time>
      </trkpt>
      <trkpt lat="47.22628" lon="-0.9039">
        <ele>94</ele>
        <time>2012-02-23T14:24:58Z</time>
      </trkpt>
      <trkpt lat="47.22627" lon="-0.90391">
        <ele>94</ele>
        <time>2012-02-23T14:24:59Z</time>
      </trkpt>
      <trkpt lat="47.22627" lon="-0.90393">
        <ele>94</ele>
        <time>2012-02-23T14:25:00Z</time>
      </trkpt>
      <trkpt lat="47.22627" lon="-0.90394">
        <ele>94</ele>
        <time>2012-02-23T14:25:01Z</time>
      </trkpt>
      <trkpt lat="47.22627" lon="-0.90396">
        <ele>94</ele>
        <time>2012-02-23T14:25:02Z</time>
      </trkpt>
      <trkpt lat="47.22627" lon="-0.90398">
        <ele>94</ele>
        <time>2012-02-23T14:25:03Z</time>
      </trkpt>
      <trkpt lat="47.22626" lon="-0.90399">
        <ele>94</ele>
        <time>2012-02-23T14:25:04Z</time>
      </trkpt>
      <trkpt lat="47.22626" lon="-0.90401">
        <ele>94</ele>
        <time>2012-02-23T14:25:05Z</time>
      </trkpt>
      <trkpt lat="47.22626" lon="-0.90403">
        <ele>94</ele>
        <time>2012-02-23T14:25:06Z</time>
      </trkpt>
      <trkpt lat="47.22626" lon="-0.90404">
        <ele>94</ele>
        <time>2012-02-23T14:25:07Z</time>
      </trkpt>
      <trkpt lat="47.22625" lon="-0.90406">
        <ele>94</ele>
        <time>2012-02-23T14:25:08Z</time>
      </trkpt>
      <trkpt lat="47.22625" lon="-0.90408">
        <ele>94</ele>
        <time>2012-02-23T14:25:09Z</time>
      </trkpt>
      <trkpt lat="47.22625" lon="-0.9041">
        <ele>94</ele>
        <time>2012-02-23T14:25:10Z</time>
      </trkpt>
      <trkpt lat="47.22625" lon="-0.90411">
        <ele>94</ele>
        <time>2012-02-23T14:25:11Z</time>
      </trkpt>
      <trkpt lat="47.22624" lon="-0.90413">
        <ele>94</ele>
        <time>2012-02-23T14:25:12Z</time>
      </trkpt>
      <trkpt lat="47.22623" lon="-0.90414">
        <ele>94</ele>
        <time>2012-02-23T14:25:13Z</time>
      </trkpt>
      <trkpt lat="47.22622" lon="-0.90417">
        <ele>94</ele>
        <time>2012-02-23T14:25:15Z</time>
      </trkpt>
      <trkpt lat="47.22621" lon="-0.9042">
        <ele>94</ele>
        <time>2012-02-23T14:25:17Z</time>
      </trkpt>
      <trkpt lat="47.22621" lon="-0.90421">
        <ele>94</ele>
        <time>2012-02-23T14:25:18Z</time>
      </trkpt>
      <trkpt lat="47.22621" lon="-0.90424">
        <ele>94</ele>
        <time>2012-02-23T14:25:19Z</time>
      </trkpt>
      <trkpt lat="47.2262" lon="-0.90425">
        <ele>94</ele>
        <time>2012-02-23T14:25:20Z</time>
      </trkpt>
      <trkpt lat="47.2262" lon="-0.90427">
        <ele>94</ele>
        <time>2012-02-23T14:25:21Z</time>
      </trkpt>
      <trkpt lat="47.2262" lon="-0.90428">
        <ele>94</ele>
        <time>2012-02-23T14:25:22Z</time>
      </trkpt>
      <trkpt lat="47.22619" lon="-0.9043">
        <ele>94</ele>
        <time>2012-02-23T14:25:23Z</time>
      </trkpt>
      <trkpt lat="47.22619" lon="-0.90431">
        <ele>94</ele>
        <time>2012-02-23T14:25:24Z</time>
      </trkpt>
      <trkpt lat="47.22617" lon="-0.90434">
        <ele>94</ele>
        <time>2012-02-23T14:25:26Z</time>
      </trkpt>
      <trkpt lat="47.22616" lon="-0.90437">
        <ele>94</ele>
        <time>2012-02-23T14:25:28Z</time>
      </trkpt>
      <trkpt lat="47.22616" lon="-0.90439">
        <ele>94</ele>
        <time>2012-02-23T14:25:29Z</time>
      </trkpt>
      <trkpt lat="47.22615" lon="-0.9044">
        <ele>94</ele>
        <time>2012-02-23T14:25:30Z</time>
      </trkpt>
      <trkpt lat="47.22614" lon="-0.90443">
        <ele>94</ele>
        <time>2012-02-23T14:25:32Z</time>
      </trkpt>
      <trkpt lat="47.22613" lon="-0.90446">
        <ele>94</ele>
        <time>2012-02-23T14:25:34Z</time>
      </trkpt>
      <trkpt lat="47.22612" lon="-0.90447">
        <ele>94</ele>
        <time>2012-02-23T14:25:35Z</time>
      </trkpt>
      <trkpt lat="47.22611" lon="-0.9045">
        <ele>94</ele>
        <time>2012-02-23T14:25:37Z</time>
      </trkpt>
      <trkpt lat="47.22609" lon="-0.90453">
        <ele>94</ele>
        <time>2012-02-23T14:25:39Z</time>
      </trkpt>
      <trkpt lat="47.22609" lon="-0.90455">
        <ele>94</ele>
        <time>2012-02-23T14:25:40Z</time>
      </trkpt>
      <trkpt lat="47.22608" lon="-0.90456">
        <ele>94</ele>
        <time>2012-02-23T14:25:41Z</time>
      </trkpt>
      <trkpt lat="47.22607" lon="-0.90459">
        <ele>94</ele>
        <time>2012-02-23T14:25:43Z</time>
      </trkpt>
      <trkpt lat="47.22606" lon="-0.9046">
        <ele>94</ele>
        <time>2012-02-23T14:25:44Z</time>
      </trkpt>
      <trkpt lat="47.22605" lon="-0.90462">
        <ele>94</ele>
        <time>2012-02-23T14:25:45Z</time>
      </trkpt>
      <trkpt lat="47.22604" lon="-0.90463">
        <ele>94</ele>
        <time>2012-02-23T14:25:46Z</time>
      </trkpt>
      <trkpt lat="47.22603" lon="-0.90465">
        <ele>94</ele>
        <time>2012-02-23T14:25:48Z</time>
      </trkpt>
      <trkpt lat="47.22601" lon="-0.90468">
        <ele>94</ele>
        <time>2012-02-23T14:25:50Z</time>
      </trkpt>
      <trkpt lat="47.22599" lon="-0.9047">
        <ele>94</ele>
        <time>2012-02-23T14:25:52Z</time>
      </trkpt>
      <trkpt lat="47.22597" lon="-0.90472">
        <ele>94</ele>
        <time>2012-02-23T14:25:54Z</time>
      </trkpt>
      <trkpt lat="47.22596" lon="-0.90473">
        <ele>94</ele>
        <time>2012-02-23T14:25:55Z</time>
      </trkpt>
      <trkpt lat="47.22596" lon="-0.90475">
        <ele>94</ele>
        <time>2012-02-23T14:25:56Z</time>
      </trkpt>
      <trkpt lat="47.22594" lon="-0.90478">
        <ele>94</ele>
        <time>2012-02-23T14:25:58Z</time>
      </trkpt>
      <trkpt lat="47.22593" lon="-0.9048">
        <ele>94</ele>
        <time>2012-02-23T14:26:00Z</time>
      </trkpt>
      <trkpt lat="47.22591" lon="-0.90482">
        <ele>94</ele>
        <time>2012-02-23T14:26:02Z</time>
      </trkpt>
      <trkpt lat="47.22589" lon="-0.90484">
        <ele>94</ele>
        <time>2012-02-23T14:26:04Z</time>
      </trkpt>
      <trkpt lat="47.22588" lon="-0.90487">
        <ele>94</ele>
        <time>2012-02-23T14:26:06Z</time>
      </trkpt>
      <trkpt lat="47.22586" lon="-0.90489">
        <ele>94</ele>
        <time>2012-02-23T14:26:08Z</time>
      </trkpt>
      <trkpt lat="47.22585" lon="-0.90491">
        <ele>94</ele>
        <time>2012-02-23T14:26:10Z</time>
      </trkpt>
      <trkpt lat="47.22584" lon="-0.90492">
        <ele>94</ele>
        <time>2012-02-23T14:26:11Z</time>
      </trkpt>
      <trkpt lat="47.22583" lon="-0.90494">
        <ele>94</ele>
        <time>2012-02-23T14:26:12Z</time>
      </trkpt>
      <trkpt lat="47.22583" lon="-0.90496">
        <ele>94</ele>
        <time>2012-02-23T14:26:13Z</time>
      </trkpt>
      <trkpt lat="47.22582" lon="-0.90498">
        <ele>94</ele>
        <time>2012-02-23T14:26:15Z</time>
      </trkpt>
      <trkpt lat="47.2258" lon="-0.90501">
        <ele>94</ele>
        <time>2012-02-23T14:26:17Z</time>
      </trkpt>
      <trkpt lat="47.2258" lon="-0.90503">
        <ele>94</ele>
        <time>2012-02-23T14:26:18Z</time>
      </trkpt>
      <trkpt lat="47.22578" lon="-0.90505">
        <ele>94</ele>
        <time>2012-02-23T14:26:20Z</time>
      </trkpt>
      <trkpt lat="47.22577" lon="-0.90507">
        <ele>94</ele>
        <time>2012-02-23T14:26:22Z</time>
      </trkpt>
      <trkpt lat="47.22574" lon="-0.9051">
        <ele>94</ele>
        <time>2012-02-23T14:26:24Z</time>
      </trkpt>
      <trkpt lat="47.22572" lon="-0.90512">
        <ele>94</ele>
        <time>2012-02-23T14:26:26Z</time>
      </trkpt>
      <trkpt lat="47.22571" lon="-0.90514">
        <ele>94</ele>
        <time>2012-02-23T14:26:28Z</time>
      </trkpt>
      <trkpt lat="47.22569" lon="-0.90517">
        <ele>94</ele>
        <time>2012-02-23T14:26:30Z</time>
      </trkpt>
      <trkpt lat="47.22568" lon="-0.9052">
        <ele>94</ele>
        <time>2012-02-23T14:26:32Z</time>
      </trkpt>
      <trkpt lat="47.22567" lon="-0.90523">
        <ele>94</ele>
        <time>2012-02-23T14:26:34Z</time>
      </trkpt>
      <trkpt lat="47.22565" lon="-0.90525">
        <ele>94</ele>
        <time>2012-02-23T14:26:36Z</time>
      </trkpt>
      <trkpt lat="47.22564" lon="-0.90528">
        <ele>94</ele>
        <time>2012-02-23T14:26:38Z</time>
      </trkpt>
      <trkpt lat="47.22562" lon="-0.90531">
        <ele>94</ele>
        <time>2012-02-23T14:26:40Z</time>
      </trkpt>
      <trkpt lat="47.22561" lon="-0.90533">
        <ele>94</ele>
        <time>2012-02-23T14:26:42Z</time>
      </trkpt>
      <trkpt lat="47.2256" lon="-0.90534">
        <ele>94</ele>
        <time>2012-02-23T14:26:43Z</time>
      </trkpt>
      <trkpt lat="47.22558" lon="-0.90536">
        <ele>94</ele>
        <time>2012-02-23T14:26:45Z</time>
      </trkpt>
      <trkpt lat="47.22556" lon="-0.90539">
        <ele>94</ele>
        <time>2012-02-23T14:26:47Z</time>
      </trkpt>
      <trkpt lat="47.22555" lon="-0.9054">
        <ele>94</ele>
        <time>2012-02-23T14:26:48Z</time>
      </trkpt>
      <trkpt lat="47.22554" lon="-0.90541">
        <ele>94</ele>
        <time>2012-02-23T14:26:49Z</time>
      </trkpt>
      <trkpt lat="47.22553" lon="-0.90544">
        <ele>94</ele>
        <time>2012-02-23T14:26:51Z</time>
      </trkpt>
      <trkpt lat="47.22551" lon="-0.90546">
        <ele>94</ele>
        <time>2012-02-23T14:26:53Z</time>
      </trkpt>
      <trkpt lat="47.2255" lon="-0.90548">
        <ele>94</ele>
        <time>2012-02-23T14:26:54Z</time>
      </trkpt>
      <trkpt lat="47.22549" lon="-0.9055">
        <ele>94</ele>
        <time>2012-02-23T14:26:56Z</time>
      </trkpt>
      <trkpt lat="47.22547" lon="-0.90553">
        <ele>94</ele>
        <time>2012-02-23T14:26:58Z</time>
      </trkpt>
      <trkpt lat="47.22546" lon="-0.90554">
        <ele>94</ele>
        <time>2012-02-23T14:26:59Z</time>
      </trkpt>
      <trkpt lat="47.22545" lon="-0.90557">
        <ele>94</ele>
        <time>2012-02-23T14:27:01Z</time>
      </trkpt>
      <trkpt lat="47.22543" lon="-0.9056">
        <ele>94</ele>
        <time>2012-02-23T14:27:03Z</time>
      </trkpt>
      <trkpt lat="47.22541" lon="-0.90562">
        <ele>94</ele>
        <time>2012-02-23T14:27:05Z</time>
      </trkpt>
      <trkpt lat="47.2254" lon="-0.90565">
        <ele>94</ele>
        <time>2012-02-23T14:27:07Z</time>
      </trkpt>
      <trkpt lat="47.22538" lon="-0.90567">
        <ele>94</ele>
        <time>2012-02-23T14:27:09Z</time>
      </trkpt>
      <trkpt lat="47.22536" lon="-0.90569">
        <ele>94</ele>
        <time>2012-02-23T14:27:11Z</time>
      </trkpt>
      <trkpt lat="47.22535" lon="-0.90571">
        <ele>94</ele>
        <time>2012-02-23T14:27:13Z</time>
      </trkpt>
      <trkpt lat="47.22534" lon="-0.90573">
        <ele>94</ele>
        <time>2012-02-23T14:27:14Z</time>
      </trkpt>
      <trkpt lat="47.22533" lon="-0.90575">
        <ele>94</ele>
        <time>2012-02-23T14:27:16Z</time>
      </trkpt>
      <trkpt lat="47.22531" lon="-0.90578">
        <ele>94</ele>
        <time>2012-02-23T14:27:18Z</time>
      </trkpt>
      <trkpt lat="47.2253" lon="-0.90579">
        <ele>94</ele>
        <time>2012-02-23T14:27:19Z</time>
      </trkpt>
      <trkpt lat="47.22528" lon="-0.90582">
        <ele>94</ele>
        <time>2012-02-23T14:27:21Z</time>
      </trkpt>
      <trkpt lat="47.22527" lon="-0.90585">
        <ele>94</ele>
        <time>2012-02-23T14:27:23Z</time>
      </trkpt>
      <trkpt lat="47.22525" lon="-0.90587">
        <ele>94</ele>
        <time>2012-02-23T14:27:25Z</time>
      </trkpt>
      <trkpt lat="47.22523" lon="-0.9059">
        <ele>94</ele>
        <time>2012-02-23T14:27:27Z</time>
      </trkpt>
      <trkpt lat="47.22522" lon="-0.90592">
        <ele>95</ele>
        <time>2012-02-23T14:27:29Z</time>
      </trkpt>
      <trkpt lat="47.22521" lon="-0.90593">
        <ele>95</ele>
        <time>2012-02-23T14:27:30Z</time>
      </trkpt>
      <trkpt lat="47.2252" lon="-0.90595">
        <ele>95</ele>
        <time>2012-02-23T14:27:31Z</time>
      </trkpt>
      <trkpt lat="47.22519" lon="-0.90597">
        <ele>95</ele>
        <time>2012-02-23T14:27:33Z</time>
      </trkpt>
      <trkpt lat="47.22518" lon="-0.90599">
        <ele>95</ele>
        <time>2012-02-23T14:27:34Z</time>
      </trkpt>
      <trkpt lat="47.22517" lon="-0.90601">
        <ele>95</ele>
        <time>2012-02-23T14:27:35Z</time>
      </trkpt>
      <trkpt lat="47.22516" lon="-0.90602">
        <ele>95</ele>
        <time>2012-02-23T14:27:36Z</time>
      </trkpt>
      <trkpt lat="47.22515" lon="-0.90604">
        <ele>95</ele>
        <time>2012-02-23T14:27:37Z</time>
      </trkpt>
      <trkpt lat="47.22514" lon="-0.90606">
        <ele>95</ele>
        <time>2012-02-23T14:27:39Z</time>
      </trkpt>
      <trkpt lat="47.22513" lon="-0.90608">
        <ele>95</ele>
        <time>2012-02-23T14:27:40Z</time>
      </trkpt>
      <trkpt lat="47.22512" lon="-0.90609">
        <ele>95</ele>
        <time>2012-02-23T14:27:41Z</time>
      </trkpt>
      <trkpt lat="47.22512" lon="-0.90611">
        <ele>95</ele>
        <time>2012-02-23T14:27:42Z</time>
      </trkpt>
      <trkpt lat="47.2251" lon="-0.90613">
        <ele>96</ele>
        <time>2012-02-23T14:27:44Z</time>
      </trkpt>
      <trkpt lat="47.22509" lon="-0.90615">
        <ele>96</ele>
        <time>2012-02-23T14:27:45Z</time>
      </trkpt>
      <trkpt lat="47.22509" lon="-0.90616">
        <ele>96</ele>
        <time>2012-02-23T14:27:46Z</time>
      </trkpt>
      <trkpt lat="47.22508" lon="-0.90618">
        <ele>96</ele>
        <time>2012-02-23T14:27:47Z</time>
      </trkpt>
      <trkpt lat="47.22507" lon="-0.90621">
        <ele>96</ele>
        <time>2012-02-23T14:27:49Z</time>
      </trkpt>
      <trkpt lat="47.22506" lon="-0.90622">
        <ele>96</ele>
        <time>2012-02-23T14:27:50Z</time>
      </trkpt>
      <trkpt lat="47.22505" lon="-0.90624">
        <ele>96</ele>
        <time>2012-02-23T14:27:51Z</time>
      </trkpt>
      <trkpt lat="47.22505" lon="-0.90625">
        <ele>96</ele>
        <time>2012-02-23T14:27:52Z</time>
      </trkpt>
      <trkpt lat="47.22504" lon="-0.90627">
        <ele>96</ele>
        <time>2012-02-23T14:27:53Z</time>
      </trkpt>
      <trkpt lat="47.22504" lon="-0.90628">
        <ele>96</ele>
        <time>2012-02-23T14:27:54Z</time>
      </trkpt>
      <trkpt lat="47.22503" lon="-0.9063">
        <ele>97</ele>
        <time>2012-02-23T14:27:55Z</time>
      </trkpt>
      <trkpt lat="47.22503" lon="-0.90632">
        <ele>97</ele>
        <time>2012-02-23T14:27:56Z</time>
      </trkpt>
      <trkpt lat="47.22501" lon="-0.90635">
        <ele>97</ele>
        <time>2012-02-23T14:27:58Z</time>
      </trkpt>
      <trkpt lat="47.22501" lon="-0.90636">
        <ele>97</ele>
        <time>2012-02-23T14:27:59Z</time>
      </trkpt>
      <trkpt lat="47.225" lon="-0.90638">
        <ele>97</ele>
        <time>2012-02-23T14:28:00Z</time>
      </trkpt>
      <trkpt lat="47.22499" lon="-0.90641">
        <ele>97</ele>
        <time>2012-02-23T14:28:02Z</time>
      </trkpt>
      <trkpt lat="47.22498" lon="-0.90642">
        <ele>97</ele>
        <time>2012-02-23T14:28:03Z</time>
      </trkpt>
      <trkpt lat="47.22498" lon="-0.90644">
        <ele>97</ele>
        <time>2012-02-23T14:28:04Z</time>
      </trkpt>
      <trkpt lat="47.22496" lon="-0.90647">
        <ele>97</ele>
        <time>2012-02-23T14:28:06Z</time>
      </trkpt>
      <trkpt lat="47.22496" lon="-0.90649">
        <ele>97</ele>
        <time>2012-02-23T14:28:07Z</time>
      </trkpt>
      <trkpt lat="47.22496" lon="-0.9065">
        <ele>98</ele>
        <time>2012-02-23T14:28:08Z</time>
      </trkpt>
      <trkpt lat="47.22495" lon="-0.90652">
        <ele>98</ele>
        <time>2012-02-23T14:28:09Z</time>
      </trkpt>
      <trkpt lat="47.22495" lon="-0.90654">
        <ele>98</ele>
        <time>2012-02-23T14:28:10Z</time>
      </trkpt>
      <trkpt lat="47.22494" lon="-0.90655">
        <ele>98</ele>
        <time>2012-02-23T14:28:11Z</time>
      </trkpt>
      <trkpt lat="47.22493" lon="-0.90657">
        <ele>98</ele>
        <time>2012-02-23T14:28:12Z</time>
      </trkpt>
      <trkpt lat="47.22493" lon="-0.90658">
        <ele>98</ele>
        <time>2012-02-23T14:28:13Z</time>
      </trkpt>
      <trkpt lat="47.22493" lon="-0.9066">
        <ele>98</ele>
        <time>2012-02-23T14:28:14Z</time>
      </trkpt>
      <trkpt lat="47.22492" lon="-0.90662">
        <ele>98</ele>
        <time>2012-02-23T14:28:15Z</time>
      </trkpt>
      <trkpt lat="47.22491" lon="-0.90664">
        <ele>98</ele>
        <time>2012-02-23T14:28:17Z</time>
      </trkpt>
      <trkpt lat="47.2249" lon="-0.90666">
        <ele>98</ele>
        <time>2012-02-23T14:28:18Z</time>
      </trkpt>
      <trkpt lat="47.2249" lon="-0.90668">
        <ele>98</ele>
        <time>2012-02-23T14:28:19Z</time>
      </trkpt>
      <trkpt lat="47.2249" lon="-0.9067">
        <ele>98</ele>
        <time>2012-02-23T14:28:20Z</time>
      </trkpt>
      <trkpt lat="47.22489" lon="-0.90671">
        <ele>98</ele>
        <time>2012-02-23T14:28:21Z</time>
      </trkpt>
      <trkpt lat="47.22488" lon="-0.90673">
        <ele>99</ele>
        <time>2012-02-23T14:28:22Z</time>
      </trkpt>
      <trkpt lat="47.22488" lon="-0.90674">
        <ele>99</ele>
        <time>2012-02-23T14:28:23Z</time>
      </trkpt>
      <trkpt lat="47.22488" lon="-0.90676">
        <ele>99</ele>
        <time>2012-02-23T14:28:24Z</time>
      </trkpt>
      <trkpt lat="47.22487" lon="-0.90678">
        <ele>99</ele>
        <time>2012-02-23T14:28:25Z</time>
      </trkpt>
      <trkpt lat="47.22487" lon="-0.9068">
        <ele>99</ele>
        <time>2012-02-23T14:28:27Z</time>
      </trkpt>
      <trkpt lat="47.22486" lon="-0.90682">
        <ele>99</ele>
        <time>2012-02-23T14:28:28Z</time>
      </trkpt>
      <trkpt lat="47.22486" lon="-0.90684">
        <ele>99</ele>
        <time>2012-02-23T14:28:29Z</time>
      </trkpt>
      <trkpt lat="47.22485" lon="-0.90685">
        <ele>99</ele>
        <time>2012-02-23T14:28:30Z</time>
      </trkpt>
      <trkpt lat="47.22485" lon="-0.90687">
        <ele>99</ele>
        <time>2012-02-23T14:28:31Z</time>
      </trkpt>
      <trkpt lat="47.22485" lon="-0.90688">
        <ele>99</ele>
        <time>2012-02-23T14:28:32Z</time>
      </trkpt>
      <trkpt lat="47.22485" lon="-0.9069">
        <ele>99</ele>
        <time>2012-02-23T14:28:33Z</time>
      </trkpt>
      <trkpt lat="47.22484" lon="-0.90691">
        <ele>99</ele>
        <time>2012-02-23T14:28:34Z</time>
      </trkpt>
      <trkpt lat="47.22484" lon="-0.90693">
        <ele>99</ele>
        <time>2012-02-23T14:28:35Z</time>
      </trkpt>
      <trkpt lat="47.22483" lon="-0.90694">
        <ele>99</ele>
        <time>2012-02-23T14:28:36Z</time>
      </trkpt>
      <trkpt lat="47.22483" lon="-0.90696">
        <ele>99</ele>
        <time>2012-02-23T14:28:37Z</time>
      </trkpt>
      <trkpt lat="47.22483" lon="-0.90698">
        <ele>99</ele>
        <time>2012-02-23T14:28:38Z</time>
      </trkpt>
      <trkpt lat="47.22482" lon="-0.90699">
        <ele>99</ele>
        <time>2012-02-23T14:28:39Z</time>
      </trkpt>
      <trkpt lat="47.22482" lon="-0.90701">
        <ele>99</ele>
        <time>2012-02-23T14:28:40Z</time>
      </trkpt>
      <trkpt lat="47.22481" lon="-0.90703">
        <ele>99</ele>
        <time>2012-02-23T14:28:41Z</time>
      </trkpt>
      <trkpt lat="47.2248" lon="-0.90706">
        <ele>99</ele>
        <time>2012-02-23T14:28:43Z</time>
      </trkpt>
      <trkpt lat="47.2248" lon="-0.90707">
        <ele>99</ele>
        <time>2012-02-23T14:28:44Z</time>
      </trkpt>
      <trkpt lat="47.2248" lon="-0.90709">
        <ele>99</ele>
        <time>2012-02-23T14:28:45Z</time>
      </trkpt>
      <trkpt lat="47.22479" lon="-0.90711">
        <ele>99</ele>
        <time>2012-02-23T14:28:46Z</time>
      </trkpt>
      <trkpt lat="47.22479" lon="-0.90712">
        <ele>99</ele>
        <time>2012-02-23T14:28:47Z</time>
      </trkpt>
      <trkpt lat="47.22478" lon="-0.90714">
        <ele>99</ele>
        <time>2012-02-23T14:28:48Z</time>
      </trkpt>
      <trkpt lat="47.22478" lon="-0.90716">
        <ele>99</ele>
        <time>2012-02-23T14:28:49Z</time>
      </trkpt>
      <trkpt lat="47.22477" lon="-0.90718">
        <ele>99</ele>
        <time>2012-02-23T14:28:50Z</time>
      </trkpt>
      <trkpt lat="47.22477" lon="-0.90719">
        <ele>99</ele>
        <time>2012-02-23T14:28:51Z</time>
      </trkpt>
      <trkpt lat="47.22477" lon="-0.90721">
        <ele>99</ele>
        <time>2012-02-23T14:28:52Z</time>
      </trkpt>
      <trkpt lat="47.22476" lon="-0.90723">
        <ele>99</ele>
        <time>2012-02-23T14:28:53Z</time>
      </trkpt>
      <trkpt lat="47.22476" lon="-0.90725">
        <ele>100</ele>
        <time>2012-02-23T14:28:54Z</time>
      </trkpt>
      <trkpt lat="47.22475" lon="-0.90726">
        <ele>100</ele>
        <time>2012-02-23T14:28:55Z</time>
      </trkpt>
      <trkpt lat="47.22475" lon="-0.90728">
        <ele>100</ele>
        <time>2012-02-23T14:28:56Z</time>
      </trkpt>
      <trkpt lat="47.22475" lon="-0.9073">
        <ele>100</ele>
        <time>2012-02-23T14:28:57Z</time>
      </trkpt>
      <trkpt lat="47.22474" lon="-0.90731">
        <ele>100</ele>
        <time>2012-02-23T14:28:58Z</time>
      </trkpt>
      <trkpt lat="47.22474" lon="-0.90733">
        <ele>100</ele>
        <time>2012-02-23T14:28:59Z</time>
      </trkpt>
      <trkpt lat="47.22473" lon="-0.90734">
        <ele>100</ele>
        <time>2012-02-23T14:29:00Z</time>
      </trkpt>
      <trkpt lat="47.22473" lon="-0.90736">
        <ele>100</ele>
        <time>2012-02-23T14:29:01Z</time>
      </trkpt>
      <trkpt lat="47.22472" lon="-0.90738">
        <ele>100</ele>
        <time>2012-02-23T14:29:02Z</time>
      </trkpt>
      <trkpt lat="47.22472" lon="-0.9074">
        <ele>100</ele>
        <time>2012-02-23T14:29:03Z</time>
      </trkpt>
      <trkpt lat="47.22472" lon="-0.90741">
        <ele>100</ele>
        <time>2012-02-23T14:29:04Z</time>
      </trkpt>
      <trkpt lat="47.22472" lon="-0.90743">
        <ele>100</ele>
        <time>2012-02-23T14:29:05Z</time>
      </trkpt>
      <trkpt lat="47.22471" lon="-0.90746">
        <ele>100</ele>
        <time>2012-02-23T14:29:07Z</time>
      </trkpt>
      <trkpt lat="47.2247" lon="-0.90747">
        <ele>100</ele>
        <time>2012-02-23T14:29:08Z</time>
      </trkpt>
      <trkpt lat="47.2247" lon="-0.90749">
        <ele>100</ele>
        <time>2012-02-23T14:29:09Z</time>
      </trkpt>
      <trkpt lat="47.22469" lon="-0.90751">
        <ele>100</ele>
        <time>2012-02-23T14:29:11Z</time>
      </trkpt>
      <trkpt lat="47.22469" lon="-0.90754">
        <ele>100</ele>
        <time>2012-02-23T14:29:13Z</time>
      </trkpt>
      <trkpt lat="47.22469" lon="-0.90755">
        <ele>100</ele>
        <time>2012-02-23T14:29:14Z</time>
      </trkpt>
      <trkpt lat="47.22468" lon="-0.90757">
        <ele>100</ele>
        <time>2012-02-23T14:29:15Z</time>
      </trkpt>
      <trkpt lat="47.22468" lon="-0.90758">
        <ele>100</ele>
        <time>2012-02-23T14:29:16Z</time>
      </trkpt>
      <trkpt lat="47.22467" lon="-0.9076">
        <ele>100</ele>
        <time>2012-02-23T14:29:17Z</time>
      </trkpt>
      <trkpt lat="47.22467" lon="-0.90762">
        <ele>100</ele>
        <time>2012-02-23T14:29:18Z</time>
      </trkpt>
      <trkpt lat="47.22467" lon="-0.90763">
        <ele>100</ele>
        <time>2012-02-23T14:29:19Z</time>
      </trkpt>
      <trkpt lat="47.22467" lon="-0.90765">
        <ele>100</ele>
        <time>2012-02-23T14:29:20Z</time>
      </trkpt>
      <trkpt lat="47.22466" lon="-0.90767">
        <ele>101</ele>
        <time>2012-02-23T14:29:21Z</time>
      </trkpt>
      <trkpt lat="47.22466" lon="-0.90768">
        <ele>101</ele>
        <time>2012-02-23T14:29:22Z</time>
      </trkpt>
      <trkpt lat="47.22466" lon="-0.9077">
        <ele>101</ele>
        <time>2012-02-23T14:29:23Z</time>
      </trkpt>
      <trkpt lat="47.22465" lon="-0.90772">
        <ele>101</ele>
        <time>2012-02-23T14:29:24Z</time>
      </trkpt>
      <trkpt lat="47.22465" lon="-0.90774">
        <ele>101</ele>
        <time>2012-02-23T14:29:25Z</time>
      </trkpt>
      <trkpt lat="47.22464" lon="-0.90775">
        <ele>101</ele>
        <time>2012-02-23T14:29:26Z</time>
      </trkpt>
      <trkpt lat="47.22464" lon="-0.90777">
        <ele>101</ele>
        <time>2012-02-23T14:29:27Z</time>
      </trkpt>
      <trkpt lat="47.22464" lon="-0.90778">
        <ele>101</ele>
        <time>2012-02-23T14:29:28Z</time>
      </trkpt>
      <trkpt lat="47.22463" lon="-0.9078">
        <ele>101</ele>
        <time>2012-02-23T14:29:29Z</time>
      </trkpt>
      <trkpt lat="47.22463" lon="-0.90782">
        <ele>101</ele>
        <time>2012-02-23T14:29:30Z</time>
      </trkpt>
      <trkpt lat="47.22463" lon="-0.90784">
        <ele>101</ele>
        <time>2012-02-23T14:29:31Z</time>
      </trkpt>
      <trkpt lat="47.22462" lon="-0.90785">
        <ele>101</ele>
        <time>2012-02-23T14:29:32Z</time>
      </trkpt>
      <trkpt lat="47.22462" lon="-0.90787">
        <ele>101</ele>
        <time>2012-02-23T14:29:33Z</time>
      </trkpt>
      <trkpt lat="47.22462" lon="-0.90789">
        <ele>101</ele>
        <time>2012-02-23T14:29:34Z</time>
      </trkpt>
      <trkpt lat="47.22461" lon="-0.9079">
        <ele>101</ele>
        <time>2012-02-23T14:29:35Z</time>
      </trkpt>
      <trkpt lat="47.22461" lon="-0.90793">
        <ele>101</ele>
        <time>2012-02-23T14:29:37Z</time>
      </trkpt>
      <trkpt lat="47.22461" lon="-0.90794">
        <ele>101</ele>
        <time>2012-02-23T14:29:38Z</time>
      </trkpt>
      <trkpt lat="47.2246" lon="-0.90796">
        <ele>101</ele>
        <time>2012-02-23T14:29:39Z</time>
      </trkpt>
      <trkpt lat="47.2246" lon="-0.90798">
        <ele>101</ele>
        <time>2012-02-23T14:29:40Z</time>
      </trkpt>
      <trkpt lat="47.22459" lon="-0.90799">
        <ele>101</ele>
        <time>2012-02-23T14:29:41Z</time>
      </trkpt>
      <trkpt lat="47.22459" lon="-0.90801">
        <ele>101</ele>
        <time>2012-02-23T14:29:42Z</time>
      </trkpt>
      <trkpt lat="47.22459" lon="-0.90803">
        <ele>101</ele>
        <time>2012-02-23T14:29:43Z</time>
      </trkpt>
      <trkpt lat="47.22458" lon="-0.90804">
        <ele>101</ele>
        <time>2012-02-23T14:29:44Z</time>
      </trkpt>
      <trkpt lat="47.22458" lon="-0.90806">
        <ele>101</ele>
        <time>2012-02-23T14:29:45Z</time>
      </trkpt>
      <trkpt lat="47.22458" lon="-0.90808">
        <ele>101</ele>
        <time>2012-02-23T14:29:46Z</time>
      </trkpt>
      <trkpt lat="47.22457" lon="-0.9081">
        <ele>101</ele>
        <time>2012-02-23T14:29:47Z</time>
      </trkpt>
      <trkpt lat="47.22457" lon="-0.90811">
        <ele>101</ele>
        <time>2012-02-23T14:29:48Z</time>
      </trkpt>
      <trkpt lat="47.22457" lon="-0.90813">
        <ele>101</ele>
        <time>2012-02-23T14:29:49Z</time>
      </trkpt>
      <trkpt lat="47.22456" lon="-0.90815">
        <ele>101</ele>
        <time>2012-02-23T14:29:50Z</time>
      </trkpt>
      <trkpt lat="47.22456" lon="-0.90817">
        <ele>101</ele>
        <time>2012-02-23T14:29:51Z</time>
      </trkpt>
      <trkpt lat="47.22456" lon="-0.90819">
        <ele>101</ele>
        <time>2012-02-23T14:29:52Z</time>
      </trkpt>
      <trkpt lat="47.22456" lon="-0.9082">
        <ele>101</ele>
        <time>2012-02-23T14:29:53Z</time>
      </trkpt>
      <trkpt lat="47.22456" lon="-0.90822">
        <ele>101</ele>
        <time>2012-02-23T14:29:54Z</time>
      </trkpt>
      <trkpt lat="47.22456" lon="-0.90824">
        <ele>101</ele>
        <time>2012-02-23T14:29:55Z</time>
      </trkpt>
      <trkpt lat="47.22455" lon="-0.90826">
        <ele>101</ele>
        <time>2012-02-23T14:29:56Z</time>
      </trkpt>
      <trkpt lat="47.22455" lon="-0.90828">
        <ele>102</ele>
        <time>2012-02-23T14:29:57Z</time>
      </trkpt>
      <trkpt lat="47.22455" lon="-0.9083">
        <ele>102</ele>
        <time>2012-02-23T14:29:58Z</time>
      </trkpt>
      <trkpt lat="47.22455" lon="-0.90832">
        <ele>102</ele>
        <time>2012-02-23T14:29:59Z</time>
      </trkpt>
      <trkpt lat="47.22454" lon="-0.90833">
        <ele>102</ele>
        <time>2012-02-23T14:30:00Z</time>
      </trkpt>
      <trkpt lat="47.22454" lon="-0.90835">
        <ele>102</ele>
        <time>2012-02-23T14:30:01Z</time>
      </trkpt>
      <trkpt lat="47.22454" lon="-0.90837">
        <ele>102</ele>
        <time>2012-02-23T14:30:02Z</time>
      </trkpt>
      <trkpt lat="47.22454" lon="-0.90838">
        <ele>102</ele>
        <time>2012-02-23T14:30:03Z</time>
      </trkpt>
      <trkpt lat="47.22453" lon="-0.90841">
        <ele>102</ele>
        <time>2012-02-23T14:30:04Z</time>
      </trkpt>
      <trkpt lat="47.22452" lon="-0.90842">
        <ele>102</ele>
        <time>2012-02-23T14:30:05Z</time>
      </trkpt>
      <trkpt lat="47.22451" lon="-0.90844">
        <ele>102</ele>
        <time>2012-02-23T14:30:06Z</time>
      </trkpt>
      <trkpt lat="47.22451" lon="-0.90846">
        <ele>102</ele>
        <time>2012-02-23T14:30:07Z</time>
      </trkpt>
      <trkpt lat="47.22451" lon="-0.90847">
        <ele>102</ele>
        <time>2012-02-23T14:30:08Z</time>
      </trkpt>
      <trkpt lat="47.2245" lon="-0.9085">
        <ele>102</ele>
        <time>2012-02-23T14:30:09Z</time>
      </trkpt>
      <trkpt lat="47.2245" lon="-0.90851">
        <ele>102</ele>
        <time>2012-02-23T14:30:10Z</time>
      </trkpt>
      <trkpt lat="47.2245" lon="-0.90853">
        <ele>102</ele>
        <time>2012-02-23T14:30:11Z</time>
      </trkpt>
      <trkpt lat="47.2245" lon="-0.90855">
        <ele>103</ele>
        <time>2012-02-23T14:30:12Z</time>
      </trkpt>
      <trkpt lat="47.22449" lon="-0.90856">
        <ele>103</ele>
        <time>2012-02-23T14:30:13Z</time>
      </trkpt>
      <trkpt lat="47.22449" lon="-0.90858">
        <ele>103</ele>
        <time>2012-02-23T14:30:14Z</time>
      </trkpt>
      <trkpt lat="47.22449" lon="-0.9086">
        <ele>103</ele>
        <time>2012-02-23T14:30:15Z</time>
      </trkpt>
      <trkpt lat="47.22449" lon="-0.90861">
        <ele>103</ele>
        <time>2012-02-23T14:30:16Z</time>
      </trkpt>
      <trkpt lat="47.22449" lon="-0.90863">
        <ele>103</ele>
        <time>2012-02-23T14:30:17Z</time>
      </trkpt>
      <trkpt lat="47.22448" lon="-0.90864">
        <ele>103</ele>
        <time>2012-02-23T14:30:18Z</time>
      </trkpt>
      <trkpt lat="47.22448" lon="-0.90866">
        <ele>103</ele>
        <time>2012-02-23T14:30:19Z</time>
      </trkpt>
      <trkpt lat="47.22448" lon="-0.90868">
        <ele>103</ele>
        <time>2012-02-23T14:30:20Z</time>
      </trkpt>
      <trkpt lat="47.22448" lon="-0.9087">
        <ele>103</ele>
        <time>2012-02-23T14:30:21Z</time>
      </trkpt>
      <trkpt lat="47.22448" lon="-0.90872">
        <ele>103</ele>
        <time>2012-02-23T14:30:22Z</time>
      </trkpt>
      <trkpt lat="47.22447" lon="-0.90874">
        <ele>103</ele>
        <time>2012-02-23T14:30:23Z</time>
      </trkpt>
      <trkpt lat="47.22447" lon="-0.90875">
        <ele>103</ele>
        <time>2012-02-23T14:30:24Z</time>
      </trkpt>
      <trkpt lat="47.22446" lon="-0.90877">
        <ele>103</ele>
        <time>2012-02-23T14:30:25Z</time>
      </trkpt>
      <trkpt lat="47.22446" lon="-0.90879">
        <ele>103</ele>
        <time>2012-02-23T14:30:26Z</time>
      </trkpt>
      <trkpt lat="47.22445" lon="-0.90881">
        <ele>103</ele>
        <time>2012-02-23T14:30:27Z</time>
      </trkpt>
      <trkpt lat="47.22445" lon="-0.90882">
        <ele>103</ele>
        <time>2012-02-23T14:30:28Z</time>
      </trkpt>
      <trkpt lat="47.22445" lon="-0.90884">
        <ele>103</ele>
        <time>2012-02-23T14:30:29Z</time>
      </trkpt>
      <trkpt lat="47.22444" lon="-0.90886">
        <ele>103</ele>
        <time>2012-02-23T14:30:30Z</time>
      </trkpt>
      <trkpt lat="47.22444" lon="-0.90888">
        <ele>103</ele>
        <time>2012-02-23T14:30:31Z</time>
      </trkpt>
      <trkpt lat="47.22443" lon="-0.9089">
        <ele>103</ele>
        <time>2012-02-23T14:30:32Z</time>
      </trkpt>
      <trkpt lat="47.22443" lon="-0.90892">
        <ele>103</ele>
        <time>2012-02-23T14:30:33Z</time>
      </trkpt>
      <trkpt lat="47.22443" lon="-0.90895">
        <ele>103</ele>
        <time>2012-02-23T14:30:35Z</time>
      </trkpt>
      <trkpt lat="47.22443" lon="-0.90896">
        <ele>103</ele>
        <time>2012-02-23T14:30:36Z</time>
      </trkpt>
      <trkpt lat="47.22443" lon="-0.90898">
        <ele>103</ele>
        <time>2012-02-23T14:30:37Z</time>
      </trkpt>
      <trkpt lat="47.22443" lon="-0.909">
        <ele>103</ele>
        <time>2012-02-23T14:30:38Z</time>
      </trkpt>
      <trkpt lat="47.22442" lon="-0.90901">
        <ele>103</ele>
        <time>2012-02-23T14:30:39Z</time>
      </trkpt>
      <trkpt lat="47.22442" lon="-0.90903">
        <ele>103</ele>
        <time>2012-02-23T14:30:40Z</time>
      </trkpt>
      <trkpt lat="47.22441" lon="-0.90905">
        <ele>103</ele>
        <time>2012-02-23T14:30:41Z</time>
      </trkpt>
      <trkpt lat="47.22441" lon="-0.90907">
        <ele>103</ele>
        <time>2012-02-23T14:30:42Z</time>
      </trkpt>
      <trkpt lat="47.22441" lon="-0.90908">
        <ele>103</ele>
        <time>2012-02-23T14:30:43Z</time>
      </trkpt>
      <trkpt lat="47.2244" lon="-0.9091">
        <ele>103</ele>
        <time>2012-02-23T14:30:44Z</time>
      </trkpt>
      <trkpt lat="47.2244" lon="-0.90912">
        <ele>103</ele>
        <time>2012-02-23T14:30:45Z</time>
      </trkpt>
      <trkpt lat="47.2244" lon="-0.90914">
        <ele>103</ele>
        <time>2012-02-23T14:30:46Z</time>
      </trkpt>
      <trkpt lat="47.22439" lon="-0.90915">
        <ele>103</ele>
        <time>2012-02-23T14:30:47Z</time>
      </trkpt>
      <trkpt lat="47.22439" lon="-0.90917">
        <ele>103</ele>
        <time>2012-02-23T14:30:48Z</time>
      </trkpt>
      <trkpt lat="47.22439" lon="-0.90919">
        <ele>103</ele>
        <time>2012-02-23T14:30:49Z</time>
      </trkpt>
      <trkpt lat="47.22439" lon="-0.9092">
        <ele>103</ele>
        <time>2012-02-23T14:30:50Z</time>
      </trkpt>
      <trkpt lat="47.22438" lon="-0.90922">
        <ele>103</ele>
        <time>2012-02-23T14:30:51Z</time>
      </trkpt>
      <trkpt lat="47.22438" lon="-0.90924">
        <ele>103</ele>
        <time>2012-02-23T14:30:52Z</time>
      </trkpt>
      <trkpt lat="47.22438" lon="-0.90925">
        <ele>103</ele>
        <time>2012-02-23T14:30:53Z</time>
      </trkpt>
      <trkpt lat="47.22437" lon="-0.90927">
        <ele>103</ele>
        <time>2012-02-23T14:30:54Z</time>
      </trkpt>
      <trkpt lat="47.22437" lon="-0.90928">
        <ele>103</ele>
        <time>2012-02-23T14:30:55Z</time>
      </trkpt>
      <trkpt lat="47.22437" lon="-0.9093">
        <ele>103</ele>
        <time>2012-02-23T14:30:56Z</time>
      </trkpt>
      <trkpt lat="47.22437" lon="-0.90932">
        <ele>103</ele>
        <time>2012-02-23T14:30:57Z</time>
      </trkpt>
      <trkpt lat="47.22436" lon="-0.90933">
        <ele>103</ele>
        <time>2012-02-23T14:30:58Z</time>
      </trkpt>
      <trkpt lat="47.22436" lon="-0.90935">
        <ele>103</ele>
        <time>2012-02-23T14:30:59Z</time>
      </trkpt>
      <trkpt lat="47.22435" lon="-0.90938">
        <ele>103</ele>
        <time>2012-02-23T14:31:01Z</time>
      </trkpt>
      <trkpt lat="47.22435" lon="-0.90939">
        <ele>103</ele>
        <time>2012-02-23T14:31:02Z</time>
      </trkpt>
      <trkpt lat="47.22435" lon="-0.90941">
        <ele>103</ele>
        <time>2012-02-23T14:31:03Z</time>
      </trkpt>
      <trkpt lat="47.22434" lon="-0.90943">
        <ele>103</ele>
        <time>2012-02-23T14:31:04Z</time>
      </trkpt>
      <trkpt lat="47.22434" lon="-0.90944">
        <ele>103</ele>
        <time>2012-02-23T14:31:05Z</time>
      </trkpt>
      <trkpt lat="47.22433" lon="-0.90948">
        <ele>103</ele>
        <time>2012-02-23T14:31:07Z</time>
      </trkpt>
      <trkpt lat="47.22433" lon="-0.90949">
        <ele>103</ele>
        <time>2012-02-23T14:31:08Z</time>
      </trkpt>
      <trkpt lat="47.22433" lon="-0.90951">
        <ele>103</ele>
        <time>2012-02-23T14:31:09Z</time>
      </trkpt>
      <trkpt lat="47.22432" lon="-0.90953">
        <ele>103</ele>
        <time>2012-02-23T14:31:10Z</time>
      </trkpt>
      <trkpt lat="47.22432" lon="-0.90954">
        <ele>103</ele>
        <time>2012-02-23T14:31:11Z</time>
      </trkpt>
      <trkpt lat="47.22432" lon="-0.90956">
        <ele>103</ele>
        <time>2012-02-23T14:31:12Z</time>
      </trkpt>
      <trkpt lat="47.22431" lon="-0.90957">
        <ele>103</ele>
        <time>2012-02-23T14:31:13Z</time>
      </trkpt>
      <trkpt lat="47.22431" lon="-0.90959">
        <ele>103</ele>
        <time>2012-02-23T14:31:14Z</time>
      </trkpt>
      <trkpt lat="47.2243" lon="-0.90961">
        <ele>103</ele>
        <time>2012-02-23T14:31:15Z</time>
      </trkpt>
      <trkpt lat="47.2243" lon="-0.90962">
        <ele>103</ele>
        <time>2012-02-23T14:31:16Z</time>
      </trkpt>
      <trkpt lat="47.22429" lon="-0.90964">
        <ele>103</ele>
        <time>2012-02-23T14:31:17Z</time>
      </trkpt>
      <trkpt lat="47.22429" lon="-0.90965">
        <ele>103</ele>
        <time>2012-02-23T14:31:18Z</time>
      </trkpt>
      <trkpt lat="47.22428" lon="-0.90967">
        <ele>103</ele>
        <time>2012-02-23T14:31:19Z</time>
      </trkpt>
      <trkpt lat="47.22428" lon="-0.90969">
        <ele>103</ele>
        <time>2012-02-23T14:31:20Z</time>
      </trkpt>
      <trkpt lat="47.22427" lon="-0.9097">
        <ele>103</ele>
        <time>2012-02-23T14:31:21Z</time>
      </trkpt>
      <trkpt lat="47.22427" lon="-0.90972">
        <ele>103</ele>
        <time>2012-02-23T14:31:22Z</time>
      </trkpt>
      <trkpt lat="47.22427" lon="-0.90974">
        <ele>103</ele>
        <time>2012-02-23T14:31:23Z</time>
      </trkpt>
      <trkpt lat="47.22426" lon="-0.90975">
        <ele>103</ele>
        <time>2012-02-23T14:31:24Z</time>
      </trkpt>
      <trkpt lat="47.22426" lon="-0.90977">
        <ele>103</ele>
        <time>2012-02-23T14:31:25Z</time>
      </trkpt>
      <trkpt lat="47.22425" lon="-0.90979">
        <ele>103</ele>
        <time>2012-02-23T14:31:26Z</time>
      </trkpt>
      <trkpt lat="47.22425" lon="-0.9098">
        <ele>103</ele>
        <time>2012-02-23T14:31:27Z</time>
      </trkpt>
      <trkpt lat="47.22424" lon="-0.90983">
        <ele>103</ele>
        <time>2012-02-23T14:31:28Z</time>
      </trkpt>
      <trkpt lat="47.22424" lon="-0.90984">
        <ele>103</ele>
        <time>2012-02-23T14:31:29Z</time>
      </trkpt>
      <trkpt lat="47.22424" lon="-0.90986">
        <ele>103</ele>
        <time>2012-02-23T14:31:30Z</time>
      </trkpt>
      <trkpt lat="47.22423" lon="-0.90987">
        <ele>103</ele>
        <time>2012-02-23T14:31:31Z</time>
      </trkpt>
      <trkpt lat="47.22423" lon="-0.90989">
        <ele>103</ele>
        <time>2012-02-23T14:31:32Z</time>
      </trkpt>
      <trkpt lat="47.22422" lon="-0.90991">
        <ele>103</ele>
        <time>2012-02-23T14:31:33Z</time>
      </trkpt>
      <trkpt lat="47.22422" lon="-0.90992">
        <ele>103</ele>
        <time>2012-02-23T14:31:34Z</time>
      </trkpt>
      <trkpt lat="47.22421" lon="-0.90994">
        <ele>103</ele>
        <time>2012-02-23T14:31:35Z</time>
      </trkpt>
      <trkpt lat="47.22421" lon="-0.90995">
        <ele>103</ele>
        <time>2012-02-23T14:31:36Z</time>
      </trkpt>
      <trkpt lat="47.2242" lon="-0.90997">
        <ele>103</ele>
        <time>2012-02-23T14:31:37Z</time>
      </trkpt>
      <trkpt lat="47.22419" lon="-0.90999">
        <ele>103</ele>
        <time>2012-02-23T14:31:38Z</time>
      </trkpt>
      <trkpt lat="47.22419" lon="-0.91">
        <ele>103</ele>
        <time>2012-02-23T14:31:39Z</time>
      </trkpt>
      <trkpt lat="47.22419" lon="-0.91002">
        <ele>103</ele>
        <time>2012-02-23T14:31:40Z</time>
      </trkpt>
      <trkpt lat="47.22418" lon="-0.91004">
        <ele>103</ele>
        <time>2012-02-23T14:31:42Z</time>
      </trkpt>
      <trkpt lat="47.22416" lon="-0.91006">
        <ele>103</ele>
        <time>2012-02-23T14:31:44Z</time>
      </trkpt>
      <trkpt lat="47.22416" lon="-0.91008">
        <ele>103</ele>
        <time>2012-02-23T14:31:45Z</time>
      </trkpt>
      <trkpt lat="47.22416" lon="-0.9101">
        <ele>103</ele>
        <time>2012-02-23T14:31:46Z</time>
      </trkpt>
      <trkpt lat="47.22416" lon="-0.91012">
        <ele>103</ele>
        <time>2012-02-23T14:31:47Z</time>
      </trkpt>
      <trkpt lat="47.22416" lon="-0.91013">
        <ele>103</ele>
        <time>2012-02-23T14:31:48Z</time>
      </trkpt>
      <trkpt lat="47.22415" lon="-0.91015">
        <ele>103</ele>
        <time>2012-02-23T14:31:49Z</time>
      </trkpt>
      <trkpt lat="47.22415" lon="-0.91017">
        <ele>103</ele>
        <time>2012-02-23T14:31:50Z</time>
      </trkpt>
      <trkpt lat="47.22414" lon="-0.91019">
        <ele>103</ele>
        <time>2012-02-23T14:31:51Z</time>
      </trkpt>
      <trkpt lat="47.22414" lon="-0.91021">
        <ele>103</ele>
        <time>2012-02-23T14:31:52Z</time>
      </trkpt>
      <trkpt lat="47.22413" lon="-0.91022">
        <ele>103</ele>
        <time>2012-02-23T14:31:53Z</time>
      </trkpt>
      <trkpt lat="47.22413" lon="-0.91024">
        <ele>103</ele>
        <time>2012-02-23T14:31:54Z</time>
      </trkpt>
      <trkpt lat="47.22412" lon="-0.91026">
        <ele>103</ele>
        <time>2012-02-23T14:31:55Z</time>
      </trkpt>
      <trkpt lat="47.22412" lon="-0.91027">
        <ele>103</ele>
        <time>2012-02-23T14:31:56Z</time>
      </trkpt>
      <trkpt lat="47.22412" lon="-0.91028">
        <ele>103</ele>
        <time>2012-02-23T14:31:57Z</time>
      </trkpt>
      <trkpt lat="47.22411" lon="-0.9103">
        <ele>103</ele>
        <time>2012-02-23T14:31:58Z</time>
      </trkpt>
      <trkpt lat="47.2241" lon="-0.91031">
        <ele>103</ele>
        <time>2012-02-23T14:31:59Z</time>
      </trkpt>
      <trkpt lat="47.22409" lon="-0.91033">
        <ele>103</ele>
        <time>2012-02-23T14:32:00Z</time>
      </trkpt>
      <trkpt lat="47.22409" lon="-0.91035">
        <ele>103</ele>
        <time>2012-02-23T14:32:01Z</time>
      </trkpt>
      <trkpt lat="47.22409" lon="-0.91036">
        <ele>103</ele>
        <time>2012-02-23T14:32:02Z</time>
      </trkpt>
      <trkpt lat="47.22408" lon="-0.91037">
        <ele>103</ele>
        <time>2012-02-23T14:32:03Z</time>
      </trkpt>
      <trkpt lat="47.22408" lon="-0.91039">
        <ele>103</ele>
        <time>2012-02-23T14:32:04Z</time>
      </trkpt>
      <trkpt lat="47.22407" lon="-0.91042">
        <ele>103</ele>
        <time>2012-02-23T14:32:06Z</time>
      </trkpt>
      <trkpt lat="47.22406" lon="-0.91043">
        <ele>103</ele>
        <time>2012-02-23T14:32:07Z</time>
      </trkpt>
      <trkpt lat="47.22406" lon="-0.91045">
        <ele>103</ele>
        <time>2012-02-23T14:32:08Z</time>
      </trkpt>
      <trkpt lat="47.22406" lon="-0.91047">
        <ele>103</ele>
        <time>2012-02-23T14:32:09Z</time>
      </trkpt>
      <trkpt lat="47.22405" lon="-0.91048">
        <ele>103</ele>
        <time>2012-02-23T14:32:10Z</time>
      </trkpt>
      <trkpt lat="47.22404" lon="-0.91051">
        <ele>103</ele>
        <time>2012-02-23T14:32:12Z</time>
      </trkpt>
      <trkpt lat="47.22403" lon="-0.91053">
        <ele>103</ele>
        <time>2012-02-23T14:32:13Z</time>
      </trkpt>
      <trkpt lat="47.22403" lon="-0.91055">
        <ele>103</ele>
        <time>2012-02-23T14:32:14Z</time>
      </trkpt>
      <trkpt lat="47.22402" lon="-0.91057">
        <ele>103</ele>
        <time>2012-02-23T14:32:15Z</time>
      </trkpt>
      <trkpt lat="47.22402" lon="-0.91058">
        <ele>103</ele>
        <time>2012-02-23T14:32:16Z</time>
      </trkpt>
      <trkpt lat="47.22401" lon="-0.91059">
        <ele>103</ele>
        <time>2012-02-23T14:32:17Z</time>
      </trkpt>
      <trkpt lat="47.22401" lon="-0.91061">
        <ele>103</ele>
        <time>2012-02-23T14:32:18Z</time>
      </trkpt>
      <trkpt lat="47.224" lon="-0.91063">
        <ele>103</ele>
        <time>2012-02-23T14:32:19Z</time>
      </trkpt>
      <trkpt lat="47.224" lon="-0.91065">
        <ele>103</ele>
        <time>2012-02-23T14:32:20Z</time>
      </trkpt>
      <trkpt lat="47.22399" lon="-0.91066">
        <ele>103</ele>
        <time>2012-02-23T14:32:21Z</time>
      </trkpt>
      <trkpt lat="47.22398" lon="-0.91069">
        <ele>103</ele>
        <time>2012-02-23T14:32:23Z</time>
      </trkpt>
      <trkpt lat="47.22397" lon="-0.9107">
        <ele>103</ele>
        <time>2012-02-23T14:32:24Z</time>
      </trkpt>
      <trkpt lat="47.22397" lon="-0.91072">
        <ele>103</ele>
        <time>2012-02-23T14:32:25Z</time>
      </trkpt>
      <trkpt lat="47.22396" lon="-0.91074">
        <ele>103</ele>
        <time>2012-02-23T14:32:26Z</time>
      </trkpt>
      <trkpt lat="47.22395" lon="-0.91075">
        <ele>103</ele>
        <time>2012-02-23T14:32:27Z</time>
      </trkpt>
      <trkpt lat="47.22395" lon="-0.91078">
        <ele>103</ele>
        <time>2012-02-23T14:32:29Z</time>
      </trkpt>
      <trkpt lat="47.22394" lon="-0.9108">
        <ele>103</ele>
        <time>2012-02-23T14:32:30Z</time>
      </trkpt>
      <trkpt lat="47.22393" lon="-0.91082">
        <ele>103</ele>
        <time>2012-02-23T14:32:31Z</time>
      </trkpt>
      <trkpt lat="47.22393" lon="-0.91083">
        <ele>103</ele>
        <time>2012-02-23T14:32:32Z</time>
      </trkpt>
      <trkpt lat="47.22392" lon="-0.91086">
        <ele>103</ele>
        <time>2012-02-23T14:32:34Z</time>
      </trkpt>
      <trkpt lat="47.22392" lon="-0.91088">
        <ele>103</ele>
        <time>2012-02-23T14:32:35Z</time>
      </trkpt>
      <trkpt lat="47.22391" lon="-0.91089">
        <ele>103</ele>
        <time>2012-02-23T14:32:36Z</time>
      </trkpt>
      <trkpt lat="47.2239" lon="-0.91092">
        <ele>103</ele>
        <time>2012-02-23T14:32:38Z</time>
      </trkpt>
      <trkpt lat="47.22389" lon="-0.91094">
        <ele>103</ele>
        <time>2012-02-23T14:32:39Z</time>
      </trkpt>
      <trkpt lat="47.22389" lon="-0.91096">
        <ele>103</ele>
        <time>2012-02-23T14:32:40Z</time>
      </trkpt>
      <trkpt lat="47.22388" lon="-0.91097">
        <ele>103</ele>
        <time>2012-02-23T14:32:41Z</time>
      </trkpt>
      <trkpt lat="47.22387" lon="-0.911">
        <ele>103</ele>
        <time>2012-02-23T14:32:43Z</time>
      </trkpt>
      <trkpt lat="47.22387" lon="-0.91101">
        <ele>103</ele>
        <time>2012-02-23T14:32:44Z</time>
      </trkpt>
      <trkpt lat="47.22387" lon="-0.91103">
        <ele>103</ele>
        <time>2012-02-23T14:32:45Z</time>
      </trkpt>
      <trkpt lat="47.22386" lon="-0.91105">
        <ele>103</ele>
        <time>2012-02-23T14:32:46Z</time>
      </trkpt>
      <trkpt lat="47.22385" lon="-0.91106">
        <ele>103</ele>
        <time>2012-02-23T14:32:47Z</time>
      </trkpt>
      <trkpt lat="47.22384" lon="-0.91109">
        <ele>103</ele>
        <time>2012-02-23T14:32:49Z</time>
      </trkpt>
      <trkpt lat="47.22384" lon="-0.91111">
        <ele>103</ele>
        <time>2012-02-23T14:32:50Z</time>
      </trkpt>
      <trkpt lat="47.22383" lon="-0.91113">
        <ele>103</ele>
        <time>2012-02-23T14:32:51Z</time>
      </trkpt>
      <trkpt lat="47.22383" lon="-0.91114">
        <ele>103</ele>
        <time>2012-02-23T14:32:52Z</time>
      </trkpt>
      <trkpt lat="47.22382" lon="-0.91116">
        <ele>103</ele>
        <time>2012-02-23T14:32:53Z</time>
      </trkpt>
      <trkpt lat="47.22381" lon="-0.91119">
        <ele>103</ele>
        <time>2012-02-23T14:32:55Z</time>
      </trkpt>
      <trkpt lat="47.22381" lon="-0.91121">
        <ele>103</ele>
        <time>2012-02-23T14:32:56Z</time>
      </trkpt>
      <trkpt lat="47.2238" lon="-0.91123">
        <ele>103</ele>
        <time>2012-02-23T14:32:58Z</time>
      </trkpt>
      <trkpt lat="47.22379" lon="-0.91126">
        <ele>103</ele>
        <time>2012-02-23T14:33:00Z</time>
      </trkpt>
      <trkpt lat="47.22378" lon="-0.91127">
        <ele>103</ele>
        <time>2012-02-23T14:33:01Z</time>
      </trkpt>
      <trkpt lat="47.22378" lon="-0.91129">
        <ele>103</ele>
        <time>2012-02-23T14:33:02Z</time>
      </trkpt>
      <trkpt lat="47.22377" lon="-0.91131">
        <ele>103</ele>
        <time>2012-02-23T14:33:03Z</time>
      </trkpt>
      <trkpt lat="47.22377" lon="-0.91133">
        <ele>103</ele>
        <time>2012-02-23T14:33:04Z</time>
      </trkpt>
      <trkpt lat="47.22377" lon="-0.91134">
        <ele>103</ele>
        <time>2012-02-23T14:33:05Z</time>
      </trkpt>
      <trkpt lat="47.22376" lon="-0.91136">
        <ele>103</ele>
        <time>2012-02-23T14:33:06Z</time>
      </trkpt>
      <trkpt lat="47.22375" lon="-0.91138">
        <ele>103</ele>
        <time>2012-02-23T14:33:07Z</time>
      </trkpt>
      <trkpt lat="47.22375" lon="-0.9114">
        <ele>103</ele>
        <time>2012-02-23T14:33:08Z</time>
      </trkpt>
      <trkpt lat="47.22374" lon="-0.91142">
        <ele>103</ele>
        <time>2012-02-23T14:33:09Z</time>
      </trkpt>
      <trkpt lat="47.22373" lon="-0.91145">
        <ele>103</ele>
        <time>2012-02-23T14:33:11Z</time>
      </trkpt>
      <trkpt lat="47.22372" lon="-0.91146">
        <ele>103</ele>
        <time>2012-02-23T14:33:12Z</time>
      </trkpt>
      <trkpt lat="47.22372" lon="-0.91148">
        <ele>103</ele>
        <time>2012-02-23T14:33:13Z</time>
      </trkpt>
      <trkpt lat="47.22371" lon="-0.9115">
        <ele>103</ele>
        <time>2012-02-23T14:33:14Z</time>
      </trkpt>
      <trkpt lat="47.2237" lon="-0.91153">
        <ele>103</ele>
        <time>2012-02-23T14:33:16Z</time>
      </trkpt>
      <trkpt lat="47.2237" lon="-0.91154">
        <ele>103</ele>
        <time>2012-02-23T14:33:17Z</time>
      </trkpt>
      <trkpt lat="47.22369" lon="-0.91156">
        <ele>103</ele>
        <time>2012-02-23T14:33:18Z</time>
      </trkpt>
      <trkpt lat="47.22369" lon="-0.91158">
        <ele>103</ele>
        <time>2012-02-23T14:33:19Z</time>
      </trkpt>
      <trkpt lat="47.22368" lon="-0.9116">
        <ele>103</ele>
        <time>2012-02-23T14:33:21Z</time>
      </trkpt>
      <trkpt lat="47.22367" lon="-0.91162">
        <ele>103</ele>
        <time>2012-02-23T14:33:22Z</time>
      </trkpt>
      <trkpt lat="47.22367" lon="-0.91164">
        <ele>103</ele>
        <time>2012-02-23T14:33:23Z</time>
      </trkpt>
      <trkpt lat="47.22366" lon="-0.91165">
        <ele>103</ele>
        <time>2012-02-23T14:33:24Z</time>
      </trkpt>
      <trkpt lat="47.22365" lon="-0.91168">
        <ele>104</ele>
        <time>2012-02-23T14:33:26Z</time>
      </trkpt>
      <trkpt lat="47.22365" lon="-0.9117">
        <ele>104</ele>
        <time>2012-02-23T14:33:27Z</time>
      </trkpt>
      <trkpt lat="47.22364" lon="-0.91172">
        <ele>104</ele>
        <time>2012-02-23T14:33:29Z</time>
      </trkpt>
      <trkpt lat="47.22363" lon="-0.91173">
        <ele>104</ele>
        <time>2012-02-23T14:33:31Z</time>
      </trkpt>
      <trkpt lat="47.22361" lon="-0.91176">
        <ele>104</ele>
        <time>2012-02-23T14:33:33Z</time>
      </trkpt>
      <trkpt lat="47.22361" lon="-0.91178">
        <ele>104</ele>
        <time>2012-02-23T14:33:34Z</time>
      </trkpt>
      <trkpt lat="47.22361" lon="-0.9118">
        <ele>104</ele>
        <time>2012-02-23T14:33:35Z</time>
      </trkpt>
      <trkpt lat="47.2236" lon="-0.91182">
        <ele>104</ele>
        <time>2012-02-23T14:33:37Z</time>
      </trkpt>
      <trkpt lat="47.22358" lon="-0.91185">
        <ele>104</ele>
        <time>2012-02-23T14:33:39Z</time>
      </trkpt>
      <trkpt lat="47.22358" lon="-0.91186">
        <ele>104</ele>
        <time>2012-02-23T14:33:40Z</time>
      </trkpt>
      <trkpt lat="47.22358" lon="-0.91188">
        <ele>104</ele>
        <time>2012-02-23T14:33:41Z</time>
      </trkpt>
      <trkpt lat="47.22358" lon="-0.9119">
        <ele>104</ele>
        <time>2012-02-23T14:33:42Z</time>
      </trkpt>
      <trkpt lat="47.22357" lon="-0.91192">
        <ele>104</ele>
        <time>2012-02-23T14:33:43Z</time>
      </trkpt>
      <trkpt lat="47.22356" lon="-0.91193">
        <ele>104</ele>
        <time>2012-02-23T14:33:44Z</time>
      </trkpt>
      <trkpt lat="47.22356" lon="-0.91195">
        <ele>105</ele>
        <time>2012-02-23T14:33:45Z</time>
      </trkpt>
      <trkpt lat="47.22356" lon="-0.91196">
        <ele>105</ele>
        <time>2012-02-23T14:33:46Z</time>
      </trkpt>
      <trkpt lat="47.22355" lon="-0.91198">
        <ele>105</ele>
        <time>2012-02-23T14:33:47Z</time>
      </trkpt>
      <trkpt lat="47.22355" lon="-0.912">
        <ele>105</ele>
        <time>2012-02-23T14:33:48Z</time>
      </trkpt>
      <trkpt lat="47.22354" lon="-0.91201">
        <ele>105</ele>
        <time>2012-02-23T14:33:49Z</time>
      </trkpt>
      <trkpt lat="47.22353" lon="-0.91204">
        <ele>105</ele>
        <time>2012-02-23T14:33:51Z</time>
      </trkpt>
      <trkpt lat="47.22353" lon="-0.91206">
        <ele>105</ele>
        <time>2012-02-23T14:33:52Z</time>
      </trkpt>
      <trkpt lat="47.22353" lon="-0.91208">
        <ele>105</ele>
        <time>2012-02-23T14:33:53Z</time>
      </trkpt>
      <trkpt lat="47.22352" lon="-0.91209">
        <ele>105</ele>
        <time>2012-02-23T14:33:54Z</time>
      </trkpt>
      <trkpt lat="47.22351" lon="-0.91212">
        <ele>105</ele>
        <time>2012-02-23T14:33:56Z</time>
      </trkpt>
      <trkpt lat="47.2235" lon="-0.91214">
        <ele>105</ele>
        <time>2012-02-23T14:33:57Z</time>
      </trkpt>
      <trkpt lat="47.2235" lon="-0.91215">
        <ele>105</ele>
        <time>2012-02-23T14:33:58Z</time>
      </trkpt>
      <trkpt lat="47.2235" lon="-0.91217">
        <ele>105</ele>
        <time>2012-02-23T14:33:59Z</time>
      </trkpt>
      <trkpt lat="47.22348" lon="-0.9122">
        <ele>105</ele>
        <time>2012-02-23T14:34:01Z</time>
      </trkpt>
      <trkpt lat="47.22348" lon="-0.91221">
        <ele>105</ele>
        <time>2012-02-23T14:34:02Z</time>
      </trkpt>
      <trkpt lat="47.22348" lon="-0.91223">
        <ele>105</ele>
        <time>2012-02-23T14:34:03Z</time>
      </trkpt>
      <trkpt lat="47.22347" lon="-0.91224">
        <ele>105</ele>
        <time>2012-02-23T14:34:04Z</time>
      </trkpt>
      <trkpt lat="47.22347" lon="-0.91226">
        <ele>105</ele>
        <time>2012-02-23T14:34:05Z</time>
      </trkpt>
      <trkpt lat="47.22346" lon="-0.91229">
        <ele>105</ele>
        <time>2012-02-23T14:34:07Z</time>
      </trkpt>
      <trkpt lat="47.22345" lon="-0.9123">
        <ele>105</ele>
        <time>2012-02-23T14:34:08Z</time>
      </trkpt>
      <trkpt lat="47.22345" lon="-0.91232">
        <ele>105</ele>
        <time>2012-02-23T14:34:09Z</time>
      </trkpt>
      <trkpt lat="47.22343" lon="-0.91235">
        <ele>105</ele>
        <time>2012-02-23T14:34:11Z</time>
      </trkpt>
      <trkpt lat="47.22343" lon="-0.91236">
        <ele>105</ele>
        <time>2012-02-23T14:34:12Z</time>
      </trkpt>
      <trkpt lat="47.22343" lon="-0.91238">
        <ele>105</ele>
        <time>2012-02-23T14:34:13Z</time>
      </trkpt>
      <trkpt lat="47.22342" lon="-0.9124">
        <ele>105</ele>
        <time>2012-02-23T14:34:13Z</time>
      </trkpt>
      <trkpt lat="47.22341" lon="-0.91242">
        <ele>105</ele>
        <time>2012-02-23T14:34:15Z</time>
      </trkpt>
      <trkpt lat="47.2234" lon="-0.91245">
        <ele>105</ele>
        <time>2012-02-23T14:34:16Z</time>
      </trkpt>
      <trkpt lat="47.2234" lon="-0.91248">
        <ele>106</ele>
        <time>2012-02-23T14:34:19Z</time>
      </trkpt>
      <trkpt lat="47.22339" lon="-0.9125">
        <ele>106</ele>
        <time>2012-02-23T14:34:20Z</time>
      </trkpt>
      <trkpt lat="47.22338" lon="-0.91251">
        <ele>106</ele>
        <time>2012-02-23T14:34:21Z</time>
      </trkpt>
      <trkpt lat="47.22338" lon="-0.91253">
        <ele>106</ele>
        <time>2012-02-23T14:34:21Z</time>
      </trkpt>
      <trkpt lat="47.22338" lon="-0.91255">
        <ele>106</ele>
        <time>2012-02-23T14:34:23Z</time>
      </trkpt>
      <trkpt lat="47.22337" lon="-0.91256">
        <ele>106</ele>
        <time>2012-02-23T14:34:24Z</time>
      </trkpt>
      <trkpt lat="47.22337" lon="-0.91258">
        <ele>106</ele>
        <time>2012-02-23T14:34:25Z</time>
      </trkpt>
      <trkpt lat="47.22336" lon="-0.91259">
        <ele>106</ele>
        <time>2012-02-23T14:34:25Z</time>
      </trkpt>
      <trkpt lat="47.22335" lon="-0.91261">
        <ele>106</ele>
        <time>2012-02-23T14:34:28Z</time>
      </trkpt>
      <trkpt lat="47.22335" lon="-0.91264">
        <ele>106</ele>
        <time>2012-02-23T14:34:30Z</time>
      </trkpt>
      <trkpt lat="47.22334" lon="-0.91266">
        <ele>106</ele>
        <time>2012-02-23T14:34:31Z</time>
      </trkpt>
      <trkpt lat="47.22333" lon="-0.91268">
        <ele>106</ele>
        <time>2012-02-23T14:34:32Z</time>
      </trkpt>
      <trkpt lat="47.22333" lon="-0.91269">
        <ele>106</ele>
        <time>2012-02-23T14:34:33Z</time>
      </trkpt>
      <trkpt lat="47.22332" lon="-0.91271">
        <ele>106</ele>
        <time>2012-02-23T14:34:33Z</time>
      </trkpt>
      <trkpt lat="47.22332" lon="-0.91273">
        <ele>106</ele>
        <time>2012-02-23T14:34:36Z</time>
      </trkpt>
      <trkpt lat="47.2233" lon="-0.91276">
        <ele>106</ele>
        <time>2012-02-23T14:34:37Z</time>
      </trkpt>
      <trkpt lat="47.2233" lon="-0.91278">
        <ele>106</ele>
        <time>2012-02-23T14:34:39Z</time>
      </trkpt>
      <trkpt lat="47.22328" lon="-0.91281">
        <ele>106</ele>
        <time>2012-02-23T14:34:40Z</time>
      </trkpt>
      <trkpt lat="47.22327" lon="-0.91284">
        <ele>106</ele>
        <time>2012-02-23T14:34:42Z</time>
      </trkpt>
      <trkpt lat="47.22327" lon="-0.91285">
        <ele>106</ele>
        <time>2012-02-23T14:34:43Z</time>
      </trkpt>
      <trkpt lat="47.22326" lon="-0.91287">
        <ele>106</ele>
        <time>2012-02-23T14:34:44Z</time>
      </trkpt>
      <trkpt lat="47.22325" lon="-0.91288">
        <ele>106</ele>
        <time>2012-02-23T14:34:45Z</time>
      </trkpt>
      <trkpt lat="47.22324" lon="-0.91289">
        <ele>106</ele>
        <time>2012-02-23T14:34:45Z</time>
      </trkpt>
      <trkpt lat="47.22325" lon="-0.91292">
        <ele>107</ele>
        <time>2012-02-23T14:34:48Z</time>
      </trkpt>
      <trkpt lat="47.22324" lon="-0.9129">
        <ele>107</ele>
        <time>2012-02-23T14:34:50Z</time>
      </trkpt>
      <trkpt lat="47.22323" lon="-0.91288">
        <ele>107</ele>
        <time>2012-02-23T14:34:52Z</time>
      </trkpt>
      <trkpt lat="47.22322" lon="-0.91286">
        <ele>107</ele>
        <time>2012-02-23T14:34:54Z</time>
      </trkpt>
      <trkpt lat="47.22321" lon="-0.91283">
        <ele>107</ele>
        <time>2012-02-23T14:34:56Z</time>
      </trkpt>
      <trkpt lat="47.2232" lon="-0.91281">
        <ele>107</ele>
        <time>2012-02-23T14:34:58Z</time>
      </trkpt>
      <trkpt lat="47.22319" lon="-0.9128">
        <ele>107</ele>
        <time>2012-02-23T14:35:00Z</time>
      </trkpt>
      <trkpt lat="47.22317" lon="-0.91278">
        <ele>107</ele>
        <time>2012-02-23T14:35:02Z</time>
      </trkpt>
      <trkpt lat="47.22316" lon="-0.91276">
        <ele>107</ele>
        <time>2012-02-23T14:35:04Z</time>
      </trkpt>
      <trkpt lat="47.22316" lon="-0.91274">
        <ele>107</ele>
        <time>2012-02-23T14:35:05Z</time>
      </trkpt>
      <trkpt lat="47.22315" lon="-0.91272">
        <ele>107</ele>
        <time>2012-02-23T14:35:06Z</time>
      </trkpt>
      <trkpt lat="47.22314" lon="-0.9127">
        <ele>107</ele>
        <time>2012-02-23T14:35:08Z</time>
      </trkpt>
      <trkpt lat="47.22314" lon="-0.91269">
        <ele>107</ele>
        <time>2012-02-23T14:35:09Z</time>
      </trkpt>
      <trkpt lat="47.22313" lon="-0.91267">
        <ele>107</ele>
        <time>2012-02-23T14:35:10Z</time>
      </trkpt>
      <trkpt lat="47.22312" lon="-0.91265">
        <ele>107</ele>
        <time>2012-02-23T14:35:12Z</time>
      </trkpt>
      <trkpt lat="47.22311" lon="-0.91263">
        <ele>107</ele>
        <time>2012-02-23T14:35:14Z</time>
      </trkpt>
      <trkpt lat="47.22311" lon="-0.9126">
        <ele>107</ele>
        <time>2012-02-23T14:35:16Z</time>
      </trkpt>
      <trkpt lat="47.2231" lon="-0.91258">
        <ele>107</ele>
        <time>2012-02-23T14:35:18Z</time>
      </trkpt>
      <trkpt lat="47.22308" lon="-0.91255">
        <ele>107</ele>
        <time>2012-02-23T14:35:20Z</time>
      </trkpt>
      <trkpt lat="47.22308" lon="-0.91254">
        <ele>107</ele>
        <time>2012-02-23T14:35:21Z</time>
      </trkpt>
      <trkpt lat="47.22307" lon="-0.91251">
        <ele>107</ele>
        <time>2012-02-23T14:35:23Z</time>
      </trkpt>
      <trkpt lat="47.22306" lon="-0.91249">
        <ele>107</ele>
        <time>2012-02-23T14:35:25Z</time>
      </trkpt>
      <trkpt lat="47.22305" lon="-0.91246">
        <ele>107</ele>
        <time>2012-02-23T14:35:27Z</time>
      </trkpt>
      <trkpt lat="47.22304" lon="-0.91243">
        <ele>107</ele>
        <time>2012-02-23T14:35:29Z</time>
      </trkpt>
      <trkpt lat="47.22304" lon="-0.91242">
        <ele>107</ele>
        <time>2012-02-23T14:35:30Z</time>
      </trkpt>
      <trkpt lat="47.22303" lon="-0.9124">
        <ele>107</ele>
        <time>2012-02-23T14:35:31Z</time>
      </trkpt>
      <trkpt lat="47.22302" lon="-0.91238">
        <ele>107</ele>
        <time>2012-02-23T14:35:33Z</time>
      </trkpt>
      <trkpt lat="47.22301" lon="-0.91235">
        <ele>107</ele>
        <time>2012-02-23T14:35:35Z</time>
      </trkpt>
      <trkpt lat="47.223" lon="-0.91233">
        <ele>107</ele>
        <time>2012-02-23T14:35:37Z</time>
      </trkpt>
      <trkpt lat="47.22299" lon="-0.9123">
        <ele>107</ele>
        <time>2012-02-23T14:35:39Z</time>
      </trkpt>
      <trkpt lat="47.22299" lon="-0.91229">
        <ele>107</ele>
        <time>2012-02-23T14:35:40Z</time>
      </trkpt>
      <trkpt lat="47.22298" lon="-0.91228">
        <ele>107</ele>
        <time>2012-02-23T14:35:41Z</time>
      </trkpt>
      <trkpt lat="47.22298" lon="-0.91226">
        <ele>107</ele>
        <time>2012-02-23T14:35:42Z</time>
      </trkpt>
      <trkpt lat="47.22297" lon="-0.91224">
        <ele>107</ele>
        <time>2012-02-23T14:35:44Z</time>
      </trkpt>
      <trkpt lat="47.22295" lon="-0.91221">
        <ele>107</ele>
        <time>2012-02-23T14:35:46Z</time>
      </trkpt>
      <trkpt lat="47.22295" lon="-0.91218">
        <ele>107</ele>
        <time>2012-02-23T14:35:48Z</time>
      </trkpt>
      <trkpt lat="47.22294" lon="-0.91215">
        <ele>107</ele>
        <time>2012-02-23T14:35:50Z</time>
      </trkpt>
      <trkpt lat="47.22293" lon="-0.91213">
        <ele>107</ele>
        <time>2012-02-23T14:35:52Z</time>
      </trkpt>
      <trkpt lat="47.22292" lon="-0.9121">
        <ele>107</ele>
        <time>2012-02-23T14:35:54Z</time>
      </trkpt>
      <trkpt lat="47.22291" lon="-0.91207">
        <ele>107</ele>
        <time>2012-02-23T14:35:56Z</time>
      </trkpt>
      <trkpt lat="47.2229" lon="-0.91205">
        <ele>107</ele>
        <time>2012-02-23T14:35:58Z</time>
      </trkpt>
      <trkpt lat="47.22289" lon="-0.91203">
        <ele>107</ele>
        <time>2012-02-23T14:35:59Z</time>
      </trkpt>
      <trkpt lat="47.22288" lon="-0.91201">
        <ele>107</ele>
        <time>2012-02-23T14:36:01Z</time>
      </trkpt>
      <trkpt lat="47.22287" lon="-0.91198">
        <ele>107</ele>
        <time>2012-02-23T14:36:03Z</time>
      </trkpt>
      <trkpt lat="47.22287" lon="-0.91196">
        <ele>107</ele>
        <time>2012-02-23T14:36:05Z</time>
      </trkpt>
      <trkpt lat="47.22286" lon="-0.91195">
        <ele>107</ele>
        <time>2012-02-23T14:36:06Z</time>
      </trkpt>
      <trkpt lat="47.22285" lon="-0.91192">
        <ele>107</ele>
        <time>2012-02-23T14:36:08Z</time>
      </trkpt>
      <trkpt lat="47.22284" lon="-0.91189">
        <ele>107</ele>
        <time>2012-02-23T14:36:10Z</time>
      </trkpt>
      <trkpt lat="47.22284" lon="-0.91188">
        <ele>107</ele>
        <time>2012-02-23T14:36:11Z</time>
      </trkpt>
      <trkpt lat="47.22283" lon="-0.91185">
        <ele>107</ele>
        <time>2012-02-23T14:36:13Z</time>
      </trkpt>
      <trkpt lat="47.22282" lon="-0.91183">
        <ele>107</ele>
        <time>2012-02-23T14:36:15Z</time>
      </trkpt>
      <trkpt lat="47.22281" lon="-0.91181">
        <ele>107</ele>
        <time>2012-02-23T14:36:17Z</time>
      </trkpt>
      <trkpt lat="47.2228" lon="-0.91178">
        <ele>107</ele>
        <time>2012-02-23T14:36:19Z</time>
      </trkpt>
      <trkpt lat="47.22279" lon="-0.91176">
        <ele>107</ele>
        <time>2012-02-23T14:36:21Z</time>
      </trkpt>
      <trkpt lat="47.22279" lon="-0.91174">
        <ele>107</ele>
        <time>2012-02-23T14:36:22Z</time>
      </trkpt>
      <trkpt lat="47.22278" lon="-0.91172">
        <ele>107</ele>
        <time>2012-02-23T14:36:23Z</time>
      </trkpt>
      <trkpt lat="47.22277" lon="-0.91171">
        <ele>107</ele>
        <time>2012-02-23T14:36:24Z</time>
      </trkpt>
      <trkpt lat="47.22277" lon="-0.91169">
        <ele>107</ele>
        <time>2012-02-23T14:36:25Z</time>
      </trkpt>
      <trkpt lat="47.22276" lon="-0.91167">
        <ele>107</ele>
        <time>2012-02-23T14:36:27Z</time>
      </trkpt>
      <trkpt lat="47.22275" lon="-0.91164">
        <ele>107</ele>
        <time>2012-02-23T14:36:29Z</time>
      </trkpt>
      <trkpt lat="47.22274" lon="-0.91161">
        <ele>107</ele>
        <time>2012-02-23T14:36:31Z</time>
      </trkpt>
      <trkpt lat="47.22274" lon="-0.9116">
        <ele>107</ele>
        <time>2012-02-23T14:36:32Z</time>
      </trkpt>
      <trkpt lat="47.22273" lon="-0.91157">
        <ele>107</ele>
        <time>2012-02-23T14:36:34Z</time>
      </trkpt>
      <trkpt lat="47.22272" lon="-0.91155">
        <ele>107</ele>
        <time>2012-02-23T14:36:36Z</time>
      </trkpt>
      <trkpt lat="47.22272" lon="-0.91153">
        <ele>107</ele>
        <time>2012-02-23T14:36:37Z</time>
      </trkpt>
      <trkpt lat="47.22271" lon="-0.91152">
        <ele>107</ele>
        <time>2012-02-23T14:36:38Z</time>
      </trkpt>
      <trkpt lat="47.22271" lon="-0.91149">
        <ele>107</ele>
        <time>2012-02-23T14:36:40Z</time>
      </trkpt>
      <trkpt lat="47.22269" lon="-0.91146">
        <ele>107</ele>
        <time>2012-02-23T14:36:42Z</time>
      </trkpt>
      <trkpt lat="47.22269" lon="-0.91144">
        <ele>107</ele>
        <time>2012-02-23T14:36:44Z</time>
      </trkpt>
      <trkpt lat="47.22268" lon="-0.91141">
        <ele>107</ele>
        <time>2012-02-23T14:36:46Z</time>
      </trkpt>
      <trkpt lat="47.22267" lon="-0.9114">
        <ele>107</ele>
        <time>2012-02-23T14:36:47Z</time>
      </trkpt>
      <trkpt lat="47.22266" lon="-0.91137">
        <ele>106</ele>
        <time>2012-02-23T14:36:49Z</time>
      </trkpt>
      <trkpt lat="47.22265" lon="-0.91134">
        <ele>106</ele>
        <time>2012-02-23T14:36:51Z</time>
      </trkpt>
      <trkpt lat="47.22265" lon="-0.91132">
        <ele>106</ele>
        <time>2012-02-23T14:36:52Z</time>
      </trkpt>
      <trkpt lat="47.22264" lon="-0.9113">
        <ele>106</ele>
        <time>2012-02-23T14:36:54Z</time>
      </trkpt>
      <trkpt lat="47.22263" lon="-0.91128">
        <ele>106</ele>
        <time>2012-02-23T14:36:55Z</time>
      </trkpt>
      <trkpt lat="47.22263" lon="-0.91126">
        <ele>106</ele>
        <time>2012-02-23T14:36:57Z</time>
      </trkpt>
      <trkpt lat="47.22262" lon="-0.91124">
        <ele>106</ele>
        <time>2012-02-23T14:36:58Z</time>
      </trkpt>
      <trkpt lat="47.22261" lon="-0.91122">
        <ele>105</ele>
        <time>2012-02-23T14:37:00Z</time>
      </trkpt>
      <trkpt lat="47.22261" lon="-0.91119">
        <ele>105</ele>
        <time>2012-02-23T14:37:02Z</time>
      </trkpt>
      <trkpt lat="47.2226" lon="-0.91117">
        <ele>105</ele>
        <time>2012-02-23T14:37:04Z</time>
      </trkpt>
      <trkpt lat="47.22259" lon="-0.91114">
        <ele>105</ele>
        <time>2012-02-23T14:37:06Z</time>
      </trkpt>
      <trkpt lat="47.22258" lon="-0.91112">
        <ele>105</ele>
        <time>2012-02-23T14:37:08Z</time>
      </trkpt>
      <trkpt lat="47.22256" lon="-0.9111">
        <ele>105</ele>
        <time>2012-02-23T14:37:10Z</time>
      </trkpt>
      <trkpt lat="47.22255" lon="-0.91107">
        <ele>105</ele>
        <time>2012-02-23T14:37:12Z</time>
      </trkpt>
      <trkpt lat="47.22254" lon="-0.91106">
        <ele>105</ele>
        <time>2012-02-23T14:37:13Z</time>
      </trkpt>
      <trkpt lat="47.22253" lon="-0.91103">
        <ele>105</ele>
        <time>2012-02-23T14:37:15Z</time>
      </trkpt>
      <trkpt lat="47.22253" lon="-0.91101">
        <ele>105</ele>
        <time>2012-02-23T14:37:17Z</time>
      </trkpt>
      <trkpt lat="47.22253" lon="-0.91099">
        <ele>105</ele>
        <time>2012-02-23T14:37:18Z</time>
      </trkpt>
      <trkpt lat="47.22252" lon="-0.91097">
        <ele>105</ele>
        <time>2012-02-23T14:37:19Z</time>
      </trkpt>
      <trkpt lat="47.22252" lon="-0.91096">
        <ele>105</ele>
        <time>2012-02-23T14:37:20Z</time>
      </trkpt>
      <trkpt lat="47.22251" lon="-0.91094">
        <ele>105</ele>
        <time>2012-02-23T14:37:21Z</time>
      </trkpt>
      <trkpt lat="47.2225" lon="-0.91092">
        <ele>105</ele>
        <time>2012-02-23T14:37:23Z</time>
      </trkpt>
      <trkpt lat="47.22249" lon="-0.91089">
        <ele>105</ele>
        <time>2012-02-23T14:37:25Z</time>
      </trkpt>
      <trkpt lat="47.22248" lon="-0.91087">
        <ele>105</ele>
        <time>2012-02-23T14:37:27Z</time>
      </trkpt>
      <trkpt lat="47.22247" lon="-0.91085">
        <ele>105</ele>
        <time>2012-02-23T14:37:28Z</time>
      </trkpt>
      <trkpt lat="47.22246" lon="-0.91083">
        <ele>105</ele>
        <time>2012-02-23T14:37:30Z</time>
      </trkpt>
      <trkpt lat="47.22245" lon="-0.9108">
        <ele>105</ele>
        <time>2012-02-23T14:37:32Z</time>
      </trkpt>
      <trkpt lat="47.22244" lon="-0.91078">
        <ele>105</ele>
        <time>2012-02-23T14:37:34Z</time>
      </trkpt>
      <trkpt lat="47.22243" lon="-0.91075">
        <ele>105</ele>
        <time>2012-02-23T14:37:36Z</time>
      </trkpt>
      <trkpt lat="47.22241" lon="-0.91073">
        <ele>105</ele>
        <time>2012-02-23T14:37:38Z</time>
      </trkpt>
      <trkpt lat="47.2224" lon="-0.9107">
        <ele>105</ele>
        <time>2012-02-23T14:37:40Z</time>
      </trkpt>
      <trkpt lat="47.22239" lon="-0.91068">
        <ele>105</ele>
        <time>2012-02-23T14:37:42Z</time>
      </trkpt>
      <trkpt lat="47.22238" lon="-0.91065">
        <ele>105</ele>
        <time>2012-02-23T14:37:44Z</time>
      </trkpt>
      <trkpt lat="47.22237" lon="-0.91063">
        <ele>105</ele>
        <time>2012-02-23T14:37:46Z</time>
      </trkpt>
      <trkpt lat="47.22236" lon="-0.91061">
        <ele>105</ele>
        <time>2012-02-23T14:37:48Z</time>
      </trkpt>
      <trkpt lat="47.22235" lon="-0.91058">
        <ele>105</ele>
        <time>2012-02-23T14:37:50Z</time>
      </trkpt>
      <trkpt lat="47.22234" lon="-0.91057">
        <ele>105</ele>
        <time>2012-02-23T14:37:51Z</time>
      </trkpt>
      <trkpt lat="47.22234" lon="-0.91055">
        <ele>105</ele>
        <time>2012-02-23T14:37:52Z</time>
      </trkpt>
      <trkpt lat="47.22233" lon="-0.91053">
        <ele>104</ele>
        <time>2012-02-23T14:37:54Z</time>
      </trkpt>
      <trkpt lat="47.22232" lon="-0.91051">
        <ele>104</ele>
        <time>2012-02-23T14:37:55Z</time>
      </trkpt>
      <trkpt lat="47.22231" lon="-0.91049">
        <ele>104</ele>
        <time>2012-02-23T14:37:57Z</time>
      </trkpt>
      <trkpt lat="47.2223" lon="-0.91046">
        <ele>104</ele>
        <time>2012-02-23T14:37:59Z</time>
      </trkpt>
      <trkpt lat="47.22229" lon="-0.91043">
        <ele>104</ele>
        <time>2012-02-23T14:38:01Z</time>
      </trkpt>
      <trkpt lat="47.22228" lon="-0.9104">
        <ele>104</ele>
        <time>2012-02-23T14:38:03Z</time>
      </trkpt>
      <trkpt lat="47.22228" lon="-0.91039">
        <ele>104</ele>
        <time>2012-02-23T14:38:04Z</time>
      </trkpt>
      <trkpt lat="47.22227" lon="-0.91037">
        <ele>104</ele>
        <time>2012-02-23T14:38:05Z</time>
      </trkpt>
      <trkpt lat="47.22227" lon="-0.91036">
        <ele>104</ele>
        <time>2012-02-23T14:38:06Z</time>
      </trkpt>
      <trkpt lat="47.22226" lon="-0.91033">
        <ele>104</ele>
        <time>2012-02-23T14:38:08Z</time>
      </trkpt>
      <trkpt lat="47.22225" lon="-0.91031">
        <ele>104</ele>
        <time>2012-02-23T14:38:09Z</time>
      </trkpt>
      <trkpt lat="47.22225" lon="-0.9103">
        <ele>104</ele>
        <time>2012-02-23T14:38:10Z</time>
      </trkpt>
      <trkpt lat="47.22224" lon="-0.91028">
        <ele>104</ele>
        <time>2012-02-23T14:38:11Z</time>
      </trkpt>
      <trkpt lat="47.22224" lon="-0.91025">
        <ele>104</ele>
        <time>2012-02-23T14:38:13Z</time>
      </trkpt>
      <trkpt lat="47.22223" lon="-0.91024">
        <ele>104</ele>
        <time>2012-02-23T14:38:14Z</time>
      </trkpt>
      <trkpt lat="47.22223" lon="-0.91022">
        <ele>104</ele>
        <time>2012-02-23T14:38:15Z</time>
      </trkpt>
      <trkpt lat="47.22222" lon="-0.9102">
        <ele>104</ele>
        <time>2012-02-23T14:38:17Z</time>
      </trkpt>
      <trkpt lat="47.22221" lon="-0.91017">
        <ele>104</ele>
        <time>2012-02-23T14:38:19Z</time>
      </trkpt>
      <trkpt lat="47.2222" lon="-0.91015">
        <ele>104</ele>
        <time>2012-02-23T14:38:20Z</time>
      </trkpt>
      <trkpt lat="47.22219" lon="-0.91013">
        <ele>104</ele>
        <time>2012-02-23T14:38:22Z</time>
      </trkpt>
      <trkpt lat="47.22219" lon="-0.91011">
        <ele>104</ele>
        <time>2012-02-23T14:38:23Z</time>
      </trkpt>
      <trkpt lat="47.22218" lon="-0.91009">
        <ele>104</ele>
        <time>2012-02-23T14:38:25Z</time>
      </trkpt>
      <trkpt lat="47.22218" lon="-0.91006">
        <ele>104</ele>
        <time>2012-02-23T14:38:27Z</time>
      </trkpt>
      <trkpt lat="47.22217" lon="-0.91004">
        <ele>104</ele>
        <time>2012-02-23T14:38:29Z</time>
      </trkpt>
      <trkpt lat="47.22216" lon="-0.91002">
        <ele>104</ele>
        <time>2012-02-23T14:38:30Z</time>
      </trkpt>
      <trkpt lat="47.22216" lon="-0.91">
        <ele>104</ele>
        <time>2012-02-23T14:38:31Z</time>
      </trkpt>
      <trkpt lat="47.22215" lon="-0.90998">
        <ele>104</ele>
        <time>2012-02-23T14:38:33Z</time>
      </trkpt>
      <trkpt lat="47.22215" lon="-0.90996">
        <ele>104</ele>
        <time>2012-02-23T14:38:34Z</time>
      </trkpt>
      <trkpt lat="47.22214" lon="-0.90994">
        <ele>104</ele>
        <time>2012-02-23T14:38:36Z</time>
      </trkpt>
      <trkpt lat="47.22214" lon="-0.90993">
        <ele>104</ele>
        <time>2012-02-23T14:38:38Z</time>
      </trkpt>
      <trkpt lat="47.22213" lon="-0.9099">
        <ele>104</ele>
        <time>2012-02-23T14:38:41Z</time>
      </trkpt>
      <trkpt lat="47.22212" lon="-0.90987">
        <ele>104</ele>
        <time>2012-02-23T14:38:43Z</time>
      </trkpt>
      <trkpt lat="47.22212" lon="-0.90986">
        <ele>104</ele>
        <time>2012-02-23T14:38:44Z</time>
      </trkpt>
      <trkpt lat="47.22211" lon="-0.90984">
        <ele>104</ele>
        <time>2012-02-23T14:38:45Z</time>
      </trkpt>
      <trkpt lat="47.22211" lon="-0.90983">
        <ele>104</ele>
        <time>2012-02-23T14:38:46Z</time>
      </trkpt>
      <trkpt lat="47.2221" lon="-0.90981">
        <ele>104</ele>
        <time>2012-02-23T14:38:47Z</time>
      </trkpt>
      <trkpt lat="47.2221" lon="-0.9098">
        <ele>104</ele>
        <time>2012-02-23T14:38:48Z</time>
      </trkpt>
      <trkpt lat="47.22208" lon="-0.90977">
        <ele>104</ele>
        <time>2012-02-23T14:38:50Z</time>
      </trkpt>
      <trkpt lat="47.22208" lon="-0.90975">
        <ele>104</ele>
        <time>2012-02-23T14:38:51Z</time>
      </trkpt>
      <trkpt lat="47.22207" lon="-0.90973">
        <ele>104</ele>
        <time>2012-02-23T14:38:53Z</time>
      </trkpt>
      <trkpt lat="47.22207" lon="-0.90971">
        <ele>104</ele>
        <time>2012-02-23T14:38:54Z</time>
      </trkpt>
      <trkpt lat="47.22206" lon="-0.90969">
        <ele>104</ele>
        <time>2012-02-23T14:38:56Z</time>
      </trkpt>
      <trkpt lat="47.22205" lon="-0.90966">
        <ele>104</ele>
        <time>2012-02-23T14:38:58Z</time>
      </trkpt>
      <trkpt lat="47.22204" lon="-0.90963">
        <ele>104</ele>
        <time>2012-02-23T14:39:00Z</time>
      </trkpt>
      <trkpt lat="47.22203" lon="-0.90961">
        <ele>104</ele>
        <time>2012-02-23T14:39:02Z</time>
      </trkpt>
      <trkpt lat="47.22202" lon="-0.90959">
        <ele>104</ele>
        <time>2012-02-23T14:39:03Z</time>
      </trkpt>
      <trkpt lat="47.22202" lon="-0.90957">
        <ele>104</ele>
        <time>2012-02-23T14:39:04Z</time>
      </trkpt>
      <trkpt lat="47.222" lon="-0.90955">
        <ele>104</ele>
        <time>2012-02-23T14:39:06Z</time>
      </trkpt>
      <trkpt lat="47.222" lon="-0.90953">
        <ele>104</ele>
        <time>2012-02-23T14:39:07Z</time>
      </trkpt>
      <trkpt lat="47.222" lon="-0.90952">
        <ele>104</ele>
        <time>2012-02-23T14:39:08Z</time>
      </trkpt>
      <trkpt lat="47.222" lon="-0.9095">
        <ele>104</ele>
        <time>2012-02-23T14:39:09Z</time>
      </trkpt>
      <trkpt lat="47.22198" lon="-0.90948">
        <ele>104</ele>
        <time>2012-02-23T14:39:11Z</time>
      </trkpt>
      <trkpt lat="47.22197" lon="-0.90945">
        <ele>104</ele>
        <time>2012-02-23T14:39:13Z</time>
      </trkpt>
      <trkpt lat="47.22197" lon="-0.90943">
        <ele>104</ele>
        <time>2012-02-23T14:39:14Z</time>
      </trkpt>
      <trkpt lat="47.22196" lon="-0.90941">
        <ele>104</ele>
        <time>2012-02-23T14:39:16Z</time>
      </trkpt>
      <trkpt lat="47.22195" lon="-0.90939">
        <ele>104</ele>
        <time>2012-02-23T14:39:17Z</time>
      </trkpt>
      <trkpt lat="47.22195" lon="-0.90937">
        <ele>104</ele>
        <time>2012-02-23T14:39:18Z</time>
      </trkpt>
      <trkpt lat="47.22194" lon="-0.90934">
        <ele>104</ele>
        <time>2012-02-23T14:39:20Z</time>
      </trkpt>
      <trkpt lat="47.22193" lon="-0.90932">
        <ele>104</ele>
        <time>2012-02-23T14:39:22Z</time>
      </trkpt>
      <trkpt lat="47.22192" lon="-0.9093">
        <ele>104</ele>
        <time>2012-02-23T14:39:23Z</time>
      </trkpt>
      <trkpt lat="47.22192" lon="-0.90927">
        <ele>104</ele>
        <time>2012-02-23T14:39:25Z</time>
      </trkpt>
      <trkpt lat="47.22191" lon="-0.90926">
        <ele>104</ele>
        <time>2012-02-23T14:39:26Z</time>
      </trkpt>
      <trkpt lat="47.2219" lon="-0.90924">
        <ele>104</ele>
        <time>2012-02-23T14:39:27Z</time>
      </trkpt>
      <trkpt lat="47.22189" lon="-0.90922">
        <ele>104</ele>
        <time>2012-02-23T14:39:29Z</time>
      </trkpt>
      <trkpt lat="47.22189" lon="-0.90919">
        <ele>104</ele>
        <time>2012-02-23T14:39:31Z</time>
      </trkpt>
      <trkpt lat="47.22188" lon="-0.90917">
        <ele>104</ele>
        <time>2012-02-23T14:39:33Z</time>
      </trkpt>
      <trkpt lat="47.22187" lon="-0.90914">
        <ele>104</ele>
        <time>2012-02-23T14:39:35Z</time>
      </trkpt>
      <trkpt lat="47.22186" lon="-0.90912">
        <ele>104</ele>
        <time>2012-02-23T14:39:36Z</time>
      </trkpt>
      <trkpt lat="47.22185" lon="-0.9091">
        <ele>104</ele>
        <time>2012-02-23T14:39:38Z</time>
      </trkpt>
      <trkpt lat="47.22184" lon="-0.90907">
        <ele>104</ele>
        <time>2012-02-23T14:39:40Z</time>
      </trkpt>
      <trkpt lat="47.22184" lon="-0.90905">
        <ele>104</ele>
        <time>2012-02-23T14:39:41Z</time>
      </trkpt>
      <trkpt lat="47.22183" lon="-0.90904">
        <ele>104</ele>
        <time>2012-02-23T14:39:42Z</time>
      </trkpt>
      <trkpt lat="47.22182" lon="-0.90901">
        <ele>104</ele>
        <time>2012-02-23T14:39:44Z</time>
      </trkpt>
      <trkpt lat="47.22181" lon="-0.909">
        <ele>104</ele>
        <time>2012-02-23T14:39:45Z</time>
      </trkpt>
      <trkpt lat="47.22181" lon="-0.90898">
        <ele>104</ele>
        <time>2012-02-23T14:39:46Z</time>
      </trkpt>
      <trkpt lat="47.2218" lon="-0.90896">
        <ele>104</ele>
        <time>2012-02-23T14:39:48Z</time>
      </trkpt>
      <trkpt lat="47.22179" lon="-0.90893">
        <ele>104</ele>
        <time>2012-02-23T14:39:50Z</time>
      </trkpt>
      <trkpt lat="47.22178" lon="-0.9089">
        <ele>103</ele>
        <time>2012-02-23T14:39:52Z</time>
      </trkpt>
      <trkpt lat="47.22177" lon="-0.90887">
        <ele>103</ele>
        <time>2012-02-23T14:39:54Z</time>
      </trkpt>
      <trkpt lat="47.22176" lon="-0.90886">
        <ele>103</ele>
        <time>2012-02-23T14:39:55Z</time>
      </trkpt>
      <trkpt lat="47.22176" lon="-0.90885">
        <ele>103</ele>
        <time>2012-02-23T14:39:56Z</time>
      </trkpt>
      <trkpt lat="47.22175" lon="-0.90882">
        <ele>103</ele>
        <time>2012-02-23T14:39:58Z</time>
      </trkpt>
      <trkpt lat="47.22174" lon="-0.90881">
        <ele>103</ele>
        <time>2012-02-23T14:39:59Z</time>
      </trkpt>
      <trkpt lat="47.22174" lon="-0.90879">
        <ele>103</ele>
        <time>2012-02-23T14:40:00Z</time>
      </trkpt>
      <trkpt lat="47.22173" lon="-0.90876">
        <ele>103</ele>
        <time>2012-02-23T14:40:02Z</time>
      </trkpt>
      <trkpt lat="47.22172" lon="-0.90874">
        <ele>103</ele>
        <time>2012-02-23T14:40:04Z</time>
      </trkpt>
      <trkpt lat="47.22171" lon="-0.90871">
        <ele>103</ele>
        <time>2012-02-23T14:40:06Z</time>
      </trkpt>
      <trkpt lat="47.22171" lon="-0.9087">
        <ele>103</ele>
        <time>2012-02-23T14:40:07Z</time>
      </trkpt>
      <trkpt lat="47.2217" lon="-0.90867">
        <ele>103</ele>
        <time>2012-02-23T14:40:09Z</time>
      </trkpt>
      <trkpt lat="47.22169" lon="-0.90865">
        <ele>103</ele>
        <time>2012-02-23T14:40:11Z</time>
      </trkpt>
      <trkpt lat="47.22167" lon="-0.90863">
        <ele>103</ele>
        <time>2012-02-23T14:40:13Z</time>
      </trkpt>
      <trkpt lat="47.22166" lon="-0.9086">
        <ele>103</ele>
        <time>2012-02-23T14:40:15Z</time>
      </trkpt>
      <trkpt lat="47.22165" lon="-0.90859">
        <ele>103</ele>
        <time>2012-02-23T14:40:16Z</time>
      </trkpt>
      <trkpt lat="47.22164" lon="-0.90856">
        <ele>103</ele>
        <time>2012-02-23T14:40:18Z</time>
      </trkpt>
      <trkpt lat="47.22164" lon="-0.90855">
        <ele>103</ele>
        <time>2012-02-23T14:40:19Z</time>
      </trkpt>
      <trkpt lat="47.22163" lon="-0.90853">
        <ele>103</ele>
        <time>2012-02-23T14:40:20Z</time>
      </trkpt>
      <trkpt lat="47.22163" lon="-0.90852">
        <ele>103</ele>
        <time>2012-02-23T14:40:21Z</time>
      </trkpt>
      <trkpt lat="47.22161" lon="-0.9085">
        <ele>103</ele>
        <time>2012-02-23T14:40:23Z</time>
      </trkpt>
      <trkpt lat="47.2216" lon="-0.90847">
        <ele>103</ele>
        <time>2012-02-23T14:40:25Z</time>
      </trkpt>
      <trkpt lat="47.22159" lon="-0.90845">
        <ele>103</ele>
        <time>2012-02-23T14:40:27Z</time>
      </trkpt>
      <trkpt lat="47.22158" lon="-0.90842">
        <ele>103</ele>
        <time>2012-02-23T14:40:29Z</time>
      </trkpt>
      <trkpt lat="47.22157" lon="-0.90841">
        <ele>102</ele>
        <time>2012-02-23T14:40:30Z</time>
      </trkpt>
      <trkpt lat="47.22156" lon="-0.90838">
        <ele>102</ele>
        <time>2012-02-23T14:40:32Z</time>
      </trkpt>
      <trkpt lat="47.22154" lon="-0.90836">
        <ele>102</ele>
        <time>2012-02-23T14:40:34Z</time>
      </trkpt>
      <trkpt lat="47.22153" lon="-0.90834">
        <ele>102</ele>
        <time>2012-02-23T14:40:36Z</time>
      </trkpt>
      <trkpt lat="47.22152" lon="-0.90832">
        <ele>102</ele>
        <time>2012-02-23T14:40:38Z</time>
      </trkpt>
      <trkpt lat="47.22151" lon="-0.90829">
        <ele>102</ele>
        <time>2012-02-23T14:40:40Z</time>
      </trkpt>
      <trkpt lat="47.2215" lon="-0.90826">
        <ele>102</ele>
        <time>2012-02-23T14:40:42Z</time>
      </trkpt>
      <trkpt lat="47.22149" lon="-0.90825">
        <ele>102</ele>
        <time>2012-02-23T14:40:43Z</time>
      </trkpt>
      <trkpt lat="47.22149" lon="-0.90822">
        <ele>102</ele>
        <time>2012-02-23T14:40:45Z</time>
      </trkpt>
      <trkpt lat="47.22149" lon="-0.9082">
        <ele>102</ele>
        <time>2012-02-23T14:40:46Z</time>
      </trkpt>
      <trkpt lat="47.22148" lon="-0.90818">
        <ele>102</ele>
        <time>2012-02-23T14:40:48Z</time>
      </trkpt>
      <trkpt lat="47.22148" lon="-0.90816">
        <ele>102</ele>
        <time>2012-02-23T14:40:50Z</time>
      </trkpt>
      <trkpt lat="47.22147" lon="-0.90813">
        <ele>102</ele>
        <time>2012-02-23T14:40:52Z</time>
      </trkpt>
      <trkpt lat="47.22146" lon="-0.90812">
        <ele>102</ele>
        <time>2012-02-23T14:40:53Z</time>
      </trkpt>
      <trkpt lat="47.22145" lon="-0.90809">
        <ele>102</ele>
        <time>2012-02-23T14:40:55Z</time>
      </trkpt>
      <trkpt lat="47.22145" lon="-0.90807">
        <ele>102</ele>
        <time>2012-02-23T14:40:56Z</time>
      </trkpt>
      <trkpt lat="47.22144" lon="-0.90806">
        <ele>102</ele>
        <time>2012-02-23T14:40:57Z</time>
      </trkpt>
      <trkpt lat="47.22144" lon="-0.90804">
        <ele>102</ele>
        <time>2012-02-23T14:40:58Z</time>
      </trkpt>
      <trkpt lat="47.22143" lon="-0.90803">
        <ele>102</ele>
        <time>2012-02-23T14:40:59Z</time>
      </trkpt>
      <trkpt lat="47.22142" lon="-0.908">
        <ele>102</ele>
        <time>2012-02-23T14:41:01Z</time>
      </trkpt>
      <trkpt lat="47.22141" lon="-0.90797">
        <ele>102</ele>
        <time>2012-02-23T14:41:03Z</time>
      </trkpt>
      <trkpt lat="47.22141" lon="-0.90796">
        <ele>102</ele>
        <time>2012-02-23T14:41:04Z</time>
      </trkpt>
      <trkpt lat="47.2214" lon="-0.90794">
        <ele>102</ele>
        <time>2012-02-23T14:41:05Z</time>
      </trkpt>
      <trkpt lat="47.22139" lon="-0.90791">
        <ele>102</ele>
        <time>2012-02-23T14:41:07Z</time>
      </trkpt>
      <trkpt lat="47.22138" lon="-0.9079">
        <ele>102</ele>
        <time>2012-02-23T14:41:08Z</time>
      </trkpt>
      <trkpt lat="47.22138" lon="-0.90788">
        <ele>102</ele>
        <time>2012-02-23T14:41:09Z</time>
      </trkpt>
      <trkpt lat="47.22137" lon="-0.90786">
        <ele>102</ele>
        <time>2012-02-23T14:41:10Z</time>
      </trkpt>
      <trkpt lat="47.22137" lon="-0.90784">
        <ele>102</ele>
        <time>2012-02-23T14:41:11Z</time>
      </trkpt>
      <trkpt lat="47.22136" lon="-0.90783">
        <ele>102</ele>
        <time>2012-02-23T14:41:12Z</time>
      </trkpt>
      <trkpt lat="47.22136" lon="-0.90781">
        <ele>102</ele>
        <time>2012-02-23T14:41:13Z</time>
      </trkpt>
      <trkpt lat="47.22135" lon="-0.9078">
        <ele>102</ele>
        <time>2012-02-23T14:41:14Z</time>
      </trkpt>
      <trkpt lat="47.22134" lon="-0.90776">
        <ele>102</ele>
        <time>2012-02-23T14:41:16Z</time>
      </trkpt>
      <trkpt lat="47.22133" lon="-0.90775">
        <ele>102</ele>
        <time>2012-02-23T14:41:17Z</time>
      </trkpt>
      <trkpt lat="47.22132" lon="-0.90773">
        <ele>102</ele>
        <time>2012-02-23T14:41:18Z</time>
      </trkpt>
      <trkpt lat="47.22131" lon="-0.90772">
        <ele>102</ele>
        <time>2012-02-23T14:41:19Z</time>
      </trkpt>
      <trkpt lat="47.22131" lon="-0.90769">
        <ele>102</ele>
        <time>2012-02-23T14:41:21Z</time>
      </trkpt>
      <trkpt lat="47.22131" lon="-0.90767">
        <ele>102</ele>
        <time>2012-02-23T14:41:22Z</time>
      </trkpt>
      <trkpt lat="47.2213" lon="-0.90765">
        <ele>102</ele>
        <time>2012-02-23T14:41:23Z</time>
      </trkpt>
      <trkpt lat="47.22129" lon="-0.90762">
        <ele>102</ele>
        <time>2012-02-23T14:41:25Z</time>
      </trkpt>
      <trkpt lat="47.22128" lon="-0.9076">
        <ele>102</ele>
        <time>2012-02-23T14:41:26Z</time>
      </trkpt>
      <trkpt lat="47.22128" lon="-0.90759">
        <ele>102</ele>
        <time>2012-02-23T14:41:27Z</time>
      </trkpt>
      <trkpt lat="47.22127" lon="-0.90757">
        <ele>102</ele>
        <time>2012-02-23T14:41:28Z</time>
      </trkpt>
      <trkpt lat="47.22126" lon="-0.90755">
        <ele>102</ele>
        <time>2012-02-23T14:41:30Z</time>
      </trkpt>
      <trkpt lat="47.22125" lon="-0.90752">
        <ele>102</ele>
        <time>2012-02-23T14:41:32Z</time>
      </trkpt>
      <trkpt lat="47.22123" lon="-0.90749">
        <ele>102</ele>
        <time>2012-02-23T14:41:34Z</time>
      </trkpt>
      <trkpt lat="47.22123" lon="-0.90748">
        <ele>102</ele>
        <time>2012-02-23T14:41:35Z</time>
      </trkpt>
      <trkpt lat="47.22122" lon="-0.90745">
        <ele>102</ele>
        <time>2012-02-23T14:41:37Z</time>
      </trkpt>
      <trkpt lat="47.22121" lon="-0.90743">
        <ele>102</ele>
        <time>2012-02-23T14:41:38Z</time>
      </trkpt>
      <trkpt lat="47.22121" lon="-0.90742">
        <ele>102</ele>
        <time>2012-02-23T14:41:39Z</time>
      </trkpt>
      <trkpt lat="47.22119" lon="-0.90739">
        <ele>102</ele>
        <time>2012-02-23T14:41:41Z</time>
      </trkpt>
      <trkpt lat="47.22119" lon="-0.90738">
        <ele>102</ele>
        <time>2012-02-23T14:41:42Z</time>
      </trkpt>
      <trkpt lat="47.22118" lon="-0.90736">
        <ele>102</ele>
        <time>2012-02-23T14:41:43Z</time>
      </trkpt>
      <trkpt lat="47.22117" lon="-0.90733">
        <ele>102</ele>
        <time>2012-02-23T14:41:45Z</time>
      </trkpt>
      <trkpt lat="47.22116" lon="-0.90731">
        <ele>102</ele>
        <time>2012-02-23T14:41:47Z</time>
      </trkpt>
      <trkpt lat="47.22115" lon="-0.90728">
        <ele>102</ele>
        <time>2012-02-23T14:41:49Z</time>
      </trkpt>
      <trkpt lat="47.22114" lon="-0.90726">
        <ele>102</ele>
        <time>2012-02-23T14:41:50Z</time>
      </trkpt>
      <trkpt lat="47.22114" lon="-0.90725">
        <ele>102</ele>
        <time>2012-02-23T14:41:51Z</time>
      </trkpt>
      <trkpt lat="47.22113" lon="-0.90723">
        <ele>102</ele>
        <time>2012-02-23T14:41:52Z</time>
      </trkpt>
      <trkpt lat="47.22113" lon="-0.90722">
        <ele>102</ele>
        <time>2012-02-23T14:41:53Z</time>
      </trkpt>
      <trkpt lat="47.22112" lon="-0.9072">
        <ele>102</ele>
        <time>2012-02-23T14:41:54Z</time>
      </trkpt>
      <trkpt lat="47.22112" lon="-0.90719">
        <ele>102</ele>
        <time>2012-02-23T14:41:55Z</time>
      </trkpt>
      <trkpt lat="47.22111" lon="-0.90717">
        <ele>102</ele>
        <time>2012-02-23T14:41:56Z</time>
      </trkpt>
      <trkpt lat="47.2211" lon="-0.90714">
        <ele>102</ele>
        <time>2012-02-23T14:41:58Z</time>
      </trkpt>
      <trkpt lat="47.22109" lon="-0.90713">
        <ele>102</ele>
        <time>2012-02-23T14:41:59Z</time>
      </trkpt>
      <trkpt lat="47.22109" lon="-0.90711">
        <ele>102</ele>
        <time>2012-02-23T14:42:00Z</time>
      </trkpt>
      <trkpt lat="47.22108" lon="-0.9071">
        <ele>102</ele>
        <time>2012-02-23T14:42:01Z</time>
      </trkpt>
      <trkpt lat="47.22107" lon="-0.90708">
        <ele>102</ele>
        <time>2012-02-23T14:42:02Z</time>
      </trkpt>
      <trkpt lat="47.22107" lon="-0.90706">
        <ele>102</ele>
        <time>2012-02-23T14:42:03Z</time>
      </trkpt>
      <trkpt lat="47.22106" lon="-0.90705">
        <ele>102</ele>
        <time>2012-02-23T14:42:04Z</time>
      </trkpt>
      <trkpt lat="47.22106" lon="-0.90703">
        <ele>102</ele>
        <time>2012-02-23T14:42:05Z</time>
      </trkpt>
      <trkpt lat="47.22105" lon="-0.90702">
        <ele>102</ele>
        <time>2012-02-23T14:42:06Z</time>
      </trkpt>
      <trkpt lat="47.22104" lon="-0.90699">
        <ele>102</ele>
        <time>2012-02-23T14:42:08Z</time>
      </trkpt>
      <trkpt lat="47.22104" lon="-0.90697">
        <ele>102</ele>
        <time>2012-02-23T14:42:09Z</time>
      </trkpt>
      <trkpt lat="47.22103" lon="-0.90696">
        <ele>102</ele>
        <time>2012-02-23T14:42:10Z</time>
      </trkpt>
      <trkpt lat="47.22102" lon="-0.90694">
        <ele>102</ele>
        <time>2012-02-23T14:42:11Z</time>
      </trkpt>
      <trkpt lat="47.22102" lon="-0.90693">
        <ele>102</ele>
        <time>2012-02-23T14:42:12Z</time>
      </trkpt>
      <trkpt lat="47.22101" lon="-0.9069">
        <ele>102</ele>
        <time>2012-02-23T14:42:14Z</time>
      </trkpt>
      <trkpt lat="47.221" lon="-0.90688">
        <ele>102</ele>
        <time>2012-02-23T14:42:15Z</time>
      </trkpt>
      <trkpt lat="47.22099" lon="-0.90687">
        <ele>102</ele>
        <time>2012-02-23T14:42:16Z</time>
      </trkpt>
      <trkpt lat="47.22098" lon="-0.90684">
        <ele>102</ele>
        <time>2012-02-23T14:42:18Z</time>
      </trkpt>
      <trkpt lat="47.22097" lon="-0.90681">
        <ele>102</ele>
        <time>2012-02-23T14:42:20Z</time>
      </trkpt>
      <trkpt lat="47.22097" lon="-0.9068">
        <ele>102</ele>
        <time>2012-02-23T14:42:21Z</time>
      </trkpt>
      <trkpt lat="47.22096" lon="-0.90677">
        <ele>102</ele>
        <time>2012-02-23T14:42:23Z</time>
      </trkpt>
      <trkpt lat="47.22095" lon="-0.90674">
        <ele>102</ele>
        <time>2012-02-23T14:42:25Z</time>
      </trkpt>
      <trkpt lat="47.22094" lon="-0.90673">
        <ele>102</ele>
        <time>2012-02-23T14:42:26Z</time>
      </trkpt>
      <trkpt lat="47.22094" lon="-0.90671">
        <ele>102</ele>
        <time>2012-02-23T14:42:27Z</time>
      </trkpt>
      <trkpt lat="47.22092" lon="-0.90668">
        <ele>102</ele>
        <time>2012-02-23T14:42:29Z</time>
      </trkpt>
      <trkpt lat="47.22092" lon="-0.90667">
        <ele>102</ele>
        <time>2012-02-23T14:42:30Z</time>
      </trkpt>
      <trkpt lat="47.22091" lon="-0.90665">
        <ele>102</ele>
        <time>2012-02-23T14:42:31Z</time>
      </trkpt>
      <trkpt lat="47.22091" lon="-0.90664">
        <ele>102</ele>
        <time>2012-02-23T14:42:32Z</time>
      </trkpt>
      <trkpt lat="47.2209" lon="-0.90661">
        <ele>102</ele>
        <time>2012-02-23T14:42:34Z</time>
      </trkpt>
      <trkpt lat="47.22089" lon="-0.9066">
        <ele>102</ele>
        <time>2012-02-23T14:42:35Z</time>
      </trkpt>
      <trkpt lat="47.22089" lon="-0.90658">
        <ele>102</ele>
        <time>2012-02-23T14:42:36Z</time>
      </trkpt>
      <trkpt lat="47.22087" lon="-0.90655">
        <ele>102</ele>
        <time>2012-02-23T14:42:38Z</time>
      </trkpt>
      <trkpt lat="47.22087" lon="-0.90654">
        <ele>102</ele>
        <time>2012-02-23T14:42:39Z</time>
      </trkpt>
      <trkpt lat="47.22086" lon="-0.90652">
        <ele>102</ele>
        <time>2012-02-23T14:42:40Z</time>
      </trkpt>
      <trkpt lat="47.22086" lon="-0.90651">
        <ele>102</ele>
        <time>2012-02-23T14:42:41Z</time>
      </trkpt>
      <trkpt lat="47.22085" lon="-0.90649">
        <ele>102</ele>
        <time>2012-02-23T14:42:42Z</time>
      </trkpt>
      <trkpt lat="47.22084" lon="-0.90647">
        <ele>102</ele>
        <time>2012-02-23T14:42:44Z</time>
      </trkpt>
      <trkpt lat="47.22084" lon="-0.90645">
        <ele>102</ele>
        <time>2012-02-23T14:42:45Z</time>
      </trkpt>
      <trkpt lat="47.22083" lon="-0.90644">
        <ele>102</ele>
        <time>2012-02-23T14:42:46Z</time>
      </trkpt>
      <trkpt lat="47.22082" lon="-0.90642">
        <ele>102</ele>
        <time>2012-02-23T14:42:47Z</time>
      </trkpt>
      <trkpt lat="47.22082" lon="-0.90641">
        <ele>102</ele>
        <time>2012-02-23T14:42:48Z</time>
      </trkpt>
      <trkpt lat="47.22081" lon="-0.90638">
        <ele>102</ele>
        <time>2012-02-23T14:42:50Z</time>
      </trkpt>
      <trkpt lat="47.2208" lon="-0.90637">
        <ele>102</ele>
        <time>2012-02-23T14:42:51Z</time>
      </trkpt>
      <trkpt lat="47.22079" lon="-0.90635">
        <ele>102</ele>
        <time>2012-02-23T14:42:52Z</time>
      </trkpt>
      <trkpt lat="47.22079" lon="-0.90633">
        <ele>102</ele>
        <time>2012-02-23T14:42:53Z</time>
      </trkpt>
      <trkpt lat="47.22078" lon="-0.90631">
        <ele>102</ele>
        <time>2012-02-23T14:42:55Z</time>
      </trkpt>
      <trkpt lat="47.22076" lon="-0.90628">
        <ele>102</ele>
        <time>2012-02-23T14:42:57Z</time>
      </trkpt>
      <trkpt lat="47.22075" lon="-0.90626">
        <ele>102</ele>
        <time>2012-02-23T14:42:58Z</time>
      </trkpt>
      <trkpt lat="47.22075" lon="-0.90625">
        <ele>102</ele>
        <time>2012-02-23T14:42:59Z</time>
      </trkpt>
      <trkpt lat="47.22074" lon="-0.90623">
        <ele>102</ele>
        <time>2012-02-23T14:43:00Z</time>
      </trkpt>
      <trkpt lat="47.22073" lon="-0.9062">
        <ele>102</ele>
        <time>2012-02-23T14:43:02Z</time>
      </trkpt>
      <trkpt lat="47.22073" lon="-0.90619">
        <ele>102</ele>
        <time>2012-02-23T14:43:03Z</time>
      </trkpt>
      <trkpt lat="47.22072" lon="-0.90617">
        <ele>102</ele>
        <time>2012-02-23T14:43:04Z</time>
      </trkpt>
      <trkpt lat="47.22071" lon="-0.90614">
        <ele>101</ele>
        <time>2012-02-23T14:43:06Z</time>
      </trkpt>
      <trkpt lat="47.2207" lon="-0.90611">
        <ele>101</ele>
        <time>2012-02-23T14:43:08Z</time>
      </trkpt>
      <trkpt lat="47.22069" lon="-0.9061">
        <ele>101</ele>
        <time>2012-02-23T14:43:09Z</time>
      </trkpt>
      <trkpt lat="47.22068" lon="-0.90608">
        <ele>101</ele>
        <time>2012-02-23T14:43:10Z</time>
      </trkpt>
      <trkpt lat="47.22067" lon="-0.90606">
        <ele>101</ele>
        <time>2012-02-23T14:43:12Z</time>
      </trkpt>
      <trkpt lat="47.22067" lon="-0.90604">
        <ele>101</ele>
        <time>2012-02-23T14:43:13Z</time>
      </trkpt>
      <trkpt lat="47.22066" lon="-0.90602">
        <ele>101</ele>
        <time>2012-02-23T14:43:14Z</time>
      </trkpt>
      <trkpt lat="47.22065" lon="-0.90601">
        <ele>101</ele>
        <time>2012-02-23T14:43:15Z</time>
      </trkpt>
      <trkpt lat="47.22065" lon="-0.90599">
        <ele>101</ele>
        <time>2012-02-23T14:43:16Z</time>
      </trkpt>
      <trkpt lat="47.22064" lon="-0.90598">
        <ele>101</ele>
        <time>2012-02-23T14:43:17Z</time>
      </trkpt>
      <trkpt lat="47.22064" lon="-0.90596">
        <ele>101</ele>
        <time>2012-02-23T14:43:18Z</time>
      </trkpt>
      <trkpt lat="47.22063" lon="-0.90595">
        <ele>101</ele>
        <time>2012-02-23T14:43:19Z</time>
      </trkpt>
      <trkpt lat="47.22062" lon="-0.90593">
        <ele>101</ele>
        <time>2012-02-23T14:43:20Z</time>
      </trkpt>
      <trkpt lat="47.22062" lon="-0.90592">
        <ele>100</ele>
        <time>2012-02-23T14:43:21Z</time>
      </trkpt>
      <trkpt lat="47.2206" lon="-0.90589">
        <ele>100</ele>
        <time>2012-02-23T14:43:23Z</time>
      </trkpt>
      <trkpt lat="47.2206" lon="-0.90587">
        <ele>100</ele>
        <time>2012-02-23T14:43:24Z</time>
      </trkpt>
      <trkpt lat="47.22059" lon="-0.90586">
        <ele>100</ele>
        <time>2012-02-23T14:43:25Z</time>
      </trkpt>
      <trkpt lat="47.22058" lon="-0.90584">
        <ele>100</ele>
        <time>2012-02-23T14:43:26Z</time>
      </trkpt>
      <trkpt lat="47.22057" lon="-0.90582">
        <ele>100</ele>
        <time>2012-02-23T14:43:28Z</time>
      </trkpt>
      <trkpt lat="47.22057" lon="-0.9058">
        <ele>100</ele>
        <time>2012-02-23T14:43:29Z</time>
      </trkpt>
      <trkpt lat="47.22056" lon="-0.90579">
        <ele>100</ele>
        <time>2012-02-23T14:43:30Z</time>
      </trkpt>
      <trkpt lat="47.22055" lon="-0.90577">
        <ele>100</ele>
        <time>2012-02-23T14:43:31Z</time>
      </trkpt>
      <trkpt lat="47.22054" lon="-0.90574">
        <ele>100</ele>
        <time>2012-02-23T14:43:33Z</time>
      </trkpt>
      <trkpt lat="47.22053" lon="-0.90572">
        <ele>100</ele>
        <time>2012-02-23T14:43:35Z</time>
      </trkpt>
      <trkpt lat="47.22052" lon="-0.9057">
        <ele>100</ele>
        <time>2012-02-23T14:43:36Z</time>
      </trkpt>
      <trkpt lat="47.22051" lon="-0.90569">
        <ele>100</ele>
        <time>2012-02-23T14:43:37Z</time>
      </trkpt>
      <trkpt lat="47.2205" lon="-0.90566">
        <ele>100</ele>
        <time>2012-02-23T14:43:39Z</time>
      </trkpt>
      <trkpt lat="47.22049" lon="-0.90565">
        <ele>100</ele>
        <time>2012-02-23T14:43:40Z</time>
      </trkpt>
      <trkpt lat="47.22048" lon="-0.90562">
        <ele>100</ele>
        <time>2012-02-23T14:43:42Z</time>
      </trkpt>
      <trkpt lat="47.22047" lon="-0.9056">
        <ele>100</ele>
        <time>2012-02-23T14:43:43Z</time>
      </trkpt>
      <trkpt lat="47.22047" lon="-0.90558">
        <ele>100</ele>
        <time>2012-02-23T14:43:44Z</time>
      </trkpt>
      <trkpt lat="47.22045" lon="-0.90556">
        <ele>100</ele>
        <time>2012-02-23T14:43:46Z</time>
      </trkpt>
      <trkpt lat="47.22044" lon="-0.90554">
        <ele>100</ele>
        <time>2012-02-23T14:43:47Z</time>
      </trkpt>
      <trkpt lat="47.22044" lon="-0.90553">
        <ele>100</ele>
        <time>2012-02-23T14:43:48Z</time>
      </trkpt>
      <trkpt lat="47.22043" lon="-0.90551">
        <ele>100</ele>
        <time>2012-02-23T14:43:49Z</time>
      </trkpt>
      <trkpt lat="47.22041" lon="-0.90548">
        <ele>100</ele>
        <time>2012-02-23T14:43:51Z</time>
      </trkpt>
      <trkpt lat="47.2204" lon="-0.90546">
        <ele>100</ele>
        <time>2012-02-23T14:43:53Z</time>
      </trkpt>
      <trkpt lat="47.22039" lon="-0.90544">
        <ele>100</ele>
        <time>2012-02-23T14:43:54Z</time>
      </trkpt>
      <trkpt lat="47.22038" lon="-0.90542">
        <ele>100</ele>
        <time>2012-02-23T14:43:57Z</time>
      </trkpt>
      <trkpt lat="47.22036" lon="-0.90539">
        <ele>100</ele>
        <time>2012-02-23T14:43:58Z</time>
      </trkpt>
      <trkpt lat="47.22036" lon="-0.90538">
        <ele>100</ele>
        <time>2012-02-23T14:43:59Z</time>
      </trkpt>
      <trkpt lat="47.22035" lon="-0.90536">
        <ele>100</ele>
        <time>2012-02-23T14:44:00Z</time>
      </trkpt>
      <trkpt lat="47.22033" lon="-0.90534">
        <ele>100</ele>
        <time>2012-02-23T14:44:02Z</time>
      </trkpt>
      <trkpt lat="47.22032" lon="-0.90531">
        <ele>100</ele>
        <time>2012-02-23T14:44:04Z</time>
      </trkpt>
      <trkpt lat="47.2203" lon="-0.90529">
        <ele>100</ele>
        <time>2012-02-23T14:44:06Z</time>
      </trkpt>
      <trkpt lat="47.22029" lon="-0.90527">
        <ele>100</ele>
        <time>2012-02-23T14:44:08Z</time>
      </trkpt>
      <trkpt lat="47.22027" lon="-0.90524">
        <ele>100</ele>
        <time>2012-02-23T14:44:10Z</time>
      </trkpt>
      <trkpt lat="47.22026" lon="-0.90522">
        <ele>100</ele>
        <time>2012-02-23T14:44:12Z</time>
      </trkpt>
      <trkpt lat="47.22025" lon="-0.90519">
        <ele>100</ele>
        <time>2012-02-23T14:44:14Z</time>
      </trkpt>
      <trkpt lat="47.22024" lon="-0.90518">
        <ele>100</ele>
        <time>2012-02-23T14:44:15Z</time>
      </trkpt>
      <trkpt lat="47.22022" lon="-0.90515">
        <ele>100</ele>
        <time>2012-02-23T14:44:17Z</time>
      </trkpt>
      <trkpt lat="47.22021" lon="-0.90513">
        <ele>100</ele>
        <time>2012-02-23T14:44:19Z</time>
      </trkpt>
      <trkpt lat="47.22019" lon="-0.9051">
        <ele>100</ele>
        <time>2012-02-23T14:44:21Z</time>
      </trkpt>
      <trkpt lat="47.22018" lon="-0.90508">
        <ele>100</ele>
        <time>2012-02-23T14:44:23Z</time>
      </trkpt>
      <trkpt lat="47.22016" lon="-0.90505">
        <ele>100</ele>
        <time>2012-02-23T14:44:25Z</time>
      </trkpt>
      <trkpt lat="47.22015" lon="-0.90503">
        <ele>100</ele>
        <time>2012-02-23T14:44:27Z</time>
      </trkpt>
      <trkpt lat="47.22013" lon="-0.905">
        <ele>99</ele>
        <time>2012-02-23T14:44:29Z</time>
      </trkpt>
      <trkpt lat="47.22012" lon="-0.90498">
        <ele>99</ele>
        <time>2012-02-23T14:44:31Z</time>
      </trkpt>
      <trkpt lat="47.2201" lon="-0.90495">
        <ele>99</ele>
        <time>2012-02-23T14:44:33Z</time>
      </trkpt>
      <trkpt lat="47.22009" lon="-0.90493">
        <ele>99</ele>
        <time>2012-02-23T14:44:35Z</time>
      </trkpt>
      <trkpt lat="47.22007" lon="-0.9049">
        <ele>99</ele>
        <time>2012-02-23T14:44:37Z</time>
      </trkpt>
      <trkpt lat="47.22006" lon="-0.90488">
        <ele>99</ele>
        <time>2012-02-23T14:44:39Z</time>
      </trkpt>
      <trkpt lat="47.22004" lon="-0.90486">
        <ele>99</ele>
        <time>2012-02-23T14:44:41Z</time>
      </trkpt>
      <trkpt lat="47.22003" lon="-0.90483">
        <ele>99</ele>
        <time>2012-02-23T14:44:43Z</time>
      </trkpt>
      <trkpt lat="47.22002" lon="-0.90481">
        <ele>99</ele>
        <time>2012-02-23T14:44:45Z</time>
      </trkpt>
      <trkpt lat="47.22" lon="-0.90478">
        <ele>99</ele>
        <time>2012-02-23T14:44:47Z</time>
      </trkpt>
      <trkpt lat="47.21999" lon="-0.90476">
        <ele>99</ele>
        <time>2012-02-23T14:44:49Z</time>
      </trkpt>
      <trkpt lat="47.21997" lon="-0.90474">
        <ele>99</ele>
        <time>2012-02-23T14:44:51Z</time>
      </trkpt>
      <trkpt lat="47.21996" lon="-0.90471">
        <ele>99</ele>
        <time>2012-02-23T14:44:53Z</time>
      </trkpt>
      <trkpt lat="47.21994" lon="-0.90469">
        <ele>98</ele>
        <time>2012-02-23T14:44:55Z</time>
      </trkpt>
      <trkpt lat="47.21994" lon="-0.90467">
        <ele>98</ele>
        <time>2012-02-23T14:44:56Z</time>
      </trkpt>
      <trkpt lat="47.21993" lon="-0.90466">
        <ele>98</ele>
        <time>2012-02-23T14:44:57Z</time>
      </trkpt>
      <trkpt lat="47.21991" lon="-0.90464">
        <ele>98</ele>
        <time>2012-02-23T14:44:59Z</time>
      </trkpt>
      <trkpt lat="47.2199" lon="-0.90461">
        <ele>98</ele>
        <time>2012-02-23T14:45:01Z</time>
      </trkpt>
      <trkpt lat="47.21988" lon="-0.90458">
        <ele>98</ele>
        <time>2012-02-23T14:45:03Z</time>
      </trkpt>
      <trkpt lat="47.21986" lon="-0.90456">
        <ele>98</ele>
        <time>2012-02-23T14:45:05Z</time>
      </trkpt>
      <trkpt lat="47.21985" lon="-0.90453">
        <ele>98</ele>
        <time>2012-02-23T14:45:07Z</time>
      </trkpt>
      <trkpt lat="47.21983" lon="-0.9045">
        <ele>98</ele>
        <time>2012-02-23T14:45:09Z</time>
      </trkpt>
      <trkpt lat="47.21983" lon="-0.90449">
        <ele>98</ele>
        <time>2012-02-23T14:45:10Z</time>
      </trkpt>
      <trkpt lat="47.21981" lon="-0.90446">
        <ele>97</ele>
        <time>2012-02-23T14:45:12Z</time>
      </trkpt>
      <trkpt lat="47.2198" lon="-0.90443">
        <ele>97</ele>
        <time>2012-02-23T14:45:14Z</time>
      </trkpt>
      <trkpt lat="47.21979" lon="-0.90442">
        <ele>97</ele>
        <time>2012-02-23T14:45:15Z</time>
      </trkpt>
      <trkpt lat="47.21977" lon="-0.90439">
        <ele>97</ele>
        <time>2012-02-23T14:45:17Z</time>
      </trkpt>
      <trkpt lat="47.21976" lon="-0.90437">
        <ele>97</ele>
        <time>2012-02-23T14:45:19Z</time>
      </trkpt>
      <trkpt lat="47.21974" lon="-0.90434">
        <ele>96</ele>
        <time>2012-02-23T14:45:21Z</time>
      </trkpt>
      <trkpt lat="47.21973" lon="-0.90433">
        <ele>96</ele>
        <time>2012-02-23T14:45:22Z</time>
      </trkpt>
      <trkpt lat="47.21972" lon="-0.9043">
        <ele>96</ele>
        <time>2012-02-23T14:45:24Z</time>
      </trkpt>
      <trkpt lat="47.2197" lon="-0.90428">
        <ele>96</ele>
        <time>2012-02-23T14:45:26Z</time>
      </trkpt>
      <trkpt lat="47.21968" lon="-0.90425">
        <ele>96</ele>
        <time>2012-02-23T14:45:28Z</time>
      </trkpt>
      <trkpt lat="47.21967" lon="-0.90422">
        <ele>96</ele>
        <time>2012-02-23T14:45:30Z</time>
      </trkpt>
      <trkpt lat="47.21965" lon="-0.9042">
        <ele>95</ele>
        <time>2012-02-23T14:45:32Z</time>
      </trkpt>
      <trkpt lat="47.21964" lon="-0.90417">
        <ele>95</ele>
        <time>2012-02-23T14:45:34Z</time>
      </trkpt>
      <trkpt lat="47.21962" lon="-0.90415">
        <ele>95</ele>
        <time>2012-02-23T14:45:36Z</time>
      </trkpt>
      <trkpt lat="47.21961" lon="-0.90413">
        <ele>95</ele>
        <time>2012-02-23T14:45:38Z</time>
      </trkpt>
      <trkpt lat="47.21959" lon="-0.9041">
        <ele>95</ele>
        <time>2012-02-23T14:45:40Z</time>
      </trkpt>
      <trkpt lat="47.21958" lon="-0.90407">
        <ele>95</ele>
        <time>2012-02-23T14:45:42Z</time>
      </trkpt>
      <trkpt lat="47.21957" lon="-0.90405">
        <ele>95</ele>
        <time>2012-02-23T14:45:44Z</time>
      </trkpt>
      <trkpt lat="47.21955" lon="-0.90402">
        <ele>95</ele>
        <time>2012-02-23T14:45:46Z</time>
      </trkpt>
      <trkpt lat="47.21953" lon="-0.90399">
        <ele>95</ele>
        <time>2012-02-23T14:45:48Z</time>
      </trkpt>
      <trkpt lat="47.21952" lon="-0.90397">
        <ele>94</ele>
        <time>2012-02-23T14:45:50Z</time>
      </trkpt>
      <trkpt lat="47.21951" lon="-0.90395">
        <ele>94</ele>
        <time>2012-02-23T14:45:51Z</time>
      </trkpt>
      <trkpt lat="47.2195" lon="-0.90394">
        <ele>94</ele>
        <time>2012-02-23T14:45:52Z</time>
      </trkpt>
      <trkpt lat="47.21949" lon="-0.90392">
        <ele>94</ele>
        <time>2012-02-23T14:45:53Z</time>
      </trkpt>
      <trkpt lat="47.21947" lon="-0.9039">
        <ele>94</ele>
        <time>2012-02-23T14:45:55Z</time>
      </trkpt>
      <trkpt lat="47.21946" lon="-0.90387">
        <ele>94</ele>
        <time>2012-02-23T14:45:57Z</time>
      </trkpt>
      <trkpt lat="47.21944" lon="-0.90385">
        <ele>94</ele>
        <time>2012-02-23T14:45:59Z</time>
      </trkpt>
      <trkpt lat="47.21942" lon="-0.90382">
        <ele>94</ele>
        <time>2012-02-23T14:46:01Z</time>
      </trkpt>
      <trkpt lat="47.2194" lon="-0.9038">
        <ele>94</ele>
        <time>2012-02-23T14:46:03Z</time>
      </trkpt>
      <trkpt lat="47.21938" lon="-0.90377">
        <ele>94</ele>
        <time>2012-02-23T14:46:05Z</time>
      </trkpt>
      <trkpt lat="47.21937" lon="-0.90376">
        <ele>94</ele>
        <time>2012-02-23T14:46:06Z</time>
      </trkpt>
      <trkpt lat="47.21936" lon="-0.90374">
        <ele>94</ele>
        <time>2012-02-23T14:46:08Z</time>
      </trkpt>
      <trkpt lat="47.21935" lon="-0.90372">
        <ele>94</ele>
        <time>2012-02-23T14:46:09Z</time>
      </trkpt>
      <trkpt lat="47.21933" lon="-0.9037">
        <ele>94</ele>
        <time>2012-02-23T14:46:11Z</time>
      </trkpt>
      <trkpt lat="47.21933" lon="-0.90368">
        <ele>94</ele>
        <time>2012-02-23T14:46:12Z</time>
      </trkpt>
      <trkpt lat="47.21932" lon="-0.90367">
        <ele>94</ele>
        <time>2012-02-23T14:46:13Z</time>
      </trkpt>
      <trkpt lat="47.2193" lon="-0.90364">
        <ele>93</ele>
        <time>2012-02-23T14:46:15Z</time>
      </trkpt>
      <trkpt lat="47.21928" lon="-0.90362">
        <ele>93</ele>
        <time>2012-02-23T14:46:17Z</time>
      </trkpt>
      <trkpt lat="47.21926" lon="-0.9036">
        <ele>93</ele>
        <time>2012-02-23T14:46:19Z</time>
      </trkpt>
      <trkpt lat="47.21924" lon="-0.90359">
        <ele>93</ele>
        <time>2012-02-23T14:46:21Z</time>
      </trkpt>
      <trkpt lat="47.21923" lon="-0.90358">
        <ele>93</ele>
        <time>2012-02-23T14:46:23Z</time>
      </trkpt>
      <trkpt lat="47.21922" lon="-0.90355">
        <ele>92</ele>
        <time>2012-02-23T14:46:25Z</time>
      </trkpt>
      <trkpt lat="47.21922" lon="-0.90354">
        <ele>92</ele>
        <time>2012-02-23T14:46:26Z</time>
      </trkpt>
      <trkpt lat="47.2192" lon="-0.90351">
        <ele>92</ele>
        <time>2012-02-23T14:46:28Z</time>
      </trkpt>
      <trkpt lat="47.21919" lon="-0.9035">
        <ele>92</ele>
        <time>2012-02-23T14:46:30Z</time>
      </trkpt>
      <trkpt lat="47.21917" lon="-0.90347">
        <ele>92</ele>
        <time>2012-02-23T14:46:32Z</time>
      </trkpt>
      <trkpt lat="47.21916" lon="-0.90344">
        <ele>91</ele>
        <time>2012-02-23T14:46:34Z</time>
      </trkpt>
      <trkpt lat="47.21914" lon="-0.90342">
        <ele>91</ele>
        <time>2012-02-23T14:46:36Z</time>
      </trkpt>
      <trkpt lat="47.21913" lon="-0.90341">
        <ele>91</ele>
        <time>2012-02-23T14:46:38Z</time>
      </trkpt>
      <trkpt lat="47.21911" lon="-0.90338">
        <ele>91</ele>
        <time>2012-02-23T14:46:40Z</time>
      </trkpt>
      <trkpt lat="47.2191" lon="-0.90337">
        <ele>91</ele>
        <time>2012-02-23T14:46:41Z</time>
      </trkpt>
      <trkpt lat="47.21909" lon="-0.90335">
        <ele>91</ele>
        <time>2012-02-23T14:46:42Z</time>
      </trkpt>
      <trkpt lat="47.21908" lon="-0.90333">
        <ele>91</ele>
        <time>2012-02-23T14:46:43Z</time>
      </trkpt>
      <trkpt lat="47.21907" lon="-0.90331">
        <ele>91</ele>
        <time>2012-02-23T14:46:44Z</time>
      </trkpt>
      <trkpt lat="47.21907" lon="-0.90329">
        <ele>91</ele>
        <time>2012-02-23T14:46:46Z</time>
      </trkpt>
      <trkpt lat="47.21905" lon="-0.90326">
        <ele>91</ele>
        <time>2012-02-23T14:46:48Z</time>
      </trkpt>
      <trkpt lat="47.21904" lon="-0.90324">
        <ele>91</ele>
        <time>2012-02-23T14:46:49Z</time>
      </trkpt>
      <trkpt lat="47.21904" lon="-0.90323">
        <ele>91</ele>
        <time>2012-02-23T14:46:50Z</time>
      </trkpt>
      <trkpt lat="47.21902" lon="-0.9032">
        <ele>91</ele>
        <time>2012-02-23T14:46:52Z</time>
      </trkpt>
      <trkpt lat="47.21901" lon="-0.90317">
        <ele>91</ele>
        <time>2012-02-23T14:46:54Z</time>
      </trkpt>
      <trkpt lat="47.21899" lon="-0.90314">
        <ele>91</ele>
        <time>2012-02-23T14:46:56Z</time>
      </trkpt>
      <trkpt lat="47.21899" lon="-0.90313">
        <ele>91</ele>
        <time>2012-02-23T14:46:57Z</time>
      </trkpt>
      <trkpt lat="47.21898" lon="-0.9031">
        <ele>91</ele>
        <time>2012-02-23T14:46:59Z</time>
      </trkpt>
      <trkpt lat="47.21897" lon="-0.90307">
        <ele>91</ele>
        <time>2012-02-23T14:47:01Z</time>
      </trkpt>
      <trkpt lat="47.21896" lon="-0.90305">
        <ele>91</ele>
        <time>2012-02-23T14:47:03Z</time>
      </trkpt>
      <trkpt lat="47.21895" lon="-0.90304">
        <ele>91</ele>
        <time>2012-02-23T14:47:04Z</time>
      </trkpt>
      <trkpt lat="47.21895" lon="-0.90302">
        <ele>91</ele>
        <time>2012-02-23T14:47:05Z</time>
      </trkpt>
      <trkpt lat="47.21894" lon="-0.90301">
        <ele>91</ele>
        <time>2012-02-23T14:47:06Z</time>
      </trkpt>
      <trkpt lat="47.21893" lon="-0.90298">
        <ele>91</ele>
        <time>2012-02-23T14:47:08Z</time>
      </trkpt>
      <trkpt lat="47.21892" lon="-0.90296">
        <ele>91</ele>
        <time>2012-02-23T14:47:10Z</time>
      </trkpt>
      <trkpt lat="47.21891" lon="-0.90294">
        <ele>91</ele>
        <time>2012-02-23T14:47:11Z</time>
      </trkpt>
      <trkpt lat="47.21891" lon="-0.90293">
        <ele>91</ele>
        <time>2012-02-23T14:47:12Z</time>
      </trkpt>
      <trkpt lat="47.2189" lon="-0.90291">
        <ele>91</ele>
        <time>2012-02-23T14:47:13Z</time>
      </trkpt>
      <trkpt lat="47.21889" lon="-0.90289">
        <ele>91</ele>
        <time>2012-02-23T14:47:15Z</time>
      </trkpt>
      <trkpt lat="47.21888" lon="-0.90286">
        <ele>91</ele>
        <time>2012-02-23T14:47:17Z</time>
      </trkpt>
      <trkpt lat="47.21886" lon="-0.90284">
        <ele>90</ele>
        <time>2012-02-23T14:47:19Z</time>
      </trkpt>
      <trkpt lat="47.21885" lon="-0.90281">
        <ele>90</ele>
        <time>2012-02-23T14:47:21Z</time>
      </trkpt>
      <trkpt lat="47.21884" lon="-0.9028">
        <ele>90</ele>
        <time>2012-02-23T14:47:22Z</time>
      </trkpt>
      <trkpt lat="47.21883" lon="-0.90277">
        <ele>90</ele>
        <time>2012-02-23T14:47:24Z</time>
      </trkpt>
      <trkpt lat="47.21882" lon="-0.90275">
        <ele>90</ele>
        <time>2012-02-23T14:47:26Z</time>
      </trkpt>
      <trkpt lat="47.2188" lon="-0.90273">
        <ele>90</ele>
        <time>2012-02-23T14:47:28Z</time>
      </trkpt>
      <trkpt lat="47.21879" lon="-0.90271">
        <ele>90</ele>
        <time>2012-02-23T14:47:30Z</time>
      </trkpt>
      <trkpt lat="47.21878" lon="-0.90269">
        <ele>90</ele>
        <time>2012-02-23T14:47:32Z</time>
      </trkpt>
      <trkpt lat="47.21877" lon="-0.90267">
        <ele>90</ele>
        <time>2012-02-23T14:47:34Z</time>
      </trkpt>
      <trkpt lat="47.21875" lon="-0.90265">
        <ele>90</ele>
        <time>2012-02-23T14:47:35Z</time>
      </trkpt>
      <trkpt lat="47.21874" lon="-0.90263">
        <ele>89</ele>
        <time>2012-02-23T14:47:37Z</time>
      </trkpt>
      <trkpt lat="47.21873" lon="-0.90261">
        <ele>89</ele>
        <time>2012-02-23T14:47:39Z</time>
      </trkpt>
      <trkpt lat="47.21872" lon="-0.90259">
        <ele>89</ele>
        <time>2012-02-23T14:47:41Z</time>
      </trkpt>
      <trkpt lat="47.21871" lon="-0.90256">
        <ele>89</ele>
        <time>2012-02-23T14:47:43Z</time>
      </trkpt>
      <trkpt lat="47.2187" lon="-0.90255">
        <ele>89</ele>
        <time>2012-02-23T14:47:44Z</time>
      </trkpt>
      <trkpt lat="47.21869" lon="-0.90252">
        <ele>89</ele>
        <time>2012-02-23T14:47:46Z</time>
      </trkpt>
      <trkpt lat="47.21868" lon="-0.9025">
        <ele>89</ele>
        <time>2012-02-23T14:47:48Z</time>
      </trkpt>
      <trkpt lat="47.21867" lon="-0.90247">
        <ele>89</ele>
        <time>2012-02-23T14:47:50Z</time>
      </trkpt>
      <trkpt lat="47.21866" lon="-0.90245">
        <ele>89</ele>
        <time>2012-02-23T14:47:52Z</time>
      </trkpt>
      <trkpt lat="47.21865" lon="-0.90243">
        <ele>89</ele>
        <time>2012-02-23T14:47:53Z</time>
      </trkpt>
      <trkpt lat="47.21864" lon="-0.90241">
        <ele>89</ele>
        <time>2012-02-23T14:47:55Z</time>
      </trkpt>
      <trkpt lat="47.21862" lon="-0.90238">
        <ele>89</ele>
        <time>2012-02-23T14:47:57Z</time>
      </trkpt>
      <trkpt lat="47.21862" lon="-0.90237">
        <ele>89</ele>
        <time>2012-02-23T14:47:59Z</time>
      </trkpt>
      <trkpt lat="47.2186" lon="-0.90235">
        <ele>89</ele>
        <time>2012-02-23T14:48:01Z</time>
      </trkpt>
      <trkpt lat="47.21858" lon="-0.90232">
        <ele>89</ele>
        <time>2012-02-23T14:48:03Z</time>
      </trkpt>
      <trkpt lat="47.21857" lon="-0.90231">
        <ele>89</ele>
        <time>2012-02-23T14:48:05Z</time>
      </trkpt>
      <trkpt lat="47.21855" lon="-0.90228">
        <ele>89</ele>
        <time>2012-02-23T14:48:07Z</time>
      </trkpt>
      <trkpt lat="47.21854" lon="-0.90226">
        <ele>89</ele>
        <time>2012-02-23T14:48:09Z</time>
      </trkpt>
      <trkpt lat="47.21854" lon="-0.90225">
        <ele>88</ele>
        <time>2012-02-23T14:48:11Z</time>
      </trkpt>
      <trkpt lat="47.21853" lon="-0.90223">
        <ele>88</ele>
        <time>2012-02-23T14:48:13Z</time>
      </trkpt>
      <trkpt lat="47.21852" lon="-0.9022">
        <ele>87</ele>
        <time>2012-02-23T14:48:15Z</time>
      </trkpt>
      <trkpt lat="47.21851" lon="-0.90219">
        <ele>87</ele>
        <time>2012-02-23T14:48:17Z</time>
      </trkpt>
      <trkpt lat="47.21849" lon="-0.90216">
        <ele>86</ele>
        <time>2012-02-23T14:48:19Z</time>
      </trkpt>
      <trkpt lat="47.21848" lon="-0.90214">
        <ele>86</ele>
        <time>2012-02-23T14:48:21Z</time>
      </trkpt>
      <trkpt lat="47.21847" lon="-0.90212">
        <ele>86</ele>
        <time>2012-02-23T14:48:23Z</time>
      </trkpt>
      <trkpt lat="47.21846" lon="-0.9021">
        <ele>86</ele>
        <time>2012-02-23T14:48:25Z</time>
      </trkpt>
      <trkpt lat="47.21845" lon="-0.90207">
        <ele>86</ele>
        <time>2012-02-23T14:48:27Z</time>
      </trkpt>
      <trkpt lat="47.21844" lon="-0.90205">
        <ele>86</ele>
        <time>2012-02-23T14:48:29Z</time>
      </trkpt>
      <trkpt lat="47.21843" lon="-0.90202">
        <ele>86</ele>
        <time>2012-02-23T14:48:31Z</time>
      </trkpt>
      <trkpt lat="47.21842" lon="-0.902">
        <ele>86</ele>
        <time>2012-02-23T14:48:32Z</time>
      </trkpt>
      <trkpt lat="47.21841" lon="-0.90198">
        <ele>86</ele>
        <time>2012-02-23T14:48:35Z</time>
      </trkpt>
      <trkpt lat="47.2184" lon="-0.90196">
        <ele>86</ele>
        <time>2012-02-23T14:48:37Z</time>
      </trkpt>
      <trkpt lat="47.2184" lon="-0.90194">
        <ele>86</ele>
        <time>2012-02-23T14:48:39Z</time>
      </trkpt>
      <trkpt lat="47.21838" lon="-0.90191">
        <ele>86</ele>
        <time>2012-02-23T14:48:41Z</time>
      </trkpt>
      <trkpt lat="47.21838" lon="-0.90189">
        <ele>86</ele>
        <time>2012-02-23T14:48:42Z</time>
      </trkpt>
      <trkpt lat="47.21837" lon="-0.90188">
        <ele>86</ele>
        <time>2012-02-23T14:48:43Z</time>
      </trkpt>
      <trkpt lat="47.21836" lon="-0.90186">
        <ele>86</ele>
        <time>2012-02-23T14:48:44Z</time>
      </trkpt>
      <trkpt lat="47.21835" lon="-0.90185">
        <ele>86</ele>
        <time>2012-02-23T14:48:45Z</time>
      </trkpt>
      <trkpt lat="47.21835" lon="-0.90183">
        <ele>86</ele>
        <time>2012-02-23T14:48:46Z</time>
      </trkpt>
      <trkpt lat="47.21834" lon="-0.90181">
        <ele>86</ele>
        <time>2012-02-23T14:48:47Z</time>
      </trkpt>
      <trkpt lat="47.21833" lon="-0.90179">
        <ele>86</ele>
        <time>2012-02-23T14:48:49Z</time>
      </trkpt>
      <trkpt lat="47.21831" lon="-0.90177">
        <ele>86</ele>
        <time>2012-02-23T14:48:51Z</time>
      </trkpt>
      <trkpt lat="47.2183" lon="-0.90175">
        <ele>86</ele>
        <time>2012-02-23T14:48:53Z</time>
      </trkpt>
      <trkpt lat="47.21829" lon="-0.90173">
        <ele>86</ele>
        <time>2012-02-23T14:48:55Z</time>
      </trkpt>
      <trkpt lat="47.21827" lon="-0.90171">
        <ele>86</ele>
        <time>2012-02-23T14:48:57Z</time>
      </trkpt>
      <trkpt lat="47.21826" lon="-0.90169">
        <ele>86</ele>
        <time>2012-02-23T14:48:59Z</time>
      </trkpt>
      <trkpt lat="47.21825" lon="-0.90167">
        <ele>85</ele>
        <time>2012-02-23T14:49:01Z</time>
      </trkpt>
      <trkpt lat="47.21824" lon="-0.90166">
        <ele>85</ele>
        <time>2012-02-23T14:49:02Z</time>
      </trkpt>
      <trkpt lat="47.21823" lon="-0.90163">
        <ele>85</ele>
        <time>2012-02-23T14:49:04Z</time>
      </trkpt>
      <trkpt lat="47.21822" lon="-0.90161">
        <ele>85</ele>
        <time>2012-02-23T14:49:06Z</time>
      </trkpt>
      <trkpt lat="47.21821" lon="-0.90159">
        <ele>85</ele>
        <time>2012-02-23T14:49:08Z</time>
      </trkpt>
      <trkpt lat="47.21819" lon="-0.90157">
        <ele>85</ele>
        <time>2012-02-23T14:49:10Z</time>
      </trkpt>
      <trkpt lat="47.21817" lon="-0.90155">
        <ele>85</ele>
        <time>2012-02-23T14:49:12Z</time>
      </trkpt>
      <trkpt lat="47.21816" lon="-0.90153">
        <ele>85</ele>
        <time>2012-02-23T14:49:14Z</time>
      </trkpt>
      <trkpt lat="47.21814" lon="-0.90151">
        <ele>85</ele>
        <time>2012-02-23T14:49:16Z</time>
      </trkpt>
      <trkpt lat="47.21813" lon="-0.90149">
        <ele>85</ele>
        <time>2012-02-23T14:49:18Z</time>
      </trkpt>
      <trkpt lat="47.21811" lon="-0.90148">
        <ele>85</ele>
        <time>2012-02-23T14:49:20Z</time>
      </trkpt>
      <trkpt lat="47.2181" lon="-0.90146">
        <ele>85</ele>
        <time>2012-02-23T14:49:21Z</time>
      </trkpt>
      <trkpt lat="47.21809" lon="-0.90145">
        <ele>85</ele>
        <time>2012-02-23T14:49:22Z</time>
      </trkpt>
      <trkpt lat="47.21807" lon="-0.90143">
        <ele>85</ele>
        <time>2012-02-23T14:49:24Z</time>
      </trkpt>
      <trkpt lat="47.21806" lon="-0.90141">
        <ele>85</ele>
        <time>2012-02-23T14:49:26Z</time>
      </trkpt>
      <trkpt lat="47.21804" lon="-0.9014">
        <ele>85</ele>
        <time>2012-02-23T14:49:27Z</time>
      </trkpt>
      <trkpt lat="47.21803" lon="-0.90138">
        <ele>85</ele>
        <time>2012-02-23T14:49:29Z</time>
      </trkpt>
      <trkpt lat="47.21801" lon="-0.90136">
        <ele>85</ele>
        <time>2012-02-23T14:49:31Z</time>
      </trkpt>
      <trkpt lat="47.21799" lon="-0.90135">
        <ele>85</ele>
        <time>2012-02-23T14:49:33Z</time>
      </trkpt>
      <trkpt lat="47.21798" lon="-0.90133">
        <ele>85</ele>
        <time>2012-02-23T14:49:35Z</time>
      </trkpt>
      <trkpt lat="47.21796" lon="-0.90132">
        <ele>85</ele>
        <time>2012-02-23T14:49:37Z</time>
      </trkpt>
      <trkpt lat="47.21795" lon="-0.9013">
        <ele>85</ele>
        <time>2012-02-23T14:49:39Z</time>
      </trkpt>
      <trkpt lat="47.21793" lon="-0.90129">
        <ele>85</ele>
        <time>2012-02-23T14:49:41Z</time>
      </trkpt>
      <trkpt lat="47.21791" lon="-0.90127">
        <ele>85</ele>
        <time>2012-02-23T14:49:43Z</time>
      </trkpt>
      <trkpt lat="47.2179" lon="-0.90126">
        <ele>85</ele>
        <time>2012-02-23T14:49:45Z</time>
      </trkpt>
      <trkpt lat="47.21788" lon="-0.90124">
        <ele>85</ele>
        <time>2012-02-23T14:49:47Z</time>
      </trkpt>
      <trkpt lat="47.21786" lon="-0.90122">
        <ele>85</ele>
        <time>2012-02-23T14:49:49Z</time>
      </trkpt>
      <trkpt lat="47.21784" lon="-0.9012">
        <ele>85</ele>
        <time>2012-02-23T14:49:51Z</time>
      </trkpt>
      <trkpt lat="47.21782" lon="-0.90119">
        <ele>85</ele>
        <time>2012-02-23T14:49:53Z</time>
      </trkpt>
      <trkpt lat="47.21781" lon="-0.90118">
        <ele>85</ele>
        <time>2012-02-23T14:49:55Z</time>
      </trkpt>
      <trkpt lat="47.2178" lon="-0.90116">
        <ele>85</ele>
        <time>2012-02-23T14:49:57Z</time>
      </trkpt>
      <trkpt lat="47.21778" lon="-0.90115">
        <ele>85</ele>
        <time>2012-02-23T14:49:59Z</time>
      </trkpt>
      <trkpt lat="47.21776" lon="-0.90114">
        <ele>85</ele>
        <time>2012-02-23T14:50:01Z</time>
      </trkpt>
      <trkpt lat="47.21775" lon="-0.90113">
        <ele>85</ele>
        <time>2012-02-23T14:50:03Z</time>
      </trkpt>
      <trkpt lat="47.21774" lon="-0.90112">
        <ele>85</ele>
        <time>2012-02-23T14:50:05Z</time>
      </trkpt>
      <trkpt lat="47.21772" lon="-0.90112">
        <ele>85</ele>
        <time>2012-02-23T14:50:07Z</time>
      </trkpt>
      <trkpt lat="47.21771" lon="-0.90111">
        <ele>85</ele>
        <time>2012-02-23T14:50:09Z</time>
      </trkpt>
      <trkpt lat="47.2177" lon="-0.9011">
        <ele>85</ele>
        <time>2012-02-23T14:50:11Z</time>
      </trkpt>
      <trkpt lat="47.21768" lon="-0.90109">
        <ele>85</ele>
        <time>2012-02-23T14:50:13Z</time>
      </trkpt>
      <trkpt lat="47.21767" lon="-0.90108">
        <ele>85</ele>
        <time>2012-02-23T14:50:15Z</time>
      </trkpt>
      <trkpt lat="47.21765" lon="-0.90108">
        <ele>85</ele>
        <time>2012-02-23T14:50:17Z</time>
      </trkpt>
      <trkpt lat="47.21763" lon="-0.90107">
        <ele>85</ele>
        <time>2012-02-23T14:50:19Z</time>
      </trkpt>
      <trkpt lat="47.21761" lon="-0.90105">
        <ele>85</ele>
        <time>2012-02-23T14:50:21Z</time>
      </trkpt>
      <trkpt lat="47.21759" lon="-0.90104">
        <ele>85</ele>
        <time>2012-02-23T14:50:23Z</time>
      </trkpt>
      <trkpt lat="47.21758" lon="-0.90103">
        <ele>85</ele>
        <time>2012-02-23T14:50:25Z</time>
      </trkpt>
      <trkpt lat="47.21756" lon="-0.90102">
        <ele>85</ele>
        <time>2012-02-23T14:50:27Z</time>
      </trkpt>
      <trkpt lat="47.21754" lon="-0.90101">
        <ele>85</ele>
        <time>2012-02-23T14:50:29Z</time>
      </trkpt>
      <trkpt lat="47.21753" lon="-0.90101">
        <ele>85</ele>
        <time>2012-02-23T14:50:31Z</time>
      </trkpt>
      <trkpt lat="47.21752" lon="-0.90101">
        <ele>85</ele>
        <time>2012-02-23T14:50:38Z</time>
      </trkpt>
      <trkpt lat="47.21751" lon="-0.90099">
        <ele>85</ele>
        <time>2012-02-23T14:50:42Z</time>
      </trkpt>
      <trkpt lat="47.21749" lon="-0.90098">
        <ele>85</ele>
        <time>2012-02-23T14:50:44Z</time>
      </trkpt>
      <trkpt lat="47.21748" lon="-0.90097">
        <ele>85</ele>
        <time>2012-02-23T14:50:48Z</time>
      </trkpt>
      <trkpt lat="47.21747" lon="-0.90097">
        <ele>85</ele>
        <time>2012-02-23T14:50:49Z</time>
      </trkpt>
      <trkpt lat="47.21745" lon="-0.90097">
        <ele>85</ele>
        <time>2012-02-23T14:50:51Z</time>
      </trkpt>
      <trkpt lat="47.21744" lon="-0.90096">
        <ele>85</ele>
        <time>2012-02-23T14:51:02Z</time>
      </trkpt>
      <trkpt lat="47.21742" lon="-0.90095">
        <ele>85</ele>
        <time>2012-02-23T14:51:07Z</time>
      </trkpt>
      <trkpt lat="47.21741" lon="-0.90095">
        <ele>85</ele>
        <time>2012-02-23T14:51:09Z</time>
      </trkpt>
      <trkpt lat="47.21739" lon="-0.90094">
        <ele>85</ele>
        <time>2012-02-23T14:51:11Z</time>
      </trkpt>
      <trkpt lat="47.21738" lon="-0.90093">
        <ele>85</ele>
        <time>2012-02-23T14:51:12Z</time>
      </trkpt>
      <trkpt lat="47.21736" lon="-0.90092">
        <ele>85</ele>
        <time>2012-02-23T14:51:14Z</time>
      </trkpt>
      <trkpt lat="47.21735" lon="-0.90091">
        <ele>85</ele>
        <time>2012-02-23T14:51:16Z</time>
      </trkpt>
      <trkpt lat="47.21733" lon="-0.9009">
        <ele>85</ele>
        <time>2012-02-23T14:51:18Z</time>
      </trkpt>
      <trkpt lat="47.21732" lon="-0.90089">
        <ele>85</ele>
        <time>2012-02-23T14:51:20Z</time>
      </trkpt>
      <trkpt lat="47.21731" lon="-0.90089">
        <ele>85</ele>
        <time>2012-02-23T14:51:21Z</time>
      </trkpt>
      <trkpt lat="47.21729" lon="-0.90088">
        <ele>85</ele>
        <time>2012-02-23T14:51:23Z</time>
      </trkpt>
      <trkpt lat="47.21727" lon="-0.90086">
        <ele>86</ele>
        <time>2012-02-23T14:51:25Z</time>
      </trkpt>
      <trkpt lat="47.21725" lon="-0.90085">
        <ele>86</ele>
        <time>2012-02-23T14:51:27Z</time>
      </trkpt>
      <trkpt lat="47.21723" lon="-0.90084">
        <ele>86</ele>
        <time>2012-02-23T14:51:29Z</time>
      </trkpt>
      <trkpt lat="47.21721" lon="-0.90083">
        <ele>86</ele>
        <time>2012-02-23T14:51:31Z</time>
      </trkpt>
      <trkpt lat="47.21719" lon="-0.90083">
        <ele>86</ele>
        <time>2012-02-23T14:51:33Z</time>
      </trkpt>
      <trkpt lat="47.21717" lon="-0.90082">
        <ele>86</ele>
        <time>2012-02-23T14:51:34Z</time>
      </trkpt>
      <trkpt lat="47.21716" lon="-0.90081">
        <ele>86</ele>
        <time>2012-02-23T14:51:35Z</time>
      </trkpt>
      <trkpt lat="47.21714" lon="-0.90079">
        <ele>87</ele>
        <time>2012-02-23T14:51:37Z</time>
      </trkpt>
      <trkpt lat="47.21712" lon="-0.90079">
        <ele>87</ele>
        <time>2012-02-23T14:51:39Z</time>
      </trkpt>
      <trkpt lat="47.21711" lon="-0.90078">
        <ele>87</ele>
        <time>2012-02-23T14:51:40Z</time>
      </trkpt>
      <trkpt lat="47.21709" lon="-0.90077">
        <ele>87</ele>
        <time>2012-02-23T14:51:42Z</time>
      </trkpt>
      <trkpt lat="47.21707" lon="-0.90076">
        <ele>88</ele>
        <time>2012-02-23T14:51:44Z</time>
      </trkpt>
      <trkpt lat="47.21705" lon="-0.90075">
        <ele>88</ele>
        <time>2012-02-23T14:51:46Z</time>
      </trkpt>
      <trkpt lat="47.21704" lon="-0.90074">
        <ele>88</ele>
        <time>2012-02-23T14:51:47Z</time>
      </trkpt>
      <trkpt lat="47.21702" lon="-0.90074">
        <ele>88</ele>
        <time>2012-02-23T14:51:49Z</time>
      </trkpt>
      <trkpt lat="47.217" lon="-0.90072">
        <ele>89</ele>
        <time>2012-02-23T14:51:51Z</time>
      </trkpt>
      <trkpt lat="47.21698" lon="-0.90072">
        <ele>89</ele>
        <time>2012-02-23T14:51:53Z</time>
      </trkpt>
      <trkpt lat="47.21696" lon="-0.90071">
        <ele>89</ele>
        <time>2012-02-23T14:51:54Z</time>
      </trkpt>
      <trkpt lat="47.21695" lon="-0.9007">
        <ele>89</ele>
        <time>2012-02-23T14:51:56Z</time>
      </trkpt>
      <trkpt lat="47.21693" lon="-0.90069">
        <ele>89</ele>
        <time>2012-02-23T14:51:57Z</time>
      </trkpt>
      <trkpt lat="47.21692" lon="-0.90069">
        <ele>90</ele>
        <time>2012-02-23T14:51:59Z</time>
      </trkpt>
      <trkpt lat="47.2169" lon="-0.90068">
        <ele>90</ele>
        <time>2012-02-23T14:52:01Z</time>
      </trkpt>
      <trkpt lat="47.21688" lon="-0.90067">
        <ele>90</ele>
        <time>2012-02-23T14:52:03Z</time>
      </trkpt>
      <trkpt lat="47.21687" lon="-0.90066">
        <ele>90</ele>
        <time>2012-02-23T14:52:04Z</time>
      </trkpt>
      <trkpt lat="47.21685" lon="-0.90065">
        <ele>90</ele>
        <time>2012-02-23T14:52:06Z</time>
      </trkpt>
      <trkpt lat="47.21683" lon="-0.90064">
        <ele>90</ele>
        <time>2012-02-23T14:52:08Z</time>
      </trkpt>
      <trkpt lat="47.21682" lon="-0.90062">
        <ele>90</ele>
        <time>2012-02-23T14:52:10Z</time>
      </trkpt>
      <trkpt lat="47.2168" lon="-0.90061">
        <ele>90</ele>
        <time>2012-02-23T14:52:12Z</time>
      </trkpt>
      <trkpt lat="47.21678" lon="-0.9006">
        <ele>90</ele>
        <time>2012-02-23T14:52:13Z</time>
      </trkpt>
      <trkpt lat="47.21676" lon="-0.90058">
        <ele>90</ele>
        <time>2012-02-23T14:52:15Z</time>
      </trkpt>
      <trkpt lat="47.21675" lon="-0.90057">
        <ele>90</ele>
        <time>2012-02-23T14:52:16Z</time>
      </trkpt>
      <trkpt lat="47.21674" lon="-0.90056">
        <ele>90</ele>
        <time>2012-02-23T14:52:17Z</time>
      </trkpt>
      <trkpt lat="47.21673" lon="-0.90055">
        <ele>90</ele>
        <time>2012-02-23T14:52:18Z</time>
      </trkpt>
      <trkpt lat="47.21671" lon="-0.90054">
        <ele>90</ele>
        <time>2012-02-23T14:52:20Z</time>
      </trkpt>
      <trkpt lat="47.21669" lon="-0.90053">
        <ele>90</ele>
        <time>2012-02-23T14:52:21Z</time>
      </trkpt>
      <trkpt lat="47.21668" lon="-0.90052">
        <ele>90</ele>
        <time>2012-02-23T14:52:22Z</time>
      </trkpt>
      <trkpt lat="47.21667" lon="-0.90051">
        <ele>90</ele>
        <time>2012-02-23T14:52:23Z</time>
      </trkpt>
      <trkpt lat="47.21666" lon="-0.9005">
        <ele>90</ele>
        <time>2012-02-23T14:52:24Z</time>
      </trkpt>
      <trkpt lat="47.21664" lon="-0.90048">
        <ele>90</ele>
        <time>2012-02-23T14:52:26Z</time>
      </trkpt>
      <trkpt lat="47.21662" lon="-0.90046">
        <ele>90</ele>
        <time>2012-02-23T14:52:28Z</time>
      </trkpt>
      <trkpt lat="47.2166" lon="-0.90045">
        <ele>90</ele>
        <time>2012-02-23T14:52:30Z</time>
      </trkpt>
      <trkpt lat="47.21658" lon="-0.90043">
        <ele>90</ele>
        <time>2012-02-23T14:52:32Z</time>
      </trkpt>
      <trkpt lat="47.21657" lon="-0.90042">
        <ele>90</ele>
        <time>2012-02-23T14:52:33Z</time>
      </trkpt>
      <trkpt lat="47.21656" lon="-0.90042">
        <ele>90</ele>
        <time>2012-02-23T14:52:34Z</time>
      </trkpt>
      <trkpt lat="47.21655" lon="-0.90039">
        <ele>90</ele>
        <time>2012-02-23T14:52:36Z</time>
      </trkpt>
      <trkpt lat="47.21653" lon="-0.90038">
        <ele>90</ele>
        <time>2012-02-23T14:52:38Z</time>
      </trkpt>
      <trkpt lat="47.21651" lon="-0.90035">
        <ele>90</ele>
        <time>2012-02-23T14:52:40Z</time>
      </trkpt>
      <trkpt lat="47.21649" lon="-0.90033">
        <ele>90</ele>
        <time>2012-02-23T14:52:42Z</time>
      </trkpt>
      <trkpt lat="47.21647" lon="-0.90031">
        <ele>90</ele>
        <time>2012-02-23T14:52:44Z</time>
      </trkpt>
      <trkpt lat="47.21646" lon="-0.9003">
        <ele>90</ele>
        <time>2012-02-23T14:52:46Z</time>
      </trkpt>
      <trkpt lat="47.21645" lon="-0.90029">
        <ele>90</ele>
        <time>2012-02-23T14:52:48Z</time>
      </trkpt>
      <trkpt lat="47.21643" lon="-0.90027">
        <ele>90</ele>
        <time>2012-02-23T14:52:50Z</time>
      </trkpt>
      <trkpt lat="47.21642" lon="-0.90026">
        <ele>90</ele>
        <time>2012-02-23T14:52:52Z</time>
      </trkpt>
      <trkpt lat="47.2164" lon="-0.90024">
        <ele>90</ele>
        <time>2012-02-23T14:52:54Z</time>
      </trkpt>
      <trkpt lat="47.21639" lon="-0.90022">
        <ele>90</ele>
        <time>2012-02-23T14:52:56Z</time>
      </trkpt>
      <trkpt lat="47.21637" lon="-0.90021">
        <ele>90</ele>
        <time>2012-02-23T14:52:58Z</time>
      </trkpt>
      <trkpt lat="47.21635" lon="-0.90019">
        <ele>90</ele>
        <time>2012-02-23T14:53:00Z</time>
      </trkpt>
      <trkpt lat="47.21634" lon="-0.90018">
        <ele>90</ele>
        <time>2012-02-23T14:53:02Z</time>
      </trkpt>
      <trkpt lat="47.21632" lon="-0.90017">
        <ele>90</ele>
        <time>2012-02-23T14:53:04Z</time>
      </trkpt>
      <trkpt lat="47.2163" lon="-0.90015">
        <ele>90</ele>
        <time>2012-02-23T14:53:06Z</time>
      </trkpt>
      <trkpt lat="47.21629" lon="-0.90014">
        <ele>90</ele>
        <time>2012-02-23T14:53:08Z</time>
      </trkpt>
      <trkpt lat="47.21627" lon="-0.90012">
        <ele>90</ele>
        <time>2012-02-23T14:53:10Z</time>
      </trkpt>
      <trkpt lat="47.21626" lon="-0.90011">
        <ele>90</ele>
        <time>2012-02-23T14:53:12Z</time>
      </trkpt>
      <trkpt lat="47.21624" lon="-0.9001">
        <ele>90</ele>
        <time>2012-02-23T14:53:14Z</time>
      </trkpt>
      <trkpt lat="47.21623" lon="-0.90008">
        <ele>90</ele>
        <time>2012-02-23T14:53:16Z</time>
      </trkpt>
      <trkpt lat="47.21621" lon="-0.90007">
        <ele>90</ele>
        <time>2012-02-23T14:53:18Z</time>
      </trkpt>
      <trkpt lat="47.21619" lon="-0.90006">
        <ele>90</ele>
        <time>2012-02-23T14:53:20Z</time>
      </trkpt>
      <trkpt lat="47.21618" lon="-0.90004">
        <ele>90</ele>
        <time>2012-02-23T14:53:22Z</time>
      </trkpt>
      <trkpt lat="47.21616" lon="-0.90003">
        <ele>90</ele>
        <time>2012-02-23T14:53:24Z</time>
      </trkpt>
      <trkpt lat="47.21615" lon="-0.90002">
        <ele>90</ele>
        <time>2012-02-23T14:53:26Z</time>
      </trkpt>
      <trkpt lat="47.21613" lon="-0.9">
        <ele>90</ele>
        <time>2012-02-23T14:53:28Z</time>
      </trkpt>
      <trkpt lat="47.21612" lon="-0.89999">
        <ele>90</ele>
        <time>2012-02-23T14:53:30Z</time>
      </trkpt>
      <trkpt lat="47.2161" lon="-0.89998">
        <ele>90</ele>
        <time>2012-02-23T14:53:32Z</time>
      </trkpt>
      <trkpt lat="47.21609" lon="-0.89996">
        <ele>90</ele>
        <time>2012-02-23T14:53:34Z</time>
      </trkpt>
      <trkpt lat="47.21607" lon="-0.89995">
        <ele>90</ele>
        <time>2012-02-23T14:53:36Z</time>
      </trkpt>
      <trkpt lat="47.21605" lon="-0.89993">
        <ele>90</ele>
        <time>2012-02-23T14:53:38Z</time>
      </trkpt>
      <trkpt lat="47.21604" lon="-0.89991">
        <ele>90</ele>
        <time>2012-02-23T14:53:40Z</time>
      </trkpt>
      <trkpt lat="47.21602" lon="-0.89989">
        <ele>90</ele>
        <time>2012-02-23T14:53:42Z</time>
      </trkpt>
      <trkpt lat="47.21601" lon="-0.89988">
        <ele>90</ele>
        <time>2012-02-23T14:53:44Z</time>
      </trkpt>
      <trkpt lat="47.216" lon="-0.89986">
        <ele>90</ele>
        <time>2012-02-23T14:53:46Z</time>
      </trkpt>
      <trkpt lat="47.21598" lon="-0.89984">
        <ele>90</ele>
        <time>2012-02-23T14:53:48Z</time>
      </trkpt>
      <trkpt lat="47.21597" lon="-0.89982">
        <ele>90</ele>
        <time>2012-02-23T14:53:50Z</time>
      </trkpt>
      <trkpt lat="47.21595" lon="-0.8998">
        <ele>90</ele>
        <time>2012-02-23T14:53:52Z</time>
      </trkpt>
      <trkpt lat="47.21594" lon="-0.89978">
        <ele>90</ele>
        <time>2012-02-23T14:53:54Z</time>
      </trkpt>
      <trkpt lat="47.21592" lon="-0.89976">
        <ele>90</ele>
        <time>2012-02-23T14:53:56Z</time>
      </trkpt>
      <trkpt lat="47.21591" lon="-0.89974">
        <ele>90</ele>
        <time>2012-02-23T14:53:58Z</time>
      </trkpt>
      <trkpt lat="47.2159" lon="-0.89972">
        <ele>90</ele>
        <time>2012-02-23T14:54:00Z</time>
      </trkpt>
      <trkpt lat="47.21589" lon="-0.8997">
        <ele>90</ele>
        <time>2012-02-23T14:54:02Z</time>
      </trkpt>
      <trkpt lat="47.21587" lon="-0.89968">
        <ele>90</ele>
        <time>2012-02-23T14:54:04Z</time>
      </trkpt>
      <trkpt lat="47.21586" lon="-0.89966">
        <ele>90</ele>
        <time>2012-02-23T14:54:06Z</time>
      </trkpt>
      <trkpt lat="47.21584" lon="-0.89964">
        <ele>90</ele>
        <time>2012-02-23T14:54:08Z</time>
      </trkpt>
      <trkpt lat="47.21583" lon="-0.89962">
        <ele>90</ele>
        <time>2012-02-23T14:54:10Z</time>
      </trkpt>
      <trkpt lat="47.21582" lon="-0.8996">
        <ele>90</ele>
        <time>2012-02-23T14:54:12Z</time>
      </trkpt>
      <trkpt lat="47.2158" lon="-0.89958">
        <ele>90</ele>
        <time>2012-02-23T14:54:14Z</time>
      </trkpt>
      <trkpt lat="47.21579" lon="-0.89956">
        <ele>90</ele>
        <time>2012-02-23T14:54:16Z</time>
      </trkpt>
      <trkpt lat="47.21578" lon="-0.89955">
        <ele>90</ele>
        <time>2012-02-23T14:54:18Z</time>
      </trkpt>
      <trkpt lat="47.21577" lon="-0.89954">
        <ele>90</ele>
        <time>2012-02-23T14:54:20Z</time>
      </trkpt>
      <trkpt lat="47.21575" lon="-0.89952">
        <ele>90</ele>
        <time>2012-02-23T14:54:22Z</time>
      </trkpt>
      <trkpt lat="47.21573" lon="-0.8995">
        <ele>90</ele>
        <time>2012-02-23T14:54:24Z</time>
      </trkpt>
      <trkpt lat="47.21571" lon="-0.89948">
        <ele>90</ele>
        <time>2012-02-23T14:54:26Z</time>
      </trkpt>
      <trkpt lat="47.2157" lon="-0.89947">
        <ele>90</ele>
        <time>2012-02-23T14:54:27Z</time>
      </trkpt>
      <trkpt lat="47.21568" lon="-0.89945">
        <ele>90</ele>
        <time>2012-02-23T14:54:29Z</time>
      </trkpt>
      <trkpt lat="47.21566" lon="-0.89943">
        <ele>90</ele>
        <time>2012-02-23T14:54:31Z</time>
      </trkpt>
      <trkpt lat="47.21564" lon="-0.8994">
        <ele>90</ele>
        <time>2012-02-23T14:54:33Z</time>
      </trkpt>
      <trkpt lat="47.21563" lon="-0.89938">
        <ele>90</ele>
        <time>2012-02-23T14:54:35Z</time>
      </trkpt>
      <trkpt lat="47.21561" lon="-0.89935">
        <ele>90</ele>
        <time>2012-02-23T14:54:37Z</time>
      </trkpt>
      <trkpt lat="47.21559" lon="-0.89932">
        <ele>90</ele>
        <time>2012-02-23T14:54:39Z</time>
      </trkpt>
      <trkpt lat="47.21558" lon="-0.8993">
        <ele>90</ele>
        <time>2012-02-23T14:54:41Z</time>
      </trkpt>
      <trkpt lat="47.21557" lon="-0.89929">
        <ele>90</ele>
        <time>2012-02-23T14:54:42Z</time>
      </trkpt>
      <trkpt lat="47.21556" lon="-0.89926">
        <ele>90</ele>
        <time>2012-02-23T14:54:43Z</time>
      </trkpt>
      <trkpt lat="47.21555" lon="-0.89925">
        <ele>90</ele>
        <time>2012-02-23T14:54:44Z</time>
      </trkpt>
      <trkpt lat="47.21554" lon="-0.89923">
        <ele>90</ele>
        <time>2012-02-23T14:54:45Z</time>
      </trkpt>
      <trkpt lat="47.21553" lon="-0.89921">
        <ele>90</ele>
        <time>2012-02-23T14:54:47Z</time>
      </trkpt>
      <trkpt lat="47.21551" lon="-0.8992">
        <ele>90</ele>
        <time>2012-02-23T14:54:48Z</time>
      </trkpt>
      <trkpt lat="47.2155" lon="-0.89919">
        <ele>90</ele>
        <time>2012-02-23T14:54:49Z</time>
      </trkpt>
      <trkpt lat="47.21549" lon="-0.89917">
        <ele>90</ele>
        <time>2012-02-23T14:54:50Z</time>
      </trkpt>
      <trkpt lat="47.21548" lon="-0.89916">
        <ele>90</ele>
        <time>2012-02-23T14:54:51Z</time>
      </trkpt>
      <trkpt lat="47.21546" lon="-0.89914">
        <ele>90</ele>
        <time>2012-02-23T14:54:53Z</time>
      </trkpt>
      <trkpt lat="47.21545" lon="-0.89912">
        <ele>90</ele>
        <time>2012-02-23T14:54:54Z</time>
      </trkpt>
      <trkpt lat="47.21545" lon="-0.89911">
        <ele>90</ele>
        <time>2012-02-23T14:54:55Z</time>
      </trkpt>
      <trkpt lat="47.21544" lon="-0.89908">
        <ele>90</ele>
        <time>2012-02-23T14:54:56Z</time>
      </trkpt>
      <trkpt lat="47.21543" lon="-0.89907">
        <ele>90</ele>
        <time>2012-02-23T14:54:57Z</time>
      </trkpt>
      <trkpt lat="47.21542" lon="-0.89904">
        <ele>90</ele>
        <time>2012-02-23T14:54:59Z</time>
      </trkpt>
      <trkpt lat="47.21539" lon="-0.89902">
        <ele>90</ele>
        <time>2012-02-23T14:55:01Z</time>
      </trkpt>
      <trkpt lat="47.21538" lon="-0.89899">
        <ele>90</ele>
        <time>2012-02-23T14:55:03Z</time>
      </trkpt>
      <trkpt lat="47.21536" lon="-0.89897">
        <ele>90</ele>
        <time>2012-02-23T14:55:05Z</time>
      </trkpt>
      <trkpt lat="47.21534" lon="-0.89894">
        <ele>90</ele>
        <time>2012-02-23T14:55:07Z</time>
      </trkpt>
      <trkpt lat="47.21532" lon="-0.89892">
        <ele>90</ele>
        <time>2012-02-23T14:55:09Z</time>
      </trkpt>
      <trkpt lat="47.21531" lon="-0.8989">
        <ele>90</ele>
        <time>2012-02-23T14:55:10Z</time>
      </trkpt>
      <trkpt lat="47.2153" lon="-0.89889">
        <ele>90</ele>
        <time>2012-02-23T14:55:11Z</time>
      </trkpt>
      <trkpt lat="47.21529" lon="-0.89887">
        <ele>90</ele>
        <time>2012-02-23T14:55:12Z</time>
      </trkpt>
      <trkpt lat="47.21529" lon="-0.89886">
        <ele>90</ele>
        <time>2012-02-23T14:55:13Z</time>
      </trkpt>
      <trkpt lat="47.21528" lon="-0.89884">
        <ele>90</ele>
        <time>2012-02-23T14:55:14Z</time>
      </trkpt>
      <trkpt lat="47.21527" lon="-0.89883">
        <ele>90</ele>
        <time>2012-02-23T14:55:15Z</time>
      </trkpt>
      <trkpt lat="47.21526" lon="-0.89881">
        <ele>90</ele>
        <time>2012-02-23T14:55:16Z</time>
      </trkpt>
      <trkpt lat="47.21524" lon="-0.89878">
        <ele>90</ele>
        <time>2012-02-23T14:55:18Z</time>
      </trkpt>
      <trkpt lat="47.21524" lon="-0.89877">
        <ele>90</ele>
        <time>2012-02-23T14:55:19Z</time>
      </trkpt>
      <trkpt lat="47.21523" lon="-0.89875">
        <ele>90</ele>
        <time>2012-02-23T14:55:20Z</time>
      </trkpt>
      <trkpt lat="47.21522" lon="-0.89873">
        <ele>90</ele>
        <time>2012-02-23T14:55:21Z</time>
      </trkpt>
      <trkpt lat="47.21521" lon="-0.89871">
        <ele>90</ele>
        <time>2012-02-23T14:55:23Z</time>
      </trkpt>
      <trkpt lat="47.2152" lon="-0.89869">
        <ele>90</ele>
        <time>2012-02-23T14:55:24Z</time>
      </trkpt>
      <trkpt lat="47.21519" lon="-0.89867">
        <ele>90</ele>
        <time>2012-02-23T14:55:25Z</time>
      </trkpt>
      <trkpt lat="47.21519" lon="-0.89865">
        <ele>90</ele>
        <time>2012-02-23T14:55:26Z</time>
      </trkpt>
      <trkpt lat="47.21518" lon="-0.89864">
        <ele>90</ele>
        <time>2012-02-23T14:55:27Z</time>
      </trkpt>
      <trkpt lat="47.21518" lon="-0.89862">
        <ele>90</ele>
        <time>2012-02-23T14:55:28Z</time>
      </trkpt>
      <trkpt lat="47.21517" lon="-0.8986">
        <ele>90</ele>
        <time>2012-02-23T14:55:29Z</time>
      </trkpt>
      <trkpt lat="47.21517" lon="-0.89859">
        <ele>90</ele>
        <time>2012-02-23T14:55:30Z</time>
      </trkpt>
      <trkpt lat="47.21516" lon="-0.89857">
        <ele>90</ele>
        <time>2012-02-23T14:55:31Z</time>
      </trkpt>
      <trkpt lat="47.21516" lon="-0.89855">
        <ele>90</ele>
        <time>2012-02-23T14:55:32Z</time>
      </trkpt>
      <trkpt lat="47.21515" lon="-0.89854">
        <ele>90</ele>
        <time>2012-02-23T14:55:33Z</time>
      </trkpt>
      <trkpt lat="47.21514" lon="-0.89852">
        <ele>90</ele>
        <time>2012-02-23T14:55:34Z</time>
      </trkpt>
      <trkpt lat="47.21514" lon="-0.8985">
        <ele>90</ele>
        <time>2012-02-23T14:55:35Z</time>
      </trkpt>
      <trkpt lat="47.21513" lon="-0.89848">
        <ele>90</ele>
        <time>2012-02-23T14:55:36Z</time>
      </trkpt>
      <trkpt lat="47.21512" lon="-0.89846">
        <ele>90</ele>
        <time>2012-02-23T14:55:37Z</time>
      </trkpt>
      <trkpt lat="47.21512" lon="-0.89845">
        <ele>90</ele>
        <time>2012-02-23T14:55:38Z</time>
      </trkpt>
      <trkpt lat="47.21511" lon="-0.89843">
        <ele>90</ele>
        <time>2012-02-23T14:55:39Z</time>
      </trkpt>
      <trkpt lat="47.21511" lon="-0.89841">
        <ele>90</ele>
        <time>2012-02-23T14:55:40Z</time>
      </trkpt>
      <trkpt lat="47.21511" lon="-0.89839">
        <ele>90</ele>
        <time>2012-02-23T14:55:41Z</time>
      </trkpt>
      <trkpt lat="47.2151" lon="-0.89837">
        <ele>90</ele>
        <time>2012-02-23T14:55:42Z</time>
      </trkpt>
      <trkpt lat="47.2151" lon="-0.89836">
        <ele>90</ele>
        <time>2012-02-23T14:55:43Z</time>
      </trkpt>
      <trkpt lat="47.21509" lon="-0.89834">
        <ele>90</ele>
        <time>2012-02-23T14:55:44Z</time>
      </trkpt>
      <trkpt lat="47.21509" lon="-0.89832">
        <ele>90</ele>
        <time>2012-02-23T14:55:45Z</time>
      </trkpt>
      <trkpt lat="47.21508" lon="-0.8983">
        <ele>90</ele>
        <time>2012-02-23T14:55:46Z</time>
      </trkpt>
      <trkpt lat="47.21508" lon="-0.89828">
        <ele>90</ele>
        <time>2012-02-23T14:55:47Z</time>
      </trkpt>
      <trkpt lat="47.21508" lon="-0.89826">
        <ele>90</ele>
        <time>2012-02-23T14:55:48Z</time>
      </trkpt>
      <trkpt lat="47.21507" lon="-0.89825">
        <ele>89</ele>
        <time>2012-02-23T14:55:49Z</time>
      </trkpt>
      <trkpt lat="47.21507" lon="-0.89823">
        <ele>89</ele>
        <time>2012-02-23T14:55:50Z</time>
      </trkpt>
      <trkpt lat="47.21507" lon="-0.89821">
        <ele>89</ele>
        <time>2012-02-23T14:55:51Z</time>
      </trkpt>
      <trkpt lat="47.21506" lon="-0.8982">
        <ele>89</ele>
        <time>2012-02-23T14:55:52Z</time>
      </trkpt>
      <trkpt lat="47.21506" lon="-0.89818">
        <ele>89</ele>
        <time>2012-02-23T14:55:53Z</time>
      </trkpt>
      <trkpt lat="47.21505" lon="-0.89816">
        <ele>89</ele>
        <time>2012-02-23T14:55:54Z</time>
      </trkpt>
      <trkpt lat="47.21505" lon="-0.89814">
        <ele>88</ele>
        <time>2012-02-23T14:55:55Z</time>
      </trkpt>
      <trkpt lat="47.21505" lon="-0.89812">
        <ele>88</ele>
        <time>2012-02-23T14:55:56Z</time>
      </trkpt>
      <trkpt lat="47.21504" lon="-0.89811">
        <ele>88</ele>
        <time>2012-02-23T14:55:57Z</time>
      </trkpt>
      <trkpt lat="47.21503" lon="-0.89809">
        <ele>88</ele>
        <time>2012-02-23T14:55:58Z</time>
      </trkpt>
      <trkpt lat="47.21503" lon="-0.89808">
        <ele>87</ele>
        <time>2012-02-23T14:55:59Z</time>
      </trkpt>
      <trkpt lat="47.21502" lon="-0.89806">
        <ele>87</ele>
        <time>2012-02-23T14:56:00Z</time>
      </trkpt>
      <trkpt lat="47.21502" lon="-0.89804">
        <ele>86</ele>
        <time>2012-02-23T14:56:01Z</time>
      </trkpt>
      <trkpt lat="47.21501" lon="-0.89802">
        <ele>86</ele>
        <time>2012-02-23T14:56:02Z</time>
      </trkpt>
      <trkpt lat="47.21501" lon="-0.89801">
        <ele>86</ele>
        <time>2012-02-23T14:56:03Z</time>
      </trkpt>
      <trkpt lat="47.215" lon="-0.89799">
        <ele>86</ele>
        <time>2012-02-23T14:56:04Z</time>
      </trkpt>
      <trkpt lat="47.215" lon="-0.89797">
        <ele>85</ele>
        <time>2012-02-23T14:56:05Z</time>
      </trkpt>
      <trkpt lat="47.215" lon="-0.89796">
        <ele>85</ele>
        <time>2012-02-23T14:56:06Z</time>
      </trkpt>
      <trkpt lat="47.21499" lon="-0.89793">
        <ele>85</ele>
        <time>2012-02-23T14:56:07Z</time>
      </trkpt>
      <trkpt lat="47.21498" lon="-0.89792">
        <ele>85</ele>
        <time>2012-02-23T14:56:08Z</time>
      </trkpt>
      <trkpt lat="47.21497" lon="-0.89789">
        <ele>85</ele>
        <time>2012-02-23T14:56:10Z</time>
      </trkpt>
      <trkpt lat="47.21497" lon="-0.89787">
        <ele>85</ele>
        <time>2012-02-23T14:56:11Z</time>
      </trkpt>
      <trkpt lat="47.21496" lon="-0.89785">
        <ele>85</ele>
        <time>2012-02-23T14:56:12Z</time>
      </trkpt>
      <trkpt lat="47.21496" lon="-0.89784">
        <ele>85</ele>
        <time>2012-02-23T14:56:13Z</time>
      </trkpt>
      <trkpt lat="47.21495" lon="-0.89782">
        <ele>85</ele>
        <time>2012-02-23T14:56:14Z</time>
      </trkpt>
      <trkpt lat="47.21495" lon="-0.8978">
        <ele>85</ele>
        <time>2012-02-23T14:56:15Z</time>
      </trkpt>
      <trkpt lat="47.21495" lon="-0.89779">
        <ele>85</ele>
        <time>2012-02-23T14:56:16Z</time>
      </trkpt>
      <trkpt lat="47.21495" lon="-0.89777">
        <ele>85</ele>
        <time>2012-02-23T14:56:17Z</time>
      </trkpt>
      <trkpt lat="47.21495" lon="-0.89776">
        <ele>85</ele>
        <time>2012-02-23T14:56:18Z</time>
      </trkpt>
      <trkpt lat="47.21494" lon="-0.89774">
        <ele>85</ele>
        <time>2012-02-23T14:56:19Z</time>
      </trkpt>
      <trkpt lat="47.21494" lon="-0.89772">
        <ele>85</ele>
        <time>2012-02-23T14:56:20Z</time>
      </trkpt>
      <trkpt lat="47.21493" lon="-0.8977">
        <ele>85</ele>
        <time>2012-02-23T14:56:21Z</time>
      </trkpt>
      <trkpt lat="47.21493" lon="-0.89769">
        <ele>85</ele>
        <time>2012-02-23T14:56:22Z</time>
      </trkpt>
      <trkpt lat="47.21492" lon="-0.89767">
        <ele>85</ele>
        <time>2012-02-23T14:56:23Z</time>
      </trkpt>
      <trkpt lat="47.21492" lon="-0.89766">
        <ele>85</ele>
        <time>2012-02-23T14:56:24Z</time>
      </trkpt>
      <trkpt lat="47.21492" lon="-0.89764">
        <ele>85</ele>
        <time>2012-02-23T14:56:25Z</time>
      </trkpt>
      <trkpt lat="47.21491" lon="-0.89763">
        <ele>85</ele>
        <time>2012-02-23T14:56:26Z</time>
      </trkpt>
      <trkpt lat="47.2149" lon="-0.89761">
        <ele>85</ele>
        <time>2012-02-23T14:56:27Z</time>
      </trkpt>
      <trkpt lat="47.2149" lon="-0.89759">
        <ele>85</ele>
        <time>2012-02-23T14:56:28Z</time>
      </trkpt>
      <trkpt lat="47.21489" lon="-0.89757">
        <ele>85</ele>
        <time>2012-02-23T14:56:29Z</time>
      </trkpt>
      <trkpt lat="47.21489" lon="-0.89755">
        <ele>85</ele>
        <time>2012-02-23T14:56:30Z</time>
      </trkpt>
      <trkpt lat="47.21489" lon="-0.89754">
        <ele>85</ele>
        <time>2012-02-23T14:56:31Z</time>
      </trkpt>
      <trkpt lat="47.21488" lon="-0.89752">
        <ele>85</ele>
        <time>2012-02-23T14:56:32Z</time>
      </trkpt>
      <trkpt lat="47.21487" lon="-0.89749">
        <ele>85</ele>
        <time>2012-02-23T14:56:34Z</time>
      </trkpt>
      <trkpt lat="47.21487" lon="-0.89748">
        <ele>85</ele>
        <time>2012-02-23T14:56:35Z</time>
      </trkpt>
      <trkpt lat="47.21487" lon="-0.89746">
        <ele>85</ele>
        <time>2012-02-23T14:56:36Z</time>
      </trkpt>
      <trkpt lat="47.21487" lon="-0.89745">
        <ele>85</ele>
        <time>2012-02-23T14:56:37Z</time>
      </trkpt>
      <trkpt lat="47.21487" lon="-0.89743">
        <ele>85</ele>
        <time>2012-02-23T14:56:38Z</time>
      </trkpt>
      <trkpt lat="47.21487" lon="-0.89741">
        <ele>85</ele>
        <time>2012-02-23T14:56:39Z</time>
      </trkpt>
      <trkpt lat="47.21486" lon="-0.8974">
        <ele>85</ele>
        <time>2012-02-23T14:56:40Z</time>
      </trkpt>
      <trkpt lat="47.21485" lon="-0.89737">
        <ele>85</ele>
        <time>2012-02-23T14:56:42Z</time>
      </trkpt>
      <trkpt lat="47.21485" lon="-0.89735">
        <ele>85</ele>
        <time>2012-02-23T14:56:44Z</time>
      </trkpt>
      <trkpt lat="47.21485" lon="-0.89733">
        <ele>85</ele>
        <time>2012-02-23T14:56:46Z</time>
      </trkpt>
      <trkpt lat="47.21484" lon="-0.89731">
        <ele>85</ele>
        <time>2012-02-23T14:56:48Z</time>
      </trkpt>
      <trkpt lat="47.21483" lon="-0.89728">
        <ele>85</ele>
        <time>2012-02-23T14:56:50Z</time>
      </trkpt>
      <trkpt lat="47.21482" lon="-0.89726">
        <ele>85</ele>
        <time>2012-02-23T14:56:52Z</time>
      </trkpt>
      <trkpt lat="47.21481" lon="-0.89724">
        <ele>85</ele>
        <time>2012-02-23T14:56:53Z</time>
      </trkpt>
      <trkpt lat="47.21481" lon="-0.89721">
        <ele>85</ele>
        <time>2012-02-23T14:56:55Z</time>
      </trkpt>
      <trkpt lat="47.21479" lon="-0.89719">
        <ele>85</ele>
        <time>2012-02-23T14:56:57Z</time>
      </trkpt>
      <trkpt lat="47.21479" lon="-0.89717">
        <ele>85</ele>
        <time>2012-02-23T14:56:58Z</time>
      </trkpt>
      <trkpt lat="47.21479" lon="-0.89715">
        <ele>85</ele>
        <time>2012-02-23T14:56:59Z</time>
      </trkpt>
      <trkpt lat="47.21479" lon="-0.89714">
        <ele>85</ele>
        <time>2012-02-23T14:57:00Z</time>
      </trkpt>
      <trkpt lat="47.21478" lon="-0.89712">
        <ele>85</ele>
        <time>2012-02-23T14:57:01Z</time>
      </trkpt>
      <trkpt lat="47.21478" lon="-0.8971">
        <ele>85</ele>
        <time>2012-02-23T14:57:02Z</time>
      </trkpt>
      <trkpt lat="47.21478" lon="-0.89708">
        <ele>85</ele>
        <time>2012-02-23T14:57:03Z</time>
      </trkpt>
      <trkpt lat="47.21477" lon="-0.89707">
        <ele>85</ele>
        <time>2012-02-23T14:57:04Z</time>
      </trkpt>
      <trkpt lat="47.21477" lon="-0.89705">
        <ele>85</ele>
        <time>2012-02-23T14:57:05Z</time>
      </trkpt>
      <trkpt lat="47.21477" lon="-0.89704">
        <ele>85</ele>
        <time>2012-02-23T14:57:06Z</time>
      </trkpt>
      <trkpt lat="47.21478" lon="-0.89702">
        <ele>85</ele>
        <time>2012-02-23T14:57:07Z</time>
      </trkpt>
      <trkpt lat="47.21477" lon="-0.897">
        <ele>85</ele>
        <time>2012-02-23T14:57:08Z</time>
      </trkpt>
      <trkpt lat="47.21477" lon="-0.89698">
        <ele>85</ele>
        <time>2012-02-23T14:57:09Z</time>
      </trkpt>
      <trkpt lat="47.21476" lon="-0.89697">
        <ele>85</ele>
        <time>2012-02-23T14:57:10Z</time>
      </trkpt>
      <trkpt lat="47.21476" lon="-0.89695">
        <ele>85</ele>
        <time>2012-02-23T14:57:11Z</time>
      </trkpt>
      <trkpt lat="47.21476" lon="-0.89692">
        <ele>85</ele>
        <time>2012-02-23T14:57:13Z</time>
      </trkpt>
      <trkpt lat="47.21475" lon="-0.89689">
        <ele>85</ele>
        <time>2012-02-23T14:57:15Z</time>
      </trkpt>
      <trkpt lat="47.21475" lon="-0.89688">
        <ele>85</ele>
        <time>2012-02-23T14:57:16Z</time>
      </trkpt>
      <trkpt lat="47.21475" lon="-0.89686">
        <ele>85</ele>
        <time>2012-02-23T14:57:17Z</time>
      </trkpt>
      <trkpt lat="47.21474" lon="-0.89684">
        <ele>85</ele>
        <time>2012-02-23T14:57:18Z</time>
      </trkpt>
      <trkpt lat="47.21474" lon="-0.89681">
        <ele>85</ele>
        <time>2012-02-23T14:57:20Z</time>
      </trkpt>
      <trkpt lat="47.21473" lon="-0.89679">
        <ele>85</ele>
        <time>2012-02-23T14:57:21Z</time>
      </trkpt>
      <trkpt lat="47.21473" lon="-0.89678">
        <ele>85</ele>
        <time>2012-02-23T14:57:22Z</time>
      </trkpt>
      <trkpt lat="47.21473" lon="-0.89676">
        <ele>85</ele>
        <time>2012-02-23T14:57:23Z</time>
      </trkpt>
      <trkpt lat="47.21472" lon="-0.89675">
        <ele>85</ele>
        <time>2012-02-23T14:57:24Z</time>
      </trkpt>
      <trkpt lat="47.21472" lon="-0.89672">
        <ele>85</ele>
        <time>2012-02-23T14:57:26Z</time>
      </trkpt>
      <trkpt lat="47.21471" lon="-0.8967">
        <ele>85</ele>
        <time>2012-02-23T14:57:29Z</time>
      </trkpt>
      <trkpt lat="47.21471" lon="-0.89668">
        <ele>85</ele>
        <time>2012-02-23T14:57:33Z</time>
      </trkpt>
      <trkpt lat="47.2147" lon="-0.89666">
        <ele>85</ele>
        <time>2012-02-23T14:57:35Z</time>
      </trkpt>
      <trkpt lat="47.21469" lon="-0.89663">
        <ele>85</ele>
        <time>2012-02-23T14:57:37Z</time>
      </trkpt>
      <trkpt lat="47.21468" lon="-0.89662">
        <ele>85</ele>
        <time>2012-02-23T14:57:38Z</time>
      </trkpt>
      <trkpt lat="47.21468" lon="-0.8966">
        <ele>85</ele>
        <time>2012-02-23T14:57:39Z</time>
      </trkpt>
      <trkpt lat="47.21468" lon="-0.89658">
        <ele>85</ele>
        <time>2012-02-23T14:57:40Z</time>
      </trkpt>
      <trkpt lat="47.21468" lon="-0.89657">
        <ele>84</ele>
        <time>2012-02-23T14:57:41Z</time>
      </trkpt>
      <trkpt lat="47.21467" lon="-0.89654">
        <ele>84</ele>
        <time>2012-02-23T14:57:43Z</time>
      </trkpt>
      <trkpt lat="47.21467" lon="-0.89653">
        <ele>84</ele>
        <time>2012-02-23T14:57:44Z</time>
      </trkpt>
      <trkpt lat="47.21466" lon="-0.89651">
        <ele>84</ele>
        <time>2012-02-23T14:57:45Z</time>
      </trkpt>
      <trkpt lat="47.21466" lon="-0.89649">
        <ele>84</ele>
        <time>2012-02-23T14:57:46Z</time>
      </trkpt>
      <trkpt lat="47.21466" lon="-0.89648">
        <ele>84</ele>
        <time>2012-02-23T14:57:47Z</time>
      </trkpt>
      <trkpt lat="47.21465" lon="-0.89646">
        <ele>84</ele>
        <time>2012-02-23T14:57:48Z</time>
      </trkpt>
      <trkpt lat="47.21465" lon="-0.89645">
        <ele>84</ele>
        <time>2012-02-23T14:57:49Z</time>
      </trkpt>
      <trkpt lat="47.21465" lon="-0.89643">
        <ele>84</ele>
        <time>2012-02-23T14:57:50Z</time>
      </trkpt>
      <trkpt lat="47.21465" lon="-0.89641">
        <ele>84</ele>
        <time>2012-02-23T14:57:52Z</time>
      </trkpt>
      <trkpt lat="47.21464" lon="-0.89638">
        <ele>84</ele>
        <time>2012-02-23T14:57:54Z</time>
      </trkpt>
      <trkpt lat="47.21465" lon="-0.89636">
        <ele>84</ele>
        <time>2012-02-23T14:57:56Z</time>
      </trkpt>
      <trkpt lat="47.21465" lon="-0.89634">
        <ele>84</ele>
        <time>2012-02-23T14:57:57Z</time>
      </trkpt>
      <trkpt lat="47.21465" lon="-0.89632">
        <ele>84</ele>
        <time>2012-02-23T14:57:59Z</time>
      </trkpt>
      <trkpt lat="47.21465" lon="-0.89631">
        <ele>84</ele>
        <time>2012-02-23T14:58:03Z</time>
      </trkpt>
      <trkpt lat="47.21465" lon="-0.89629">
        <ele>84</ele>
        <time>2012-02-23T14:58:09Z</time>
      </trkpt>
      <trkpt lat="47.21465" lon="-0.89627">
        <ele>84</ele>
        <time>2012-02-23T14:58:11Z</time>
      </trkpt>
      <trkpt lat="47.21465" lon="-0.89625">
        <ele>84</ele>
        <time>2012-02-23T14:58:13Z</time>
      </trkpt>
      <trkpt lat="47.21465" lon="-0.89623">
        <ele>84</ele>
        <time>2012-02-23T14:58:14Z</time>
      </trkpt>
      <trkpt lat="47.21465" lon="-0.8962">
        <ele>84</ele>
        <time>2012-02-23T14:58:16Z</time>
      </trkpt>
      <trkpt lat="47.21465" lon="-0.89617">
        <ele>84</ele>
        <time>2012-02-23T14:58:18Z</time>
      </trkpt>
      <trkpt lat="47.21465" lon="-0.89616">
        <ele>84</ele>
        <time>2012-02-23T14:58:19Z</time>
      </trkpt>
      <trkpt lat="47.21465" lon="-0.89614">
        <ele>84</ele>
        <time>2012-02-23T14:58:20Z</time>
      </trkpt>
      <trkpt lat="47.21465" lon="-0.89613">
        <ele>84</ele>
        <time>2012-02-23T14:58:21Z</time>
      </trkpt>
      <trkpt lat="47.21464" lon="-0.89611">
        <ele>84</ele>
        <time>2012-02-23T14:58:22Z</time>
      </trkpt>
      <trkpt lat="47.21464" lon="-0.89609">
        <ele>84</ele>
        <time>2012-02-23T14:58:23Z</time>
      </trkpt>
      <trkpt lat="47.21464" lon="-0.89608">
        <ele>84</ele>
        <time>2012-02-23T14:58:24Z</time>
      </trkpt>
      <trkpt lat="47.21464" lon="-0.89606">
        <ele>84</ele>
        <time>2012-02-23T14:58:26Z</time>
      </trkpt>
      <trkpt lat="47.21464" lon="-0.89604">
        <ele>84</ele>
        <time>2012-02-23T14:58:27Z</time>
      </trkpt>
      <trkpt lat="47.21463" lon="-0.89602">
        <ele>84</ele>
        <time>2012-02-23T14:58:29Z</time>
      </trkpt>
      <trkpt lat="47.21462" lon="-0.89599">
        <ele>84</ele>
        <time>2012-02-23T14:58:31Z</time>
      </trkpt>
      <trkpt lat="47.21462" lon="-0.89597">
        <ele>84</ele>
        <time>2012-02-23T14:58:33Z</time>
      </trkpt>
      <trkpt lat="47.21462" lon="-0.89596">
        <ele>84</ele>
        <time>2012-02-23T14:58:34Z</time>
      </trkpt>
      <trkpt lat="47.21462" lon="-0.89594">
        <ele>84</ele>
        <time>2012-02-23T14:58:35Z</time>
      </trkpt>
      <trkpt lat="47.21461" lon="-0.89591">
        <ele>84</ele>
        <time>2012-02-23T14:58:37Z</time>
      </trkpt>
      <trkpt lat="47.2146" lon="-0.8959">
        <ele>84</ele>
        <time>2012-02-23T14:58:38Z</time>
      </trkpt>
      <trkpt lat="47.2146" lon="-0.89588">
        <ele>84</ele>
        <time>2012-02-23T14:58:39Z</time>
      </trkpt>
      <trkpt lat="47.2146" lon="-0.89587">
        <ele>84</ele>
        <time>2012-02-23T14:58:40Z</time>
      </trkpt>
      <trkpt lat="47.21459" lon="-0.89585">
        <ele>84</ele>
        <time>2012-02-23T14:58:42Z</time>
      </trkpt>
      <trkpt lat="47.21459" lon="-0.89583">
        <ele>84</ele>
        <time>2012-02-23T14:58:43Z</time>
      </trkpt>
      <trkpt lat="47.21459" lon="-0.89581">
        <ele>84</ele>
        <time>2012-02-23T14:58:45Z</time>
      </trkpt>
      <trkpt lat="47.21458" lon="-0.89578">
        <ele>84</ele>
        <time>2012-02-23T14:58:47Z</time>
      </trkpt>
      <trkpt lat="47.21458" lon="-0.89576">
        <ele>84</ele>
        <time>2012-02-23T14:58:48Z</time>
      </trkpt>
      <trkpt lat="47.21448" lon="-0.89575">
        <ele>87</ele>
        <time>2012-02-23T14:58:51Z</time>
      </trkpt>
      <trkpt lat="47.21446" lon="-0.89576">
        <ele>87</ele>
        <time>2012-02-23T14:58:53Z</time>
      </trkpt>
      <trkpt lat="47.21445" lon="-0.89576">
        <ele>87</ele>
        <time>2012-02-23T14:58:54Z</time>
      </trkpt>
      <trkpt lat="47.21444" lon="-0.89577">
        <ele>87</ele>
        <time>2012-02-23T14:58:55Z</time>
      </trkpt>
      <trkpt lat="47.21443" lon="-0.89576">
        <ele>87</ele>
        <time>2012-02-23T14:58:56Z</time>
      </trkpt>
      <trkpt lat="47.21441" lon="-0.89575">
        <ele>87</ele>
        <time>2012-02-23T14:58:58Z</time>
      </trkpt>
      <trkpt lat="47.2144" lon="-0.89574">
        <ele>87</ele>
        <time>2012-02-23T14:58:59Z</time>
      </trkpt>
      <trkpt lat="47.21439" lon="-0.89573">
        <ele>87</ele>
        <time>2012-02-23T14:59:00Z</time>
      </trkpt>
      <trkpt lat="47.21437" lon="-0.89573">
        <ele>87</ele>
        <time>2012-02-23T14:59:01Z</time>
      </trkpt>
      <trkpt lat="47.21436" lon="-0.89571">
        <ele>87</ele>
        <time>2012-02-23T14:59:03Z</time>
      </trkpt>
      <trkpt lat="47.21434" lon="-0.89568">
        <ele>87</ele>
        <time>2012-02-23T14:59:05Z</time>
      </trkpt>
      <trkpt lat="47.21432" lon="-0.89566">
        <ele>87</ele>
        <time>2012-02-23T14:59:07Z</time>
      </trkpt>
      <trkpt lat="47.21431" lon="-0.89563">
        <ele>86</ele>
        <time>2012-02-23T14:59:09Z</time>
      </trkpt>
      <trkpt lat="47.2143" lon="-0.89561">
        <ele>86</ele>
        <time>2012-02-23T14:59:11Z</time>
      </trkpt>
      <trkpt lat="47.21429" lon="-0.8956">
        <ele>86</ele>
        <time>2012-02-23T14:59:13Z</time>
      </trkpt>
      <trkpt lat="47.21427" lon="-0.89558">
        <ele>86</ele>
        <time>2012-02-23T14:59:15Z</time>
      </trkpt>
      <trkpt lat="47.21427" lon="-0.89556">
        <ele>86</ele>
        <time>2012-02-23T14:59:16Z</time>
      </trkpt>
      <trkpt lat="47.21426" lon="-0.89555">
        <ele>86</ele>
        <time>2012-02-23T14:59:17Z</time>
      </trkpt>
      <trkpt lat="47.21425" lon="-0.89553">
        <ele>86</ele>
        <time>2012-02-23T14:59:19Z</time>
      </trkpt>
      <trkpt lat="47.21423" lon="-0.89552">
        <ele>85</ele>
        <time>2012-02-23T14:59:21Z</time>
      </trkpt>
      <trkpt lat="47.21422" lon="-0.8955">
        <ele>85</ele>
        <time>2012-02-23T14:59:23Z</time>
      </trkpt>
      <trkpt lat="47.21421" lon="-0.89549">
        <ele>85</ele>
        <time>2012-02-23T14:59:24Z</time>
      </trkpt>
      <trkpt lat="47.21419" lon="-0.89548">
        <ele>85</ele>
        <time>2012-02-23T14:59:26Z</time>
      </trkpt>
      <trkpt lat="47.21417" lon="-0.89546">
        <ele>85</ele>
        <time>2012-02-23T14:59:28Z</time>
      </trkpt>
      <trkpt lat="47.21416" lon="-0.89544">
        <ele>85</ele>
        <time>2012-02-23T14:59:29Z</time>
      </trkpt>
      <trkpt lat="47.21415" lon="-0.89543">
        <ele>85</ele>
        <time>2012-02-23T14:59:30Z</time>
      </trkpt>
      <trkpt lat="47.21414" lon="-0.89541">
        <ele>85</ele>
        <time>2012-02-23T14:59:31Z</time>
      </trkpt>
      <trkpt lat="47.21412" lon="-0.89539">
        <ele>85</ele>
        <time>2012-02-23T14:59:33Z</time>
      </trkpt>
      <trkpt lat="47.2141" lon="-0.89536">
        <ele>85</ele>
        <time>2012-02-23T14:59:35Z</time>
      </trkpt>
      <trkpt lat="47.21409" lon="-0.89535">
        <ele>85</ele>
        <time>2012-02-23T14:59:36Z</time>
      </trkpt>
      <trkpt lat="47.21408" lon="-0.89533">
        <ele>85</ele>
        <time>2012-02-23T14:59:37Z</time>
      </trkpt>
      <trkpt lat="47.21407" lon="-0.89532">
        <ele>85</ele>
        <time>2012-02-23T14:59:38Z</time>
      </trkpt>
      <trkpt lat="47.21406" lon="-0.89529">
        <ele>85</ele>
        <time>2012-02-23T14:59:40Z</time>
      </trkpt>
      <trkpt lat="47.21405" lon="-0.89527">
        <ele>85</ele>
        <time>2012-02-23T14:59:41Z</time>
      </trkpt>
      <trkpt lat="47.21404" lon="-0.89526">
        <ele>85</ele>
        <time>2012-02-23T14:59:42Z</time>
      </trkpt>
      <trkpt lat="47.21402" lon="-0.89524">
        <ele>85</ele>
        <time>2012-02-23T14:59:43Z</time>
      </trkpt>
      <trkpt lat="47.21401" lon="-0.89523">
        <ele>85</ele>
        <time>2012-02-23T14:59:44Z</time>
      </trkpt>
      <trkpt lat="47.21399" lon="-0.89521">
        <ele>84</ele>
        <time>2012-02-23T14:59:46Z</time>
      </trkpt>
      <trkpt lat="47.21397" lon="-0.89518">
        <ele>84</ele>
        <time>2012-02-23T14:59:48Z</time>
      </trkpt>
      <trkpt lat="47.21395" lon="-0.89516">
        <ele>84</ele>
        <time>2012-02-23T14:59:50Z</time>
      </trkpt>
      <trkpt lat="47.21393" lon="-0.89513">
        <ele>84</ele>
        <time>2012-02-23T14:59:52Z</time>
      </trkpt>
      <trkpt lat="47.21392" lon="-0.89511">
        <ele>84</ele>
        <time>2012-02-23T14:59:54Z</time>
      </trkpt>
      <trkpt lat="47.2139" lon="-0.89509">
        <ele>84</ele>
        <time>2012-02-23T14:59:56Z</time>
      </trkpt>
      <trkpt lat="47.21387" lon="-0.89507">
        <ele>84</ele>
        <time>2012-02-23T14:59:58Z</time>
      </trkpt>
      <trkpt lat="47.21386" lon="-0.89506">
        <ele>84</ele>
        <time>2012-02-23T14:59:59Z</time>
      </trkpt>
      <trkpt lat="47.21384" lon="-0.89504">
        <ele>84</ele>
        <time>2012-02-23T15:00:01Z</time>
      </trkpt>
      <trkpt lat="47.21383" lon="-0.89502">
        <ele>84</ele>
        <time>2012-02-23T15:00:02Z</time>
      </trkpt>
      <trkpt lat="47.21382" lon="-0.89502">
        <ele>83</ele>
        <time>2012-02-23T15:00:03Z</time>
      </trkpt>
      <trkpt lat="47.2138" lon="-0.89499">
        <ele>83</ele>
        <time>2012-02-23T15:00:05Z</time>
      </trkpt>
      <trkpt lat="47.21378" lon="-0.89498">
        <ele>83</ele>
        <time>2012-02-23T15:00:07Z</time>
      </trkpt>
      <trkpt lat="47.21376" lon="-0.89495">
        <ele>83</ele>
        <time>2012-02-23T15:00:09Z</time>
      </trkpt>
      <trkpt lat="47.21374" lon="-0.89492">
        <ele>83</ele>
        <time>2012-02-23T15:00:11Z</time>
      </trkpt>
      <trkpt lat="47.21373" lon="-0.8949">
        <ele>83</ele>
        <time>2012-02-23T15:00:12Z</time>
      </trkpt>
      <trkpt lat="47.21373" lon="-0.89489">
        <ele>83</ele>
        <time>2012-02-23T15:00:13Z</time>
      </trkpt>
      <trkpt lat="47.21372" lon="-0.89487">
        <ele>83</ele>
        <time>2012-02-23T15:00:14Z</time>
      </trkpt>
      <trkpt lat="47.21371" lon="-0.89486">
        <ele>83</ele>
        <time>2012-02-23T15:00:15Z</time>
      </trkpt>
      <trkpt lat="47.2137" lon="-0.89483">
        <ele>83</ele>
        <time>2012-02-23T15:00:16Z</time>
      </trkpt>
      <trkpt lat="47.2137" lon="-0.89482">
        <ele>83</ele>
        <time>2012-02-23T15:00:17Z</time>
      </trkpt>
      <trkpt lat="47.21369" lon="-0.89479">
        <ele>83</ele>
        <time>2012-02-23T15:00:19Z</time>
      </trkpt>
      <trkpt lat="47.21369" lon="-0.89476">
        <ele>83</ele>
        <time>2012-02-23T15:00:21Z</time>
      </trkpt>
      <trkpt lat="47.21369" lon="-0.89474">
        <ele>83</ele>
        <time>2012-02-23T15:00:23Z</time>
      </trkpt>
      <trkpt lat="47.21367" lon="-0.89473">
        <ele>83</ele>
        <time>2012-02-23T15:00:26Z</time>
      </trkpt>
      <trkpt lat="47.21366" lon="-0.89471">
        <ele>83</ele>
        <time>2012-02-23T15:00:29Z</time>
      </trkpt>
      <trkpt lat="47.21365" lon="-0.89469">
        <ele>83</ele>
        <time>2012-02-23T15:00:32Z</time>
      </trkpt>
      <trkpt lat="47.21365" lon="-0.89467">
        <ele>83</ele>
        <time>2012-02-23T15:00:33Z</time>
      </trkpt>
      <trkpt lat="47.21365" lon="-0.89465">
        <ele>83</ele>
        <time>2012-02-23T15:00:34Z</time>
      </trkpt>
      <trkpt lat="47.21363" lon="-0.89463">
        <ele>83</ele>
        <time>2012-02-23T15:00:36Z</time>
      </trkpt>
      <trkpt lat="47.21362" lon="-0.8946">
        <ele>83</ele>
        <time>2012-02-23T15:00:38Z</time>
      </trkpt>
      <trkpt lat="47.21362" lon="-0.89459">
        <ele>83</ele>
        <time>2012-02-23T15:00:39Z</time>
      </trkpt>
      <trkpt lat="47.21361" lon="-0.89456">
        <ele>83</ele>
        <time>2012-02-23T15:00:41Z</time>
      </trkpt>
      <trkpt lat="47.2136" lon="-0.89455">
        <ele>83</ele>
        <time>2012-02-23T15:00:42Z</time>
      </trkpt>
      <trkpt lat="47.2136" lon="-0.89453">
        <ele>83</ele>
        <time>2012-02-23T15:00:43Z</time>
      </trkpt>
      <trkpt lat="47.21359" lon="-0.89451">
        <ele>83</ele>
        <time>2012-02-23T15:00:44Z</time>
      </trkpt>
      <trkpt lat="47.21359" lon="-0.89449">
        <ele>83</ele>
        <time>2012-02-23T15:00:45Z</time>
      </trkpt>
      <trkpt lat="47.21358" lon="-0.89447">
        <ele>83</ele>
        <time>2012-02-23T15:00:46Z</time>
      </trkpt>
      <trkpt lat="47.21358" lon="-0.89446">
        <ele>83</ele>
        <time>2012-02-23T15:00:47Z</time>
      </trkpt>
      <trkpt lat="47.21357" lon="-0.89444">
        <ele>83</ele>
        <time>2012-02-23T15:00:48Z</time>
      </trkpt>
      <trkpt lat="47.21357" lon="-0.89443">
        <ele>83</ele>
        <time>2012-02-23T15:00:49Z</time>
      </trkpt>
      <trkpt lat="47.21356" lon="-0.89441">
        <ele>83</ele>
        <time>2012-02-23T15:00:50Z</time>
      </trkpt>
      <trkpt lat="47.21355" lon="-0.89439">
        <ele>83</ele>
        <time>2012-02-23T15:00:51Z</time>
      </trkpt>
      <trkpt lat="47.21355" lon="-0.89438">
        <ele>83</ele>
        <time>2012-02-23T15:00:52Z</time>
      </trkpt>
      <trkpt lat="47.21355" lon="-0.89436">
        <ele>83</ele>
        <time>2012-02-23T15:00:53Z</time>
      </trkpt>
      <trkpt lat="47.21354" lon="-0.89435">
        <ele>83</ele>
        <time>2012-02-23T15:00:54Z</time>
      </trkpt>
      <trkpt lat="47.21353" lon="-0.89433">
        <ele>83</ele>
        <time>2012-02-23T15:00:55Z</time>
      </trkpt>
      <trkpt lat="47.21352" lon="-0.8943">
        <ele>83</ele>
        <time>2012-02-23T15:00:57Z</time>
      </trkpt>
      <trkpt lat="47.21351" lon="-0.89428">
        <ele>83</ele>
        <time>2012-02-23T15:00:59Z</time>
      </trkpt>
      <trkpt lat="47.21351" lon="-0.89426">
        <ele>83</ele>
        <time>2012-02-23T15:01:00Z</time>
      </trkpt>
      <trkpt lat="47.2135" lon="-0.89425">
        <ele>83</ele>
        <time>2012-02-23T15:01:01Z</time>
      </trkpt>
      <trkpt lat="47.21349" lon="-0.89421">
        <ele>83</ele>
        <time>2012-02-23T15:01:03Z</time>
      </trkpt>
      <trkpt lat="47.21349" lon="-0.8942">
        <ele>83</ele>
        <time>2012-02-23T15:01:04Z</time>
      </trkpt>
      <trkpt lat="47.21349" lon="-0.89417">
        <ele>83</ele>
        <time>2012-02-23T15:01:06Z</time>
      </trkpt>
      <trkpt lat="47.21348" lon="-0.89416">
        <ele>83</ele>
        <time>2012-02-23T15:01:07Z</time>
      </trkpt>
      <trkpt lat="47.21347" lon="-0.89413">
        <ele>83</ele>
        <time>2012-02-23T15:01:09Z</time>
      </trkpt>
      <trkpt lat="47.21347" lon="-0.89412">
        <ele>83</ele>
        <time>2012-02-23T15:01:10Z</time>
      </trkpt>
      <trkpt lat="47.21347" lon="-0.8941">
        <ele>83</ele>
        <time>2012-02-23T15:01:11Z</time>
      </trkpt>
      <trkpt lat="47.21346" lon="-0.89408">
        <ele>83</ele>
        <time>2012-02-23T15:01:12Z</time>
      </trkpt>
      <trkpt lat="47.21346" lon="-0.89407">
        <ele>83</ele>
        <time>2012-02-23T15:01:13Z</time>
      </trkpt>
      <trkpt lat="47.21346" lon="-0.89405">
        <ele>83</ele>
        <time>2012-02-23T15:01:14Z</time>
      </trkpt>
      <trkpt lat="47.21345" lon="-0.89403">
        <ele>83</ele>
        <time>2012-02-23T15:01:15Z</time>
      </trkpt>
      <trkpt lat="47.21345" lon="-0.89402">
        <ele>83</ele>
        <time>2012-02-23T15:01:16Z</time>
      </trkpt>
      <trkpt lat="47.21344" lon="-0.894">
        <ele>83</ele>
        <time>2012-02-23T15:01:17Z</time>
      </trkpt>
      <trkpt lat="47.21344" lon="-0.89398">
        <ele>83</ele>
        <time>2012-02-23T15:01:19Z</time>
      </trkpt>
      <trkpt lat="47.21343" lon="-0.89394">
        <ele>83</ele>
        <time>2012-02-23T15:01:21Z</time>
      </trkpt>
      <trkpt lat="47.21342" lon="-0.89393">
        <ele>83</ele>
        <time>2012-02-23T15:01:22Z</time>
      </trkpt>
      <trkpt lat="47.21341" lon="-0.89391">
        <ele>83</ele>
        <time>2012-02-23T15:01:23Z</time>
      </trkpt>
      <trkpt lat="47.21341" lon="-0.89389">
        <ele>83</ele>
        <time>2012-02-23T15:01:25Z</time>
      </trkpt>
      <trkpt lat="47.2134" lon="-0.89386">
        <ele>83</ele>
        <time>2012-02-23T15:01:27Z</time>
      </trkpt>
      <trkpt lat="47.21339" lon="-0.89383">
        <ele>83</ele>
        <time>2012-02-23T15:01:29Z</time>
      </trkpt>
      <trkpt lat="47.21338" lon="-0.89381">
        <ele>83</ele>
        <time>2012-02-23T15:01:30Z</time>
      </trkpt>
      <trkpt lat="47.21338" lon="-0.8938">
        <ele>83</ele>
        <time>2012-02-23T15:01:31Z</time>
      </trkpt>
      <trkpt lat="47.21337" lon="-0.89378">
        <ele>83</ele>
        <time>2012-02-23T15:01:32Z</time>
      </trkpt>
      <trkpt lat="47.21336" lon="-0.89376">
        <ele>83</ele>
        <time>2012-02-23T15:01:33Z</time>
      </trkpt>
      <trkpt lat="47.21336" lon="-0.89375">
        <ele>83</ele>
        <time>2012-02-23T15:01:34Z</time>
      </trkpt>
      <trkpt lat="47.21336" lon="-0.89373">
        <ele>83</ele>
        <time>2012-02-23T15:01:35Z</time>
      </trkpt>
      <trkpt lat="47.21335" lon="-0.89372">
        <ele>83</ele>
        <time>2012-02-23T15:01:36Z</time>
      </trkpt>
      <trkpt lat="47.21334" lon="-0.8937">
        <ele>83</ele>
        <time>2012-02-23T15:01:37Z</time>
      </trkpt>
      <trkpt lat="47.21334" lon="-0.89369">
        <ele>83</ele>
        <time>2012-02-23T15:01:38Z</time>
      </trkpt>
      <trkpt lat="47.21333" lon="-0.89367">
        <ele>83</ele>
        <time>2012-02-23T15:01:39Z</time>
      </trkpt>
      <trkpt lat="47.21333" lon="-0.89366">
        <ele>83</ele>
        <time>2012-02-23T15:01:40Z</time>
      </trkpt>
      <trkpt lat="47.21332" lon="-0.89363">
        <ele>83</ele>
        <time>2012-02-23T15:01:42Z</time>
      </trkpt>
      <trkpt lat="47.21332" lon="-0.89362">
        <ele>83</ele>
        <time>2012-02-23T15:01:43Z</time>
      </trkpt>
      <trkpt lat="47.21331" lon="-0.8936">
        <ele>83</ele>
        <time>2012-02-23T15:01:44Z</time>
      </trkpt>
      <trkpt lat="47.21331" lon="-0.89359">
        <ele>83</ele>
        <time>2012-02-23T15:01:45Z</time>
      </trkpt>
      <trkpt lat="47.2133" lon="-0.89356">
        <ele>83</ele>
        <time>2012-02-23T15:01:47Z</time>
      </trkpt>
      <trkpt lat="47.2133" lon="-0.89354">
        <ele>83</ele>
        <time>2012-02-23T15:01:48Z</time>
      </trkpt>
      <trkpt lat="47.21329" lon="-0.89353">
        <ele>83</ele>
        <time>2012-02-23T15:01:49Z</time>
      </trkpt>
      <trkpt lat="47.21328" lon="-0.8935">
        <ele>83</ele>
        <time>2012-02-23T15:01:51Z</time>
      </trkpt>
      <trkpt lat="47.21328" lon="-0.89349">
        <ele>83</ele>
        <time>2012-02-23T15:01:52Z</time>
      </trkpt>
      <trkpt lat="47.21328" lon="-0.89347">
        <ele>83</ele>
        <time>2012-02-23T15:01:53Z</time>
      </trkpt>
      <trkpt lat="47.21327" lon="-0.89345">
        <ele>83</ele>
        <time>2012-02-23T15:01:54Z</time>
      </trkpt>
      <trkpt lat="47.21326" lon="-0.89344">
        <ele>83</ele>
        <time>2012-02-23T15:01:55Z</time>
      </trkpt>
      <trkpt lat="47.21326" lon="-0.89342">
        <ele>83</ele>
        <time>2012-02-23T15:01:56Z</time>
      </trkpt>
      <trkpt lat="47.21325" lon="-0.8934">
        <ele>82</ele>
        <time>2012-02-23T15:01:58Z</time>
      </trkpt>
      <trkpt lat="47.21325" lon="-0.89336">
        <ele>82</ele>
        <time>2012-02-23T15:02:00Z</time>
      </trkpt>
      <trkpt lat="47.21324" lon="-0.89335">
        <ele>82</ele>
        <time>2012-02-23T15:02:01Z</time>
      </trkpt>
      <trkpt lat="47.21323" lon="-0.89332">
        <ele>82</ele>
        <time>2012-02-23T15:02:03Z</time>
      </trkpt>
      <trkpt lat="47.21323" lon="-0.89329">
        <ele>82</ele>
        <time>2012-02-23T15:02:05Z</time>
      </trkpt>
      <trkpt lat="47.21322" lon="-0.89327">
        <ele>82</ele>
        <time>2012-02-23T15:02:06Z</time>
      </trkpt>
      <trkpt lat="47.21322" lon="-0.89324">
        <ele>82</ele>
        <time>2012-02-23T15:02:08Z</time>
      </trkpt>
      <trkpt lat="47.21321" lon="-0.89322">
        <ele>81</ele>
        <time>2012-02-23T15:02:10Z</time>
      </trkpt>
      <trkpt lat="47.2132" lon="-0.8932">
        <ele>80</ele>
        <time>2012-02-23T15:02:12Z</time>
      </trkpt>
      <trkpt lat="47.2132" lon="-0.89318">
        <ele>80</ele>
        <time>2012-02-23T15:02:14Z</time>
      </trkpt>
      <trkpt lat="47.21319" lon="-0.89316">
        <ele>80</ele>
        <time>2012-02-23T15:02:15Z</time>
      </trkpt>
      <trkpt lat="47.21318" lon="-0.89313">
        <ele>80</ele>
        <time>2012-02-23T15:02:17Z</time>
      </trkpt>
      <trkpt lat="47.21318" lon="-0.89312">
        <ele>80</ele>
        <time>2012-02-23T15:02:18Z</time>
      </trkpt>
      <trkpt lat="47.21318" lon="-0.8931">
        <ele>80</ele>
        <time>2012-02-23T15:02:19Z</time>
      </trkpt>
      <trkpt lat="47.21318" lon="-0.89308">
        <ele>80</ele>
        <time>2012-02-23T15:02:20Z</time>
      </trkpt>
      <trkpt lat="47.21317" lon="-0.89306">
        <ele>80</ele>
        <time>2012-02-23T15:02:21Z</time>
      </trkpt>
      <trkpt lat="47.21317" lon="-0.89305">
        <ele>79</ele>
        <time>2012-02-23T15:02:22Z</time>
      </trkpt>
      <trkpt lat="47.21317" lon="-0.89303">
        <ele>79</ele>
        <time>2012-02-23T15:02:23Z</time>
      </trkpt>
      <trkpt lat="47.21317" lon="-0.89302">
        <ele>79</ele>
        <time>2012-02-23T15:02:24Z</time>
      </trkpt>
      <trkpt lat="47.21316" lon="-0.893">
        <ele>79</ele>
        <time>2012-02-23T15:02:25Z</time>
      </trkpt>
      <trkpt lat="47.21316" lon="-0.89298">
        <ele>79</ele>
        <time>2012-02-23T15:02:26Z</time>
      </trkpt>
      <trkpt lat="47.21316" lon="-0.89297">
        <ele>79</ele>
        <time>2012-02-23T15:02:27Z</time>
      </trkpt>
      <trkpt lat="47.21316" lon="-0.89295">
        <ele>79</ele>
        <time>2012-02-23T15:02:28Z</time>
      </trkpt>
      <trkpt lat="47.21315" lon="-0.89293">
        <ele>79</ele>
        <time>2012-02-23T15:02:29Z</time>
      </trkpt>
      <trkpt lat="47.21315" lon="-0.89292">
        <ele>79</ele>
        <time>2012-02-23T15:02:30Z</time>
      </trkpt>
      <trkpt lat="47.21315" lon="-0.8929">
        <ele>79</ele>
        <time>2012-02-23T15:02:31Z</time>
      </trkpt>
      <trkpt lat="47.21315" lon="-0.89288">
        <ele>79</ele>
        <time>2012-02-23T15:02:32Z</time>
      </trkpt>
      <trkpt lat="47.21315" lon="-0.89287">
        <ele>79</ele>
        <time>2012-02-23T15:02:33Z</time>
      </trkpt>
      <trkpt lat="47.21315" lon="-0.89284">
        <ele>79</ele>
        <time>2012-02-23T15:02:35Z</time>
      </trkpt>
      <trkpt lat="47.21314" lon="-0.89282">
        <ele>79</ele>
        <time>2012-02-23T15:02:36Z</time>
      </trkpt>
      <trkpt lat="47.21314" lon="-0.89281">
        <ele>79</ele>
        <time>2012-02-23T15:02:37Z</time>
      </trkpt>
      <trkpt lat="47.21314" lon="-0.89279">
        <ele>78</ele>
        <time>2012-02-23T15:02:38Z</time>
      </trkpt>
      <trkpt lat="47.21314" lon="-0.89277">
        <ele>78</ele>
        <time>2012-02-23T15:02:39Z</time>
      </trkpt>
      <trkpt lat="47.21314" lon="-0.89276">
        <ele>78</ele>
        <time>2012-02-23T15:02:40Z</time>
      </trkpt>
      <trkpt lat="47.21314" lon="-0.89273">
        <ele>77</ele>
        <time>2012-02-23T15:02:42Z</time>
      </trkpt>
      <trkpt lat="47.21313" lon="-0.89272">
        <ele>77</ele>
        <time>2012-02-23T15:02:43Z</time>
      </trkpt>
      <trkpt lat="47.21313" lon="-0.8927">
        <ele>77</ele>
        <time>2012-02-23T15:02:44Z</time>
      </trkpt>
      <trkpt lat="47.21313" lon="-0.89269">
        <ele>77</ele>
        <time>2012-02-23T15:02:45Z</time>
      </trkpt>
      <trkpt lat="47.21313" lon="-0.89266">
        <ele>76</ele>
        <time>2012-02-23T15:02:47Z</time>
      </trkpt>
      <trkpt lat="47.21313" lon="-0.89264">
        <ele>76</ele>
        <time>2012-02-23T15:02:48Z</time>
      </trkpt>
      <trkpt lat="47.21313" lon="-0.89262">
        <ele>76</ele>
        <time>2012-02-23T15:02:49Z</time>
      </trkpt>
      <trkpt lat="47.21314" lon="-0.89261">
        <ele>75</ele>
        <time>2012-02-23T15:02:50Z</time>
      </trkpt>
      <trkpt lat="47.21314" lon="-0.89259">
        <ele>75</ele>
        <time>2012-02-23T15:02:51Z</time>
      </trkpt>
      <trkpt lat="47.21314" lon="-0.89257">
        <ele>75</ele>
        <time>2012-02-23T15:02:53Z</time>
      </trkpt>
      <trkpt lat="47.21314" lon="-0.89255">
        <ele>74</ele>
        <time>2012-02-23T15:02:54Z</time>
      </trkpt>
      <trkpt lat="47.21314" lon="-0.89252">
        <ele>74</ele>
        <time>2012-02-23T15:02:56Z</time>
      </trkpt>
      <trkpt lat="47.21314" lon="-0.89249">
        <ele>74</ele>
        <time>2012-02-23T15:02:58Z</time>
      </trkpt>
      <trkpt lat="47.21313" lon="-0.89247">
        <ele>74</ele>
        <time>2012-02-23T15:02:59Z</time>
      </trkpt>
      <trkpt lat="47.21313" lon="-0.89245">
        <ele>74</ele>
        <time>2012-02-23T15:03:00Z</time>
      </trkpt>
      <trkpt lat="47.21313" lon="-0.89244">
        <ele>74</ele>
        <time>2012-02-23T15:03:01Z</time>
      </trkpt>
      <trkpt lat="47.21313" lon="-0.89241">
        <ele>73</ele>
        <time>2012-02-23T15:03:03Z</time>
      </trkpt>
      <trkpt lat="47.21313" lon="-0.89239">
        <ele>73</ele>
        <time>2012-02-23T15:03:05Z</time>
      </trkpt>
      <trkpt lat="47.21313" lon="-0.89236">
        <ele>73</ele>
        <time>2012-02-23T15:03:06Z</time>
      </trkpt>
      <trkpt lat="47.21313" lon="-0.89235">
        <ele>73</ele>
        <time>2012-02-23T15:03:07Z</time>
      </trkpt>
      <trkpt lat="47.21313" lon="-0.89232">
        <ele>73</ele>
        <time>2012-02-23T15:03:09Z</time>
      </trkpt>
      <trkpt lat="47.21315" lon="-0.8923">
        <ele>73</ele>
        <time>2012-02-23T15:03:11Z</time>
      </trkpt>
      <trkpt lat="47.21316" lon="-0.89227">
        <ele>73</ele>
        <time>2012-02-23T15:03:13Z</time>
      </trkpt>
      <trkpt lat="47.21318" lon="-0.89226">
        <ele>73</ele>
        <time>2012-02-23T15:03:15Z</time>
      </trkpt>
      <trkpt lat="47.21319" lon="-0.89225">
        <ele>73</ele>
        <time>2012-02-23T15:03:17Z</time>
      </trkpt>
      <trkpt lat="47.21321" lon="-0.89225">
        <ele>73</ele>
        <time>2012-02-23T15:03:19Z</time>
      </trkpt>
      <trkpt lat="47.21322" lon="-0.89225">
        <ele>73</ele>
        <time>2012-02-23T15:03:20Z</time>
      </trkpt>
      <trkpt lat="47.21324" lon="-0.89225">
        <ele>73</ele>
        <time>2012-02-23T15:03:22Z</time>
      </trkpt>
      <trkpt lat="47.21325" lon="-0.89225">
        <ele>73</ele>
        <time>2012-02-23T15:03:24Z</time>
      </trkpt>
      <trkpt lat="47.21327" lon="-0.89225">
        <ele>72</ele>
        <time>2012-02-23T15:03:26Z</time>
      </trkpt>
      <trkpt lat="47.21329" lon="-0.89224">
        <ele>72</ele>
        <time>2012-02-23T15:03:28Z</time>
      </trkpt>
      <trkpt lat="47.21331" lon="-0.89225">
        <ele>72</ele>
        <time>2012-02-23T15:03:30Z</time>
      </trkpt>
      <trkpt lat="47.21333" lon="-0.89226">
        <ele>72</ele>
        <time>2012-02-23T15:03:32Z</time>
      </trkpt>
      <trkpt lat="47.21334" lon="-0.89227">
        <ele>72</ele>
        <time>2012-02-23T15:03:34Z</time>
      </trkpt>
      <trkpt lat="47.21336" lon="-0.89228">
        <ele>72</ele>
        <time>2012-02-23T15:03:36Z</time>
      </trkpt>
      <trkpt lat="47.21338" lon="-0.89228">
        <ele>72</ele>
        <time>2012-02-23T15:03:37Z</time>
      </trkpt>
      <trkpt lat="47.2134" lon="-0.89229">
        <ele>72</ele>
        <time>2012-02-23T15:03:39Z</time>
      </trkpt>
      <trkpt lat="47.21341" lon="-0.89229">
        <ele>72</ele>
        <time>2012-02-23T15:03:40Z</time>
      </trkpt>
      <trkpt lat="47.21342" lon="-0.8923">
        <ele>72</ele>
        <time>2012-02-23T15:03:41Z</time>
      </trkpt>
      <trkpt lat="47.21344" lon="-0.89231">
        <ele>72</ele>
        <time>2012-02-23T15:03:43Z</time>
      </trkpt>
      <trkpt lat="47.21345" lon="-0.89231">
        <ele>72</ele>
        <time>2012-02-23T15:03:44Z</time>
      </trkpt>
      <trkpt lat="47.21347" lon="-0.89232">
        <ele>72</ele>
        <time>2012-02-23T15:03:46Z</time>
      </trkpt>
      <trkpt lat="47.21348" lon="-0.89233">
        <ele>72</ele>
        <time>2012-02-23T15:03:48Z</time>
      </trkpt>
      <trkpt lat="47.21349" lon="-0.89234">
        <ele>72</ele>
        <time>2012-02-23T15:03:54Z</time>
      </trkpt>
      <trkpt lat="47.2135" lon="-0.89236">
        <ele>72</ele>
        <time>2012-02-23T15:03:57Z</time>
      </trkpt>
      <trkpt lat="47.21352" lon="-0.89236">
        <ele>72</ele>
        <time>2012-02-23T15:03:59Z</time>
      </trkpt>
      <trkpt lat="47.21353" lon="-0.89236">
        <ele>72</ele>
        <time>2012-02-23T15:04:01Z</time>
      </trkpt>
      <trkpt lat="47.21355" lon="-0.89237">
        <ele>72</ele>
        <time>2012-02-23T15:04:03Z</time>
      </trkpt>
      <trkpt lat="47.21357" lon="-0.89236">
        <ele>72</ele>
        <time>2012-02-23T15:04:05Z</time>
      </trkpt>
      <trkpt lat="47.21358" lon="-0.89237">
        <ele>72</ele>
        <time>2012-02-23T15:04:07Z</time>
      </trkpt>
      <trkpt lat="47.2136" lon="-0.89237">
        <ele>72</ele>
        <time>2012-02-23T15:04:09Z</time>
      </trkpt>
      <trkpt lat="47.21362" lon="-0.89238">
        <ele>72</ele>
        <time>2012-02-23T15:04:11Z</time>
      </trkpt>
      <trkpt lat="47.21364" lon="-0.89238">
        <ele>72</ele>
        <time>2012-02-23T15:04:13Z</time>
      </trkpt>
      <trkpt lat="47.21366" lon="-0.89239">
        <ele>72</ele>
        <time>2012-02-23T15:04:15Z</time>
      </trkpt>
      <trkpt lat="47.21367" lon="-0.89239">
        <ele>72</ele>
        <time>2012-02-23T15:04:17Z</time>
      </trkpt>
      <trkpt lat="47.21369" lon="-0.89239">
        <ele>72</ele>
        <time>2012-02-23T15:04:19Z</time>
      </trkpt>
      <trkpt lat="47.21371" lon="-0.89239">
        <ele>72</ele>
        <time>2012-02-23T15:04:21Z</time>
      </trkpt>
      <trkpt lat="47.21373" lon="-0.89239">
        <ele>72</ele>
        <time>2012-02-23T15:04:23Z</time>
      </trkpt>
      <trkpt lat="47.21374" lon="-0.8924">
        <ele>72</ele>
        <time>2012-02-23T15:04:25Z</time>
      </trkpt>
      <trkpt lat="47.21376" lon="-0.89239">
        <ele>72</ele>
        <time>2012-02-23T15:04:26Z</time>
      </trkpt>
      <trkpt lat="47.21377" lon="-0.89239">
        <ele>72</ele>
        <time>2012-02-23T15:04:28Z</time>
      </trkpt>
      <trkpt lat="47.21379" lon="-0.89239">
        <ele>72</ele>
        <time>2012-02-23T15:04:30Z</time>
      </trkpt>
      <trkpt lat="47.21381" lon="-0.89239">
        <ele>73</ele>
        <time>2012-02-23T15:04:32Z</time>
      </trkpt>
      <trkpt lat="47.21383" lon="-0.89239">
        <ele>73</ele>
        <time>2012-02-23T15:04:34Z</time>
      </trkpt>
      <trkpt lat="47.21385" lon="-0.89239">
        <ele>73</ele>
        <time>2012-02-23T15:04:36Z</time>
      </trkpt>
      <trkpt lat="47.21387" lon="-0.89239">
        <ele>74</ele>
        <time>2012-02-23T15:04:38Z</time>
      </trkpt>
      <trkpt lat="47.21388" lon="-0.89239">
        <ele>74</ele>
        <time>2012-02-23T15:04:39Z</time>
      </trkpt>
      <trkpt lat="47.2139" lon="-0.89239">
        <ele>74</ele>
        <time>2012-02-23T15:04:41Z</time>
      </trkpt>
      <trkpt lat="47.21391" lon="-0.89239">
        <ele>74</ele>
        <time>2012-02-23T15:04:42Z</time>
      </trkpt>
      <trkpt lat="47.21393" lon="-0.89239">
        <ele>74</ele>
        <time>2012-02-23T15:04:44Z</time>
      </trkpt>
      <trkpt lat="47.21395" lon="-0.89239">
        <ele>75</ele>
        <time>2012-02-23T15:04:46Z</time>
      </trkpt>
      <trkpt lat="47.21397" lon="-0.89239">
        <ele>75</ele>
        <time>2012-02-23T15:04:48Z</time>
      </trkpt>
      <trkpt lat="47.21399" lon="-0.89239">
        <ele>75</ele>
        <time>2012-02-23T15:04:50Z</time>
      </trkpt>
      <trkpt lat="47.214" lon="-0.89239">
        <ele>75</ele>
        <time>2012-02-23T15:04:52Z</time>
      </trkpt>
      <trkpt lat="47.21403" lon="-0.89239">
        <ele>76</ele>
        <time>2012-02-23T15:04:54Z</time>
      </trkpt>
      <trkpt lat="47.21405" lon="-0.89239">
        <ele>76</ele>
        <time>2012-02-23T15:04:56Z</time>
      </trkpt>
      <trkpt lat="47.21406" lon="-0.89239">
        <ele>77</ele>
        <time>2012-02-23T15:04:58Z</time>
      </trkpt>
      <trkpt lat="47.21408" lon="-0.89239">
        <ele>77</ele>
        <time>2012-02-23T15:05:00Z</time>
      </trkpt>
      <trkpt lat="47.2141" lon="-0.89239">
        <ele>77</ele>
        <time>2012-02-23T15:05:02Z</time>
      </trkpt>
      <trkpt lat="47.21412" lon="-0.89238">
        <ele>77</ele>
        <time>2012-02-23T15:05:04Z</time>
      </trkpt>
      <trkpt lat="47.21414" lon="-0.89238">
        <ele>77</ele>
        <time>2012-02-23T15:05:06Z</time>
      </trkpt>
      <trkpt lat="47.21416" lon="-0.89237">
        <ele>77</ele>
        <time>2012-02-23T15:05:08Z</time>
      </trkpt>
      <trkpt lat="47.21418" lon="-0.89237">
        <ele>77</ele>
        <time>2012-02-23T15:05:10Z</time>
      </trkpt>
      <trkpt lat="47.2142" lon="-0.89237">
        <ele>77</ele>
        <time>2012-02-23T15:05:12Z</time>
      </trkpt>
      <trkpt lat="47.21421" lon="-0.89237">
        <ele>77</ele>
        <time>2012-02-23T15:05:13Z</time>
      </trkpt>
      <trkpt lat="47.21423" lon="-0.89236">
        <ele>77</ele>
        <time>2012-02-23T15:05:15Z</time>
      </trkpt>
      <trkpt lat="47.21425" lon="-0.89236">
        <ele>77</ele>
        <time>2012-02-23T15:05:17Z</time>
      </trkpt>
      <trkpt lat="47.21427" lon="-0.89236">
        <ele>77</ele>
        <time>2012-02-23T15:05:19Z</time>
      </trkpt>
      <trkpt lat="47.21429" lon="-0.89235">
        <ele>77</ele>
        <time>2012-02-23T15:05:21Z</time>
      </trkpt>
      <trkpt lat="47.2143" lon="-0.89235">
        <ele>77</ele>
        <time>2012-02-23T15:05:22Z</time>
      </trkpt>
      <trkpt lat="47.21432" lon="-0.89235">
        <ele>77</ele>
        <time>2012-02-23T15:05:24Z</time>
      </trkpt>
      <trkpt lat="47.21434" lon="-0.89235">
        <ele>77</ele>
        <time>2012-02-23T15:05:26Z</time>
      </trkpt>
      <trkpt lat="47.21436" lon="-0.89234">
        <ele>78</ele>
        <time>2012-02-23T15:05:28Z</time>
      </trkpt>
      <trkpt lat="47.21438" lon="-0.89233">
        <ele>78</ele>
        <time>2012-02-23T15:05:30Z</time>
      </trkpt>
      <trkpt lat="47.2144" lon="-0.89233">
        <ele>78</ele>
        <time>2012-02-23T15:05:32Z</time>
      </trkpt>
      <trkpt lat="47.21442" lon="-0.89232">
        <ele>78</ele>
        <time>2012-02-23T15:05:34Z</time>
      </trkpt>
      <trkpt lat="47.21444" lon="-0.89231">
        <ele>79</ele>
        <time>2012-02-23T15:05:36Z</time>
      </trkpt>
      <trkpt lat="47.21445" lon="-0.8923">
        <ele>79</ele>
        <time>2012-02-23T15:05:38Z</time>
      </trkpt>
      <trkpt lat="47.21447" lon="-0.89227">
        <ele>79</ele>
        <time>2012-02-23T15:05:40Z</time>
      </trkpt>
      <trkpt lat="47.21448" lon="-0.89224">
        <ele>79</ele>
        <time>2012-02-23T15:05:42Z</time>
      </trkpt>
      <trkpt lat="47.21448" lon="-0.89223">
        <ele>79</ele>
        <time>2012-02-23T15:05:43Z</time>
      </trkpt>
      <trkpt lat="47.21448" lon="-0.8922">
        <ele>79</ele>
        <time>2012-02-23T15:05:45Z</time>
      </trkpt>
      <trkpt lat="47.21449" lon="-0.89218">
        <ele>79</ele>
        <time>2012-02-23T15:05:46Z</time>
      </trkpt>
      <trkpt lat="47.21449" lon="-0.89217">
        <ele>79</ele>
        <time>2012-02-23T15:05:47Z</time>
      </trkpt>
      <trkpt lat="47.21449" lon="-0.89215">
        <ele>79</ele>
        <time>2012-02-23T15:05:48Z</time>
      </trkpt>
      <trkpt lat="47.21449" lon="-0.89213">
        <ele>79</ele>
        <time>2012-02-23T15:05:49Z</time>
      </trkpt>
      <trkpt lat="47.21449" lon="-0.89211">
        <ele>79</ele>
        <time>2012-02-23T15:05:50Z</time>
      </trkpt>
      <trkpt lat="47.21449" lon="-0.8921">
        <ele>79</ele>
        <time>2012-02-23T15:05:51Z</time>
      </trkpt>
      <trkpt lat="47.21449" lon="-0.89208">
        <ele>79</ele>
        <time>2012-02-23T15:05:52Z</time>
      </trkpt>
      <trkpt lat="47.21449" lon="-0.89206">
        <ele>79</ele>
        <time>2012-02-23T15:05:53Z</time>
      </trkpt>
      <trkpt lat="47.21448" lon="-0.89204">
        <ele>79</ele>
        <time>2012-02-23T15:05:54Z</time>
      </trkpt>
      <trkpt lat="47.21448" lon="-0.89203">
        <ele>79</ele>
        <time>2012-02-23T15:05:55Z</time>
      </trkpt>
      <trkpt lat="47.21448" lon="-0.89201">
        <ele>79</ele>
        <time>2012-02-23T15:05:56Z</time>
      </trkpt>
      <trkpt lat="47.21448" lon="-0.89199">
        <ele>79</ele>
        <time>2012-02-23T15:05:57Z</time>
      </trkpt>
      <trkpt lat="47.21448" lon="-0.89197">
        <ele>79</ele>
        <time>2012-02-23T15:05:58Z</time>
      </trkpt>
      <trkpt lat="47.21448" lon="-0.89195">
        <ele>79</ele>
        <time>2012-02-23T15:05:59Z</time>
      </trkpt>
      <trkpt lat="47.21448" lon="-0.89194">
        <ele>79</ele>
        <time>2012-02-23T15:06:00Z</time>
      </trkpt>
      <trkpt lat="47.21448" lon="-0.89192">
        <ele>79</ele>
        <time>2012-02-23T15:06:01Z</time>
      </trkpt>
      <trkpt lat="47.21448" lon="-0.89191">
        <ele>79</ele>
        <time>2012-02-23T15:06:02Z</time>
      </trkpt>
      <trkpt lat="47.21448" lon="-0.89189">
        <ele>79</ele>
        <time>2012-02-23T15:06:03Z</time>
      </trkpt>
      <trkpt lat="47.21447" lon="-0.89187">
        <ele>79</ele>
        <time>2012-02-23T15:06:04Z</time>
      </trkpt>
      <trkpt lat="47.21447" lon="-0.89185">
        <ele>79</ele>
        <time>2012-02-23T15:06:05Z</time>
      </trkpt>
      <trkpt lat="47.21447" lon="-0.89183">
        <ele>79</ele>
        <time>2012-02-23T15:06:06Z</time>
      </trkpt>
      <trkpt lat="47.21447" lon="-0.89182">
        <ele>79</ele>
        <time>2012-02-23T15:06:07Z</time>
      </trkpt>
      <trkpt lat="47.21447" lon="-0.8918">
        <ele>79</ele>
        <time>2012-02-23T15:06:08Z</time>
      </trkpt>
      <trkpt lat="47.21447" lon="-0.89179">
        <ele>79</ele>
        <time>2012-02-23T15:06:09Z</time>
      </trkpt>
      <trkpt lat="47.21448" lon="-0.89176">
        <ele>79</ele>
        <time>2012-02-23T15:06:11Z</time>
      </trkpt>
      <trkpt lat="47.21449" lon="-0.89174">
        <ele>79</ele>
        <time>2012-02-23T15:06:13Z</time>
      </trkpt>
      <trkpt lat="47.2145" lon="-0.89173">
        <ele>79</ele>
        <time>2012-02-23T15:06:15Z</time>
      </trkpt>
      <trkpt lat="47.21452" lon="-0.89172">
        <ele>79</ele>
        <time>2012-02-23T15:06:17Z</time>
      </trkpt>
      <trkpt lat="47.21455" lon="-0.89172">
        <ele>79</ele>
        <time>2012-02-23T15:06:19Z</time>
      </trkpt>
      <trkpt lat="47.21456" lon="-0.89172">
        <ele>79</ele>
        <time>2012-02-23T15:06:20Z</time>
      </trkpt>
      <trkpt lat="47.21457" lon="-0.89172">
        <ele>79</ele>
        <time>2012-02-23T15:06:21Z</time>
      </trkpt>
      <trkpt lat="47.21459" lon="-0.89172">
        <ele>79</ele>
        <time>2012-02-23T15:06:23Z</time>
      </trkpt>
      <trkpt lat="47.2146" lon="-0.89172">
        <ele>79</ele>
        <time>2012-02-23T15:06:24Z</time>
      </trkpt>
      <trkpt lat="47.21461" lon="-0.89172">
        <ele>79</ele>
        <time>2012-02-23T15:06:25Z</time>
      </trkpt>
      <trkpt lat="47.21463" lon="-0.89172">
        <ele>79</ele>
        <time>2012-02-23T15:06:27Z</time>
      </trkpt>
      <trkpt lat="47.21465" lon="-0.89172">
        <ele>79</ele>
        <time>2012-02-23T15:06:28Z</time>
      </trkpt>
      <trkpt lat="47.21466" lon="-0.89172">
        <ele>79</ele>
        <time>2012-02-23T15:06:29Z</time>
      </trkpt>
      <trkpt lat="47.21467" lon="-0.89173">
        <ele>79</ele>
        <time>2012-02-23T15:06:31Z</time>
      </trkpt>
      <trkpt lat="47.21469" lon="-0.89173">
        <ele>79</ele>
        <time>2012-02-23T15:06:33Z</time>
      </trkpt>
      <trkpt lat="47.2147" lon="-0.89173">
        <ele>79</ele>
        <time>2012-02-23T15:06:34Z</time>
      </trkpt>
      <trkpt lat="47.21471" lon="-0.89172">
        <ele>79</ele>
        <time>2012-02-23T15:06:35Z</time>
      </trkpt>
      <trkpt lat="47.21473" lon="-0.89172">
        <ele>79</ele>
        <time>2012-02-23T15:06:37Z</time>
      </trkpt>
      <trkpt lat="47.21474" lon="-0.89172">
        <ele>79</ele>
        <time>2012-02-23T15:06:38Z</time>
      </trkpt>
      <trkpt lat="47.21476" lon="-0.89172">
        <ele>79</ele>
        <time>2012-02-23T15:06:40Z</time>
      </trkpt>
      <trkpt lat="47.21478" lon="-0.89171">
        <ele>79</ele>
        <time>2012-02-23T15:06:42Z</time>
      </trkpt>
      <trkpt lat="47.21479" lon="-0.89171">
        <ele>79</ele>
        <time>2012-02-23T15:06:43Z</time>
      </trkpt>
      <trkpt lat="47.21481" lon="-0.8917">
        <ele>79</ele>
        <time>2012-02-23T15:06:45Z</time>
      </trkpt>
      <trkpt lat="47.21483" lon="-0.8917">
        <ele>79</ele>
        <time>2012-02-23T15:06:47Z</time>
      </trkpt>
      <trkpt lat="47.21485" lon="-0.89169">
        <ele>79</ele>
        <time>2012-02-23T15:06:49Z</time>
      </trkpt>
      <trkpt lat="47.21487" lon="-0.89168">
        <ele>79</ele>
        <time>2012-02-23T15:06:51Z</time>
      </trkpt>
      <trkpt lat="47.21489" lon="-0.89167">
        <ele>79</ele>
        <time>2012-02-23T15:06:53Z</time>
      </trkpt>
      <trkpt lat="47.21491" lon="-0.89166">
        <ele>79</ele>
        <time>2012-02-23T15:06:55Z</time>
      </trkpt>
      <trkpt lat="47.21492" lon="-0.89165">
        <ele>79</ele>
        <time>2012-02-23T15:06:56Z</time>
      </trkpt>
      <trkpt lat="47.21494" lon="-0.89164">
        <ele>79</ele>
        <time>2012-02-23T15:06:58Z</time>
      </trkpt>
      <trkpt lat="47.21496" lon="-0.89162">
        <ele>79</ele>
        <time>2012-02-23T15:07:00Z</time>
      </trkpt>
      <trkpt lat="47.21497" lon="-0.8916">
        <ele>79</ele>
        <time>2012-02-23T15:07:02Z</time>
      </trkpt>
      <trkpt lat="47.21499" lon="-0.89159">
        <ele>79</ele>
        <time>2012-02-23T15:07:04Z</time>
      </trkpt>
      <trkpt lat="47.215" lon="-0.89158">
        <ele>79</ele>
        <time>2012-02-23T15:07:05Z</time>
      </trkpt>
      <trkpt lat="47.21502" lon="-0.89156">
        <ele>79</ele>
        <time>2012-02-23T15:07:07Z</time>
      </trkpt>
      <trkpt lat="47.21504" lon="-0.89154">
        <ele>79</ele>
        <time>2012-02-23T15:07:09Z</time>
      </trkpt>
      <trkpt lat="47.21506" lon="-0.89152">
        <ele>79</ele>
        <time>2012-02-23T15:07:11Z</time>
      </trkpt>
      <trkpt lat="47.21508" lon="-0.8915">
        <ele>79</ele>
        <time>2012-02-23T15:07:13Z</time>
      </trkpt>
      <trkpt lat="47.21509" lon="-0.89147">
        <ele>79</ele>
        <time>2012-02-23T15:07:15Z</time>
      </trkpt>
      <trkpt lat="47.21511" lon="-0.89145">
        <ele>79</ele>
        <time>2012-02-23T15:07:17Z</time>
      </trkpt>
      <trkpt lat="47.21513" lon="-0.89143">
        <ele>79</ele>
        <time>2012-02-23T15:07:19Z</time>
      </trkpt>
      <trkpt lat="47.21513" lon="-0.89141">
        <ele>79</ele>
        <time>2012-02-23T15:07:20Z</time>
      </trkpt>
      <trkpt lat="47.21513" lon="-0.89139">
        <ele>79</ele>
        <time>2012-02-23T15:07:21Z</time>
      </trkpt>
      <trkpt lat="47.21515" lon="-0.89137">
        <ele>79</ele>
        <time>2012-02-23T15:07:23Z</time>
      </trkpt>
      <trkpt lat="47.21517" lon="-0.89135">
        <ele>79</ele>
        <time>2012-02-23T15:07:25Z</time>
      </trkpt>
      <trkpt lat="47.21519" lon="-0.89132">
        <ele>79</ele>
        <time>2012-02-23T15:07:27Z</time>
      </trkpt>
      <trkpt lat="47.21521" lon="-0.8913">
        <ele>79</ele>
        <time>2012-02-23T15:07:29Z</time>
      </trkpt>
      <trkpt lat="47.21522" lon="-0.89129">
        <ele>79</ele>
        <time>2012-02-23T15:07:30Z</time>
      </trkpt>
      <trkpt lat="47.21524" lon="-0.89127">
        <ele>79</ele>
        <time>2012-02-23T15:07:32Z</time>
      </trkpt>
      <trkpt lat="47.21526" lon="-0.89125">
        <ele>79</ele>
        <time>2012-02-23T15:07:34Z</time>
      </trkpt>
      <trkpt lat="47.21527" lon="-0.89122">
        <ele>79</ele>
        <time>2012-02-23T15:07:36Z</time>
      </trkpt>
      <trkpt lat="47.21529" lon="-0.8912">
        <ele>79</ele>
        <time>2012-02-23T15:07:38Z</time>
      </trkpt>
      <trkpt lat="47.2153" lon="-0.89118">
        <ele>79</ele>
        <time>2012-02-23T15:07:40Z</time>
      </trkpt>
      <trkpt lat="47.21532" lon="-0.89115">
        <ele>79</ele>
        <time>2012-02-23T15:07:42Z</time>
      </trkpt>
      <trkpt lat="47.21534" lon="-0.89113">
        <ele>79</ele>
        <time>2012-02-23T15:07:44Z</time>
      </trkpt>
      <trkpt lat="47.21535" lon="-0.8911">
        <ele>79</ele>
        <time>2012-02-23T15:07:46Z</time>
      </trkpt>
      <trkpt lat="47.21536" lon="-0.89108">
        <ele>79</ele>
        <time>2012-02-23T15:07:48Z</time>
      </trkpt>
      <trkpt lat="47.21538" lon="-0.89106">
        <ele>79</ele>
        <time>2012-02-23T15:07:50Z</time>
      </trkpt>
      <trkpt lat="47.2154" lon="-0.89105">
        <ele>79</ele>
        <time>2012-02-23T15:07:52Z</time>
      </trkpt>
      <trkpt lat="47.21541" lon="-0.89102">
        <ele>79</ele>
        <time>2012-02-23T15:07:54Z</time>
      </trkpt>
      <trkpt lat="47.21543" lon="-0.891">
        <ele>79</ele>
        <time>2012-02-23T15:07:56Z</time>
      </trkpt>
      <trkpt lat="47.21545" lon="-0.89098">
        <ele>79</ele>
        <time>2012-02-23T15:07:58Z</time>
      </trkpt>
      <trkpt lat="47.21547" lon="-0.89096">
        <ele>79</ele>
        <time>2012-02-23T15:08:00Z</time>
      </trkpt>
      <trkpt lat="47.21548" lon="-0.89094">
        <ele>79</ele>
        <time>2012-02-23T15:08:02Z</time>
      </trkpt>
      <trkpt lat="47.2155" lon="-0.89091">
        <ele>79</ele>
        <time>2012-02-23T15:08:04Z</time>
      </trkpt>
      <trkpt lat="47.21552" lon="-0.89089">
        <ele>79</ele>
        <time>2012-02-23T15:08:06Z</time>
      </trkpt>
      <trkpt lat="47.21554" lon="-0.89087">
        <ele>79</ele>
        <time>2012-02-23T15:08:08Z</time>
      </trkpt>
      <trkpt lat="47.21556" lon="-0.89085">
        <ele>79</ele>
        <time>2012-02-23T15:08:10Z</time>
      </trkpt>
      <trkpt lat="47.21557" lon="-0.89083">
        <ele>79</ele>
        <time>2012-02-23T15:08:12Z</time>
      </trkpt>
      <trkpt lat="47.21559" lon="-0.89081">
        <ele>79</ele>
        <time>2012-02-23T15:08:14Z</time>
      </trkpt>
      <trkpt lat="47.21561" lon="-0.89078">
        <ele>79</ele>
        <time>2012-02-23T15:08:16Z</time>
      </trkpt>
      <trkpt lat="47.21562" lon="-0.89077">
        <ele>79</ele>
        <time>2012-02-23T15:08:17Z</time>
      </trkpt>
      <trkpt lat="47.21564" lon="-0.89074">
        <ele>79</ele>
        <time>2012-02-23T15:08:19Z</time>
      </trkpt>
      <trkpt lat="47.21566" lon="-0.89072">
        <ele>79</ele>
        <time>2012-02-23T15:08:21Z</time>
      </trkpt>
      <trkpt lat="47.21568" lon="-0.8907">
        <ele>79</ele>
        <time>2012-02-23T15:08:23Z</time>
      </trkpt>
      <trkpt lat="47.21569" lon="-0.89068">
        <ele>79</ele>
        <time>2012-02-23T15:08:25Z</time>
      </trkpt>
      <trkpt lat="47.21571" lon="-0.89065">
        <ele>79</ele>
        <time>2012-02-23T15:08:27Z</time>
      </trkpt>
      <trkpt lat="47.21573" lon="-0.89063">
        <ele>79</ele>
        <time>2012-02-23T15:08:29Z</time>
      </trkpt>
      <trkpt lat="47.21575" lon="-0.89061">
        <ele>79</ele>
        <time>2012-02-23T15:08:31Z</time>
      </trkpt>
      <trkpt lat="47.21577" lon="-0.89058">
        <ele>79</ele>
        <time>2012-02-23T15:08:33Z</time>
      </trkpt>
      <trkpt lat="47.21578" lon="-0.89056">
        <ele>79</ele>
        <time>2012-02-23T15:08:35Z</time>
      </trkpt>
      <trkpt lat="47.2158" lon="-0.89054">
        <ele>79</ele>
        <time>2012-02-23T15:08:37Z</time>
      </trkpt>
      <trkpt lat="47.21582" lon="-0.89051">
        <ele>79</ele>
        <time>2012-02-23T15:08:39Z</time>
      </trkpt>
      <trkpt lat="47.21584" lon="-0.89049">
        <ele>79</ele>
        <time>2012-02-23T15:08:41Z</time>
      </trkpt>
      <trkpt lat="47.21585" lon="-0.89047">
        <ele>79</ele>
        <time>2012-02-23T15:08:42Z</time>
      </trkpt>
      <trkpt lat="47.21586" lon="-0.89046">
        <ele>79</ele>
        <time>2012-02-23T15:08:43Z</time>
      </trkpt>
      <trkpt lat="47.21588" lon="-0.89044">
        <ele>79</ele>
        <time>2012-02-23T15:08:45Z</time>
      </trkpt>
      <trkpt lat="47.2159" lon="-0.89041">
        <ele>80</ele>
        <time>2012-02-23T15:08:47Z</time>
      </trkpt>
      <trkpt lat="47.21592" lon="-0.89039">
        <ele>80</ele>
        <time>2012-02-23T15:08:49Z</time>
      </trkpt>
      <trkpt lat="47.21593" lon="-0.89036">
        <ele>80</ele>
        <time>2012-02-23T15:08:51Z</time>
      </trkpt>
      <trkpt lat="47.21595" lon="-0.89034">
        <ele>80</ele>
        <time>2012-02-23T15:08:53Z</time>
      </trkpt>
      <trkpt lat="47.21597" lon="-0.89031">
        <ele>80</ele>
        <time>2012-02-23T15:08:55Z</time>
      </trkpt>
      <trkpt lat="47.21598" lon="-0.89029">
        <ele>80</ele>
        <time>2012-02-23T15:08:57Z</time>
      </trkpt>
      <trkpt lat="47.216" lon="-0.89027">
        <ele>80</ele>
        <time>2012-02-23T15:08:59Z</time>
      </trkpt>
      <trkpt lat="47.21602" lon="-0.89025">
        <ele>80</ele>
        <time>2012-02-23T15:09:01Z</time>
      </trkpt>
      <trkpt lat="47.21603" lon="-0.89023">
        <ele>80</ele>
        <time>2012-02-23T15:09:02Z</time>
      </trkpt>
      <trkpt lat="47.21604" lon="-0.89022">
        <ele>80</ele>
        <time>2012-02-23T15:09:03Z</time>
      </trkpt>
      <trkpt lat="47.21605" lon="-0.89019">
        <ele>80</ele>
        <time>2012-02-23T15:09:05Z</time>
      </trkpt>
      <trkpt lat="47.21607" lon="-0.89017">
        <ele>80</ele>
        <time>2012-02-23T15:09:07Z</time>
      </trkpt>
      <trkpt lat="47.21609" lon="-0.89015">
        <ele>80</ele>
        <time>2012-02-23T15:09:09Z</time>
      </trkpt>
      <trkpt lat="47.2161" lon="-0.89012">
        <ele>80</ele>
        <time>2012-02-23T15:09:11Z</time>
      </trkpt>
      <trkpt lat="47.21612" lon="-0.89009">
        <ele>80</ele>
        <time>2012-02-23T15:09:13Z</time>
      </trkpt>
      <trkpt lat="47.21614" lon="-0.89007">
        <ele>80</ele>
        <time>2012-02-23T15:09:15Z</time>
      </trkpt>
      <trkpt lat="47.21616" lon="-0.89005">
        <ele>80</ele>
        <time>2012-02-23T15:09:17Z</time>
      </trkpt>
      <trkpt lat="47.21617" lon="-0.89002">
        <ele>80</ele>
        <time>2012-02-23T15:09:19Z</time>
      </trkpt>
      <trkpt lat="47.21619" lon="-0.89">
        <ele>80</ele>
        <time>2012-02-23T15:09:21Z</time>
      </trkpt>
      <trkpt lat="47.21621" lon="-0.88998">
        <ele>80</ele>
        <time>2012-02-23T15:09:23Z</time>
      </trkpt>
      <trkpt lat="47.21622" lon="-0.88996">
        <ele>80</ele>
        <time>2012-02-23T15:09:24Z</time>
      </trkpt>
      <trkpt lat="47.21623" lon="-0.88995">
        <ele>80</ele>
        <time>2012-02-23T15:09:25Z</time>
      </trkpt>
      <trkpt lat="47.21625" lon="-0.88993">
        <ele>80</ele>
        <time>2012-02-23T15:09:27Z</time>
      </trkpt>
      <trkpt lat="47.21627" lon="-0.88991">
        <ele>80</ele>
        <time>2012-02-23T15:09:29Z</time>
      </trkpt>
      <trkpt lat="47.21628" lon="-0.8899">
        <ele>80</ele>
        <time>2012-02-23T15:09:30Z</time>
      </trkpt>
      <trkpt lat="47.2163" lon="-0.88987">
        <ele>80</ele>
        <time>2012-02-23T15:09:32Z</time>
      </trkpt>
      <trkpt lat="47.21632" lon="-0.88985">
        <ele>80</ele>
        <time>2012-02-23T15:09:34Z</time>
      </trkpt>
      <trkpt lat="47.21634" lon="-0.88982">
        <ele>80</ele>
        <time>2012-02-23T15:09:36Z</time>
      </trkpt>
      <trkpt lat="47.21636" lon="-0.88981">
        <ele>80</ele>
        <time>2012-02-23T15:09:38Z</time>
      </trkpt>
      <trkpt lat="47.21638" lon="-0.88979">
        <ele>80</ele>
        <time>2012-02-23T15:09:40Z</time>
      </trkpt>
      <trkpt lat="47.21639" lon="-0.88978">
        <ele>80</ele>
        <time>2012-02-23T15:09:41Z</time>
      </trkpt>
      <trkpt lat="47.2164" lon="-0.88977">
        <ele>80</ele>
        <time>2012-02-23T15:09:42Z</time>
      </trkpt>
      <trkpt lat="47.21642" lon="-0.88974">
        <ele>80</ele>
        <time>2012-02-23T15:09:44Z</time>
      </trkpt>
      <trkpt lat="47.21644" lon="-0.88973">
        <ele>80</ele>
        <time>2012-02-23T15:09:46Z</time>
      </trkpt>
      <trkpt lat="47.21646" lon="-0.8897">
        <ele>80</ele>
        <time>2012-02-23T15:09:48Z</time>
      </trkpt>
      <trkpt lat="47.21648" lon="-0.88968">
        <ele>80</ele>
        <time>2012-02-23T15:09:50Z</time>
      </trkpt>
      <trkpt lat="47.2165" lon="-0.88966">
        <ele>80</ele>
        <time>2012-02-23T15:09:52Z</time>
      </trkpt>
      <trkpt lat="47.21651" lon="-0.88965">
        <ele>80</ele>
        <time>2012-02-23T15:09:53Z</time>
      </trkpt>
      <trkpt lat="47.21653" lon="-0.88964">
        <ele>80</ele>
        <time>2012-02-23T15:09:55Z</time>
      </trkpt>
      <trkpt lat="47.21655" lon="-0.88961">
        <ele>80</ele>
        <time>2012-02-23T15:09:57Z</time>
      </trkpt>
      <trkpt lat="47.21657" lon="-0.88959">
        <ele>80</ele>
        <time>2012-02-23T15:09:59Z</time>
      </trkpt>
      <trkpt lat="47.21658" lon="-0.88958">
        <ele>80</ele>
        <time>2012-02-23T15:10:00Z</time>
      </trkpt>
      <trkpt lat="47.2166" lon="-0.88957">
        <ele>80</ele>
        <time>2012-02-23T15:10:02Z</time>
      </trkpt>
      <trkpt lat="47.21662" lon="-0.88955">
        <ele>80</ele>
        <time>2012-02-23T15:10:04Z</time>
      </trkpt>
      <trkpt lat="47.21663" lon="-0.88954">
        <ele>80</ele>
        <time>2012-02-23T15:10:05Z</time>
      </trkpt>
      <trkpt lat="47.21664" lon="-0.88953">
        <ele>80</ele>
        <time>2012-02-23T15:10:06Z</time>
      </trkpt>
      <trkpt lat="47.21666" lon="-0.88951">
        <ele>80</ele>
        <time>2012-02-23T15:10:08Z</time>
      </trkpt>
      <trkpt lat="47.21668" lon="-0.88949">
        <ele>81</ele>
        <time>2012-02-23T15:10:10Z</time>
      </trkpt>
      <trkpt lat="47.21669" lon="-0.88948">
        <ele>81</ele>
        <time>2012-02-23T15:10:11Z</time>
      </trkpt>
      <trkpt lat="47.21671" lon="-0.88947">
        <ele>81</ele>
        <time>2012-02-23T15:10:12Z</time>
      </trkpt>
      <trkpt lat="47.21672" lon="-0.88945">
        <ele>81</ele>
        <time>2012-02-23T15:10:14Z</time>
      </trkpt>
      <trkpt lat="47.21674" lon="-0.88944">
        <ele>81</ele>
        <time>2012-02-23T15:10:15Z</time>
      </trkpt>
      <trkpt lat="47.21675" lon="-0.88943">
        <ele>81</ele>
        <time>2012-02-23T15:10:16Z</time>
      </trkpt>
      <trkpt lat="47.21676" lon="-0.88942">
        <ele>81</ele>
        <time>2012-02-23T15:10:17Z</time>
      </trkpt>
      <trkpt lat="47.21678" lon="-0.8894">
        <ele>81</ele>
        <time>2012-02-23T15:10:19Z</time>
      </trkpt>
      <trkpt lat="47.2168" lon="-0.88938">
        <ele>82</ele>
        <time>2012-02-23T15:10:21Z</time>
      </trkpt>
      <trkpt lat="47.21681" lon="-0.88937">
        <ele>82</ele>
        <time>2012-02-23T15:10:22Z</time>
      </trkpt>
      <trkpt lat="47.21682" lon="-0.88936">
        <ele>82</ele>
        <time>2012-02-23T15:10:23Z</time>
      </trkpt>
      <trkpt lat="47.21684" lon="-0.88934">
        <ele>82</ele>
        <time>2012-02-23T15:10:25Z</time>
      </trkpt>
      <trkpt lat="47.21686" lon="-0.88933">
        <ele>82</ele>
        <time>2012-02-23T15:10:27Z</time>
      </trkpt>
      <trkpt lat="47.21687" lon="-0.88932">
        <ele>82</ele>
        <time>2012-02-23T15:10:28Z</time>
      </trkpt>
      <trkpt lat="47.21688" lon="-0.88931">
        <ele>82</ele>
        <time>2012-02-23T15:10:29Z</time>
      </trkpt>
      <trkpt lat="47.2169" lon="-0.88929">
        <ele>82</ele>
        <time>2012-02-23T15:10:31Z</time>
      </trkpt>
      <trkpt lat="47.21693" lon="-0.88927">
        <ele>82</ele>
        <time>2012-02-23T15:10:33Z</time>
      </trkpt>
      <trkpt lat="47.21694" lon="-0.88926">
        <ele>82</ele>
        <time>2012-02-23T15:10:34Z</time>
      </trkpt>
      <trkpt lat="47.21696" lon="-0.88924">
        <ele>82</ele>
        <time>2012-02-23T15:10:36Z</time>
      </trkpt>
      <trkpt lat="47.21698" lon="-0.88923">
        <ele>83</ele>
        <time>2012-02-23T15:10:38Z</time>
      </trkpt>
      <trkpt lat="47.21701" lon="-0.8892">
        <ele>83</ele>
        <time>2012-02-23T15:10:40Z</time>
      </trkpt>
      <trkpt lat="47.21703" lon="-0.88919">
        <ele>83</ele>
        <time>2012-02-23T15:10:42Z</time>
      </trkpt>
      <trkpt lat="47.21704" lon="-0.88918">
        <ele>83</ele>
        <time>2012-02-23T15:10:43Z</time>
      </trkpt>
      <trkpt lat="47.21705" lon="-0.88917">
        <ele>83</ele>
        <time>2012-02-23T15:10:44Z</time>
      </trkpt>
      <trkpt lat="47.21706" lon="-0.88916">
        <ele>83</ele>
        <time>2012-02-23T15:10:45Z</time>
      </trkpt>
      <trkpt lat="47.21708" lon="-0.88913">
        <ele>83</ele>
        <time>2012-02-23T15:10:47Z</time>
      </trkpt>
      <trkpt lat="47.21709" lon="-0.88911">
        <ele>83</ele>
        <time>2012-02-23T15:10:49Z</time>
      </trkpt>
      <trkpt lat="47.21711" lon="-0.88909">
        <ele>83</ele>
        <time>2012-02-23T15:10:51Z</time>
      </trkpt>
      <trkpt lat="47.21713" lon="-0.88907">
        <ele>83</ele>
        <time>2012-02-23T15:10:53Z</time>
      </trkpt>
      <trkpt lat="47.21714" lon="-0.88905">
        <ele>83</ele>
        <time>2012-02-23T15:10:55Z</time>
      </trkpt>
      <trkpt lat="47.21716" lon="-0.88903">
        <ele>83</ele>
        <time>2012-02-23T15:10:57Z</time>
      </trkpt>
      <trkpt lat="47.21715" lon="-0.88893">
        <ele>84</ele>
        <time>2012-02-23T15:11:00Z</time>
      </trkpt>
      <trkpt lat="47.21713" lon="-0.8889">
        <ele>84</ele>
        <time>2012-02-23T15:11:02Z</time>
      </trkpt>
      <trkpt lat="47.21712" lon="-0.88889">
        <ele>84</ele>
        <time>2012-02-23T15:11:03Z</time>
      </trkpt>
      <trkpt lat="47.2171" lon="-0.88887">
        <ele>84</ele>
        <time>2012-02-23T15:11:05Z</time>
      </trkpt>
      <trkpt lat="47.21709" lon="-0.88886">
        <ele>84</ele>
        <time>2012-02-23T15:11:06Z</time>
      </trkpt>
      <trkpt lat="47.21707" lon="-0.88885">
        <ele>84</ele>
        <time>2012-02-23T15:11:07Z</time>
      </trkpt>
      <trkpt lat="47.21705" lon="-0.88882">
        <ele>84</ele>
        <time>2012-02-23T15:11:09Z</time>
      </trkpt>
      <trkpt lat="47.21703" lon="-0.8888">
        <ele>84</ele>
        <time>2012-02-23T15:11:11Z</time>
      </trkpt>
      <trkpt lat="47.21702" lon="-0.88879">
        <ele>84</ele>
        <time>2012-02-23T15:11:12Z</time>
      </trkpt>
      <trkpt lat="47.217" lon="-0.88877">
        <ele>84</ele>
        <time>2012-02-23T15:11:14Z</time>
      </trkpt>
      <trkpt lat="47.21698" lon="-0.88876">
        <ele>84</ele>
        <time>2012-02-23T15:11:16Z</time>
      </trkpt>
      <trkpt lat="47.21696" lon="-0.88874">
        <ele>84</ele>
        <time>2012-02-23T15:11:18Z</time>
      </trkpt>
      <trkpt lat="47.21694" lon="-0.88872">
        <ele>84</ele>
        <time>2012-02-23T15:11:20Z</time>
      </trkpt>
      <trkpt lat="47.21693" lon="-0.88871">
        <ele>84</ele>
        <time>2012-02-23T15:11:22Z</time>
      </trkpt>
      <trkpt lat="47.21691" lon="-0.88868">
        <ele>84</ele>
        <time>2012-02-23T15:11:24Z</time>
      </trkpt>
      <trkpt lat="47.21689" lon="-0.88867">
        <ele>84</ele>
        <time>2012-02-23T15:11:26Z</time>
      </trkpt>
      <trkpt lat="47.21688" lon="-0.88866">
        <ele>84</ele>
        <time>2012-02-23T15:11:27Z</time>
      </trkpt>
      <trkpt lat="47.21687" lon="-0.88865">
        <ele>84</ele>
        <time>2012-02-23T15:11:29Z</time>
      </trkpt>
      <trkpt lat="47.21684" lon="-0.88863">
        <ele>84</ele>
        <time>2012-02-23T15:11:31Z</time>
      </trkpt>
      <trkpt lat="47.21682" lon="-0.88861">
        <ele>84</ele>
        <time>2012-02-23T15:11:34Z</time>
      </trkpt>
      <trkpt lat="47.21681" lon="-0.8886">
        <ele>84</ele>
        <time>2012-02-23T15:11:35Z</time>
      </trkpt>
      <trkpt lat="47.2168" lon="-0.88859">
        <ele>84</ele>
        <time>2012-02-23T15:11:36Z</time>
      </trkpt>
      <trkpt lat="47.21678" lon="-0.88857">
        <ele>84</ele>
        <time>2012-02-23T15:11:38Z</time>
      </trkpt>
      <trkpt lat="47.21677" lon="-0.88856">
        <ele>84</ele>
        <time>2012-02-23T15:11:40Z</time>
      </trkpt>
      <trkpt lat="47.21675" lon="-0.88854">
        <ele>84</ele>
        <time>2012-02-23T15:11:42Z</time>
      </trkpt>
      <trkpt lat="47.21673" lon="-0.88852">
        <ele>84</ele>
        <time>2012-02-23T15:11:45Z</time>
      </trkpt>
      <trkpt lat="47.21671" lon="-0.8885">
        <ele>84</ele>
        <time>2012-02-23T15:11:47Z</time>
      </trkpt>
      <trkpt lat="47.21669" lon="-0.88848">
        <ele>84</ele>
        <time>2012-02-23T15:11:49Z</time>
      </trkpt>
      <trkpt lat="47.21668" lon="-0.88847">
        <ele>84</ele>
        <time>2012-02-23T15:11:51Z</time>
      </trkpt>
      <trkpt lat="47.21666" lon="-0.88845">
        <ele>84</ele>
        <time>2012-02-23T15:11:53Z</time>
      </trkpt>
      <trkpt lat="47.21664" lon="-0.88843">
        <ele>84</ele>
        <time>2012-02-23T15:11:55Z</time>
      </trkpt>
      <trkpt lat="47.21663" lon="-0.88841">
        <ele>84</ele>
        <time>2012-02-23T15:11:57Z</time>
      </trkpt>
      <trkpt lat="47.21661" lon="-0.8884">
        <ele>84</ele>
        <time>2012-02-23T15:11:59Z</time>
      </trkpt>
      <trkpt lat="47.21659" lon="-0.88838">
        <ele>84</ele>
        <time>2012-02-23T15:12:01Z</time>
      </trkpt>
      <trkpt lat="47.21658" lon="-0.88837">
        <ele>84</ele>
        <time>2012-02-23T15:12:03Z</time>
      </trkpt>
      <trkpt lat="47.21656" lon="-0.88836">
        <ele>84</ele>
        <time>2012-02-23T15:12:05Z</time>
      </trkpt>
      <trkpt lat="47.21654" lon="-0.88835">
        <ele>84</ele>
        <time>2012-02-23T15:12:07Z</time>
      </trkpt>
      <trkpt lat="47.21652" lon="-0.88832">
        <ele>84</ele>
        <time>2012-02-23T15:12:09Z</time>
      </trkpt>
      <trkpt lat="47.2165" lon="-0.88831">
        <ele>84</ele>
        <time>2012-02-23T15:12:11Z</time>
      </trkpt>
      <trkpt lat="47.21648" lon="-0.88828">
        <ele>84</ele>
        <time>2012-02-23T15:12:13Z</time>
      </trkpt>
      <trkpt lat="47.21647" lon="-0.88827">
        <ele>84</ele>
        <time>2012-02-23T15:12:16Z</time>
      </trkpt>
      <trkpt lat="47.21645" lon="-0.88824">
        <ele>84</ele>
        <time>2012-02-23T15:12:18Z</time>
      </trkpt>
      <trkpt lat="47.21644" lon="-0.88823">
        <ele>84</ele>
        <time>2012-02-23T15:12:19Z</time>
      </trkpt>
      <trkpt lat="47.21642" lon="-0.88822">
        <ele>84</ele>
        <time>2012-02-23T15:12:21Z</time>
      </trkpt>
      <trkpt lat="47.21641" lon="-0.88822">
        <ele>84</ele>
        <time>2012-02-23T15:12:23Z</time>
      </trkpt>
      <trkpt lat="47.21639" lon="-0.8882">
        <ele>84</ele>
        <time>2012-02-23T15:12:25Z</time>
      </trkpt>
      <trkpt lat="47.21637" lon="-0.88818">
        <ele>84</ele>
        <time>2012-02-23T15:12:27Z</time>
      </trkpt>
      <trkpt lat="47.21636" lon="-0.88817">
        <ele>84</ele>
        <time>2012-02-23T15:12:29Z</time>
      </trkpt>
      <trkpt lat="47.21635" lon="-0.88815">
        <ele>84</ele>
        <time>2012-02-23T15:12:31Z</time>
      </trkpt>
      <trkpt lat="47.21633" lon="-0.88815">
        <ele>84</ele>
        <time>2012-02-23T15:12:33Z</time>
      </trkpt>
      <trkpt lat="47.21632" lon="-0.88815">
        <ele>84</ele>
        <time>2012-02-23T15:12:39Z</time>
      </trkpt>
      <trkpt lat="47.21631" lon="-0.88813">
        <ele>84</ele>
        <time>2012-02-23T15:12:40Z</time>
      </trkpt>
      <trkpt lat="47.21629" lon="-0.88811">
        <ele>84</ele>
        <time>2012-02-23T15:12:42Z</time>
      </trkpt>
      <trkpt lat="47.21628" lon="-0.88808">
        <ele>84</ele>
        <time>2012-02-23T15:12:44Z</time>
      </trkpt>
      <trkpt lat="47.21627" lon="-0.88805">
        <ele>84</ele>
        <time>2012-02-23T15:12:46Z</time>
      </trkpt>
      <trkpt lat="47.21626" lon="-0.88803">
        <ele>84</ele>
        <time>2012-02-23T15:12:48Z</time>
      </trkpt>
      <trkpt lat="47.21624" lon="-0.88801">
        <ele>84</ele>
        <time>2012-02-23T15:12:50Z</time>
      </trkpt>
      <trkpt lat="47.21622" lon="-0.88799">
        <ele>84</ele>
        <time>2012-02-23T15:12:52Z</time>
      </trkpt>
      <trkpt lat="47.2162" lon="-0.88797">
        <ele>84</ele>
        <time>2012-02-23T15:12:54Z</time>
      </trkpt>
      <trkpt lat="47.21618" lon="-0.88796">
        <ele>84</ele>
        <time>2012-02-23T15:12:56Z</time>
      </trkpt>
      <trkpt lat="47.21616" lon="-0.88794">
        <ele>83</ele>
        <time>2012-02-23T15:12:58Z</time>
      </trkpt>
      <trkpt lat="47.21614" lon="-0.88792">
        <ele>83</ele>
        <time>2012-02-23T15:13:01Z</time>
      </trkpt>
      <trkpt lat="47.21612" lon="-0.88789">
        <ele>83</ele>
        <time>2012-02-23T15:13:02Z</time>
      </trkpt>
      <trkpt lat="47.21611" lon="-0.88787">
        <ele>83</ele>
        <time>2012-02-23T15:13:04Z</time>
      </trkpt>
      <trkpt lat="47.2161" lon="-0.88785">
        <ele>83</ele>
        <time>2012-02-23T15:13:06Z</time>
      </trkpt>
      <trkpt lat="47.2161" lon="-0.88783">
        <ele>83</ele>
        <time>2012-02-23T15:13:07Z</time>
      </trkpt>
      <trkpt lat="47.21611" lon="-0.88781">
        <ele>83</ele>
        <time>2012-02-23T15:13:09Z</time>
      </trkpt>
      <trkpt lat="47.21612" lon="-0.88778">
        <ele>83</ele>
        <time>2012-02-23T15:13:11Z</time>
      </trkpt>
      <trkpt lat="47.21613" lon="-0.88776">
        <ele>83</ele>
        <time>2012-02-23T15:13:13Z</time>
      </trkpt>
      <trkpt lat="47.21614" lon="-0.88774">
        <ele>83</ele>
        <time>2012-02-23T15:13:15Z</time>
      </trkpt>
      <trkpt lat="47.21615" lon="-0.88772">
        <ele>83</ele>
        <time>2012-02-23T15:13:17Z</time>
      </trkpt>
      <trkpt lat="47.21616" lon="-0.8877">
        <ele>83</ele>
        <time>2012-02-23T15:13:19Z</time>
      </trkpt>
      <trkpt lat="47.21616" lon="-0.88768">
        <ele>83</ele>
        <time>2012-02-23T15:13:21Z</time>
      </trkpt>
      <trkpt lat="47.21617" lon="-0.88766">
        <ele>83</ele>
        <time>2012-02-23T15:13:23Z</time>
      </trkpt>
      <trkpt lat="47.21617" lon="-0.88764">
        <ele>83</ele>
        <time>2012-02-23T15:13:31Z</time>
      </trkpt>
      <trkpt lat="47.21618" lon="-0.88763">
        <ele>83</ele>
        <time>2012-02-23T15:13:32Z</time>
      </trkpt>
      <trkpt lat="47.21618" lon="-0.88761">
        <ele>83</ele>
        <time>2012-02-23T15:13:33Z</time>
      </trkpt>
      <trkpt lat="47.21619" lon="-0.88759">
        <ele>83</ele>
        <time>2012-02-23T15:13:35Z</time>
      </trkpt>
      <trkpt lat="47.2162" lon="-0.88757">
        <ele>83</ele>
        <time>2012-02-23T15:13:36Z</time>
      </trkpt>
      <trkpt lat="47.21621" lon="-0.88754">
        <ele>83</ele>
        <time>2012-02-23T15:13:38Z</time>
      </trkpt>
      <trkpt lat="47.21621" lon="-0.88753">
        <ele>83</ele>
        <time>2012-02-23T15:13:39Z</time>
      </trkpt>
      <trkpt lat="47.21622" lon="-0.8875">
        <ele>83</ele>
        <time>2012-02-23T15:13:41Z</time>
      </trkpt>
      <trkpt lat="47.21623" lon="-0.88747">
        <ele>82</ele>
        <time>2012-02-23T15:13:43Z</time>
      </trkpt>
      <trkpt lat="47.21624" lon="-0.88745">
        <ele>82</ele>
        <time>2012-02-23T15:13:44Z</time>
      </trkpt>
      <trkpt lat="47.21624" lon="-0.88744">
        <ele>82</ele>
        <time>2012-02-23T15:13:45Z</time>
      </trkpt>
      <trkpt lat="47.21625" lon="-0.88741">
        <ele>81</ele>
        <time>2012-02-23T15:13:47Z</time>
      </trkpt>
      <trkpt lat="47.21626" lon="-0.88739">
        <ele>81</ele>
        <time>2012-02-23T15:13:49Z</time>
      </trkpt>
      <trkpt lat="47.21626" lon="-0.88736">
        <ele>80</ele>
        <time>2012-02-23T15:13:51Z</time>
      </trkpt>
      <trkpt lat="47.21628" lon="-0.88734">
        <ele>80</ele>
        <time>2012-02-23T15:13:53Z</time>
      </trkpt>
      <trkpt lat="47.21629" lon="-0.88731">
        <ele>79</ele>
        <time>2012-02-23T15:13:55Z</time>
      </trkpt>
      <trkpt lat="47.21629" lon="-0.88729">
        <ele>79</ele>
        <time>2012-02-23T15:13:57Z</time>
      </trkpt>
      <trkpt lat="47.21631" lon="-0.88727">
        <ele>79</ele>
        <time>2012-02-23T15:13:59Z</time>
      </trkpt>
      <trkpt lat="47.21632" lon="-0.88724">
        <ele>79</ele>
        <time>2012-02-23T15:14:01Z</time>
      </trkpt>
      <trkpt lat="47.21633" lon="-0.88722">
        <ele>79</ele>
        <time>2012-02-23T15:14:03Z</time>
      </trkpt>
      <trkpt lat="47.21634" lon="-0.88719">
        <ele>79</ele>
        <time>2012-02-23T15:14:05Z</time>
      </trkpt>
      <trkpt lat="47.21635" lon="-0.88717">
        <ele>79</ele>
        <time>2012-02-23T15:14:07Z</time>
      </trkpt>
      <trkpt lat="47.21637" lon="-0.88714">
        <ele>79</ele>
        <time>2012-02-23T15:14:09Z</time>
      </trkpt>
      <trkpt lat="47.21638" lon="-0.88712">
        <ele>79</ele>
        <time>2012-02-23T15:14:11Z</time>
      </trkpt>
      <trkpt lat="47.21639" lon="-0.8871">
        <ele>79</ele>
        <time>2012-02-23T15:14:13Z</time>
      </trkpt>
      <trkpt lat="47.2164" lon="-0.88707">
        <ele>79</ele>
        <time>2012-02-23T15:14:15Z</time>
      </trkpt>
      <trkpt lat="47.21642" lon="-0.88705">
        <ele>79</ele>
        <time>2012-02-23T15:14:17Z</time>
      </trkpt>
      <trkpt lat="47.21643" lon="-0.88703">
        <ele>79</ele>
        <time>2012-02-23T15:14:19Z</time>
      </trkpt>
      <trkpt lat="47.21644" lon="-0.887">
        <ele>79</ele>
        <time>2012-02-23T15:14:21Z</time>
      </trkpt>
      <trkpt lat="47.21645" lon="-0.88698">
        <ele>79</ele>
        <time>2012-02-23T15:14:23Z</time>
      </trkpt>
      <trkpt lat="47.21646" lon="-0.88696">
        <ele>79</ele>
        <time>2012-02-23T15:14:25Z</time>
      </trkpt>
      <trkpt lat="47.21647" lon="-0.88693">
        <ele>79</ele>
        <time>2012-02-23T15:14:27Z</time>
      </trkpt>
      <trkpt lat="47.21648" lon="-0.88691">
        <ele>79</ele>
        <time>2012-02-23T15:14:29Z</time>
      </trkpt>
      <trkpt lat="47.21649" lon="-0.88689">
        <ele>79</ele>
        <time>2012-02-23T15:14:31Z</time>
      </trkpt>
      <trkpt lat="47.21649" lon="-0.88687">
        <ele>79</ele>
        <time>2012-02-23T15:14:32Z</time>
      </trkpt>
      <trkpt lat="47.2165" lon="-0.88685">
        <ele>79</ele>
        <time>2012-02-23T15:14:34Z</time>
      </trkpt>
      <trkpt lat="47.21651" lon="-0.88683">
        <ele>79</ele>
        <time>2012-02-23T15:14:36Z</time>
      </trkpt>
      <trkpt lat="47.21652" lon="-0.8868">
        <ele>79</ele>
        <time>2012-02-23T15:14:38Z</time>
      </trkpt>
      <trkpt lat="47.21653" lon="-0.88678">
        <ele>79</ele>
        <time>2012-02-23T15:14:40Z</time>
      </trkpt>
      <trkpt lat="47.21654" lon="-0.88675">
        <ele>79</ele>
        <time>2012-02-23T15:14:42Z</time>
      </trkpt>
      <trkpt lat="47.21655" lon="-0.88673">
        <ele>79</ele>
        <time>2012-02-23T15:14:44Z</time>
      </trkpt>
      <trkpt lat="47.21656" lon="-0.88671">
        <ele>79</ele>
        <time>2012-02-23T15:14:46Z</time>
      </trkpt>
      <trkpt lat="47.21657" lon="-0.88669">
        <ele>79</ele>
        <time>2012-02-23T15:14:48Z</time>
      </trkpt>
      <trkpt lat="47.21658" lon="-0.88666">
        <ele>79</ele>
        <time>2012-02-23T15:14:50Z</time>
      </trkpt>
      <trkpt lat="47.2166" lon="-0.88664">
        <ele>79</ele>
        <time>2012-02-23T15:14:52Z</time>
      </trkpt>
      <trkpt lat="47.21662" lon="-0.88662">
        <ele>79</ele>
        <time>2012-02-23T15:14:54Z</time>
      </trkpt>
      <trkpt lat="47.21663" lon="-0.8866">
        <ele>79</ele>
        <time>2012-02-23T15:14:56Z</time>
      </trkpt>
      <trkpt lat="47.21664" lon="-0.88658">
        <ele>79</ele>
        <time>2012-02-23T15:14:58Z</time>
      </trkpt>
      <trkpt lat="47.21664" lon="-0.88656">
        <ele>79</ele>
        <time>2012-02-23T15:15:00Z</time>
      </trkpt>
      <trkpt lat="47.21666" lon="-0.88653">
        <ele>79</ele>
        <time>2012-02-23T15:15:02Z</time>
      </trkpt>
      <trkpt lat="47.21666" lon="-0.88652">
        <ele>79</ele>
        <time>2012-02-23T15:15:04Z</time>
      </trkpt>
      <trkpt lat="47.21668" lon="-0.8865">
        <ele>79</ele>
        <time>2012-02-23T15:15:06Z</time>
      </trkpt>
      <trkpt lat="47.21669" lon="-0.88648">
        <ele>79</ele>
        <time>2012-02-23T15:15:08Z</time>
      </trkpt>
      <trkpt lat="47.21669" lon="-0.88647">
        <ele>79</ele>
        <time>2012-02-23T15:15:09Z</time>
      </trkpt>
      <trkpt lat="47.2167" lon="-0.88644">
        <ele>79</ele>
        <time>2012-02-23T15:15:11Z</time>
      </trkpt>
      <trkpt lat="47.21671" lon="-0.88642">
        <ele>79</ele>
        <time>2012-02-23T15:15:13Z</time>
      </trkpt>
      <trkpt lat="47.21672" lon="-0.88639">
        <ele>79</ele>
        <time>2012-02-23T15:15:15Z</time>
      </trkpt>
      <trkpt lat="47.21672" lon="-0.88638">
        <ele>79</ele>
        <time>2012-02-23T15:15:16Z</time>
      </trkpt>
      <trkpt lat="47.21673" lon="-0.88635">
        <ele>79</ele>
        <time>2012-02-23T15:15:18Z</time>
      </trkpt>
      <trkpt lat="47.21674" lon="-0.88634">
        <ele>79</ele>
        <time>2012-02-23T15:15:19Z</time>
      </trkpt>
      <trkpt lat="47.21675" lon="-0.88633">
        <ele>79</ele>
        <time>2012-02-23T15:15:20Z</time>
      </trkpt>
      <trkpt lat="47.21675" lon="-0.88631">
        <ele>79</ele>
        <time>2012-02-23T15:15:21Z</time>
      </trkpt>
      <trkpt lat="47.21675" lon="-0.8863">
        <ele>79</ele>
        <time>2012-02-23T15:15:22Z</time>
      </trkpt>
      <trkpt lat="47.21675" lon="-0.88628">
        <ele>79</ele>
        <time>2012-02-23T15:15:23Z</time>
      </trkpt>
      <trkpt lat="47.21677" lon="-0.88625">
        <ele>79</ele>
        <time>2012-02-23T15:15:25Z</time>
      </trkpt>
      <trkpt lat="47.21677" lon="-0.88624">
        <ele>79</ele>
        <time>2012-02-23T15:15:26Z</time>
      </trkpt>
      <trkpt lat="47.21678" lon="-0.88622">
        <ele>79</ele>
        <time>2012-02-23T15:15:28Z</time>
      </trkpt>
      <trkpt lat="47.21679" lon="-0.88619">
        <ele>79</ele>
        <time>2012-02-23T15:15:30Z</time>
      </trkpt>
      <trkpt lat="47.2168" lon="-0.88616">
        <ele>79</ele>
        <time>2012-02-23T15:15:32Z</time>
      </trkpt>
      <trkpt lat="47.21682" lon="-0.88614">
        <ele>79</ele>
        <time>2012-02-23T15:15:34Z</time>
      </trkpt>
      <trkpt lat="47.21682" lon="-0.88612">
        <ele>79</ele>
        <time>2012-02-23T15:15:36Z</time>
      </trkpt>
      <trkpt lat="47.21683" lon="-0.88609">
        <ele>79</ele>
        <time>2012-02-23T15:15:38Z</time>
      </trkpt>
      <trkpt lat="47.21685" lon="-0.88606">
        <ele>79</ele>
        <time>2012-02-23T15:15:40Z</time>
      </trkpt>
      <trkpt lat="47.21685" lon="-0.88604">
        <ele>79</ele>
        <time>2012-02-23T15:15:42Z</time>
      </trkpt>
      <trkpt lat="47.21686" lon="-0.88601">
        <ele>78</ele>
        <time>2012-02-23T15:15:44Z</time>
      </trkpt>
      <trkpt lat="47.21687" lon="-0.88599">
        <ele>78</ele>
        <time>2012-02-23T15:15:46Z</time>
      </trkpt>
      <trkpt lat="47.21688" lon="-0.88597">
        <ele>78</ele>
        <time>2012-02-23T15:15:48Z</time>
      </trkpt>
      <trkpt lat="47.21688" lon="-0.88595">
        <ele>77</ele>
        <time>2012-02-23T15:15:50Z</time>
      </trkpt>
      <trkpt lat="47.21689" lon="-0.88592">
        <ele>77</ele>
        <time>2012-02-23T15:15:52Z</time>
      </trkpt>
      <trkpt lat="47.2169" lon="-0.8859">
        <ele>76</ele>
        <time>2012-02-23T15:15:54Z</time>
      </trkpt>
      <trkpt lat="47.21691" lon="-0.88587">
        <ele>76</ele>
        <time>2012-02-23T15:15:56Z</time>
      </trkpt>
      <trkpt lat="47.21692" lon="-0.88585">
        <ele>76</ele>
        <time>2012-02-23T15:15:58Z</time>
      </trkpt>
      <trkpt lat="47.21693" lon="-0.88582">
        <ele>76</ele>
        <time>2012-02-23T15:16:00Z</time>
      </trkpt>
      <trkpt lat="47.21694" lon="-0.88579">
        <ele>75</ele>
        <time>2012-02-23T15:16:02Z</time>
      </trkpt>
      <trkpt lat="47.21695" lon="-0.88577">
        <ele>75</ele>
        <time>2012-02-23T15:16:04Z</time>
      </trkpt>
      <trkpt lat="47.21696" lon="-0.88574">
        <ele>75</ele>
        <time>2012-02-23T15:16:06Z</time>
      </trkpt>
      <trkpt lat="47.21697" lon="-0.88572">
        <ele>75</ele>
        <time>2012-02-23T15:16:08Z</time>
      </trkpt>
      <trkpt lat="47.21698" lon="-0.88569">
        <ele>74</ele>
        <time>2012-02-23T15:16:10Z</time>
      </trkpt>
      <trkpt lat="47.217" lon="-0.88567">
        <ele>74</ele>
        <time>2012-02-23T15:16:12Z</time>
      </trkpt>
      <trkpt lat="47.21701" lon="-0.88564">
        <ele>74</ele>
        <time>2012-02-23T15:16:14Z</time>
      </trkpt>
      <trkpt lat="47.21702" lon="-0.88562">
        <ele>74</ele>
        <time>2012-02-23T15:16:16Z</time>
      </trkpt>
      <trkpt lat="47.21703" lon="-0.8856">
        <ele>74</ele>
        <time>2012-02-23T15:16:18Z</time>
      </trkpt>
      <trkpt lat="47.21703" lon="-0.88557">
        <ele>74</ele>
        <time>2012-02-23T15:16:20Z</time>
      </trkpt>
      <trkpt lat="47.21704" lon="-0.88555">
        <ele>74</ele>
        <time>2012-02-23T15:16:22Z</time>
      </trkpt>
      <trkpt lat="47.21704" lon="-0.88553">
        <ele>74</ele>
        <time>2012-02-23T15:16:23Z</time>
      </trkpt>
      <trkpt lat="47.21705" lon="-0.88552">
        <ele>74</ele>
        <time>2012-02-23T15:16:24Z</time>
      </trkpt>
      <trkpt lat="47.21705" lon="-0.8855">
        <ele>74</ele>
        <time>2012-02-23T15:16:25Z</time>
      </trkpt>
      <trkpt lat="47.21706" lon="-0.88547">
        <ele>74</ele>
        <time>2012-02-23T15:16:27Z</time>
      </trkpt>
      <trkpt lat="47.21708" lon="-0.88544">
        <ele>74</ele>
        <time>2012-02-23T15:16:29Z</time>
      </trkpt>
      <trkpt lat="47.2171" lon="-0.88542">
        <ele>74</ele>
        <time>2012-02-23T15:16:31Z</time>
      </trkpt>
      <trkpt lat="47.21711" lon="-0.88539">
        <ele>74</ele>
        <time>2012-02-23T15:16:33Z</time>
      </trkpt>
      <trkpt lat="47.21713" lon="-0.88537">
        <ele>74</ele>
        <time>2012-02-23T15:16:35Z</time>
      </trkpt>
      <trkpt lat="47.21714" lon="-0.88534">
        <ele>74</ele>
        <time>2012-02-23T15:16:37Z</time>
      </trkpt>
      <trkpt lat="47.21716" lon="-0.88533">
        <ele>74</ele>
        <time>2012-02-23T15:16:39Z</time>
      </trkpt>
      <trkpt lat="47.21717" lon="-0.8853">
        <ele>74</ele>
        <time>2012-02-23T15:16:41Z</time>
      </trkpt>
      <trkpt lat="47.21718" lon="-0.88528">
        <ele>74</ele>
        <time>2012-02-23T15:16:43Z</time>
      </trkpt>
      <trkpt lat="47.21719" lon="-0.88525">
        <ele>74</ele>
        <time>2012-02-23T15:16:45Z</time>
      </trkpt>
      <trkpt lat="47.2172" lon="-0.88523">
        <ele>74</ele>
        <time>2012-02-23T15:16:47Z</time>
      </trkpt>
      <trkpt lat="47.21721" lon="-0.88521">
        <ele>74</ele>
        <time>2012-02-23T15:16:49Z</time>
      </trkpt>
      <trkpt lat="47.21722" lon="-0.88518">
        <ele>74</ele>
        <time>2012-02-23T15:16:51Z</time>
      </trkpt>
      <trkpt lat="47.21723" lon="-0.88516">
        <ele>74</ele>
        <time>2012-02-23T15:16:53Z</time>
      </trkpt>
      <trkpt lat="47.21724" lon="-0.88513">
        <ele>74</ele>
        <time>2012-02-23T15:16:55Z</time>
      </trkpt>
      <trkpt lat="47.21725" lon="-0.88511">
        <ele>74</ele>
        <time>2012-02-23T15:16:57Z</time>
      </trkpt>
      <trkpt lat="47.21725" lon="-0.88509">
        <ele>74</ele>
        <time>2012-02-23T15:16:58Z</time>
      </trkpt>
      <trkpt lat="47.21726" lon="-0.88507">
        <ele>74</ele>
        <time>2012-02-23T15:16:59Z</time>
      </trkpt>
      <trkpt lat="47.21727" lon="-0.88505">
        <ele>74</ele>
        <time>2012-02-23T15:17:01Z</time>
      </trkpt>
      <trkpt lat="47.21728" lon="-0.88502">
        <ele>74</ele>
        <time>2012-02-23T15:17:03Z</time>
      </trkpt>
      <trkpt lat="47.21728" lon="-0.885">
        <ele>74</ele>
        <time>2012-02-23T15:17:04Z</time>
      </trkpt>
      <trkpt lat="47.2173" lon="-0.88498">
        <ele>74</ele>
        <time>2012-02-23T15:17:06Z</time>
      </trkpt>
      <trkpt lat="47.21731" lon="-0.88496">
        <ele>74</ele>
        <time>2012-02-23T15:17:08Z</time>
      </trkpt>
      <trkpt lat="47.21732" lon="-0.88494">
        <ele>74</ele>
        <time>2012-02-23T15:17:10Z</time>
      </trkpt>
      <trkpt lat="47.21732" lon="-0.88492">
        <ele>74</ele>
        <time>2012-02-23T15:17:11Z</time>
      </trkpt>
      <trkpt lat="47.21732" lon="-0.8849">
        <ele>75</ele>
        <time>2012-02-23T15:17:12Z</time>
      </trkpt>
      <trkpt lat="47.21733" lon="-0.88488">
        <ele>75</ele>
        <time>2012-02-23T15:17:14Z</time>
      </trkpt>
      <trkpt lat="47.21734" lon="-0.88486">
        <ele>75</ele>
        <time>2012-02-23T15:17:15Z</time>
      </trkpt>
      <trkpt lat="47.21734" lon="-0.88485">
        <ele>75</ele>
        <time>2012-02-23T15:17:16Z</time>
      </trkpt>
      <trkpt lat="47.21735" lon="-0.88482">
        <ele>75</ele>
        <time>2012-02-23T15:17:18Z</time>
      </trkpt>
      <trkpt lat="47.21735" lon="-0.88481">
        <ele>75</ele>
        <time>2012-02-23T15:17:19Z</time>
      </trkpt>
      <trkpt lat="47.21735" lon="-0.88479">
        <ele>75</ele>
        <time>2012-02-23T15:17:20Z</time>
      </trkpt>
      <trkpt lat="47.21735" lon="-0.88477">
        <ele>75</ele>
        <time>2012-02-23T15:17:22Z</time>
      </trkpt>
      <trkpt lat="47.21736" lon="-0.88475">
        <ele>75</ele>
        <time>2012-02-23T15:17:23Z</time>
      </trkpt>
      <trkpt lat="47.21736" lon="-0.88473">
        <ele>75</ele>
        <time>2012-02-23T15:17:24Z</time>
      </trkpt>
      <trkpt lat="47.21736" lon="-0.88471">
        <ele>75</ele>
        <time>2012-02-23T15:17:26Z</time>
      </trkpt>
      <trkpt lat="47.21737" lon="-0.88469">
        <ele>75</ele>
        <time>2012-02-23T15:17:27Z</time>
      </trkpt>
      <trkpt lat="47.21737" lon="-0.88467">
        <ele>75</ele>
        <time>2012-02-23T15:17:28Z</time>
      </trkpt>
      <trkpt lat="47.21737" lon="-0.88465">
        <ele>75</ele>
        <time>2012-02-23T15:17:30Z</time>
      </trkpt>
      <trkpt lat="47.21737" lon="-0.88462">
        <ele>75</ele>
        <time>2012-02-23T15:17:32Z</time>
      </trkpt>
      <trkpt lat="47.21737" lon="-0.88459">
        <ele>75</ele>
        <time>2012-02-23T15:17:34Z</time>
      </trkpt>
      <trkpt lat="47.21737" lon="-0.88456">
        <ele>75</ele>
        <time>2012-02-23T15:17:36Z</time>
      </trkpt>
      <trkpt lat="47.21737" lon="-0.88454">
        <ele>75</ele>
        <time>2012-02-23T15:17:38Z</time>
      </trkpt>
      <trkpt lat="47.21737" lon="-0.88451">
        <ele>75</ele>
        <time>2012-02-23T15:17:40Z</time>
      </trkpt>
      <trkpt lat="47.21737" lon="-0.88449">
        <ele>75</ele>
        <time>2012-02-23T15:17:41Z</time>
      </trkpt>
      <trkpt lat="47.21737" lon="-0.88447">
        <ele>75</ele>
        <time>2012-02-23T15:17:43Z</time>
      </trkpt>
      <trkpt lat="47.21737" lon="-0.88445">
        <ele>75</ele>
        <time>2012-02-23T15:17:44Z</time>
      </trkpt>
      <trkpt lat="47.21738" lon="-0.88443">
        <ele>75</ele>
        <time>2012-02-23T15:17:45Z</time>
      </trkpt>
      <trkpt lat="47.21737" lon="-0.8844">
        <ele>75</ele>
        <time>2012-02-23T15:17:47Z</time>
      </trkpt>
      <trkpt lat="47.21738" lon="-0.88438">
        <ele>75</ele>
        <time>2012-02-23T15:17:49Z</time>
      </trkpt>
      <trkpt lat="47.21738" lon="-0.88436">
        <ele>75</ele>
        <time>2012-02-23T15:17:51Z</time>
      </trkpt>
      <trkpt lat="47.21738" lon="-0.88434">
        <ele>75</ele>
        <time>2012-02-23T15:17:53Z</time>
      </trkpt>
      <trkpt lat="47.21738" lon="-0.88432">
        <ele>75</ele>
        <time>2012-02-23T15:17:54Z</time>
      </trkpt>
      <trkpt lat="47.21737" lon="-0.88429">
        <ele>75</ele>
        <time>2012-02-23T15:17:56Z</time>
      </trkpt>
      <trkpt lat="47.21737" lon="-0.88428">
        <ele>75</ele>
        <time>2012-02-23T15:17:58Z</time>
      </trkpt>
      <trkpt lat="47.21737" lon="-0.88425">
        <ele>75</ele>
        <time>2012-02-23T15:18:00Z</time>
      </trkpt>
      <trkpt lat="47.21737" lon="-0.88424">
        <ele>75</ele>
        <time>2012-02-23T15:18:01Z</time>
      </trkpt>
      <trkpt lat="47.21737" lon="-0.88421">
        <ele>75</ele>
        <time>2012-02-23T15:18:03Z</time>
      </trkpt>
      <trkpt lat="47.21737" lon="-0.8842">
        <ele>75</ele>
        <time>2012-02-23T15:18:04Z</time>
      </trkpt>
      <trkpt lat="47.21736" lon="-0.88418">
        <ele>75</ele>
        <time>2012-02-23T15:18:05Z</time>
      </trkpt>
      <trkpt lat="47.21736" lon="-0.88417">
        <ele>75</ele>
        <time>2012-02-23T15:18:06Z</time>
      </trkpt>
      <trkpt lat="47.21736" lon="-0.88415">
        <ele>75</ele>
        <time>2012-02-23T15:18:08Z</time>
      </trkpt>
      <trkpt lat="47.21736" lon="-0.88413">
        <ele>75</ele>
        <time>2012-02-23T15:18:09Z</time>
      </trkpt>
      <trkpt lat="47.21736" lon="-0.88411">
        <ele>75</ele>
        <time>2012-02-23T15:18:10Z</time>
      </trkpt>
      <trkpt lat="47.21736" lon="-0.8841">
        <ele>75</ele>
        <time>2012-02-23T15:18:11Z</time>
      </trkpt>
      <trkpt lat="47.21736" lon="-0.88407">
        <ele>75</ele>
        <time>2012-02-23T15:18:13Z</time>
      </trkpt>
      <trkpt lat="47.21735" lon="-0.88406">
        <ele>75</ele>
        <time>2012-02-23T15:18:14Z</time>
      </trkpt>
      <trkpt lat="47.21735" lon="-0.88404">
        <ele>75</ele>
        <time>2012-02-23T15:18:15Z</time>
      </trkpt>
      <trkpt lat="47.21735" lon="-0.88402">
        <ele>75</ele>
        <time>2012-02-23T15:18:17Z</time>
      </trkpt>
      <trkpt lat="47.21735" lon="-0.884">
        <ele>75</ele>
        <time>2012-02-23T15:18:19Z</time>
      </trkpt>
      <trkpt lat="47.21735" lon="-0.88398">
        <ele>75</ele>
        <time>2012-02-23T15:18:20Z</time>
      </trkpt>
      <trkpt lat="47.21735" lon="-0.88397">
        <ele>75</ele>
        <time>2012-02-23T15:18:21Z</time>
      </trkpt>
      <trkpt lat="47.21735" lon="-0.88395">
        <ele>75</ele>
        <time>2012-02-23T15:18:22Z</time>
      </trkpt>
      <trkpt lat="47.21734" lon="-0.88394">
        <ele>75</ele>
        <time>2012-02-23T15:18:23Z</time>
      </trkpt>
      <trkpt lat="47.21734" lon="-0.88392">
        <ele>75</ele>
        <time>2012-02-23T15:18:24Z</time>
      </trkpt>
      <trkpt lat="47.21733" lon="-0.8839">
        <ele>75</ele>
        <time>2012-02-23T15:18:25Z</time>
      </trkpt>
      <trkpt lat="47.21733" lon="-0.88388">
        <ele>75</ele>
        <time>2012-02-23T15:18:26Z</time>
      </trkpt>
      <trkpt lat="47.21733" lon="-0.88386">
        <ele>75</ele>
        <time>2012-02-23T15:18:27Z</time>
      </trkpt>
      <trkpt lat="47.21732" lon="-0.88384">
        <ele>75</ele>
        <time>2012-02-23T15:18:29Z</time>
      </trkpt>
      <trkpt lat="47.21732" lon="-0.88382">
        <ele>75</ele>
        <time>2012-02-23T15:18:30Z</time>
      </trkpt>
      <trkpt lat="47.21731" lon="-0.8838">
        <ele>75</ele>
        <time>2012-02-23T15:18:31Z</time>
      </trkpt>
      <trkpt lat="47.21731" lon="-0.88378">
        <ele>75</ele>
        <time>2012-02-23T15:18:33Z</time>
      </trkpt>
      <trkpt lat="47.2173" lon="-0.88375">
        <ele>75</ele>
        <time>2012-02-23T15:18:35Z</time>
      </trkpt>
      <trkpt lat="47.2173" lon="-0.88373">
        <ele>75</ele>
        <time>2012-02-23T15:18:37Z</time>
      </trkpt>
      <trkpt lat="47.21729" lon="-0.8837">
        <ele>75</ele>
        <time>2012-02-23T15:18:39Z</time>
      </trkpt>
      <trkpt lat="47.21729" lon="-0.88368">
        <ele>75</ele>
        <time>2012-02-23T15:18:40Z</time>
      </trkpt>
      <trkpt lat="47.21728" lon="-0.88365">
        <ele>75</ele>
        <time>2012-02-23T15:18:42Z</time>
      </trkpt>
      <trkpt lat="47.21728" lon="-0.88364">
        <ele>75</ele>
        <time>2012-02-23T15:18:43Z</time>
      </trkpt>
      <trkpt lat="47.21728" lon="-0.88362">
        <ele>75</ele>
        <time>2012-02-23T15:18:44Z</time>
      </trkpt>
      <trkpt lat="47.21728" lon="-0.88361">
        <ele>75</ele>
        <time>2012-02-23T15:18:45Z</time>
      </trkpt>
      <trkpt lat="47.21728" lon="-0.88358">
        <ele>75</ele>
        <time>2012-02-23T15:18:47Z</time>
      </trkpt>
      <trkpt lat="47.21728" lon="-0.88356">
        <ele>75</ele>
        <time>2012-02-23T15:18:48Z</time>
      </trkpt>
      <trkpt lat="47.21728" lon="-0.88355">
        <ele>75</ele>
        <time>2012-02-23T15:18:49Z</time>
      </trkpt>
      <trkpt lat="47.21728" lon="-0.88353">
        <ele>75</ele>
        <time>2012-02-23T15:18:50Z</time>
      </trkpt>
      <trkpt lat="47.21728" lon="-0.88352">
        <ele>75</ele>
        <time>2012-02-23T15:18:51Z</time>
      </trkpt>
      <trkpt lat="47.21728" lon="-0.8835">
        <ele>75</ele>
        <time>2012-02-23T15:18:52Z</time>
      </trkpt>
      <trkpt lat="47.21729" lon="-0.88348">
        <ele>75</ele>
        <time>2012-02-23T15:18:53Z</time>
      </trkpt>
      <trkpt lat="47.21729" lon="-0.88347">
        <ele>75</ele>
        <time>2012-02-23T15:18:54Z</time>
      </trkpt>
      <trkpt lat="47.21729" lon="-0.88345">
        <ele>75</ele>
        <time>2012-02-23T15:18:55Z</time>
      </trkpt>
      <trkpt lat="47.2173" lon="-0.88344">
        <ele>75</ele>
        <time>2012-02-23T15:18:57Z</time>
      </trkpt>
      <trkpt lat="47.21732" lon="-0.88342">
        <ele>75</ele>
        <time>2012-02-23T15:18:59Z</time>
      </trkpt>
      <trkpt lat="47.21733" lon="-0.88341">
        <ele>75</ele>
        <time>2012-02-23T15:19:01Z</time>
      </trkpt>
      <trkpt lat="47.21734" lon="-0.88341">
        <ele>75</ele>
        <time>2012-02-23T15:19:03Z</time>
      </trkpt>
      <trkpt lat="47.21736" lon="-0.88341">
        <ele>75</ele>
        <time>2012-02-23T15:19:05Z</time>
      </trkpt>
      <trkpt lat="47.21737" lon="-0.88342">
        <ele>75</ele>
        <time>2012-02-23T15:19:07Z</time>
      </trkpt>
      <trkpt lat="47.21739" lon="-0.88343">
        <ele>75</ele>
        <time>2012-02-23T15:19:09Z</time>
      </trkpt>
      <trkpt lat="47.2174" lon="-0.88343">
        <ele>75</ele>
        <time>2012-02-23T15:19:10Z</time>
      </trkpt>
      <trkpt lat="47.21741" lon="-0.88344">
        <ele>75</ele>
        <time>2012-02-23T15:19:12Z</time>
      </trkpt>
      <trkpt lat="47.21743" lon="-0.88345">
        <ele>75</ele>
        <time>2012-02-23T15:19:13Z</time>
      </trkpt>
      <trkpt lat="47.21744" lon="-0.88346">
        <ele>75</ele>
        <time>2012-02-23T15:19:15Z</time>
      </trkpt>
      <trkpt lat="47.21746" lon="-0.88347">
        <ele>75</ele>
        <time>2012-02-23T15:19:17Z</time>
      </trkpt>
      <trkpt lat="47.21747" lon="-0.88347">
        <ele>75</ele>
        <time>2012-02-23T15:19:19Z</time>
      </trkpt>
      <trkpt lat="47.21749" lon="-0.88348">
        <ele>75</ele>
        <time>2012-02-23T15:19:21Z</time>
      </trkpt>
      <trkpt lat="47.21751" lon="-0.88348">
        <ele>75</ele>
        <time>2012-02-23T15:19:22Z</time>
      </trkpt>
      <trkpt lat="47.21753" lon="-0.88349">
        <ele>75</ele>
        <time>2012-02-23T15:19:24Z</time>
      </trkpt>
      <trkpt lat="47.21754" lon="-0.8835">
        <ele>75</ele>
        <time>2012-02-23T15:19:26Z</time>
      </trkpt>
      <trkpt lat="47.21756" lon="-0.8835">
        <ele>75</ele>
        <time>2012-02-23T15:19:28Z</time>
      </trkpt>
      <trkpt lat="47.21757" lon="-0.88351">
        <ele>75</ele>
        <time>2012-02-23T15:19:32Z</time>
      </trkpt>
      <trkpt lat="47.21759" lon="-0.88352">
        <ele>75</ele>
        <time>2012-02-23T15:19:34Z</time>
      </trkpt>
      <trkpt lat="47.2176" lon="-0.88353">
        <ele>74</ele>
        <time>2012-02-23T15:19:36Z</time>
      </trkpt>
      <trkpt lat="47.21761" lon="-0.88354">
        <ele>74</ele>
        <time>2012-02-23T15:19:37Z</time>
      </trkpt>
      <trkpt lat="47.21763" lon="-0.88355">
        <ele>74</ele>
        <time>2012-02-23T15:19:39Z</time>
      </trkpt>
      <trkpt lat="47.21765" lon="-0.88356">
        <ele>74</ele>
        <time>2012-02-23T15:19:41Z</time>
      </trkpt>
      <trkpt lat="47.21766" lon="-0.88357">
        <ele>74</ele>
        <time>2012-02-23T15:19:42Z</time>
      </trkpt>
      <trkpt lat="47.21768" lon="-0.88357">
        <ele>74</ele>
        <time>2012-02-23T15:19:44Z</time>
      </trkpt>
      <trkpt lat="47.21769" lon="-0.88358">
        <ele>74</ele>
        <time>2012-02-23T15:19:46Z</time>
      </trkpt>
      <trkpt lat="47.21771" lon="-0.8836">
        <ele>74</ele>
        <time>2012-02-23T15:19:49Z</time>
      </trkpt>
      <trkpt lat="47.21772" lon="-0.88361">
        <ele>74</ele>
        <time>2012-02-23T15:19:50Z</time>
      </trkpt>
      <trkpt lat="47.21774" lon="-0.88362">
        <ele>74</ele>
        <time>2012-02-23T15:19:52Z</time>
      </trkpt>
      <trkpt lat="47.21776" lon="-0.88363">
        <ele>74</ele>
        <time>2012-02-23T15:19:54Z</time>
      </trkpt>
      <trkpt lat="47.21777" lon="-0.88364">
        <ele>74</ele>
        <time>2012-02-23T15:19:56Z</time>
      </trkpt>
      <trkpt lat="47.21779" lon="-0.88366">
        <ele>74</ele>
        <time>2012-02-23T15:19:59Z</time>
      </trkpt>
      <trkpt lat="47.2178" lon="-0.88367">
        <ele>74</ele>
        <time>2012-02-23T15:20:01Z</time>
      </trkpt>
      <trkpt lat="47.21782" lon="-0.88368">
        <ele>74</ele>
        <time>2012-02-23T15:20:03Z</time>
      </trkpt>
      <trkpt lat="47.21783" lon="-0.8837">
        <ele>74</ele>
        <time>2012-02-23T15:20:05Z</time>
      </trkpt>
      <trkpt lat="47.21785" lon="-0.88371">
        <ele>74</ele>
        <time>2012-02-23T15:20:07Z</time>
      </trkpt>
      <trkpt lat="47.21787" lon="-0.88371">
        <ele>74</ele>
        <time>2012-02-23T15:20:09Z</time>
      </trkpt>
      <trkpt lat="47.21789" lon="-0.88372">
        <ele>74</ele>
        <time>2012-02-23T15:20:11Z</time>
      </trkpt>
      <trkpt lat="47.21791" lon="-0.88373">
        <ele>74</ele>
        <time>2012-02-23T15:20:13Z</time>
      </trkpt>
      <trkpt lat="47.21792" lon="-0.88375">
        <ele>74</ele>
        <time>2012-02-23T15:20:16Z</time>
      </trkpt>
      <trkpt lat="47.21794" lon="-0.88376">
        <ele>74</ele>
        <time>2012-02-23T15:20:18Z</time>
      </trkpt>
      <trkpt lat="47.21795" lon="-0.88377">
        <ele>75</ele>
        <time>2012-02-23T15:20:20Z</time>
      </trkpt>
      <trkpt lat="47.21796" lon="-0.88377">
        <ele>76</ele>
        <time>2012-02-23T15:20:22Z</time>
      </trkpt>
      <trkpt lat="47.21798" lon="-0.88377">
        <ele>77</ele>
        <time>2012-02-23T15:20:24Z</time>
      </trkpt>
      <trkpt lat="47.21799" lon="-0.88379">
        <ele>79</ele>
        <time>2012-02-23T15:20:27Z</time>
      </trkpt>
      <trkpt lat="47.21801" lon="-0.88379">
        <ele>80</ele>
        <time>2012-02-23T15:20:29Z</time>
      </trkpt>
      <trkpt lat="47.21802" lon="-0.8838">
        <ele>81</ele>
        <time>2012-02-23T15:20:31Z</time>
      </trkpt>
      <trkpt lat="47.21804" lon="-0.8838">
        <ele>82</ele>
        <time>2012-02-23T15:20:33Z</time>
      </trkpt>
      <trkpt lat="47.21805" lon="-0.88381">
        <ele>82</ele>
        <time>2012-02-23T15:20:35Z</time>
      </trkpt>
      <trkpt lat="47.21806" lon="-0.88383">
        <ele>82</ele>
        <time>2012-02-23T15:20:36Z</time>
      </trkpt>
      <trkpt lat="47.21807" lon="-0.88384">
        <ele>82</ele>
        <time>2012-02-23T15:20:37Z</time>
      </trkpt>
      <trkpt lat="47.21809" lon="-0.88384">
        <ele>82</ele>
        <time>2012-02-23T15:20:38Z</time>
      </trkpt>
      <trkpt lat="47.2181" lon="-0.88386">
        <ele>82</ele>
        <time>2012-02-23T15:20:40Z</time>
      </trkpt>
      <trkpt lat="47.21812" lon="-0.88387">
        <ele>82</ele>
        <time>2012-02-23T15:20:42Z</time>
      </trkpt>
      <trkpt lat="47.21813" lon="-0.88388">
        <ele>82</ele>
        <time>2012-02-23T15:20:44Z</time>
      </trkpt>
      <trkpt lat="47.21815" lon="-0.88389">
        <ele>82</ele>
        <time>2012-02-23T15:20:47Z</time>
      </trkpt>
      <trkpt lat="47.21816" lon="-0.8839">
        <ele>82</ele>
        <time>2012-02-23T15:20:48Z</time>
      </trkpt>
      <trkpt lat="47.21817" lon="-0.88393">
        <ele>82</ele>
        <time>2012-02-23T15:20:50Z</time>
      </trkpt>
      <trkpt lat="47.21819" lon="-0.88395">
        <ele>82</ele>
        <time>2012-02-23T15:20:52Z</time>
      </trkpt>
      <trkpt lat="47.21821" lon="-0.88396">
        <ele>82</ele>
        <time>2012-02-23T15:20:54Z</time>
      </trkpt>
      <trkpt lat="47.21822" lon="-0.88398">
        <ele>82</ele>
        <time>2012-02-23T15:20:56Z</time>
      </trkpt>
      <trkpt lat="47.21823" lon="-0.88399">
        <ele>82</ele>
        <time>2012-02-23T15:20:58Z</time>
      </trkpt>
      <trkpt lat="47.21825" lon="-0.884">
        <ele>82</ele>
        <time>2012-02-23T15:21:00Z</time>
      </trkpt>
      <trkpt lat="47.21826" lon="-0.88401">
        <ele>82</ele>
        <time>2012-02-23T15:21:02Z</time>
      </trkpt>
      <trkpt lat="47.21827" lon="-0.88403">
        <ele>82</ele>
        <time>2012-02-23T15:21:04Z</time>
      </trkpt>
      <trkpt lat="47.2183" lon="-0.88405">
        <ele>82</ele>
        <time>2012-02-23T15:21:06Z</time>
      </trkpt>
      <trkpt lat="47.21831" lon="-0.88406">
        <ele>82</ele>
        <time>2012-02-23T15:21:08Z</time>
      </trkpt>
      <trkpt lat="47.21833" lon="-0.88407">
        <ele>82</ele>
        <time>2012-02-23T15:21:10Z</time>
      </trkpt>
      <trkpt lat="47.21835" lon="-0.88408">
        <ele>82</ele>
        <time>2012-02-23T15:21:12Z</time>
      </trkpt>
      <trkpt lat="47.21836" lon="-0.8841">
        <ele>82</ele>
        <time>2012-02-23T15:21:14Z</time>
      </trkpt>
      <trkpt lat="47.21838" lon="-0.88411">
        <ele>82</ele>
        <time>2012-02-23T15:21:16Z</time>
      </trkpt>
      <trkpt lat="47.21839" lon="-0.88412">
        <ele>82</ele>
        <time>2012-02-23T15:21:17Z</time>
      </trkpt>
      <trkpt lat="47.2184" lon="-0.88414">
        <ele>82</ele>
        <time>2012-02-23T15:21:19Z</time>
      </trkpt>
      <trkpt lat="47.21842" lon="-0.88415">
        <ele>82</ele>
        <time>2012-02-23T15:21:21Z</time>
      </trkpt>
      <trkpt lat="47.21843" lon="-0.88415">
        <ele>82</ele>
        <time>2012-02-23T15:21:23Z</time>
      </trkpt>
      <trkpt lat="47.21845" lon="-0.88417">
        <ele>82</ele>
        <time>2012-02-23T15:21:26Z</time>
      </trkpt>
      <trkpt lat="47.21845" lon="-0.88419">
        <ele>82</ele>
        <time>2012-02-23T15:21:28Z</time>
      </trkpt>
      <trkpt lat="47.21846" lon="-0.8842">
        <ele>82</ele>
        <time>2012-02-23T15:21:31Z</time>
      </trkpt>
      <trkpt lat="47.21848" lon="-0.88422">
        <ele>82</ele>
        <time>2012-02-23T15:21:34Z</time>
      </trkpt>
      <trkpt lat="47.21849" lon="-0.88424">
        <ele>82</ele>
        <time>2012-02-23T15:21:36Z</time>
      </trkpt>
      <trkpt lat="47.2185" lon="-0.88426">
        <ele>82</ele>
        <time>2012-02-23T15:21:39Z</time>
      </trkpt>
      <trkpt lat="47.21852" lon="-0.88428">
        <ele>82</ele>
        <time>2012-02-23T15:21:41Z</time>
      </trkpt>
      <trkpt lat="47.21852" lon="-0.88429">
        <ele>82</ele>
        <time>2012-02-23T15:21:42Z</time>
      </trkpt>
      <trkpt lat="47.21854" lon="-0.88431">
        <ele>82</ele>
        <time>2012-02-23T15:21:44Z</time>
      </trkpt>
      <trkpt lat="47.21854" lon="-0.88433">
        <ele>82</ele>
        <time>2012-02-23T15:21:46Z</time>
      </trkpt>
      <trkpt lat="47.21855" lon="-0.88435">
        <ele>82</ele>
        <time>2012-02-23T15:21:47Z</time>
      </trkpt>
      <trkpt lat="47.21856" lon="-0.88437">
        <ele>82</ele>
        <time>2012-02-23T15:21:49Z</time>
      </trkpt>
      <trkpt lat="47.21857" lon="-0.88438">
        <ele>82</ele>
        <time>2012-02-23T15:21:50Z</time>
      </trkpt>
      <trkpt lat="47.21859" lon="-0.8844">
        <ele>82</ele>
        <time>2012-02-23T15:21:52Z</time>
      </trkpt>
      <trkpt lat="47.21859" lon="-0.88441">
        <ele>82</ele>
        <time>2012-02-23T15:21:54Z</time>
      </trkpt>
      <trkpt lat="47.2186" lon="-0.88443">
        <ele>82</ele>
        <time>2012-02-23T15:21:57Z</time>
      </trkpt>
      <trkpt lat="47.21861" lon="-0.88445">
        <ele>82</ele>
        <time>2012-02-23T15:21:58Z</time>
      </trkpt>
      <trkpt lat="47.21862" lon="-0.88446">
        <ele>82</ele>
        <time>2012-02-23T15:22:00Z</time>
      </trkpt>
      <trkpt lat="47.21863" lon="-0.88448">
        <ele>82</ele>
        <time>2012-02-23T15:22:02Z</time>
      </trkpt>
      <trkpt lat="47.21864" lon="-0.8845">
        <ele>82</ele>
        <time>2012-02-23T15:22:04Z</time>
      </trkpt>
      <trkpt lat="47.21865" lon="-0.88451">
        <ele>82</ele>
        <time>2012-02-23T15:22:06Z</time>
      </trkpt>
      <trkpt lat="47.21867" lon="-0.88453">
        <ele>82</ele>
        <time>2012-02-23T15:22:08Z</time>
      </trkpt>
      <trkpt lat="47.21867" lon="-0.88454">
        <ele>82</ele>
        <time>2012-02-23T15:22:10Z</time>
      </trkpt>
      <trkpt lat="47.21869" lon="-0.88457">
        <ele>82</ele>
        <time>2012-02-23T15:22:12Z</time>
      </trkpt>
      <trkpt lat="47.2187" lon="-0.88459">
        <ele>82</ele>
        <time>2012-02-23T15:22:13Z</time>
      </trkpt>
      <trkpt lat="47.21871" lon="-0.8846">
        <ele>82</ele>
        <time>2012-02-23T15:22:15Z</time>
      </trkpt>
      <trkpt lat="47.21873" lon="-0.88462">
        <ele>82</ele>
        <time>2012-02-23T15:22:18Z</time>
      </trkpt>
      <trkpt lat="47.21874" lon="-0.88463">
        <ele>82</ele>
        <time>2012-02-23T15:22:20Z</time>
      </trkpt>
      <trkpt lat="47.21875" lon="-0.88464">
        <ele>82</ele>
        <time>2012-02-23T15:22:22Z</time>
      </trkpt>
      <trkpt lat="47.21877" lon="-0.88466">
        <ele>82</ele>
        <time>2012-02-23T15:22:25Z</time>
      </trkpt>
      <trkpt lat="47.21878" lon="-0.88468">
        <ele>82</ele>
        <time>2012-02-23T15:22:27Z</time>
      </trkpt>
      <trkpt lat="47.21879" lon="-0.88469">
        <ele>82</ele>
        <time>2012-02-23T15:22:29Z</time>
      </trkpt>
      <trkpt lat="47.2188" lon="-0.88471">
        <ele>82</ele>
        <time>2012-02-23T15:22:32Z</time>
      </trkpt>
      <trkpt lat="47.21881" lon="-0.88473">
        <ele>82</ele>
        <time>2012-02-23T15:22:34Z</time>
      </trkpt>
      <trkpt lat="47.21882" lon="-0.88476">
        <ele>82</ele>
        <time>2012-02-23T15:22:36Z</time>
      </trkpt>
      <trkpt lat="47.21883" lon="-0.88477">
        <ele>82</ele>
        <time>2012-02-23T15:22:40Z</time>
      </trkpt>
      <trkpt lat="47.21885" lon="-0.88479">
        <ele>82</ele>
        <time>2012-02-23T15:22:43Z</time>
      </trkpt>
      <trkpt lat="47.21886" lon="-0.88481">
        <ele>82</ele>
        <time>2012-02-23T15:22:45Z</time>
      </trkpt>
      <trkpt lat="47.21888" lon="-0.88482">
        <ele>82</ele>
        <time>2012-02-23T15:22:47Z</time>
      </trkpt>
      <trkpt lat="47.21889" lon="-0.88484">
        <ele>82</ele>
        <time>2012-02-23T15:22:49Z</time>
      </trkpt>
      <trkpt lat="47.21891" lon="-0.88486">
        <ele>82</ele>
        <time>2012-02-23T15:22:51Z</time>
      </trkpt>
      <trkpt lat="47.21892" lon="-0.88487">
        <ele>82</ele>
        <time>2012-02-23T15:22:53Z</time>
      </trkpt>
      <trkpt lat="47.21893" lon="-0.8849">
        <ele>82</ele>
        <time>2012-02-23T15:22:55Z</time>
      </trkpt>
      <trkpt lat="47.21895" lon="-0.88492">
        <ele>82</ele>
        <time>2012-02-23T15:22:57Z</time>
      </trkpt>
      <trkpt lat="47.21896" lon="-0.88494">
        <ele>82</ele>
        <time>2012-02-23T15:22:59Z</time>
      </trkpt>
      <trkpt lat="47.21898" lon="-0.88496">
        <ele>82</ele>
        <time>2012-02-23T15:23:01Z</time>
      </trkpt>
      <trkpt lat="47.21899" lon="-0.88498">
        <ele>82</ele>
        <time>2012-02-23T15:23:03Z</time>
      </trkpt>
      <trkpt lat="47.21901" lon="-0.88499">
        <ele>82</ele>
        <time>2012-02-23T15:23:05Z</time>
      </trkpt>
      <trkpt lat="47.21902" lon="-0.88503">
        <ele>82</ele>
        <time>2012-02-23T15:23:07Z</time>
      </trkpt>
      <trkpt lat="47.21904" lon="-0.88504">
        <ele>82</ele>
        <time>2012-02-23T15:23:09Z</time>
      </trkpt>
      <trkpt lat="47.21906" lon="-0.88506">
        <ele>82</ele>
        <time>2012-02-23T15:23:11Z</time>
      </trkpt>
      <trkpt lat="47.21907" lon="-0.88508">
        <ele>82</ele>
        <time>2012-02-23T15:23:13Z</time>
      </trkpt>
      <trkpt lat="47.21909" lon="-0.8851">
        <ele>82</ele>
        <time>2012-02-23T15:23:15Z</time>
      </trkpt>
      <trkpt lat="47.21911" lon="-0.88512">
        <ele>82</ele>
        <time>2012-02-23T15:23:17Z</time>
      </trkpt>
      <trkpt lat="47.21912" lon="-0.88512">
        <ele>82</ele>
        <time>2012-02-23T15:23:18Z</time>
      </trkpt>
      <trkpt lat="47.21913" lon="-0.88513">
        <ele>82</ele>
        <time>2012-02-23T15:23:19Z</time>
      </trkpt>
      <trkpt lat="47.21915" lon="-0.88515">
        <ele>82</ele>
        <time>2012-02-23T15:23:21Z</time>
      </trkpt>
      <trkpt lat="47.21916" lon="-0.88516">
        <ele>82</ele>
        <time>2012-02-23T15:23:22Z</time>
      </trkpt>
      <trkpt lat="47.21918" lon="-0.88518">
        <ele>82</ele>
        <time>2012-02-23T15:23:24Z</time>
      </trkpt>
      <trkpt lat="47.2192" lon="-0.8852">
        <ele>82</ele>
        <time>2012-02-23T15:23:26Z</time>
      </trkpt>
      <trkpt lat="47.21921" lon="-0.88521">
        <ele>82</ele>
        <time>2012-02-23T15:23:27Z</time>
      </trkpt>
      <trkpt lat="47.21923" lon="-0.88521">
        <ele>82</ele>
        <time>2012-02-23T15:23:28Z</time>
      </trkpt>
      <trkpt lat="47.21925" lon="-0.88523">
        <ele>82</ele>
        <time>2012-02-23T15:23:30Z</time>
      </trkpt>
      <trkpt lat="47.21926" lon="-0.88525">
        <ele>82</ele>
        <time>2012-02-23T15:23:32Z</time>
      </trkpt>
      <trkpt lat="47.21928" lon="-0.88526">
        <ele>82</ele>
        <time>2012-02-23T15:23:33Z</time>
      </trkpt>
      <trkpt lat="47.21929" lon="-0.88528">
        <ele>82</ele>
        <time>2012-02-23T15:23:35Z</time>
      </trkpt>
      <trkpt lat="47.21931" lon="-0.8853">
        <ele>82</ele>
        <time>2012-02-23T15:23:37Z</time>
      </trkpt>
      <trkpt lat="47.21933" lon="-0.88532">
        <ele>83</ele>
        <time>2012-02-23T15:23:39Z</time>
      </trkpt>
      <trkpt lat="47.21934" lon="-0.88534">
        <ele>83</ele>
        <time>2012-02-23T15:23:41Z</time>
      </trkpt>
      <trkpt lat="47.21936" lon="-0.88536">
        <ele>84</ele>
        <time>2012-02-23T15:23:43Z</time>
      </trkpt>
      <trkpt lat="47.21938" lon="-0.88538">
        <ele>84</ele>
        <time>2012-02-23T15:23:45Z</time>
      </trkpt>
      <trkpt lat="47.21939" lon="-0.8854">
        <ele>84</ele>
        <time>2012-02-23T15:23:47Z</time>
      </trkpt>
      <trkpt lat="47.21941" lon="-0.88542">
        <ele>84</ele>
        <time>2012-02-23T15:23:49Z</time>
      </trkpt>
      <trkpt lat="47.21943" lon="-0.88543">
        <ele>84</ele>
        <time>2012-02-23T15:23:51Z</time>
      </trkpt>
      <trkpt lat="47.21944" lon="-0.88544">
        <ele>84</ele>
        <time>2012-02-23T15:23:52Z</time>
      </trkpt>
      <trkpt lat="47.21946" lon="-0.88547">
        <ele>84</ele>
        <time>2012-02-23T15:23:54Z</time>
      </trkpt>
      <trkpt lat="47.21947" lon="-0.88549">
        <ele>84</ele>
        <time>2012-02-23T15:23:56Z</time>
      </trkpt>
      <trkpt lat="47.21949" lon="-0.8855">
        <ele>84</ele>
        <time>2012-02-23T15:23:58Z</time>
      </trkpt>
      <trkpt lat="47.21951" lon="-0.88551">
        <ele>84</ele>
        <time>2012-02-23T15:24:00Z</time>
      </trkpt>
      <trkpt lat="47.21952" lon="-0.88551">
        <ele>84</ele>
        <time>2012-02-23T15:24:02Z</time>
      </trkpt>
      <trkpt lat="47.21954" lon="-0.88552">
        <ele>84</ele>
        <time>2012-02-23T15:24:04Z</time>
      </trkpt>
      <trkpt lat="47.21955" lon="-0.88551">
        <ele>84</ele>
        <time>2012-02-23T15:24:06Z</time>
      </trkpt>
      <trkpt lat="47.21957" lon="-0.8855">
        <ele>84</ele>
        <time>2012-02-23T15:24:08Z</time>
      </trkpt>
      <trkpt lat="47.21958" lon="-0.88547">
        <ele>84</ele>
        <time>2012-02-23T15:24:10Z</time>
      </trkpt>
      <trkpt lat="47.21959" lon="-0.88547">
        <ele>85</ele>
        <time>2012-02-23T15:24:12Z</time>
      </trkpt>
      <trkpt lat="47.21961" lon="-0.88545">
        <ele>85</ele>
        <time>2012-02-23T15:24:15Z</time>
      </trkpt>
      <trkpt lat="47.21964" lon="-0.88541">
        <ele>89</ele>
        <time>2012-02-23T15:24:18Z</time>
      </trkpt>
      <trkpt lat="47.21965" lon="-0.88541">
        <ele>89</ele>
        <time>2012-02-23T15:24:25Z</time>
      </trkpt>
      <trkpt lat="47.21966" lon="-0.88539">
        <ele>89</ele>
        <time>2012-02-23T15:24:29Z</time>
      </trkpt>
      <trkpt lat="47.21967" lon="-0.88538">
        <ele>89</ele>
        <time>2012-02-23T15:24:31Z</time>
      </trkpt>
      <trkpt lat="47.21969" lon="-0.88538">
        <ele>89</ele>
        <time>2012-02-23T15:24:32Z</time>
      </trkpt>
      <trkpt lat="47.2197" lon="-0.88537">
        <ele>89</ele>
        <time>2012-02-23T15:24:34Z</time>
      </trkpt>
      <trkpt lat="47.21972" lon="-0.88534">
        <ele>89</ele>
        <time>2012-02-23T15:24:36Z</time>
      </trkpt>
      <trkpt lat="47.21974" lon="-0.88533">
        <ele>89</ele>
        <time>2012-02-23T15:24:38Z</time>
      </trkpt>
      <trkpt lat="47.21975" lon="-0.88532">
        <ele>89</ele>
        <time>2012-02-23T15:24:40Z</time>
      </trkpt>
      <trkpt lat="47.21978" lon="-0.88531">
        <ele>89</ele>
        <time>2012-02-23T15:24:42Z</time>
      </trkpt>
      <trkpt lat="47.21979" lon="-0.88529">
        <ele>89</ele>
        <time>2012-02-23T15:24:44Z</time>
      </trkpt>
      <trkpt lat="47.21981" lon="-0.88528">
        <ele>89</ele>
        <time>2012-02-23T15:24:46Z</time>
      </trkpt>
      <trkpt lat="47.21982" lon="-0.88525">
        <ele>89</ele>
        <time>2012-02-23T15:24:48Z</time>
      </trkpt>
      <trkpt lat="47.21984" lon="-0.88525">
        <ele>89</ele>
        <time>2012-02-23T15:24:50Z</time>
      </trkpt>
      <trkpt lat="47.21985" lon="-0.88524">
        <ele>89</ele>
        <time>2012-02-23T15:24:51Z</time>
      </trkpt>
      <trkpt lat="47.21987" lon="-0.88524">
        <ele>89</ele>
        <time>2012-02-23T15:24:53Z</time>
      </trkpt>
      <trkpt lat="47.21989" lon="-0.88522">
        <ele>89</ele>
        <time>2012-02-23T15:24:55Z</time>
      </trkpt>
      <trkpt lat="47.2199" lon="-0.88522">
        <ele>89</ele>
        <time>2012-02-23T15:24:56Z</time>
      </trkpt>
      <trkpt lat="47.21992" lon="-0.8852">
        <ele>89</ele>
        <time>2012-02-23T15:24:58Z</time>
      </trkpt>
      <trkpt lat="47.21994" lon="-0.88519">
        <ele>89</ele>
        <time>2012-02-23T15:25:00Z</time>
      </trkpt>
      <trkpt lat="47.21995" lon="-0.88518">
        <ele>89</ele>
        <time>2012-02-23T15:25:02Z</time>
      </trkpt>
      <trkpt lat="47.21997" lon="-0.88517">
        <ele>89</ele>
        <time>2012-02-23T15:25:03Z</time>
      </trkpt>
      <trkpt lat="47.21999" lon="-0.88515">
        <ele>89</ele>
        <time>2012-02-23T15:25:05Z</time>
      </trkpt>
      <trkpt lat="47.22" lon="-0.88515">
        <ele>89</ele>
        <time>2012-02-23T15:25:06Z</time>
      </trkpt>
      <trkpt lat="47.22002" lon="-0.88513">
        <ele>89</ele>
        <time>2012-02-23T15:25:08Z</time>
      </trkpt>
      <trkpt lat="47.22004" lon="-0.88511">
        <ele>89</ele>
        <time>2012-02-23T15:25:10Z</time>
      </trkpt>
      <trkpt lat="47.22005" lon="-0.8851">
        <ele>89</ele>
        <time>2012-02-23T15:25:11Z</time>
      </trkpt>
      <trkpt lat="47.22007" lon="-0.88509">
        <ele>89</ele>
        <time>2012-02-23T15:25:13Z</time>
      </trkpt>
      <trkpt lat="47.22009" lon="-0.88507">
        <ele>89</ele>
        <time>2012-02-23T15:25:15Z</time>
      </trkpt>
      <trkpt lat="47.22011" lon="-0.88505">
        <ele>89</ele>
        <time>2012-02-23T15:25:17Z</time>
      </trkpt>
      <trkpt lat="47.22013" lon="-0.88504">
        <ele>89</ele>
        <time>2012-02-23T15:25:19Z</time>
      </trkpt>
      <trkpt lat="47.22014" lon="-0.88503">
        <ele>89</ele>
        <time>2012-02-23T15:25:20Z</time>
      </trkpt>
      <trkpt lat="47.22015" lon="-0.88502">
        <ele>89</ele>
        <time>2012-02-23T15:25:21Z</time>
      </trkpt>
      <trkpt lat="47.22017" lon="-0.885">
        <ele>89</ele>
        <time>2012-02-23T15:25:23Z</time>
      </trkpt>
      <trkpt lat="47.22019" lon="-0.88499">
        <ele>89</ele>
        <time>2012-02-23T15:25:25Z</time>
      </trkpt>
      <trkpt lat="47.22021" lon="-0.88498">
        <ele>89</ele>
        <time>2012-02-23T15:25:27Z</time>
      </trkpt>
      <trkpt lat="47.22023" lon="-0.88496">
        <ele>89</ele>
        <time>2012-02-23T15:25:29Z</time>
      </trkpt>
      <trkpt lat="47.22025" lon="-0.88495">
        <ele>89</ele>
        <time>2012-02-23T15:25:31Z</time>
      </trkpt>
      <trkpt lat="47.22027" lon="-0.88493">
        <ele>89</ele>
        <time>2012-02-23T15:25:33Z</time>
      </trkpt>
      <trkpt lat="47.22029" lon="-0.88491">
        <ele>89</ele>
        <time>2012-02-23T15:25:35Z</time>
      </trkpt>
      <trkpt lat="47.22031" lon="-0.88489">
        <ele>89</ele>
        <time>2012-02-23T15:25:37Z</time>
      </trkpt>
      <trkpt lat="47.22032" lon="-0.88488">
        <ele>89</ele>
        <time>2012-02-23T15:25:38Z</time>
      </trkpt>
      <trkpt lat="47.22034" lon="-0.88486">
        <ele>89</ele>
        <time>2012-02-23T15:25:40Z</time>
      </trkpt>
      <trkpt lat="47.22036" lon="-0.88486">
        <ele>89</ele>
        <time>2012-02-23T15:25:41Z</time>
      </trkpt>
      <trkpt lat="47.22038" lon="-0.88484">
        <ele>89</ele>
        <time>2012-02-23T15:25:43Z</time>
      </trkpt>
      <trkpt lat="47.2204" lon="-0.88482">
        <ele>89</ele>
        <time>2012-02-23T15:25:45Z</time>
      </trkpt>
      <trkpt lat="47.22041" lon="-0.88481">
        <ele>89</ele>
        <time>2012-02-23T15:25:46Z</time>
      </trkpt>
      <trkpt lat="47.22043" lon="-0.8848">
        <ele>89</ele>
        <time>2012-02-23T15:25:48Z</time>
      </trkpt>
      <trkpt lat="47.22046" lon="-0.88478">
        <ele>89</ele>
        <time>2012-02-23T15:25:50Z</time>
      </trkpt>
      <trkpt lat="47.22047" lon="-0.88477">
        <ele>89</ele>
        <time>2012-02-23T15:25:51Z</time>
      </trkpt>
      <trkpt lat="47.22049" lon="-0.88476">
        <ele>89</ele>
        <time>2012-02-23T15:25:53Z</time>
      </trkpt>
      <trkpt lat="47.22051" lon="-0.88475">
        <ele>89</ele>
        <time>2012-02-23T15:25:55Z</time>
      </trkpt>
      <trkpt lat="47.22052" lon="-0.88474">
        <ele>89</ele>
        <time>2012-02-23T15:25:56Z</time>
      </trkpt>
      <trkpt lat="47.22053" lon="-0.88473">
        <ele>89</ele>
        <time>2012-02-23T15:25:57Z</time>
      </trkpt>
      <trkpt lat="47.22055" lon="-0.88472">
        <ele>89</ele>
        <time>2012-02-23T15:25:59Z</time>
      </trkpt>
      <trkpt lat="47.22057" lon="-0.8847">
        <ele>89</ele>
        <time>2012-02-23T15:26:01Z</time>
      </trkpt>
      <trkpt lat="47.22058" lon="-0.88469">
        <ele>89</ele>
        <time>2012-02-23T15:26:02Z</time>
      </trkpt>
      <trkpt lat="47.2206" lon="-0.88468">
        <ele>89</ele>
        <time>2012-02-23T15:26:03Z</time>
      </trkpt>
      <trkpt lat="47.22061" lon="-0.88467">
        <ele>89</ele>
        <time>2012-02-23T15:26:05Z</time>
      </trkpt>
      <trkpt lat="47.22063" lon="-0.88465">
        <ele>89</ele>
        <time>2012-02-23T15:26:07Z</time>
      </trkpt>
      <trkpt lat="47.22065" lon="-0.88464">
        <ele>89</ele>
        <time>2012-02-23T15:26:08Z</time>
      </trkpt>
      <trkpt lat="47.22066" lon="-0.88463">
        <ele>89</ele>
        <time>2012-02-23T15:26:09Z</time>
      </trkpt>
      <trkpt lat="47.22068" lon="-0.88462">
        <ele>89</ele>
        <time>2012-02-23T15:26:11Z</time>
      </trkpt>
      <trkpt lat="47.2207" lon="-0.8846">
        <ele>89</ele>
        <time>2012-02-23T15:26:13Z</time>
      </trkpt>
      <trkpt lat="47.22071" lon="-0.88459">
        <ele>89</ele>
        <time>2012-02-23T15:26:14Z</time>
      </trkpt>
      <trkpt lat="47.22072" lon="-0.88459">
        <ele>89</ele>
        <time>2012-02-23T15:26:15Z</time>
      </trkpt>
      <trkpt lat="47.22074" lon="-0.88458">
        <ele>89</ele>
        <time>2012-02-23T15:26:17Z</time>
      </trkpt>
      <trkpt lat="47.22076" lon="-0.88457">
        <ele>89</ele>
        <time>2012-02-23T15:26:18Z</time>
      </trkpt>
      <trkpt lat="47.22077" lon="-0.88456">
        <ele>89</ele>
        <time>2012-02-23T15:26:19Z</time>
      </trkpt>
      <trkpt lat="47.22078" lon="-0.88455">
        <ele>89</ele>
        <time>2012-02-23T15:26:20Z</time>
      </trkpt>
      <trkpt lat="47.22079" lon="-0.88455">
        <ele>89</ele>
        <time>2012-02-23T15:26:21Z</time>
      </trkpt>
      <trkpt lat="47.22081" lon="-0.88453">
        <ele>89</ele>
        <time>2012-02-23T15:26:23Z</time>
      </trkpt>
      <trkpt lat="47.22082" lon="-0.88452">
        <ele>89</ele>
        <time>2012-02-23T15:26:24Z</time>
      </trkpt>
      <trkpt lat="47.22083" lon="-0.88451">
        <ele>89</ele>
        <time>2012-02-23T15:26:25Z</time>
      </trkpt>
      <trkpt lat="47.22085" lon="-0.8845">
        <ele>89</ele>
        <time>2012-02-23T15:26:27Z</time>
      </trkpt>
      <trkpt lat="47.22087" lon="-0.88449">
        <ele>89</ele>
        <time>2012-02-23T15:26:29Z</time>
      </trkpt>
      <trkpt lat="47.22089" lon="-0.88447">
        <ele>89</ele>
        <time>2012-02-23T15:26:31Z</time>
      </trkpt>
      <trkpt lat="47.22091" lon="-0.88446">
        <ele>89</ele>
        <time>2012-02-23T15:26:33Z</time>
      </trkpt>
      <trkpt lat="47.22092" lon="-0.88446">
        <ele>89</ele>
        <time>2012-02-23T15:26:34Z</time>
      </trkpt>
      <trkpt lat="47.22094" lon="-0.88445">
        <ele>89</ele>
        <time>2012-02-23T15:26:35Z</time>
      </trkpt>
      <trkpt lat="47.22095" lon="-0.88444">
        <ele>89</ele>
        <time>2012-02-23T15:26:37Z</time>
      </trkpt>
      <trkpt lat="47.22098" lon="-0.88442">
        <ele>89</ele>
        <time>2012-02-23T15:26:39Z</time>
      </trkpt>
      <trkpt lat="47.22099" lon="-0.88441">
        <ele>89</ele>
        <time>2012-02-23T15:26:40Z</time>
      </trkpt>
      <trkpt lat="47.221" lon="-0.8844">
        <ele>89</ele>
        <time>2012-02-23T15:26:41Z</time>
      </trkpt>
      <trkpt lat="47.22102" lon="-0.88439">
        <ele>89</ele>
        <time>2012-02-23T15:26:43Z</time>
      </trkpt>
      <trkpt lat="47.22104" lon="-0.88437">
        <ele>89</ele>
        <time>2012-02-23T15:26:45Z</time>
      </trkpt>
      <trkpt lat="47.22106" lon="-0.88437">
        <ele>89</ele>
        <time>2012-02-23T15:26:47Z</time>
      </trkpt>
      <trkpt lat="47.22108" lon="-0.88435">
        <ele>89</ele>
        <time>2012-02-23T15:26:49Z</time>
      </trkpt>
      <trkpt lat="47.22109" lon="-0.88434">
        <ele>89</ele>
        <time>2012-02-23T15:26:50Z</time>
      </trkpt>
      <trkpt lat="47.2211" lon="-0.88434">
        <ele>89</ele>
        <time>2012-02-23T15:26:51Z</time>
      </trkpt>
      <trkpt lat="47.22112" lon="-0.88432">
        <ele>89</ele>
        <time>2012-02-23T15:26:53Z</time>
      </trkpt>
      <trkpt lat="47.22114" lon="-0.88431">
        <ele>89</ele>
        <time>2012-02-23T15:26:55Z</time>
      </trkpt>
      <trkpt lat="47.22116" lon="-0.88429">
        <ele>89</ele>
        <time>2012-02-23T15:26:57Z</time>
      </trkpt>
      <trkpt lat="47.22118" lon="-0.88427">
        <ele>89</ele>
        <time>2012-02-23T15:26:59Z</time>
      </trkpt>
      <trkpt lat="47.2212" lon="-0.88426">
        <ele>89</ele>
        <time>2012-02-23T15:27:01Z</time>
      </trkpt>
      <trkpt lat="47.22121" lon="-0.88426">
        <ele>89</ele>
        <time>2012-02-23T15:27:02Z</time>
      </trkpt>
      <trkpt lat="47.22122" lon="-0.88425">
        <ele>89</ele>
        <time>2012-02-23T15:27:03Z</time>
      </trkpt>
      <trkpt lat="47.22124" lon="-0.88424">
        <ele>89</ele>
        <time>2012-02-23T15:27:05Z</time>
      </trkpt>
      <trkpt lat="47.22126" lon="-0.88423">
        <ele>89</ele>
        <time>2012-02-23T15:27:06Z</time>
      </trkpt>
      <trkpt lat="47.22127" lon="-0.88422">
        <ele>89</ele>
        <time>2012-02-23T15:27:07Z</time>
      </trkpt>
      <trkpt lat="47.22129" lon="-0.88421">
        <ele>89</ele>
        <time>2012-02-23T15:27:09Z</time>
      </trkpt>
      <trkpt lat="47.2213" lon="-0.8842">
        <ele>89</ele>
        <time>2012-02-23T15:27:10Z</time>
      </trkpt>
      <trkpt lat="47.22131" lon="-0.8842">
        <ele>89</ele>
        <time>2012-02-23T15:27:11Z</time>
      </trkpt>
      <trkpt lat="47.22132" lon="-0.88419">
        <ele>89</ele>
        <time>2012-02-23T15:27:12Z</time>
      </trkpt>
      <trkpt lat="47.22134" lon="-0.88419">
        <ele>89</ele>
        <time>2012-02-23T15:27:13Z</time>
      </trkpt>
      <trkpt lat="47.22135" lon="-0.88419">
        <ele>89</ele>
        <time>2012-02-23T15:27:14Z</time>
      </trkpt>
      <trkpt lat="47.22136" lon="-0.88418">
        <ele>89</ele>
        <time>2012-02-23T15:27:15Z</time>
      </trkpt>
      <trkpt lat="47.22138" lon="-0.88418">
        <ele>89</ele>
        <time>2012-02-23T15:27:16Z</time>
      </trkpt>
      <trkpt lat="47.22139" lon="-0.88417">
        <ele>89</ele>
        <time>2012-02-23T15:27:17Z</time>
      </trkpt>
      <trkpt lat="47.2214" lon="-0.88416">
        <ele>89</ele>
        <time>2012-02-23T15:27:18Z</time>
      </trkpt>
      <trkpt lat="47.22141" lon="-0.88416">
        <ele>89</ele>
        <time>2012-02-23T15:27:19Z</time>
      </trkpt>
      <trkpt lat="47.22144" lon="-0.88415">
        <ele>89</ele>
        <time>2012-02-23T15:27:21Z</time>
      </trkpt>
      <trkpt lat="47.22146" lon="-0.88414">
        <ele>89</ele>
        <time>2012-02-23T15:27:23Z</time>
      </trkpt>
      <trkpt lat="47.22148" lon="-0.88413">
        <ele>89</ele>
        <time>2012-02-23T15:27:25Z</time>
      </trkpt>
      <trkpt lat="47.2215" lon="-0.88412">
        <ele>89</ele>
        <time>2012-02-23T15:27:27Z</time>
      </trkpt>
      <trkpt lat="47.22151" lon="-0.88411">
        <ele>89</ele>
        <time>2012-02-23T15:27:28Z</time>
      </trkpt>
      <trkpt lat="47.22153" lon="-0.8841">
        <ele>89</ele>
        <time>2012-02-23T15:27:30Z</time>
      </trkpt>
      <trkpt lat="47.22155" lon="-0.88409">
        <ele>89</ele>
        <time>2012-02-23T15:27:32Z</time>
      </trkpt>
      <trkpt lat="47.22156" lon="-0.88409">
        <ele>89</ele>
        <time>2012-02-23T15:27:33Z</time>
      </trkpt>
      <trkpt lat="47.22158" lon="-0.88409">
        <ele>89</ele>
        <time>2012-02-23T15:27:34Z</time>
      </trkpt>
      <trkpt lat="47.22159" lon="-0.88408">
        <ele>89</ele>
        <time>2012-02-23T15:27:36Z</time>
      </trkpt>
      <trkpt lat="47.22161" lon="-0.88409">
        <ele>89</ele>
        <time>2012-02-23T15:27:38Z</time>
      </trkpt>
      <trkpt lat="47.22163" lon="-0.8841">
        <ele>89</ele>
        <time>2012-02-23T15:27:40Z</time>
      </trkpt>
      <trkpt lat="47.22165" lon="-0.88411">
        <ele>89</ele>
        <time>2012-02-23T15:27:42Z</time>
      </trkpt>
      <trkpt lat="47.22166" lon="-0.88412">
        <ele>89</ele>
        <time>2012-02-23T15:27:44Z</time>
      </trkpt>
      <trkpt lat="47.22168" lon="-0.88414">
        <ele>89</ele>
        <time>2012-02-23T15:27:46Z</time>
      </trkpt>
      <trkpt lat="47.22169" lon="-0.88414">
        <ele>89</ele>
        <time>2012-02-23T15:27:47Z</time>
      </trkpt>
      <trkpt lat="47.22171" lon="-0.88414">
        <ele>89</ele>
        <time>2012-02-23T15:27:48Z</time>
      </trkpt>
      <trkpt lat="47.22173" lon="-0.88415">
        <ele>89</ele>
        <time>2012-02-23T15:27:50Z</time>
      </trkpt>
      <trkpt lat="47.22175" lon="-0.88415">
        <ele>89</ele>
        <time>2012-02-23T15:27:52Z</time>
      </trkpt>
      <trkpt lat="47.22176" lon="-0.88415">
        <ele>89</ele>
        <time>2012-02-23T15:27:53Z</time>
      </trkpt>
      <trkpt lat="47.22178" lon="-0.88415">
        <ele>89</ele>
        <time>2012-02-23T15:27:55Z</time>
      </trkpt>
      <trkpt lat="47.2218" lon="-0.88415">
        <ele>89</ele>
        <time>2012-02-23T15:27:57Z</time>
      </trkpt>
      <trkpt lat="47.22181" lon="-0.88416">
        <ele>89</ele>
        <time>2012-02-23T15:27:58Z</time>
      </trkpt>
      <trkpt lat="47.22184" lon="-0.88416">
        <ele>89</ele>
        <time>2012-02-23T15:28:00Z</time>
      </trkpt>
      <trkpt lat="47.22186" lon="-0.88416">
        <ele>89</ele>
        <time>2012-02-23T15:28:02Z</time>
      </trkpt>
      <trkpt lat="47.22187" lon="-0.88416">
        <ele>89</ele>
        <time>2012-02-23T15:28:04Z</time>
      </trkpt>
      <trkpt lat="47.22189" lon="-0.88416">
        <ele>89</ele>
        <time>2012-02-23T15:28:05Z</time>
      </trkpt>
      <trkpt lat="47.2219" lon="-0.88416">
        <ele>89</ele>
        <time>2012-02-23T15:28:06Z</time>
      </trkpt>
      <trkpt lat="47.22191" lon="-0.88416">
        <ele>89</ele>
        <time>2012-02-23T15:28:07Z</time>
      </trkpt>
      <trkpt lat="47.22192" lon="-0.88416">
        <ele>89</ele>
        <time>2012-02-23T15:28:08Z</time>
      </trkpt>
      <trkpt lat="47.22194" lon="-0.88416">
        <ele>89</ele>
        <time>2012-02-23T15:28:10Z</time>
      </trkpt>
      <trkpt lat="47.22195" lon="-0.88416">
        <ele>89</ele>
        <time>2012-02-23T15:28:11Z</time>
      </trkpt>
      <trkpt lat="47.22197" lon="-0.88416">
        <ele>89</ele>
        <time>2012-02-23T15:28:13Z</time>
      </trkpt>
      <trkpt lat="47.22199" lon="-0.88416">
        <ele>89</ele>
        <time>2012-02-23T15:28:15Z</time>
      </trkpt>
      <trkpt lat="47.22201" lon="-0.88417">
        <ele>89</ele>
        <time>2012-02-23T15:28:16Z</time>
      </trkpt>
      <trkpt lat="47.22203" lon="-0.88417">
        <ele>89</ele>
        <time>2012-02-23T15:28:18Z</time>
      </trkpt>
      <trkpt lat="47.22204" lon="-0.88417">
        <ele>89</ele>
        <time>2012-02-23T15:28:19Z</time>
      </trkpt>
      <trkpt lat="47.22205" lon="-0.88417">
        <ele>89</ele>
        <time>2012-02-23T15:28:20Z</time>
      </trkpt>
      <trkpt lat="47.22207" lon="-0.88417">
        <ele>89</ele>
        <time>2012-02-23T15:28:22Z</time>
      </trkpt>
      <trkpt lat="47.22208" lon="-0.88417">
        <ele>89</ele>
        <time>2012-02-23T15:28:23Z</time>
      </trkpt>
      <trkpt lat="47.2221" lon="-0.88417">
        <ele>89</ele>
        <time>2012-02-23T15:28:24Z</time>
      </trkpt>
      <trkpt lat="47.22211" lon="-0.88416">
        <ele>89</ele>
        <time>2012-02-23T15:28:26Z</time>
      </trkpt>
      <trkpt lat="47.22213" lon="-0.88416">
        <ele>89</ele>
        <time>2012-02-23T15:28:27Z</time>
      </trkpt>
      <trkpt lat="47.22215" lon="-0.88416">
        <ele>89</ele>
        <time>2012-02-23T15:28:29Z</time>
      </trkpt>
      <trkpt lat="47.22216" lon="-0.88416">
        <ele>89</ele>
        <time>2012-02-23T15:28:31Z</time>
      </trkpt>
      <trkpt lat="47.22218" lon="-0.88415">
        <ele>89</ele>
        <time>2012-02-23T15:28:33Z</time>
      </trkpt>
      <trkpt lat="47.2222" lon="-0.88414">
        <ele>89</ele>
        <time>2012-02-23T15:28:35Z</time>
      </trkpt>
      <trkpt lat="47.22222" lon="-0.88413">
        <ele>89</ele>
        <time>2012-02-23T15:28:37Z</time>
      </trkpt>
      <trkpt lat="47.22224" lon="-0.88413">
        <ele>89</ele>
        <time>2012-02-23T15:28:39Z</time>
      </trkpt>
      <trkpt lat="47.22225" lon="-0.88413">
        <ele>89</ele>
        <time>2012-02-23T15:28:40Z</time>
      </trkpt>
      <trkpt lat="47.22226" lon="-0.88413">
        <ele>89</ele>
        <time>2012-02-23T15:28:41Z</time>
      </trkpt>
      <trkpt lat="47.22227" lon="-0.88413">
        <ele>89</ele>
        <time>2012-02-23T15:28:42Z</time>
      </trkpt>
      <trkpt lat="47.22229" lon="-0.88412">
        <ele>89</ele>
        <time>2012-02-23T15:28:43Z</time>
      </trkpt>
      <trkpt lat="47.22231" lon="-0.88412">
        <ele>89</ele>
        <time>2012-02-23T15:28:45Z</time>
      </trkpt>
      <trkpt lat="47.22233" lon="-0.88412">
        <ele>89</ele>
        <time>2012-02-23T15:28:47Z</time>
      </trkpt>
      <trkpt lat="47.22235" lon="-0.88412">
        <ele>89</ele>
        <time>2012-02-23T15:28:48Z</time>
      </trkpt>
      <trkpt lat="47.22236" lon="-0.88412">
        <ele>89</ele>
        <time>2012-02-23T15:28:49Z</time>
      </trkpt>
      <trkpt lat="47.22237" lon="-0.88411">
        <ele>89</ele>
        <time>2012-02-23T15:28:50Z</time>
      </trkpt>
      <trkpt lat="47.22239" lon="-0.88411">
        <ele>89</ele>
        <time>2012-02-23T15:28:52Z</time>
      </trkpt>
      <trkpt lat="47.2224" lon="-0.88411">
        <ele>89</ele>
        <time>2012-02-23T15:28:53Z</time>
      </trkpt>
      <trkpt lat="47.22242" lon="-0.8841">
        <ele>89</ele>
        <time>2012-02-23T15:28:54Z</time>
      </trkpt>
      <trkpt lat="47.22243" lon="-0.8841">
        <ele>89</ele>
        <time>2012-02-23T15:28:55Z</time>
      </trkpt>
      <trkpt lat="47.22245" lon="-0.8841">
        <ele>89</ele>
        <time>2012-02-23T15:28:57Z</time>
      </trkpt>
      <trkpt lat="47.22247" lon="-0.8841">
        <ele>89</ele>
        <time>2012-02-23T15:28:58Z</time>
      </trkpt>
      <trkpt lat="47.22248" lon="-0.8841">
        <ele>89</ele>
        <time>2012-02-23T15:28:59Z</time>
      </trkpt>
      <trkpt lat="47.2225" lon="-0.88409">
        <ele>89</ele>
        <time>2012-02-23T15:29:01Z</time>
      </trkpt>
      <trkpt lat="47.22251" lon="-0.88408">
        <ele>89</ele>
        <time>2012-02-23T15:29:02Z</time>
      </trkpt>
      <trkpt lat="47.22253" lon="-0.88408">
        <ele>89</ele>
        <time>2012-02-23T15:29:04Z</time>
      </trkpt>
      <trkpt lat="47.22255" lon="-0.88407">
        <ele>89</ele>
        <time>2012-02-23T15:29:06Z</time>
      </trkpt>
      <trkpt lat="47.22256" lon="-0.88406">
        <ele>89</ele>
        <time>2012-02-23T15:29:07Z</time>
      </trkpt>
      <trkpt lat="47.22258" lon="-0.88406">
        <ele>89</ele>
        <time>2012-02-23T15:29:09Z</time>
      </trkpt>
      <trkpt lat="47.2226" lon="-0.88405">
        <ele>89</ele>
        <time>2012-02-23T15:29:11Z</time>
      </trkpt>
      <trkpt lat="47.22261" lon="-0.88405">
        <ele>89</ele>
        <time>2012-02-23T15:29:12Z</time>
      </trkpt>
      <trkpt lat="47.22263" lon="-0.88405">
        <ele>89</ele>
        <time>2012-02-23T15:29:14Z</time>
      </trkpt>
      <trkpt lat="47.22264" lon="-0.88405">
        <ele>89</ele>
        <time>2012-02-23T15:29:15Z</time>
      </trkpt>
      <trkpt lat="47.22266" lon="-0.88405">
        <ele>89</ele>
        <time>2012-02-23T15:29:16Z</time>
      </trkpt>
      <trkpt lat="47.22268" lon="-0.88405">
        <ele>89</ele>
        <time>2012-02-23T15:29:18Z</time>
      </trkpt>
      <trkpt lat="47.22269" lon="-0.88404">
        <ele>89</ele>
        <time>2012-02-23T15:29:19Z</time>
      </trkpt>
      <trkpt lat="47.2227" lon="-0.88404">
        <ele>89</ele>
        <time>2012-02-23T15:29:20Z</time>
      </trkpt>
      <trkpt lat="47.22271" lon="-0.88404">
        <ele>89</ele>
        <time>2012-02-23T15:29:21Z</time>
      </trkpt>
      <trkpt lat="47.22273" lon="-0.88404">
        <ele>89</ele>
        <time>2012-02-23T15:29:23Z</time>
      </trkpt>
      <trkpt lat="47.22274" lon="-0.88404">
        <ele>89</ele>
        <time>2012-02-23T15:29:25Z</time>
      </trkpt>
      <trkpt lat="47.22276" lon="-0.88403">
        <ele>89</ele>
        <time>2012-02-23T15:29:27Z</time>
      </trkpt>
      <trkpt lat="47.22278" lon="-0.88403">
        <ele>89</ele>
        <time>2012-02-23T15:29:29Z</time>
      </trkpt>
      <trkpt lat="47.2228" lon="-0.88402">
        <ele>89</ele>
        <time>2012-02-23T15:29:31Z</time>
      </trkpt>
      <trkpt lat="47.22281" lon="-0.88402">
        <ele>89</ele>
        <time>2012-02-23T15:29:33Z</time>
      </trkpt>
      <trkpt lat="47.22283" lon="-0.88403">
        <ele>89</ele>
        <time>2012-02-23T15:29:35Z</time>
      </trkpt>
      <trkpt lat="47.22285" lon="-0.88403">
        <ele>89</ele>
        <time>2012-02-23T15:29:37Z</time>
      </trkpt>
      <trkpt lat="47.22286" lon="-0.88403">
        <ele>89</ele>
        <time>2012-02-23T15:29:38Z</time>
      </trkpt>
      <trkpt lat="47.22288" lon="-0.88402">
        <ele>89</ele>
        <time>2012-02-23T15:29:39Z</time>
      </trkpt>
      <trkpt lat="47.22289" lon="-0.88402">
        <ele>89</ele>
        <time>2012-02-23T15:29:40Z</time>
      </trkpt>
      <trkpt lat="47.2229" lon="-0.88402">
        <ele>89</ele>
        <time>2012-02-23T15:29:41Z</time>
      </trkpt>
      <trkpt lat="47.22292" lon="-0.88402">
        <ele>89</ele>
        <time>2012-02-23T15:29:42Z</time>
      </trkpt>
      <trkpt lat="47.22293" lon="-0.88402">
        <ele>89</ele>
        <time>2012-02-23T15:29:43Z</time>
      </trkpt>
      <trkpt lat="47.22294" lon="-0.88402">
        <ele>89</ele>
        <time>2012-02-23T15:29:44Z</time>
      </trkpt>
      <trkpt lat="47.22295" lon="-0.88401">
        <ele>89</ele>
        <time>2012-02-23T15:29:45Z</time>
      </trkpt>
      <trkpt lat="47.22297" lon="-0.88401">
        <ele>89</ele>
        <time>2012-02-23T15:29:47Z</time>
      </trkpt>
      <trkpt lat="47.22299" lon="-0.88401">
        <ele>89</ele>
        <time>2012-02-23T15:29:48Z</time>
      </trkpt>
      <trkpt lat="47.22301" lon="-0.88401">
        <ele>89</ele>
        <time>2012-02-23T15:29:50Z</time>
      </trkpt>
      <trkpt lat="47.22303" lon="-0.88401">
        <ele>89</ele>
        <time>2012-02-23T15:29:52Z</time>
      </trkpt>
      <trkpt lat="47.22305" lon="-0.88401">
        <ele>89</ele>
        <time>2012-02-23T15:29:54Z</time>
      </trkpt>
      <trkpt lat="47.22307" lon="-0.88401">
        <ele>89</ele>
        <time>2012-02-23T15:29:56Z</time>
      </trkpt>
      <trkpt lat="47.22308" lon="-0.88401">
        <ele>89</ele>
        <time>2012-02-23T15:29:57Z</time>
      </trkpt>
      <trkpt lat="47.2231" lon="-0.88401">
        <ele>89</ele>
        <time>2012-02-23T15:29:59Z</time>
      </trkpt>
      <trkpt lat="47.22312" lon="-0.88401">
        <ele>89</ele>
        <time>2012-02-23T15:30:01Z</time>
      </trkpt>
      <trkpt lat="47.22314" lon="-0.88401">
        <ele>89</ele>
        <time>2012-02-23T15:30:03Z</time>
      </trkpt>
      <trkpt lat="47.22315" lon="-0.88401">
        <ele>89</ele>
        <time>2012-02-23T15:30:04Z</time>
      </trkpt>
      <trkpt lat="47.22316" lon="-0.88401">
        <ele>89</ele>
        <time>2012-02-23T15:30:05Z</time>
      </trkpt>
      <trkpt lat="47.22318" lon="-0.88402">
        <ele>89</ele>
        <time>2012-02-23T15:30:06Z</time>
      </trkpt>
      <trkpt lat="47.2232" lon="-0.88402">
        <ele>89</ele>
        <time>2012-02-23T15:30:08Z</time>
      </trkpt>
      <trkpt lat="47.22321" lon="-0.88402">
        <ele>89</ele>
        <time>2012-02-23T15:30:09Z</time>
      </trkpt>
      <trkpt lat="47.22322" lon="-0.88401">
        <ele>89</ele>
        <time>2012-02-23T15:30:10Z</time>
      </trkpt>
      <trkpt lat="47.22323" lon="-0.88402">
        <ele>89</ele>
        <time>2012-02-23T15:30:11Z</time>
      </trkpt>
      <trkpt lat="47.22324" lon="-0.88402">
        <ele>89</ele>
        <time>2012-02-23T15:30:12Z</time>
      </trkpt>
      <trkpt lat="47.22327" lon="-0.88402">
        <ele>89</ele>
        <time>2012-02-23T15:30:14Z</time>
      </trkpt>
      <trkpt lat="47.22328" lon="-0.88402">
        <ele>89</ele>
        <time>2012-02-23T15:30:15Z</time>
      </trkpt>
      <trkpt lat="47.22329" lon="-0.88402">
        <ele>89</ele>
        <time>2012-02-23T15:30:16Z</time>
      </trkpt>
      <trkpt lat="47.2233" lon="-0.88402">
        <ele>89</ele>
        <time>2012-02-23T15:30:17Z</time>
      </trkpt>
      <trkpt lat="47.22333" lon="-0.88402">
        <ele>89</ele>
        <time>2012-02-23T15:30:19Z</time>
      </trkpt>
      <trkpt lat="47.22334" lon="-0.88402">
        <ele>89</ele>
        <time>2012-02-23T15:30:20Z</time>
      </trkpt>
      <trkpt lat="47.22335" lon="-0.88402">
        <ele>89</ele>
        <time>2012-02-23T15:30:21Z</time>
      </trkpt>
      <trkpt lat="47.22337" lon="-0.88403">
        <ele>89</ele>
        <time>2012-02-23T15:30:23Z</time>
      </trkpt>
      <trkpt lat="47.2234" lon="-0.88403">
        <ele>89</ele>
        <time>2012-02-23T15:30:25Z</time>
      </trkpt>
      <trkpt lat="47.22342" lon="-0.88403">
        <ele>89</ele>
        <time>2012-02-23T15:30:27Z</time>
      </trkpt>
      <trkpt lat="47.22343" lon="-0.88403">
        <ele>89</ele>
        <time>2012-02-23T15:30:28Z</time>
      </trkpt>
      <trkpt lat="47.22344" lon="-0.88403">
        <ele>89</ele>
        <time>2012-02-23T15:30:29Z</time>
      </trkpt>
      <trkpt lat="47.22345" lon="-0.88403">
        <ele>89</ele>
        <time>2012-02-23T15:30:30Z</time>
      </trkpt>
      <trkpt lat="47.22347" lon="-0.88403">
        <ele>89</ele>
        <time>2012-02-23T15:30:32Z</time>
      </trkpt>
      <trkpt lat="47.22349" lon="-0.88402">
        <ele>89</ele>
        <time>2012-02-23T15:30:34Z</time>
      </trkpt>
      <trkpt lat="47.2235" lon="-0.88402">
        <ele>89</ele>
        <time>2012-02-23T15:30:35Z</time>
      </trkpt>
      <trkpt lat="47.22352" lon="-0.88402">
        <ele>89</ele>
        <time>2012-02-23T15:30:36Z</time>
      </trkpt>
      <trkpt lat="47.22354" lon="-0.88402">
        <ele>89</ele>
        <time>2012-02-23T15:30:38Z</time>
      </trkpt>
      <trkpt lat="47.22355" lon="-0.88402">
        <ele>89</ele>
        <time>2012-02-23T15:30:39Z</time>
      </trkpt>
      <trkpt lat="47.22357" lon="-0.88402">
        <ele>89</ele>
        <time>2012-02-23T15:30:41Z</time>
      </trkpt>
      <trkpt lat="47.22359" lon="-0.88402">
        <ele>89</ele>
        <time>2012-02-23T15:30:43Z</time>
      </trkpt>
      <trkpt lat="47.2236" lon="-0.88402">
        <ele>89</ele>
        <time>2012-02-23T15:30:44Z</time>
      </trkpt>
      <trkpt lat="47.22361" lon="-0.88402">
        <ele>89</ele>
        <time>2012-02-23T15:30:45Z</time>
      </trkpt>
      <trkpt lat="47.22364" lon="-0.88402">
        <ele>89</ele>
        <time>2012-02-23T15:30:47Z</time>
      </trkpt>
      <trkpt lat="47.22365" lon="-0.88402">
        <ele>89</ele>
        <time>2012-02-23T15:30:48Z</time>
      </trkpt>
      <trkpt lat="47.22367" lon="-0.88402">
        <ele>89</ele>
        <time>2012-02-23T15:30:50Z</time>
      </trkpt>
      <trkpt lat="47.22369" lon="-0.88402">
        <ele>90</ele>
        <time>2012-02-23T15:30:52Z</time>
      </trkpt>
      <trkpt lat="47.2237" lon="-0.88402">
        <ele>90</ele>
        <time>2012-02-23T15:30:53Z</time>
      </trkpt>
      <trkpt lat="47.22371" lon="-0.88401">
        <ele>90</ele>
        <time>2012-02-23T15:30:54Z</time>
      </trkpt>
      <trkpt lat="47.22373" lon="-0.88401">
        <ele>90</ele>
        <time>2012-02-23T15:30:56Z</time>
      </trkpt>
      <trkpt lat="47.22374" lon="-0.88401">
        <ele>90</ele>
        <time>2012-02-23T15:30:57Z</time>
      </trkpt>
      <trkpt lat="47.22376" lon="-0.88401">
        <ele>90</ele>
        <time>2012-02-23T15:30:58Z</time>
      </trkpt>
      <trkpt lat="47.22378" lon="-0.884">
        <ele>90</ele>
        <time>2012-02-23T15:31:00Z</time>
      </trkpt>
      <trkpt lat="47.22379" lon="-0.884">
        <ele>90</ele>
        <time>2012-02-23T15:31:01Z</time>
      </trkpt>
      <trkpt lat="47.22381" lon="-0.88399">
        <ele>90</ele>
        <time>2012-02-23T15:31:03Z</time>
      </trkpt>
      <trkpt lat="47.22382" lon="-0.88399">
        <ele>90</ele>
        <time>2012-02-23T15:31:04Z</time>
      </trkpt>
      <trkpt lat="47.22384" lon="-0.88398">
        <ele>90</ele>
        <time>2012-02-23T15:31:06Z</time>
      </trkpt>
      <trkpt lat="47.22385" lon="-0.88398">
        <ele>90</ele>
        <time>2012-02-23T15:31:07Z</time>
      </trkpt>
      <trkpt lat="47.22387" lon="-0.88398">
        <ele>90</ele>
        <time>2012-02-23T15:31:08Z</time>
      </trkpt>
      <trkpt lat="47.22388" lon="-0.88398">
        <ele>90</ele>
        <time>2012-02-23T15:31:09Z</time>
      </trkpt>
      <trkpt lat="47.2239" lon="-0.88397">
        <ele>90</ele>
        <time>2012-02-23T15:31:11Z</time>
      </trkpt>
      <trkpt lat="47.22391" lon="-0.88396">
        <ele>90</ele>
        <time>2012-02-23T15:31:12Z</time>
      </trkpt>
      <trkpt lat="47.22393" lon="-0.88395">
        <ele>90</ele>
        <time>2012-02-23T15:31:14Z</time>
      </trkpt>
      <trkpt lat="47.22395" lon="-0.88394">
        <ele>90</ele>
        <time>2012-02-23T15:31:16Z</time>
      </trkpt>
      <trkpt lat="47.22397" lon="-0.88393">
        <ele>91</ele>
        <time>2012-02-23T15:31:18Z</time>
      </trkpt>
      <trkpt lat="47.22398" lon="-0.88392">
        <ele>91</ele>
        <time>2012-02-23T15:31:19Z</time>
      </trkpt>
      <trkpt lat="47.224" lon="-0.8839">
        <ele>91</ele>
        <time>2012-02-23T15:31:21Z</time>
      </trkpt>
      <trkpt lat="47.22402" lon="-0.88389">
        <ele>91</ele>
        <time>2012-02-23T15:31:23Z</time>
      </trkpt>
      <trkpt lat="47.22403" lon="-0.88388">
        <ele>91</ele>
        <time>2012-02-23T15:31:24Z</time>
      </trkpt>
      <trkpt lat="47.22404" lon="-0.88388">
        <ele>91</ele>
        <time>2012-02-23T15:31:25Z</time>
      </trkpt>
      <trkpt lat="47.22406" lon="-0.88387">
        <ele>91</ele>
        <time>2012-02-23T15:31:27Z</time>
      </trkpt>
      <trkpt lat="47.22408" lon="-0.88385">
        <ele>91</ele>
        <time>2012-02-23T15:31:29Z</time>
      </trkpt>
      <trkpt lat="47.2241" lon="-0.88384">
        <ele>91</ele>
        <time>2012-02-23T15:31:31Z</time>
      </trkpt>
      <trkpt lat="47.22411" lon="-0.88383">
        <ele>91</ele>
        <time>2012-02-23T15:31:32Z</time>
      </trkpt>
      <trkpt lat="47.22412" lon="-0.88382">
        <ele>91</ele>
        <time>2012-02-23T15:31:33Z</time>
      </trkpt>
      <trkpt lat="47.22413" lon="-0.88381">
        <ele>91</ele>
        <time>2012-02-23T15:31:34Z</time>
      </trkpt>
      <trkpt lat="47.22415" lon="-0.8838">
        <ele>91</ele>
        <time>2012-02-23T15:31:36Z</time>
      </trkpt>
      <trkpt lat="47.22416" lon="-0.8838">
        <ele>91</ele>
        <time>2012-02-23T15:31:37Z</time>
      </trkpt>
      <trkpt lat="47.22418" lon="-0.88378">
        <ele>91</ele>
        <time>2012-02-23T15:31:39Z</time>
      </trkpt>
      <trkpt lat="47.2242" lon="-0.88377">
        <ele>91</ele>
        <time>2012-02-23T15:31:41Z</time>
      </trkpt>
      <trkpt lat="47.22422" lon="-0.88376">
        <ele>91</ele>
        <time>2012-02-23T15:31:43Z</time>
      </trkpt>
      <trkpt lat="47.22424" lon="-0.88374">
        <ele>91</ele>
        <time>2012-02-23T15:31:45Z</time>
      </trkpt>
      <trkpt lat="47.22426" lon="-0.88371">
        <ele>91</ele>
        <time>2012-02-23T15:31:47Z</time>
      </trkpt>
      <trkpt lat="47.22427" lon="-0.8837">
        <ele>91</ele>
        <time>2012-02-23T15:31:49Z</time>
      </trkpt>
      <trkpt lat="47.2243" lon="-0.88368">
        <ele>91</ele>
        <time>2012-02-23T15:31:51Z</time>
      </trkpt>
      <trkpt lat="47.22431" lon="-0.88366">
        <ele>91</ele>
        <time>2012-02-23T15:31:53Z</time>
      </trkpt>
      <trkpt lat="47.22433" lon="-0.88364">
        <ele>91</ele>
        <time>2012-02-23T15:31:55Z</time>
      </trkpt>
      <trkpt lat="47.22435" lon="-0.88362">
        <ele>91</ele>
        <time>2012-02-23T15:31:57Z</time>
      </trkpt>
      <trkpt lat="47.22436" lon="-0.88362">
        <ele>91</ele>
        <time>2012-02-23T15:31:58Z</time>
      </trkpt>
      <trkpt lat="47.22437" lon="-0.88361">
        <ele>91</ele>
        <time>2012-02-23T15:31:59Z</time>
      </trkpt>
      <trkpt lat="47.22439" lon="-0.88358">
        <ele>91</ele>
        <time>2012-02-23T15:32:01Z</time>
      </trkpt>
      <trkpt lat="47.22441" lon="-0.88356">
        <ele>91</ele>
        <time>2012-02-23T15:32:03Z</time>
      </trkpt>
      <trkpt lat="47.22443" lon="-0.88354">
        <ele>91</ele>
        <time>2012-02-23T15:32:05Z</time>
      </trkpt>
      <trkpt lat="47.22444" lon="-0.88352">
        <ele>91</ele>
        <time>2012-02-23T15:32:07Z</time>
      </trkpt>
      <trkpt lat="47.22446" lon="-0.88349">
        <ele>91</ele>
        <time>2012-02-23T15:32:09Z</time>
      </trkpt>
      <trkpt lat="47.22448" lon="-0.88347">
        <ele>91</ele>
        <time>2012-02-23T15:32:11Z</time>
      </trkpt>
      <trkpt lat="47.2245" lon="-0.88345">
        <ele>91</ele>
        <time>2012-02-23T15:32:13Z</time>
      </trkpt>
      <trkpt lat="47.22451" lon="-0.88343">
        <ele>91</ele>
        <time>2012-02-23T15:32:15Z</time>
      </trkpt>
      <trkpt lat="47.22453" lon="-0.88342">
        <ele>92</ele>
        <time>2012-02-23T15:32:16Z</time>
      </trkpt>
      <trkpt lat="47.22454" lon="-0.8834">
        <ele>92</ele>
        <time>2012-02-23T15:32:18Z</time>
      </trkpt>
      <trkpt lat="47.22456" lon="-0.88338">
        <ele>92</ele>
        <time>2012-02-23T15:32:20Z</time>
      </trkpt>
      <trkpt lat="47.22458" lon="-0.88336">
        <ele>92</ele>
        <time>2012-02-23T15:32:22Z</time>
      </trkpt>
      <trkpt lat="47.22459" lon="-0.88334">
        <ele>92</ele>
        <time>2012-02-23T15:32:24Z</time>
      </trkpt>
      <trkpt lat="47.22461" lon="-0.88332">
        <ele>92</ele>
        <time>2012-02-23T15:32:26Z</time>
      </trkpt>
      <trkpt lat="47.22463" lon="-0.8833">
        <ele>92</ele>
        <time>2012-02-23T15:32:28Z</time>
      </trkpt>
      <trkpt lat="47.22464" lon="-0.88328">
        <ele>92</ele>
        <time>2012-02-23T15:32:30Z</time>
      </trkpt>
      <trkpt lat="47.22466" lon="-0.88326">
        <ele>92</ele>
        <time>2012-02-23T15:32:32Z</time>
      </trkpt>
      <trkpt lat="47.22468" lon="-0.88324">
        <ele>92</ele>
        <time>2012-02-23T15:32:34Z</time>
      </trkpt>
      <trkpt lat="47.2247" lon="-0.88321">
        <ele>92</ele>
        <time>2012-02-23T15:32:36Z</time>
      </trkpt>
      <trkpt lat="47.22472" lon="-0.8832">
        <ele>92</ele>
        <time>2012-02-23T15:32:38Z</time>
      </trkpt>
      <trkpt lat="47.22474" lon="-0.88318">
        <ele>92</ele>
        <time>2012-02-23T15:32:40Z</time>
      </trkpt>
      <trkpt lat="47.22476" lon="-0.88315">
        <ele>92</ele>
        <time>2012-02-23T15:32:42Z</time>
      </trkpt>
      <trkpt lat="47.22478" lon="-0.88314">
        <ele>92</ele>
        <time>2012-02-23T15:32:44Z</time>
      </trkpt>
      <trkpt lat="47.2248" lon="-0.88311">
        <ele>92</ele>
        <time>2012-02-23T15:32:46Z</time>
      </trkpt>
      <trkpt lat="47.22482" lon="-0.8831">
        <ele>92</ele>
        <time>2012-02-23T15:32:47Z</time>
      </trkpt>
      <trkpt lat="47.22483" lon="-0.88308">
        <ele>92</ele>
        <time>2012-02-23T15:32:49Z</time>
      </trkpt>
      <trkpt lat="47.22485" lon="-0.88307">
        <ele>92</ele>
        <time>2012-02-23T15:32:51Z</time>
      </trkpt>
      <trkpt lat="47.22487" lon="-0.88305">
        <ele>92</ele>
        <time>2012-02-23T15:32:53Z</time>
      </trkpt>
      <trkpt lat="47.22488" lon="-0.88304">
        <ele>92</ele>
        <time>2012-02-23T15:32:54Z</time>
      </trkpt>
      <trkpt lat="47.2249" lon="-0.88302">
        <ele>92</ele>
        <time>2012-02-23T15:32:56Z</time>
      </trkpt>
      <trkpt lat="47.22492" lon="-0.883">
        <ele>92</ele>
        <time>2012-02-23T15:32:58Z</time>
      </trkpt>
      <trkpt lat="47.22493" lon="-0.88298">
        <ele>92</ele>
        <time>2012-02-23T15:33:00Z</time>
      </trkpt>
      <trkpt lat="47.22496" lon="-0.88296">
        <ele>92</ele>
        <time>2012-02-23T15:33:02Z</time>
      </trkpt>
      <trkpt lat="47.22497" lon="-0.88295">
        <ele>92</ele>
        <time>2012-02-23T15:33:03Z</time>
      </trkpt>
      <trkpt lat="47.22499" lon="-0.88293">
        <ele>92</ele>
        <time>2012-02-23T15:33:05Z</time>
      </trkpt>
      <trkpt lat="47.22501" lon="-0.88292">
        <ele>92</ele>
        <time>2012-02-23T15:33:07Z</time>
      </trkpt>
      <trkpt lat="47.22502" lon="-0.88291">
        <ele>92</ele>
        <time>2012-02-23T15:33:08Z</time>
      </trkpt>
      <trkpt lat="47.22504" lon="-0.88288">
        <ele>92</ele>
        <time>2012-02-23T15:33:10Z</time>
      </trkpt>
      <trkpt lat="47.22506" lon="-0.88286">
        <ele>92</ele>
        <time>2012-02-23T15:33:12Z</time>
      </trkpt>
      <trkpt lat="47.22508" lon="-0.88285">
        <ele>92</ele>
        <time>2012-02-23T15:33:14Z</time>
      </trkpt>
      <trkpt lat="47.22511" lon="-0.88284">
        <ele>92</ele>
        <time>2012-02-23T15:33:16Z</time>
      </trkpt>
      <trkpt lat="47.22512" lon="-0.88283">
        <ele>93</ele>
        <time>2012-02-23T15:33:18Z</time>
      </trkpt>
      <trkpt lat="47.22513" lon="-0.88282">
        <ele>93</ele>
        <time>2012-02-23T15:33:20Z</time>
      </trkpt>
      <trkpt lat="47.22515" lon="-0.88279">
        <ele>93</ele>
        <time>2012-02-23T15:33:22Z</time>
      </trkpt>
      <trkpt lat="47.22517" lon="-0.88277">
        <ele>93</ele>
        <time>2012-02-23T15:33:24Z</time>
      </trkpt>
      <trkpt lat="47.22519" lon="-0.88275">
        <ele>93</ele>
        <time>2012-02-23T15:33:26Z</time>
      </trkpt>
      <trkpt lat="47.2252" lon="-0.88274">
        <ele>93</ele>
        <time>2012-02-23T15:33:28Z</time>
      </trkpt>
      <trkpt lat="47.22522" lon="-0.88273">
        <ele>93</ele>
        <time>2012-02-23T15:33:30Z</time>
      </trkpt>
      <trkpt lat="47.22524" lon="-0.88272">
        <ele>93</ele>
        <time>2012-02-23T15:33:32Z</time>
      </trkpt>
      <trkpt lat="47.22527" lon="-0.88271">
        <ele>93</ele>
        <time>2012-02-23T15:33:34Z</time>
      </trkpt>
      <trkpt lat="47.22529" lon="-0.8827">
        <ele>93</ele>
        <time>2012-02-23T15:33:36Z</time>
      </trkpt>
      <trkpt lat="47.2253" lon="-0.88269">
        <ele>93</ele>
        <time>2012-02-23T15:33:37Z</time>
      </trkpt>
      <trkpt lat="47.22532" lon="-0.88268">
        <ele>93</ele>
        <time>2012-02-23T15:33:39Z</time>
      </trkpt>
      <trkpt lat="47.22533" lon="-0.88267">
        <ele>93</ele>
        <time>2012-02-23T15:33:40Z</time>
      </trkpt>
      <trkpt lat="47.22534" lon="-0.88267">
        <ele>93</ele>
        <time>2012-02-23T15:33:41Z</time>
      </trkpt>
      <trkpt lat="47.22536" lon="-0.88266">
        <ele>93</ele>
        <time>2012-02-23T15:33:43Z</time>
      </trkpt>
      <trkpt lat="47.22538" lon="-0.88265">
        <ele>93</ele>
        <time>2012-02-23T15:33:44Z</time>
      </trkpt>
      <trkpt lat="47.22539" lon="-0.88265">
        <ele>93</ele>
        <time>2012-02-23T15:33:45Z</time>
      </trkpt>
      <trkpt lat="47.2254" lon="-0.88264">
        <ele>93</ele>
        <time>2012-02-23T15:33:46Z</time>
      </trkpt>
      <trkpt lat="47.22543" lon="-0.88263">
        <ele>93</ele>
        <time>2012-02-23T15:33:48Z</time>
      </trkpt>
      <trkpt lat="47.22544" lon="-0.88262">
        <ele>93</ele>
        <time>2012-02-23T15:33:49Z</time>
      </trkpt>
      <trkpt lat="47.22545" lon="-0.88262">
        <ele>93</ele>
        <time>2012-02-23T15:33:50Z</time>
      </trkpt>
      <trkpt lat="47.22545" lon="-0.8826">
        <ele>93</ele>
        <time>2012-02-23T15:33:51Z</time>
      </trkpt>
      <trkpt lat="47.22545" lon="-0.88257">
        <ele>93</ele>
        <time>2012-02-23T15:33:52Z</time>
      </trkpt>
      <trkpt lat="47.22546" lon="-0.88255">
        <ele>93</ele>
        <time>2012-02-23T15:33:53Z</time>
      </trkpt>
      <trkpt lat="47.22548" lon="-0.88255">
        <ele>93</ele>
        <time>2012-02-23T15:33:55Z</time>
      </trkpt>
      <trkpt lat="47.22549" lon="-0.88254">
        <ele>93</ele>
        <time>2012-02-23T15:33:56Z</time>
      </trkpt>
      <trkpt lat="47.2255" lon="-0.88253">
        <ele>93</ele>
        <time>2012-02-23T15:33:57Z</time>
      </trkpt>
      <trkpt lat="47.22552" lon="-0.88253">
        <ele>93</ele>
        <time>2012-02-23T15:33:58Z</time>
      </trkpt>
      <trkpt lat="47.22553" lon="-0.88253">
        <ele>93</ele>
        <time>2012-02-23T15:33:59Z</time>
      </trkpt>
      <trkpt lat="47.22554" lon="-0.88253">
        <ele>93</ele>
        <time>2012-02-23T15:34:00Z</time>
      </trkpt>
      <trkpt lat="47.22555" lon="-0.88252">
        <ele>93</ele>
        <time>2012-02-23T15:34:01Z</time>
      </trkpt>
      <trkpt lat="47.22557" lon="-0.88252">
        <ele>93</ele>
        <time>2012-02-23T15:34:02Z</time>
      </trkpt>
      <trkpt lat="47.22558" lon="-0.88252">
        <ele>93</ele>
        <time>2012-02-23T15:34:03Z</time>
      </trkpt>
      <trkpt lat="47.22559" lon="-0.88251">
        <ele>93</ele>
        <time>2012-02-23T15:34:04Z</time>
      </trkpt>
      <trkpt lat="47.22561" lon="-0.8825">
        <ele>93</ele>
        <time>2012-02-23T15:34:06Z</time>
      </trkpt>
      <trkpt lat="47.22563" lon="-0.88249">
        <ele>93</ele>
        <time>2012-02-23T15:34:08Z</time>
      </trkpt>
      <trkpt lat="47.22565" lon="-0.88248">
        <ele>93</ele>
        <time>2012-02-23T15:34:10Z</time>
      </trkpt>
      <trkpt lat="47.22566" lon="-0.88248">
        <ele>93</ele>
        <time>2012-02-23T15:34:11Z</time>
      </trkpt>
      <trkpt lat="47.22567" lon="-0.88248">
        <ele>93</ele>
        <time>2012-02-23T15:34:12Z</time>
      </trkpt>
      <trkpt lat="47.2257" lon="-0.88247">
        <ele>93</ele>
        <time>2012-02-23T15:34:14Z</time>
      </trkpt>
      <trkpt lat="47.22572" lon="-0.88246">
        <ele>93</ele>
        <time>2012-02-23T15:34:16Z</time>
      </trkpt>
      <trkpt lat="47.22573" lon="-0.88245">
        <ele>93</ele>
        <time>2012-02-23T15:34:17Z</time>
      </trkpt>
      <trkpt lat="47.22574" lon="-0.88245">
        <ele>93</ele>
        <time>2012-02-23T15:34:18Z</time>
      </trkpt>
      <trkpt lat="47.22575" lon="-0.88245">
        <ele>93</ele>
        <time>2012-02-23T15:34:19Z</time>
      </trkpt>
      <trkpt lat="47.22578" lon="-0.88244">
        <ele>93</ele>
        <time>2012-02-23T15:34:21Z</time>
      </trkpt>
      <trkpt lat="47.22579" lon="-0.88243">
        <ele>93</ele>
        <time>2012-02-23T15:34:22Z</time>
      </trkpt>
      <trkpt lat="47.2258" lon="-0.88243">
        <ele>93</ele>
        <time>2012-02-23T15:34:23Z</time>
      </trkpt>
      <trkpt lat="47.22582" lon="-0.88242">
        <ele>93</ele>
        <time>2012-02-23T15:34:25Z</time>
      </trkpt>
      <trkpt lat="47.22583" lon="-0.88241">
        <ele>93</ele>
        <time>2012-02-23T15:34:26Z</time>
      </trkpt>
      <trkpt lat="47.22585" lon="-0.8824">
        <ele>93</ele>
        <time>2012-02-23T15:34:27Z</time>
      </trkpt>
      <trkpt lat="47.22586" lon="-0.8824">
        <ele>93</ele>
        <time>2012-02-23T15:34:28Z</time>
      </trkpt>
      <trkpt lat="47.22588" lon="-0.88239">
        <ele>93</ele>
        <time>2012-02-23T15:34:30Z</time>
      </trkpt>
      <trkpt lat="47.22589" lon="-0.88239">
        <ele>93</ele>
        <time>2012-02-23T15:34:31Z</time>
      </trkpt>
      <trkpt lat="47.2259" lon="-0.88238">
        <ele>93</ele>
        <time>2012-02-23T15:34:32Z</time>
      </trkpt>
      <trkpt lat="47.22592" lon="-0.88237">
        <ele>93</ele>
        <time>2012-02-23T15:34:34Z</time>
      </trkpt>
      <trkpt lat="47.22594" lon="-0.88236">
        <ele>93</ele>
        <time>2012-02-23T15:34:36Z</time>
      </trkpt>
      <trkpt lat="47.22596" lon="-0.88235">
        <ele>93</ele>
        <time>2012-02-23T15:34:38Z</time>
      </trkpt>
      <trkpt lat="47.22597" lon="-0.88234">
        <ele>93</ele>
        <time>2012-02-23T15:34:39Z</time>
      </trkpt>
      <trkpt lat="47.22599" lon="-0.88232">
        <ele>93</ele>
        <time>2012-02-23T15:34:41Z</time>
      </trkpt>
      <trkpt lat="47.22601" lon="-0.88232">
        <ele>93</ele>
        <time>2012-02-23T15:34:42Z</time>
      </trkpt>
      <trkpt lat="47.22602" lon="-0.88231">
        <ele>93</ele>
        <time>2012-02-23T15:34:44Z</time>
      </trkpt>
      <trkpt lat="47.22604" lon="-0.88231">
        <ele>93</ele>
        <time>2012-02-23T15:34:45Z</time>
      </trkpt>
      <trkpt lat="47.22605" lon="-0.8823">
        <ele>93</ele>
        <time>2012-02-23T15:34:46Z</time>
      </trkpt>
      <trkpt lat="47.22606" lon="-0.88229">
        <ele>93</ele>
        <time>2012-02-23T15:34:47Z</time>
      </trkpt>
      <trkpt lat="47.22608" lon="-0.88229">
        <ele>93</ele>
        <time>2012-02-23T15:34:49Z</time>
      </trkpt>
      <trkpt lat="47.22609" lon="-0.88228">
        <ele>93</ele>
        <time>2012-02-23T15:34:50Z</time>
      </trkpt>
      <trkpt lat="47.22611" lon="-0.88228">
        <ele>93</ele>
        <time>2012-02-23T15:34:51Z</time>
      </trkpt>
      <trkpt lat="47.22612" lon="-0.88227">
        <ele>93</ele>
        <time>2012-02-23T15:34:52Z</time>
      </trkpt>
      <trkpt lat="47.22613" lon="-0.88227">
        <ele>93</ele>
        <time>2012-02-23T15:34:53Z</time>
      </trkpt>
      <trkpt lat="47.22614" lon="-0.88226">
        <ele>93</ele>
        <time>2012-02-23T15:34:54Z</time>
      </trkpt>
      <trkpt lat="47.22615" lon="-0.88226">
        <ele>93</ele>
        <time>2012-02-23T15:34:55Z</time>
      </trkpt>
      <trkpt lat="47.22617" lon="-0.88225">
        <ele>93</ele>
        <time>2012-02-23T15:34:56Z</time>
      </trkpt>
      <trkpt lat="47.22618" lon="-0.88225">
        <ele>93</ele>
        <time>2012-02-23T15:34:57Z</time>
      </trkpt>
      <trkpt lat="47.2262" lon="-0.88224">
        <ele>93</ele>
        <time>2012-02-23T15:34:59Z</time>
      </trkpt>
      <trkpt lat="47.22621" lon="-0.88224">
        <ele>93</ele>
        <time>2012-02-23T15:35:00Z</time>
      </trkpt>
      <trkpt lat="47.22623" lon="-0.88223">
        <ele>93</ele>
        <time>2012-02-23T15:35:02Z</time>
      </trkpt>
      <trkpt lat="47.22625" lon="-0.88222">
        <ele>93</ele>
        <time>2012-02-23T15:35:04Z</time>
      </trkpt>
      <trkpt lat="47.22627" lon="-0.8822">
        <ele>93</ele>
        <time>2012-02-23T15:35:06Z</time>
      </trkpt>
      <trkpt lat="47.22629" lon="-0.88219">
        <ele>93</ele>
        <time>2012-02-23T15:35:08Z</time>
      </trkpt>
      <trkpt lat="47.2263" lon="-0.88218">
        <ele>93</ele>
        <time>2012-02-23T15:35:10Z</time>
      </trkpt>
      <trkpt lat="47.22632" lon="-0.88218">
        <ele>93</ele>
        <time>2012-02-23T15:35:13Z</time>
      </trkpt>
      <trkpt lat="47.22633" lon="-0.88218">
        <ele>93</ele>
        <time>2012-02-23T15:35:15Z</time>
      </trkpt>
      <trkpt lat="47.22634" lon="-0.88217">
        <ele>93</ele>
        <time>2012-02-23T15:35:17Z</time>
      </trkpt>
      <trkpt lat="47.22636" lon="-0.88216">
        <ele>93</ele>
        <time>2012-02-23T15:35:19Z</time>
      </trkpt>
      <trkpt lat="47.22637" lon="-0.88214">
        <ele>93</ele>
        <time>2012-02-23T15:35:21Z</time>
      </trkpt>
      <trkpt lat="47.22638" lon="-0.88214">
        <ele>93</ele>
        <time>2012-02-23T15:35:26Z</time>
      </trkpt>
      <trkpt lat="47.22638" lon="-0.88212">
        <ele>93</ele>
        <time>2012-02-23T15:35:36Z</time>
      </trkpt>
      <trkpt lat="47.22639" lon="-0.88213">
        <ele>93</ele>
        <time>2012-02-23T15:35:41Z</time>
      </trkpt>
      <trkpt lat="47.22641" lon="-0.88213">
        <ele>93</ele>
        <time>2012-02-23T15:35:43Z</time>
      </trkpt>
      <trkpt lat="47.22642" lon="-0.88213">
        <ele>93</ele>
        <time>2012-02-23T15:35:45Z</time>
      </trkpt>
      <trkpt lat="47.22644" lon="-0.88213">
        <ele>93</ele>
        <time>2012-02-23T15:35:47Z</time>
      </trkpt>
      <trkpt lat="47.22646" lon="-0.88211">
        <ele>93</ele>
        <time>2012-02-23T15:35:49Z</time>
      </trkpt>
      <trkpt lat="47.22648" lon="-0.88211">
        <ele>93</ele>
        <time>2012-02-23T15:35:51Z</time>
      </trkpt>
      <trkpt lat="47.2265" lon="-0.8821">
        <ele>93</ele>
        <time>2012-02-23T15:35:53Z</time>
      </trkpt>
      <trkpt lat="47.22652" lon="-0.88211">
        <ele>93</ele>
        <time>2012-02-23T15:35:55Z</time>
      </trkpt>
      <trkpt lat="47.22654" lon="-0.88211">
        <ele>93</ele>
        <time>2012-02-23T15:35:57Z</time>
      </trkpt>
      <trkpt lat="47.22656" lon="-0.8821">
        <ele>93</ele>
        <time>2012-02-23T15:35:59Z</time>
      </trkpt>
      <trkpt lat="47.22659" lon="-0.8821">
        <ele>93</ele>
        <time>2012-02-23T15:36:01Z</time>
      </trkpt>
      <trkpt lat="47.2266" lon="-0.88209">
        <ele>93</ele>
        <time>2012-02-23T15:36:02Z</time>
      </trkpt>
      <trkpt lat="47.22661" lon="-0.88209">
        <ele>93</ele>
        <time>2012-02-23T15:36:03Z</time>
      </trkpt>
      <trkpt lat="47.22662" lon="-0.88209">
        <ele>93</ele>
        <time>2012-02-23T15:36:04Z</time>
      </trkpt>
      <trkpt lat="47.22665" lon="-0.88209">
        <ele>93</ele>
        <time>2012-02-23T15:36:06Z</time>
      </trkpt>
      <trkpt lat="47.22666" lon="-0.88209">
        <ele>93</ele>
        <time>2012-02-23T15:36:07Z</time>
      </trkpt>
      <trkpt lat="47.22667" lon="-0.88209">
        <ele>93</ele>
        <time>2012-02-23T15:36:08Z</time>
      </trkpt>
      <trkpt lat="47.22668" lon="-0.88209">
        <ele>93</ele>
        <time>2012-02-23T15:36:09Z</time>
      </trkpt>
      <trkpt lat="47.2267" lon="-0.88209">
        <ele>93</ele>
        <time>2012-02-23T15:36:11Z</time>
      </trkpt>
      <trkpt lat="47.22671" lon="-0.88209">
        <ele>93</ele>
        <time>2012-02-23T15:36:12Z</time>
      </trkpt>
      <trkpt lat="47.22673" lon="-0.88209">
        <ele>93</ele>
        <time>2012-02-23T15:36:13Z</time>
      </trkpt>
      <trkpt lat="47.22675" lon="-0.88209">
        <ele>93</ele>
        <time>2012-02-23T15:36:15Z</time>
      </trkpt>
      <trkpt lat="47.22676" lon="-0.88209">
        <ele>93</ele>
        <time>2012-02-23T15:36:17Z</time>
      </trkpt>
      <trkpt lat="47.22678" lon="-0.88209">
        <ele>93</ele>
        <time>2012-02-23T15:36:18Z</time>
      </trkpt>
      <trkpt lat="47.22679" lon="-0.88208">
        <ele>93</ele>
        <time>2012-02-23T15:36:19Z</time>
      </trkpt>
      <trkpt lat="47.2268" lon="-0.88208">
        <ele>93</ele>
        <time>2012-02-23T15:36:20Z</time>
      </trkpt>
      <trkpt lat="47.22681" lon="-0.88208">
        <ele>93</ele>
        <time>2012-02-23T15:36:21Z</time>
      </trkpt>
      <trkpt lat="47.22682" lon="-0.88209">
        <ele>93</ele>
        <time>2012-02-23T15:36:22Z</time>
      </trkpt>
      <trkpt lat="47.22684" lon="-0.88209">
        <ele>93</ele>
        <time>2012-02-23T15:36:24Z</time>
      </trkpt>
      <trkpt lat="47.22686" lon="-0.88209">
        <ele>93</ele>
        <time>2012-02-23T15:36:25Z</time>
      </trkpt>
      <trkpt lat="47.22688" lon="-0.88209">
        <ele>93</ele>
        <time>2012-02-23T15:36:27Z</time>
      </trkpt>
      <trkpt lat="47.22689" lon="-0.88209">
        <ele>93</ele>
        <time>2012-02-23T15:36:28Z</time>
      </trkpt>
      <trkpt lat="47.22691" lon="-0.88209">
        <ele>93</ele>
        <time>2012-02-23T15:36:30Z</time>
      </trkpt>
      <trkpt lat="47.22692" lon="-0.88209">
        <ele>93</ele>
        <time>2012-02-23T15:36:32Z</time>
      </trkpt>
      <trkpt lat="47.22694" lon="-0.88209">
        <ele>93</ele>
        <time>2012-02-23T15:36:33Z</time>
      </trkpt>
      <trkpt lat="47.22695" lon="-0.88208">
        <ele>93</ele>
        <time>2012-02-23T15:36:34Z</time>
      </trkpt>
      <trkpt lat="47.22697" lon="-0.88207">
        <ele>93</ele>
        <time>2012-02-23T15:36:36Z</time>
      </trkpt>
      <trkpt lat="47.22698" lon="-0.88207">
        <ele>93</ele>
        <time>2012-02-23T15:36:38Z</time>
      </trkpt>
      <trkpt lat="47.227" lon="-0.88207">
        <ele>93</ele>
        <time>2012-02-23T15:36:40Z</time>
      </trkpt>
      <trkpt lat="47.22701" lon="-0.88207">
        <ele>93</ele>
        <time>2012-02-23T15:36:41Z</time>
      </trkpt>
      <trkpt lat="47.22702" lon="-0.88207">
        <ele>93</ele>
        <time>2012-02-23T15:36:42Z</time>
      </trkpt>
      <trkpt lat="47.22704" lon="-0.88207">
        <ele>93</ele>
        <time>2012-02-23T15:36:44Z</time>
      </trkpt>
      <trkpt lat="47.22706" lon="-0.88207">
        <ele>93</ele>
        <time>2012-02-23T15:36:45Z</time>
      </trkpt>
      <trkpt lat="47.22707" lon="-0.88207">
        <ele>93</ele>
        <time>2012-02-23T15:36:47Z</time>
      </trkpt>
      <trkpt lat="47.2271" lon="-0.88207">
        <ele>93</ele>
        <time>2012-02-23T15:36:49Z</time>
      </trkpt>
      <trkpt lat="47.22711" lon="-0.88207">
        <ele>93</ele>
        <time>2012-02-23T15:36:50Z</time>
      </trkpt>
      <trkpt lat="47.22713" lon="-0.88207">
        <ele>93</ele>
        <time>2012-02-23T15:36:51Z</time>
      </trkpt>
      <trkpt lat="47.22714" lon="-0.88207">
        <ele>93</ele>
        <time>2012-02-23T15:36:52Z</time>
      </trkpt>
      <trkpt lat="47.22716" lon="-0.88207">
        <ele>93</ele>
        <time>2012-02-23T15:36:53Z</time>
      </trkpt>
      <trkpt lat="47.22717" lon="-0.88207">
        <ele>93</ele>
        <time>2012-02-23T15:36:54Z</time>
      </trkpt>
      <trkpt lat="47.22719" lon="-0.88207">
        <ele>93</ele>
        <time>2012-02-23T15:36:55Z</time>
      </trkpt>
      <trkpt lat="47.2272" lon="-0.88207">
        <ele>93</ele>
        <time>2012-02-23T15:36:56Z</time>
      </trkpt>
      <trkpt lat="47.22722" lon="-0.88207">
        <ele>93</ele>
        <time>2012-02-23T15:36:58Z</time>
      </trkpt>
      <trkpt lat="47.22724" lon="-0.88206">
        <ele>93</ele>
        <time>2012-02-23T15:37:00Z</time>
      </trkpt>
      <trkpt lat="47.22726" lon="-0.88205">
        <ele>93</ele>
        <time>2012-02-23T15:37:02Z</time>
      </trkpt>
      <trkpt lat="47.22728" lon="-0.88205">
        <ele>93</ele>
        <time>2012-02-23T15:37:04Z</time>
      </trkpt>
      <trkpt lat="47.22729" lon="-0.88205">
        <ele>93</ele>
        <time>2012-02-23T15:37:06Z</time>
      </trkpt>
      <trkpt lat="47.22731" lon="-0.88205">
        <ele>93</ele>
        <time>2012-02-23T15:37:08Z</time>
      </trkpt>
      <trkpt lat="47.22733" lon="-0.88206">
        <ele>93</ele>
        <time>2012-02-23T15:37:10Z</time>
      </trkpt>
      <trkpt lat="47.22734" lon="-0.88206">
        <ele>93</ele>
        <time>2012-02-23T15:37:12Z</time>
      </trkpt>
      <trkpt lat="47.22736" lon="-0.88206">
        <ele>93</ele>
        <time>2012-02-23T15:37:13Z</time>
      </trkpt>
      <trkpt lat="47.22737" lon="-0.88207">
        <ele>93</ele>
        <time>2012-02-23T15:37:14Z</time>
      </trkpt>
      <trkpt lat="47.22739" lon="-0.88206">
        <ele>93</ele>
        <time>2012-02-23T15:37:16Z</time>
      </trkpt>
      <trkpt lat="47.22741" lon="-0.88206">
        <ele>93</ele>
        <time>2012-02-23T15:37:18Z</time>
      </trkpt>
      <trkpt lat="47.22742" lon="-0.88206">
        <ele>93</ele>
        <time>2012-02-23T15:37:19Z</time>
      </trkpt>
      <trkpt lat="47.22743" lon="-0.88206">
        <ele>93</ele>
        <time>2012-02-23T15:37:20Z</time>
      </trkpt>
      <trkpt lat="47.22744" lon="-0.88206">
        <ele>93</ele>
        <time>2012-02-23T15:37:21Z</time>
      </trkpt>
      <trkpt lat="47.22746" lon="-0.88206">
        <ele>93</ele>
        <time>2012-02-23T15:37:22Z</time>
      </trkpt>
      <trkpt lat="47.22747" lon="-0.88207">
        <ele>93</ele>
        <time>2012-02-23T15:37:23Z</time>
      </trkpt>
      <trkpt lat="47.22749" lon="-0.88206">
        <ele>93</ele>
        <time>2012-02-23T15:37:25Z</time>
      </trkpt>
      <trkpt lat="47.22751" lon="-0.88207">
        <ele>93</ele>
        <time>2012-02-23T15:37:27Z</time>
      </trkpt>
      <trkpt lat="47.22752" lon="-0.88208">
        <ele>93</ele>
        <time>2012-02-23T15:37:28Z</time>
      </trkpt>
      <trkpt lat="47.22753" lon="-0.88208">
        <ele>93</ele>
        <time>2012-02-23T15:37:29Z</time>
      </trkpt>
      <trkpt lat="47.22755" lon="-0.88208">
        <ele>93</ele>
        <time>2012-02-23T15:37:30Z</time>
      </trkpt>
      <trkpt lat="47.22757" lon="-0.88207">
        <ele>93</ele>
        <time>2012-02-23T15:37:32Z</time>
      </trkpt>
      <trkpt lat="47.22758" lon="-0.88207">
        <ele>93</ele>
        <time>2012-02-23T15:37:33Z</time>
      </trkpt>
      <trkpt lat="47.22759" lon="-0.88208">
        <ele>93</ele>
        <time>2012-02-23T15:37:34Z</time>
      </trkpt>
      <trkpt lat="47.2276" lon="-0.88209">
        <ele>93</ele>
        <time>2012-02-23T15:37:35Z</time>
      </trkpt>
      <trkpt lat="47.22762" lon="-0.88209">
        <ele>93</ele>
        <time>2012-02-23T15:37:37Z</time>
      </trkpt>
      <trkpt lat="47.22763" lon="-0.88208">
        <ele>93</ele>
        <time>2012-02-23T15:37:38Z</time>
      </trkpt>
      <trkpt lat="47.22765" lon="-0.88208">
        <ele>93</ele>
        <time>2012-02-23T15:37:39Z</time>
      </trkpt>
      <trkpt lat="47.22767" lon="-0.88208">
        <ele>93</ele>
        <time>2012-02-23T15:37:41Z</time>
      </trkpt>
      <trkpt lat="47.22768" lon="-0.88208">
        <ele>93</ele>
        <time>2012-02-23T15:37:42Z</time>
      </trkpt>
      <trkpt lat="47.2277" lon="-0.88208">
        <ele>93</ele>
        <time>2012-02-23T15:37:43Z</time>
      </trkpt>
      <trkpt lat="47.22771" lon="-0.88208">
        <ele>93</ele>
        <time>2012-02-23T15:37:44Z</time>
      </trkpt>
      <trkpt lat="47.22773" lon="-0.88208">
        <ele>93</ele>
        <time>2012-02-23T15:37:45Z</time>
      </trkpt>
      <trkpt lat="47.22774" lon="-0.88208">
        <ele>93</ele>
        <time>2012-02-23T15:37:46Z</time>
      </trkpt>
      <trkpt lat="47.22775" lon="-0.88209">
        <ele>93</ele>
        <time>2012-02-23T15:37:47Z</time>
      </trkpt>
      <trkpt lat="47.22777" lon="-0.88208">
        <ele>93</ele>
        <time>2012-02-23T15:37:49Z</time>
      </trkpt>
      <trkpt lat="47.22778" lon="-0.88208">
        <ele>93</ele>
        <time>2012-02-23T15:37:50Z</time>
      </trkpt>
      <trkpt lat="47.22781" lon="-0.88208">
        <ele>93</ele>
        <time>2012-02-23T15:37:52Z</time>
      </trkpt>
      <trkpt lat="47.22782" lon="-0.88207">
        <ele>93</ele>
        <time>2012-02-23T15:37:53Z</time>
      </trkpt>
      <trkpt lat="47.22783" lon="-0.88207">
        <ele>93</ele>
        <time>2012-02-23T15:37:54Z</time>
      </trkpt>
      <trkpt lat="47.22784" lon="-0.88207">
        <ele>93</ele>
        <time>2012-02-23T15:37:55Z</time>
      </trkpt>
      <trkpt lat="47.22786" lon="-0.88206">
        <ele>93</ele>
        <time>2012-02-23T15:37:57Z</time>
      </trkpt>
      <trkpt lat="47.22788" lon="-0.88206">
        <ele>93</ele>
        <time>2012-02-23T15:37:58Z</time>
      </trkpt>
      <trkpt lat="47.22789" lon="-0.88205">
        <ele>93</ele>
        <time>2012-02-23T15:37:59Z</time>
      </trkpt>
      <trkpt lat="47.2279" lon="-0.88205">
        <ele>93</ele>
        <time>2012-02-23T15:38:00Z</time>
      </trkpt>
      <trkpt lat="47.22792" lon="-0.88205">
        <ele>93</ele>
        <time>2012-02-23T15:38:01Z</time>
      </trkpt>
      <trkpt lat="47.22793" lon="-0.88205">
        <ele>93</ele>
        <time>2012-02-23T15:38:02Z</time>
      </trkpt>
      <trkpt lat="47.22794" lon="-0.88205">
        <ele>93</ele>
        <time>2012-02-23T15:38:04Z</time>
      </trkpt>
      <trkpt lat="47.22796" lon="-0.88205">
        <ele>93</ele>
        <time>2012-02-23T15:38:06Z</time>
      </trkpt>
      <trkpt lat="47.22797" lon="-0.88205">
        <ele>93</ele>
        <time>2012-02-23T15:38:07Z</time>
      </trkpt>
      <trkpt lat="47.228" lon="-0.88204">
        <ele>93</ele>
        <time>2012-02-23T15:38:09Z</time>
      </trkpt>
      <trkpt lat="47.22802" lon="-0.88204">
        <ele>93</ele>
        <time>2012-02-23T15:38:11Z</time>
      </trkpt>
      <trkpt lat="47.22803" lon="-0.88203">
        <ele>93</ele>
        <time>2012-02-23T15:38:12Z</time>
      </trkpt>
      <trkpt lat="47.22805" lon="-0.88203">
        <ele>93</ele>
        <time>2012-02-23T15:38:14Z</time>
      </trkpt>
      <trkpt lat="47.22806" lon="-0.88202">
        <ele>93</ele>
        <time>2012-02-23T15:38:15Z</time>
      </trkpt>
      <trkpt lat="47.22807" lon="-0.88202">
        <ele>93</ele>
        <time>2012-02-23T15:38:16Z</time>
      </trkpt>
      <trkpt lat="47.22809" lon="-0.88203">
        <ele>93</ele>
        <time>2012-02-23T15:38:18Z</time>
      </trkpt>
      <trkpt lat="47.22812" lon="-0.88201">
        <ele>93</ele>
        <time>2012-02-23T15:38:20Z</time>
      </trkpt>
      <trkpt lat="47.22813" lon="-0.882">
        <ele>94</ele>
        <time>2012-02-23T15:38:21Z</time>
      </trkpt>
      <trkpt lat="47.22814" lon="-0.882">
        <ele>94</ele>
        <time>2012-02-23T15:38:22Z</time>
      </trkpt>
      <trkpt lat="47.22816" lon="-0.88199">
        <ele>94</ele>
        <time>2012-02-23T15:38:24Z</time>
      </trkpt>
      <trkpt lat="47.22818" lon="-0.88199">
        <ele>94</ele>
        <time>2012-02-23T15:38:25Z</time>
      </trkpt>
      <trkpt lat="47.22819" lon="-0.88198">
        <ele>94</ele>
        <time>2012-02-23T15:38:26Z</time>
      </trkpt>
      <trkpt lat="47.2282" lon="-0.88198">
        <ele>94</ele>
        <time>2012-02-23T15:38:27Z</time>
      </trkpt>
      <trkpt lat="47.22821" lon="-0.88198">
        <ele>95</ele>
        <time>2012-02-23T15:38:28Z</time>
      </trkpt>
      <trkpt lat="47.22822" lon="-0.88197">
        <ele>95</ele>
        <time>2012-02-23T15:38:29Z</time>
      </trkpt>
      <trkpt lat="47.22824" lon="-0.88197">
        <ele>95</ele>
        <time>2012-02-23T15:38:30Z</time>
      </trkpt>
      <trkpt lat="47.22825" lon="-0.88197">
        <ele>95</ele>
        <time>2012-02-23T15:38:31Z</time>
      </trkpt>
      <trkpt lat="47.22827" lon="-0.88196">
        <ele>96</ele>
        <time>2012-02-23T15:38:33Z</time>
      </trkpt>
      <trkpt lat="47.22828" lon="-0.88196">
        <ele>96</ele>
        <time>2012-02-23T15:38:34Z</time>
      </trkpt>
      <trkpt lat="47.22829" lon="-0.88196">
        <ele>96</ele>
        <time>2012-02-23T15:38:35Z</time>
      </trkpt>
      <trkpt lat="47.22831" lon="-0.88196">
        <ele>96</ele>
        <time>2012-02-23T15:38:37Z</time>
      </trkpt>
      <trkpt lat="47.22833" lon="-0.88196">
        <ele>96</ele>
        <time>2012-02-23T15:38:38Z</time>
      </trkpt>
      <trkpt lat="47.22835" lon="-0.88195">
        <ele>96</ele>
        <time>2012-02-23T15:38:40Z</time>
      </trkpt>
      <trkpt lat="47.22837" lon="-0.88195">
        <ele>96</ele>
        <time>2012-02-23T15:38:42Z</time>
      </trkpt>
      <trkpt lat="47.22839" lon="-0.88194">
        <ele>96</ele>
        <time>2012-02-23T15:38:44Z</time>
      </trkpt>
      <trkpt lat="47.2284" lon="-0.88194">
        <ele>96</ele>
        <time>2012-02-23T15:38:45Z</time>
      </trkpt>
      <trkpt lat="47.22841" lon="-0.88193">
        <ele>96</ele>
        <time>2012-02-23T15:38:46Z</time>
      </trkpt>
      <trkpt lat="47.22843" lon="-0.88193">
        <ele>96</ele>
        <time>2012-02-23T15:38:48Z</time>
      </trkpt>
      <trkpt lat="47.22845" lon="-0.88192">
        <ele>96</ele>
        <time>2012-02-23T15:38:50Z</time>
      </trkpt>
      <trkpt lat="47.22847" lon="-0.88192">
        <ele>96</ele>
        <time>2012-02-23T15:38:52Z</time>
      </trkpt>
      <trkpt lat="47.22849" lon="-0.88191">
        <ele>96</ele>
        <time>2012-02-23T15:38:54Z</time>
      </trkpt>
      <trkpt lat="47.22851" lon="-0.88189">
        <ele>96</ele>
        <time>2012-02-23T15:38:56Z</time>
      </trkpt>
      <trkpt lat="47.22852" lon="-0.88188">
        <ele>96</ele>
        <time>2012-02-23T15:38:57Z</time>
      </trkpt>
      <trkpt lat="47.22854" lon="-0.88188">
        <ele>96</ele>
        <time>2012-02-23T15:38:59Z</time>
      </trkpt>
      <trkpt lat="47.22856" lon="-0.88188">
        <ele>96</ele>
        <time>2012-02-23T15:39:01Z</time>
      </trkpt>
      <trkpt lat="47.22858" lon="-0.88187">
        <ele>96</ele>
        <time>2012-02-23T15:39:03Z</time>
      </trkpt>
      <trkpt lat="47.22859" lon="-0.88187">
        <ele>96</ele>
        <time>2012-02-23T15:39:04Z</time>
      </trkpt>
      <trkpt lat="47.2286" lon="-0.88186">
        <ele>96</ele>
        <time>2012-02-23T15:39:05Z</time>
      </trkpt>
      <trkpt lat="47.22862" lon="-0.88186">
        <ele>96</ele>
        <time>2012-02-23T15:39:06Z</time>
      </trkpt>
      <trkpt lat="47.22863" lon="-0.88186">
        <ele>96</ele>
        <time>2012-02-23T15:39:07Z</time>
      </trkpt>
      <trkpt lat="47.22864" lon="-0.88186">
        <ele>96</ele>
        <time>2012-02-23T15:39:08Z</time>
      </trkpt>
      <trkpt lat="47.22866" lon="-0.88185">
        <ele>96</ele>
        <time>2012-02-23T15:39:09Z</time>
      </trkpt>
      <trkpt lat="47.22867" lon="-0.88184">
        <ele>96</ele>
        <time>2012-02-23T15:39:10Z</time>
      </trkpt>
      <trkpt lat="47.22868" lon="-0.88184">
        <ele>96</ele>
        <time>2012-02-23T15:39:11Z</time>
      </trkpt>
      <trkpt lat="47.22869" lon="-0.88184">
        <ele>96</ele>
        <time>2012-02-23T15:39:12Z</time>
      </trkpt>
      <trkpt lat="47.22871" lon="-0.88183">
        <ele>96</ele>
        <time>2012-02-23T15:39:13Z</time>
      </trkpt>
      <trkpt lat="47.22873" lon="-0.88182">
        <ele>96</ele>
        <time>2012-02-23T15:39:15Z</time>
      </trkpt>
      <trkpt lat="47.22874" lon="-0.88182">
        <ele>96</ele>
        <time>2012-02-23T15:39:17Z</time>
      </trkpt>
      <trkpt lat="47.22877" lon="-0.88181">
        <ele>96</ele>
        <time>2012-02-23T15:39:19Z</time>
      </trkpt>
      <trkpt lat="47.22878" lon="-0.88181">
        <ele>96</ele>
        <time>2012-02-23T15:39:20Z</time>
      </trkpt>
      <trkpt lat="47.2288" lon="-0.8818">
        <ele>96</ele>
        <time>2012-02-23T15:39:22Z</time>
      </trkpt>
      <trkpt lat="47.22882" lon="-0.88178">
        <ele>96</ele>
        <time>2012-02-23T15:39:24Z</time>
      </trkpt>
      <trkpt lat="47.22883" lon="-0.88178">
        <ele>96</ele>
        <time>2012-02-23T15:39:25Z</time>
      </trkpt>
      <trkpt lat="47.22885" lon="-0.88178">
        <ele>96</ele>
        <time>2012-02-23T15:39:27Z</time>
      </trkpt>
      <trkpt lat="47.22887" lon="-0.88177">
        <ele>97</ele>
        <time>2012-02-23T15:39:29Z</time>
      </trkpt>
      <trkpt lat="47.22889" lon="-0.88176">
        <ele>97</ele>
        <time>2012-02-23T15:39:30Z</time>
      </trkpt>
      <trkpt lat="47.2289" lon="-0.88176">
        <ele>97</ele>
        <time>2012-02-23T15:39:31Z</time>
      </trkpt>
      <trkpt lat="47.22891" lon="-0.88176">
        <ele>97</ele>
        <time>2012-02-23T15:39:32Z</time>
      </trkpt>
      <trkpt lat="47.22892" lon="-0.88175">
        <ele>98</ele>
        <time>2012-02-23T15:39:33Z</time>
      </trkpt>
      <trkpt lat="47.22893" lon="-0.88175">
        <ele>98</ele>
        <time>2012-02-23T15:39:34Z</time>
      </trkpt>
      <trkpt lat="47.22895" lon="-0.88174">
        <ele>98</ele>
        <time>2012-02-23T15:39:35Z</time>
      </trkpt>
      <trkpt lat="47.22896" lon="-0.88174">
        <ele>98</ele>
        <time>2012-02-23T15:39:36Z</time>
      </trkpt>
      <trkpt lat="47.22897" lon="-0.88174">
        <ele>98</ele>
        <time>2012-02-23T15:39:37Z</time>
      </trkpt>
      <trkpt lat="47.22899" lon="-0.88173">
        <ele>98</ele>
        <time>2012-02-23T15:39:39Z</time>
      </trkpt>
      <trkpt lat="47.22901" lon="-0.88172">
        <ele>98</ele>
        <time>2012-02-23T15:39:41Z</time>
      </trkpt>
      <trkpt lat="47.22902" lon="-0.88172">
        <ele>98</ele>
        <time>2012-02-23T15:39:42Z</time>
      </trkpt>
      <trkpt lat="47.22904" lon="-0.88172">
        <ele>99</ele>
        <time>2012-02-23T15:39:44Z</time>
      </trkpt>
      <trkpt lat="47.22905" lon="-0.88172">
        <ele>99</ele>
        <time>2012-02-23T15:39:45Z</time>
      </trkpt>
      <trkpt lat="47.22906" lon="-0.88172">
        <ele>99</ele>
        <time>2012-02-23T15:39:46Z</time>
      </trkpt>
      <trkpt lat="47.22908" lon="-0.88171">
        <ele>99</ele>
        <time>2012-02-23T15:39:48Z</time>
      </trkpt>
      <trkpt lat="47.2291" lon="-0.88169">
        <ele>100</ele>
        <time>2012-02-23T15:39:50Z</time>
      </trkpt>
      <trkpt lat="47.22912" lon="-0.88169">
        <ele>100</ele>
        <time>2012-02-23T15:39:52Z</time>
      </trkpt>
      <trkpt lat="47.22914" lon="-0.88168">
        <ele>100</ele>
        <time>2012-02-23T15:39:54Z</time>
      </trkpt>
      <trkpt lat="47.22916" lon="-0.88168">
        <ele>101</ele>
        <time>2012-02-23T15:39:56Z</time>
      </trkpt>
      <trkpt lat="47.22918" lon="-0.88168">
        <ele>101</ele>
        <time>2012-02-23T15:39:58Z</time>
      </trkpt>
      <trkpt lat="47.22919" lon="-0.88168">
        <ele>101</ele>
        <time>2012-02-23T15:39:59Z</time>
      </trkpt>
      <trkpt lat="47.2292" lon="-0.88167">
        <ele>101</ele>
        <time>2012-02-23T15:40:00Z</time>
      </trkpt>
      <trkpt lat="47.22921" lon="-0.88167">
        <ele>101</ele>
        <time>2012-02-23T15:40:01Z</time>
      </trkpt>
      <trkpt lat="47.22923" lon="-0.88166">
        <ele>101</ele>
        <time>2012-02-23T15:40:03Z</time>
      </trkpt>
      <trkpt lat="47.22925" lon="-0.88166">
        <ele>101</ele>
        <time>2012-02-23T15:40:05Z</time>
      </trkpt>
      <trkpt lat="47.22926" lon="-0.88166">
        <ele>101</ele>
        <time>2012-02-23T15:40:06Z</time>
      </trkpt>
      <trkpt lat="47.22929" lon="-0.88165">
        <ele>101</ele>
        <time>2012-02-23T15:40:08Z</time>
      </trkpt>
      <trkpt lat="47.2293" lon="-0.88165">
        <ele>101</ele>
        <time>2012-02-23T15:40:10Z</time>
      </trkpt>
      <trkpt lat="47.22931" lon="-0.88165">
        <ele>101</ele>
        <time>2012-02-23T15:40:11Z</time>
      </trkpt>
      <trkpt lat="47.22933" lon="-0.88164">
        <ele>101</ele>
        <time>2012-02-23T15:40:13Z</time>
      </trkpt>
      <trkpt lat="47.22935" lon="-0.88164">
        <ele>101</ele>
        <time>2012-02-23T15:40:15Z</time>
      </trkpt>
      <trkpt lat="47.22937" lon="-0.88164">
        <ele>101</ele>
        <time>2012-02-23T15:40:16Z</time>
      </trkpt>
      <trkpt lat="47.22938" lon="-0.88163">
        <ele>101</ele>
        <time>2012-02-23T15:40:17Z</time>
      </trkpt>
      <trkpt lat="47.2294" lon="-0.88163">
        <ele>101</ele>
        <time>2012-02-23T15:40:19Z</time>
      </trkpt>
      <trkpt lat="47.22942" lon="-0.88162">
        <ele>101</ele>
        <time>2012-02-23T15:40:21Z</time>
      </trkpt>
      <trkpt lat="47.22943" lon="-0.88162">
        <ele>101</ele>
        <time>2012-02-23T15:40:22Z</time>
      </trkpt>
      <trkpt lat="47.22944" lon="-0.88162">
        <ele>101</ele>
        <time>2012-02-23T15:40:23Z</time>
      </trkpt>
      <trkpt lat="47.22946" lon="-0.88162">
        <ele>101</ele>
        <time>2012-02-23T15:40:25Z</time>
      </trkpt>
      <trkpt lat="47.22947" lon="-0.88162">
        <ele>101</ele>
        <time>2012-02-23T15:40:26Z</time>
      </trkpt>
      <trkpt lat="47.22948" lon="-0.88162">
        <ele>101</ele>
        <time>2012-02-23T15:40:27Z</time>
      </trkpt>
      <trkpt lat="47.2295" lon="-0.88162">
        <ele>101</ele>
        <time>2012-02-23T15:40:28Z</time>
      </trkpt>
      <trkpt lat="47.22951" lon="-0.88161">
        <ele>101</ele>
        <time>2012-02-23T15:40:29Z</time>
      </trkpt>
      <trkpt lat="47.22952" lon="-0.88161">
        <ele>101</ele>
        <time>2012-02-23T15:40:30Z</time>
      </trkpt>
      <trkpt lat="47.22953" lon="-0.88161">
        <ele>101</ele>
        <time>2012-02-23T15:40:31Z</time>
      </trkpt>
      <trkpt lat="47.22955" lon="-0.8816">
        <ele>101</ele>
        <time>2012-02-23T15:40:33Z</time>
      </trkpt>
      <trkpt lat="47.22957" lon="-0.88158">
        <ele>101</ele>
        <time>2012-02-23T15:40:35Z</time>
      </trkpt>
      <trkpt lat="47.22958" lon="-0.88158">
        <ele>101</ele>
        <time>2012-02-23T15:40:36Z</time>
      </trkpt>
      <trkpt lat="47.2296" lon="-0.88157">
        <ele>101</ele>
        <time>2012-02-23T15:40:37Z</time>
      </trkpt>
      <trkpt lat="47.22961" lon="-0.88157">
        <ele>101</ele>
        <time>2012-02-23T15:40:39Z</time>
      </trkpt>
      <trkpt lat="47.22963" lon="-0.88157">
        <ele>101</ele>
        <time>2012-02-23T15:40:40Z</time>
      </trkpt>
      <trkpt lat="47.22964" lon="-0.88156">
        <ele>101</ele>
        <time>2012-02-23T15:40:42Z</time>
      </trkpt>
      <trkpt lat="47.22966" lon="-0.88155">
        <ele>101</ele>
        <time>2012-02-23T15:40:44Z</time>
      </trkpt>
      <trkpt lat="47.22968" lon="-0.88155">
        <ele>101</ele>
        <time>2012-02-23T15:40:46Z</time>
      </trkpt>
      <trkpt lat="47.2297" lon="-0.88155">
        <ele>101</ele>
        <time>2012-02-23T15:40:48Z</time>
      </trkpt>
      <trkpt lat="47.22972" lon="-0.88154">
        <ele>100</ele>
        <time>2012-02-23T15:40:50Z</time>
      </trkpt>
      <trkpt lat="47.22974" lon="-0.88153">
        <ele>100</ele>
        <time>2012-02-23T15:40:52Z</time>
      </trkpt>
      <trkpt lat="47.22976" lon="-0.88152">
        <ele>100</ele>
        <time>2012-02-23T15:40:53Z</time>
      </trkpt>
      <trkpt lat="47.22978" lon="-0.8815">
        <ele>100</ele>
        <time>2012-02-23T15:40:55Z</time>
      </trkpt>
      <trkpt lat="47.2298" lon="-0.88148">
        <ele>100</ele>
        <time>2012-02-23T15:40:57Z</time>
      </trkpt>
      <trkpt lat="47.22982" lon="-0.88147">
        <ele>100</ele>
        <time>2012-02-23T15:40:59Z</time>
      </trkpt>
      <trkpt lat="47.22983" lon="-0.88146">
        <ele>100</ele>
        <time>2012-02-23T15:41:00Z</time>
      </trkpt>
      <trkpt lat="47.22985" lon="-0.88144">
        <ele>100</ele>
        <time>2012-02-23T15:41:02Z</time>
      </trkpt>
      <trkpt lat="47.22986" lon="-0.88143">
        <ele>100</ele>
        <time>2012-02-23T15:41:03Z</time>
      </trkpt>
      <trkpt lat="47.22988" lon="-0.88141">
        <ele>100</ele>
        <time>2012-02-23T15:41:05Z</time>
      </trkpt>
      <trkpt lat="47.2299" lon="-0.88139">
        <ele>100</ele>
        <time>2012-02-23T15:41:07Z</time>
      </trkpt>
      <trkpt lat="47.22992" lon="-0.88137">
        <ele>100</ele>
        <time>2012-02-23T15:41:09Z</time>
      </trkpt>
      <trkpt lat="47.22994" lon="-0.88135">
        <ele>100</ele>
        <time>2012-02-23T15:41:11Z</time>
      </trkpt>
      <trkpt lat="47.22996" lon="-0.88134">
        <ele>100</ele>
        <time>2012-02-23T15:41:13Z</time>
      </trkpt>
      <trkpt lat="47.22998" lon="-0.88132">
        <ele>100</ele>
        <time>2012-02-23T15:41:15Z</time>
      </trkpt>
      <trkpt lat="47.23" lon="-0.8813">
        <ele>100</ele>
        <time>2012-02-23T15:41:17Z</time>
      </trkpt>
      <trkpt lat="47.23001" lon="-0.88129">
        <ele>100</ele>
        <time>2012-02-23T15:41:19Z</time>
      </trkpt>
      <trkpt lat="47.23003" lon="-0.88128">
        <ele>100</ele>
        <time>2012-02-23T15:41:21Z</time>
      </trkpt>
      <trkpt lat="47.23005" lon="-0.88126">
        <ele>100</ele>
        <time>2012-02-23T15:41:23Z</time>
      </trkpt>
      <trkpt lat="47.23006" lon="-0.88125">
        <ele>100</ele>
        <time>2012-02-23T15:41:24Z</time>
      </trkpt>
      <trkpt lat="47.23008" lon="-0.88124">
        <ele>100</ele>
        <time>2012-02-23T15:41:26Z</time>
      </trkpt>
      <trkpt lat="47.23009" lon="-0.88124">
        <ele>100</ele>
        <time>2012-02-23T15:41:28Z</time>
      </trkpt>
      <trkpt lat="47.23011" lon="-0.88123">
        <ele>100</ele>
        <time>2012-02-23T15:41:29Z</time>
      </trkpt>
      <trkpt lat="47.23012" lon="-0.88123">
        <ele>100</ele>
        <time>2012-02-23T15:41:30Z</time>
      </trkpt>
      <trkpt lat="47.23014" lon="-0.88124">
        <ele>100</ele>
        <time>2012-02-23T15:41:32Z</time>
      </trkpt>
      <trkpt lat="47.23015" lon="-0.88125">
        <ele>100</ele>
        <time>2012-02-23T15:41:33Z</time>
      </trkpt>
      <trkpt lat="47.23016" lon="-0.88125">
        <ele>100</ele>
        <time>2012-02-23T15:41:34Z</time>
      </trkpt>
      <trkpt lat="47.23018" lon="-0.88127">
        <ele>100</ele>
        <time>2012-02-23T15:41:36Z</time>
      </trkpt>
      <trkpt lat="47.23019" lon="-0.88127">
        <ele>100</ele>
        <time>2012-02-23T15:41:37Z</time>
      </trkpt>
      <trkpt lat="47.23021" lon="-0.88127">
        <ele>100</ele>
        <time>2012-02-23T15:41:38Z</time>
      </trkpt>
      <trkpt lat="47.23022" lon="-0.88127">
        <ele>100</ele>
        <time>2012-02-23T15:41:39Z</time>
      </trkpt>
      <trkpt lat="47.23024" lon="-0.88128">
        <ele>100</ele>
        <time>2012-02-23T15:41:40Z</time>
      </trkpt>
      <trkpt lat="47.23025" lon="-0.88128">
        <ele>100</ele>
        <time>2012-02-23T15:41:41Z</time>
      </trkpt>
      <trkpt lat="47.23026" lon="-0.88129">
        <ele>100</ele>
        <time>2012-02-23T15:41:42Z</time>
      </trkpt>
      <trkpt lat="47.23027" lon="-0.88129">
        <ele>100</ele>
        <time>2012-02-23T15:41:43Z</time>
      </trkpt>
      <trkpt lat="47.23029" lon="-0.88129">
        <ele>100</ele>
        <time>2012-02-23T15:41:44Z</time>
      </trkpt>
      <trkpt lat="47.2303" lon="-0.88129">
        <ele>100</ele>
        <time>2012-02-23T15:41:45Z</time>
      </trkpt>
      <trkpt lat="47.23031" lon="-0.88128">
        <ele>100</ele>
        <time>2012-02-23T15:41:46Z</time>
      </trkpt>
      <trkpt lat="47.23033" lon="-0.88128">
        <ele>100</ele>
        <time>2012-02-23T15:41:48Z</time>
      </trkpt>
      <trkpt lat="47.23035" lon="-0.88128">
        <ele>100</ele>
        <time>2012-02-23T15:41:49Z</time>
      </trkpt>
      <trkpt lat="47.23036" lon="-0.88126">
        <ele>100</ele>
        <time>2012-02-23T15:41:51Z</time>
      </trkpt>
      <trkpt lat="47.23038" lon="-0.88125">
        <ele>100</ele>
        <time>2012-02-23T15:41:53Z</time>
      </trkpt>
      <trkpt lat="47.23039" lon="-0.88122">
        <ele>100</ele>
        <time>2012-02-23T15:41:55Z</time>
      </trkpt>
      <trkpt lat="47.23041" lon="-0.88121">
        <ele>100</ele>
        <time>2012-02-23T15:41:57Z</time>
      </trkpt>
      <trkpt lat="47.23043" lon="-0.8812">
        <ele>100</ele>
        <time>2012-02-23T15:41:59Z</time>
      </trkpt>
      <trkpt lat="47.23045" lon="-0.88118">
        <ele>100</ele>
        <time>2012-02-23T15:42:01Z</time>
      </trkpt>
      <trkpt lat="47.23047" lon="-0.88118">
        <ele>100</ele>
        <time>2012-02-23T15:42:03Z</time>
      </trkpt>
      <trkpt lat="47.23048" lon="-0.88118">
        <ele>100</ele>
        <time>2012-02-23T15:42:04Z</time>
      </trkpt>
      <trkpt lat="47.2305" lon="-0.88119">
        <ele>100</ele>
        <time>2012-02-23T15:42:05Z</time>
      </trkpt>
      <trkpt lat="47.23051" lon="-0.88119">
        <ele>100</ele>
        <time>2012-02-23T15:42:06Z</time>
      </trkpt>
      <trkpt lat="47.23052" lon="-0.8812">
        <ele>100</ele>
        <time>2012-02-23T15:42:07Z</time>
      </trkpt>
      <trkpt lat="47.23054" lon="-0.88121">
        <ele>100</ele>
        <time>2012-02-23T15:42:09Z</time>
      </trkpt>
      <trkpt lat="47.23056" lon="-0.88124">
        <ele>100</ele>
        <time>2012-02-23T15:42:11Z</time>
      </trkpt>
      <trkpt lat="47.23058" lon="-0.88126">
        <ele>100</ele>
        <time>2012-02-23T15:42:13Z</time>
      </trkpt>
      <trkpt lat="47.2306" lon="-0.88128">
        <ele>100</ele>
        <time>2012-02-23T15:42:15Z</time>
      </trkpt>
      <trkpt lat="47.23062" lon="-0.88131">
        <ele>100</ele>
        <time>2012-02-23T15:42:17Z</time>
      </trkpt>
      <trkpt lat="47.23063" lon="-0.88133">
        <ele>100</ele>
        <time>2012-02-23T15:42:19Z</time>
      </trkpt>
      <trkpt lat="47.23064" lon="-0.88136">
        <ele>100</ele>
        <time>2012-02-23T15:42:21Z</time>
      </trkpt>
      <trkpt lat="47.23066" lon="-0.88138">
        <ele>100</ele>
        <time>2012-02-23T15:42:23Z</time>
      </trkpt>
      <trkpt lat="47.23067" lon="-0.88141">
        <ele>100</ele>
        <time>2012-02-23T15:42:25Z</time>
      </trkpt>
      <trkpt lat="47.23069" lon="-0.88143">
        <ele>100</ele>
        <time>2012-02-23T15:42:27Z</time>
      </trkpt>
      <trkpt lat="47.23071" lon="-0.88146">
        <ele>100</ele>
        <time>2012-02-23T15:42:29Z</time>
      </trkpt>
      <trkpt lat="47.23072" lon="-0.88148">
        <ele>100</ele>
        <time>2012-02-23T15:42:31Z</time>
      </trkpt>
      <trkpt lat="47.23074" lon="-0.88149">
        <ele>100</ele>
        <time>2012-02-23T15:42:32Z</time>
      </trkpt>
      <trkpt lat="47.23074" lon="-0.88151">
        <ele>100</ele>
        <time>2012-02-23T15:42:33Z</time>
      </trkpt>
      <trkpt lat="47.23075" lon="-0.88153">
        <ele>100</ele>
        <time>2012-02-23T15:42:35Z</time>
      </trkpt>
      <trkpt lat="47.23077" lon="-0.88156">
        <ele>100</ele>
        <time>2012-02-23T15:42:37Z</time>
      </trkpt>
      <trkpt lat="47.23079" lon="-0.88159">
        <ele>100</ele>
        <time>2012-02-23T15:42:39Z</time>
      </trkpt>
      <trkpt lat="47.2308" lon="-0.88161">
        <ele>100</ele>
        <time>2012-02-23T15:42:40Z</time>
      </trkpt>
      <trkpt lat="47.23082" lon="-0.88163">
        <ele>100</ele>
        <time>2012-02-23T15:42:42Z</time>
      </trkpt>
      <trkpt lat="47.23083" lon="-0.88165">
        <ele>100</ele>
        <time>2012-02-23T15:42:44Z</time>
      </trkpt>
      <trkpt lat="47.23085" lon="-0.88167">
        <ele>100</ele>
        <time>2012-02-23T15:42:46Z</time>
      </trkpt>
      <trkpt lat="47.23086" lon="-0.88168">
        <ele>100</ele>
        <time>2012-02-23T15:42:48Z</time>
      </trkpt>
      <trkpt lat="47.23088" lon="-0.8817">
        <ele>100</ele>
        <time>2012-02-23T15:42:50Z</time>
      </trkpt>
      <trkpt lat="47.23089" lon="-0.8817">
        <ele>100</ele>
        <time>2012-02-23T15:42:52Z</time>
      </trkpt>
      <trkpt lat="47.23093" lon="-0.88168">
        <ele>106</ele>
        <time>2012-02-23T15:42:56Z</time>
      </trkpt>
      <trkpt lat="47.23094" lon="-0.88169">
        <ele>106</ele>
        <time>2012-02-23T15:42:58Z</time>
      </trkpt>
      <trkpt lat="47.23096" lon="-0.88171">
        <ele>106</ele>
        <time>2012-02-23T15:43:00Z</time>
      </trkpt>
      <trkpt lat="47.23097" lon="-0.88171">
        <ele>106</ele>
        <time>2012-02-23T15:43:02Z</time>
      </trkpt>
      <trkpt lat="47.23098" lon="-0.88173">
        <ele>106</ele>
        <time>2012-02-23T15:43:07Z</time>
      </trkpt>
      <trkpt lat="47.231" lon="-0.88174">
        <ele>106</ele>
        <time>2012-02-23T15:43:10Z</time>
      </trkpt>
      <trkpt lat="47.23101" lon="-0.88176">
        <ele>106</ele>
        <time>2012-02-23T15:43:12Z</time>
      </trkpt>
      <trkpt lat="47.23103" lon="-0.88178">
        <ele>106</ele>
        <time>2012-02-23T15:43:14Z</time>
      </trkpt>
      <trkpt lat="47.23104" lon="-0.8818">
        <ele>106</ele>
        <time>2012-02-23T15:43:18Z</time>
      </trkpt>
      <trkpt lat="47.23106" lon="-0.88181">
        <ele>106</ele>
        <time>2012-02-23T15:43:20Z</time>
      </trkpt>
      <trkpt lat="47.23107" lon="-0.88182">
        <ele>106</ele>
        <time>2012-02-23T15:43:23Z</time>
      </trkpt>
      <trkpt lat="47.23108" lon="-0.88183">
        <ele>106</ele>
        <time>2012-02-23T15:43:25Z</time>
      </trkpt>
      <trkpt lat="47.23109" lon="-0.88183">
        <ele>106</ele>
        <time>2012-02-23T15:43:29Z</time>
      </trkpt>
      <trkpt lat="47.23111" lon="-0.88186">
        <ele>105</ele>
        <time>2012-02-23T15:43:42Z</time>
      </trkpt>
      <trkpt lat="47.23112" lon="-0.88188">
        <ele>105</ele>
        <time>2012-02-23T15:43:44Z</time>
      </trkpt>
      <trkpt lat="47.23114" lon="-0.88189">
        <ele>105</ele>
        <time>2012-02-23T15:43:46Z</time>
      </trkpt>
      <trkpt lat="47.23116" lon="-0.8819">
        <ele>105</ele>
        <time>2012-02-23T15:43:47Z</time>
      </trkpt>
      <trkpt lat="47.23117" lon="-0.88191">
        <ele>105</ele>
        <time>2012-02-23T15:43:48Z</time>
      </trkpt>
      <trkpt lat="47.23118" lon="-0.88191">
        <ele>104</ele>
        <time>2012-02-23T15:43:49Z</time>
      </trkpt>
      <trkpt lat="47.23119" lon="-0.88192">
        <ele>104</ele>
        <time>2012-02-23T15:43:50Z</time>
      </trkpt>
      <trkpt lat="47.23122" lon="-0.88192">
        <ele>104</ele>
        <time>2012-02-23T15:43:52Z</time>
      </trkpt>
      <trkpt lat="47.23123" lon="-0.88193">
        <ele>104</ele>
        <time>2012-02-23T15:43:53Z</time>
      </trkpt>
      <trkpt lat="47.23125" lon="-0.88194">
        <ele>103</ele>
        <time>2012-02-23T15:43:55Z</time>
      </trkpt>
      <trkpt lat="47.23126" lon="-0.88193">
        <ele>103</ele>
        <time>2012-02-23T15:43:56Z</time>
      </trkpt>
      <trkpt lat="47.23128" lon="-0.88191">
        <ele>103</ele>
        <time>2012-02-23T15:43:58Z</time>
      </trkpt>
      <trkpt lat="47.2313" lon="-0.8819">
        <ele>103</ele>
        <time>2012-02-23T15:44:00Z</time>
      </trkpt>
      <trkpt lat="47.23131" lon="-0.88187">
        <ele>103</ele>
        <time>2012-02-23T15:44:02Z</time>
      </trkpt>
      <trkpt lat="47.23133" lon="-0.88186">
        <ele>103</ele>
        <time>2012-02-23T15:44:04Z</time>
      </trkpt>
      <trkpt lat="47.23134" lon="-0.88184">
        <ele>103</ele>
        <time>2012-02-23T15:44:06Z</time>
      </trkpt>
      <trkpt lat="47.23136" lon="-0.88182">
        <ele>103</ele>
        <time>2012-02-23T15:44:08Z</time>
      </trkpt>
      <trkpt lat="47.23138" lon="-0.8818">
        <ele>103</ele>
        <time>2012-02-23T15:44:10Z</time>
      </trkpt>
      <trkpt lat="47.23139" lon="-0.88179">
        <ele>103</ele>
        <time>2012-02-23T15:44:11Z</time>
      </trkpt>
      <trkpt lat="47.23141" lon="-0.88177">
        <ele>103</ele>
        <time>2012-02-23T15:44:13Z</time>
      </trkpt>
      <trkpt lat="47.23143" lon="-0.88175">
        <ele>103</ele>
        <time>2012-02-23T15:44:15Z</time>
      </trkpt>
      <trkpt lat="47.23145" lon="-0.88172">
        <ele>103</ele>
        <time>2012-02-23T15:44:17Z</time>
      </trkpt>
      <trkpt lat="47.23146" lon="-0.8817">
        <ele>103</ele>
        <time>2012-02-23T15:44:19Z</time>
      </trkpt>
      <trkpt lat="47.23148" lon="-0.88168">
        <ele>103</ele>
        <time>2012-02-23T15:44:21Z</time>
      </trkpt>
      <trkpt lat="47.23149" lon="-0.88165">
        <ele>103</ele>
        <time>2012-02-23T15:44:23Z</time>
      </trkpt>
      <trkpt lat="47.23151" lon="-0.88163">
        <ele>103</ele>
        <time>2012-02-23T15:44:25Z</time>
      </trkpt>
      <trkpt lat="47.23153" lon="-0.88161">
        <ele>103</ele>
        <time>2012-02-23T15:44:27Z</time>
      </trkpt>
      <trkpt lat="47.23155" lon="-0.88158">
        <ele>103</ele>
        <time>2012-02-23T15:44:29Z</time>
      </trkpt>
      <trkpt lat="47.23156" lon="-0.88156">
        <ele>103</ele>
        <time>2012-02-23T15:44:31Z</time>
      </trkpt>
      <trkpt lat="47.23157" lon="-0.88154">
        <ele>103</ele>
        <time>2012-02-23T15:44:32Z</time>
      </trkpt>
      <trkpt lat="47.23159" lon="-0.88152">
        <ele>103</ele>
        <time>2012-02-23T15:44:34Z</time>
      </trkpt>
      <trkpt lat="47.23161" lon="-0.8815">
        <ele>103</ele>
        <time>2012-02-23T15:44:36Z</time>
      </trkpt>
      <trkpt lat="47.23162" lon="-0.88148">
        <ele>103</ele>
        <time>2012-02-23T15:44:37Z</time>
      </trkpt>
      <trkpt lat="47.23163" lon="-0.88146">
        <ele>103</ele>
        <time>2012-02-23T15:44:39Z</time>
      </trkpt>
      <trkpt lat="47.23165" lon="-0.88143">
        <ele>103</ele>
        <time>2012-02-23T15:44:41Z</time>
      </trkpt>
      <trkpt lat="47.23166" lon="-0.88142">
        <ele>103</ele>
        <time>2012-02-23T15:44:43Z</time>
      </trkpt>
      <trkpt lat="47.23167" lon="-0.88139">
        <ele>103</ele>
        <time>2012-02-23T15:44:45Z</time>
      </trkpt>
      <trkpt lat="47.23169" lon="-0.88137">
        <ele>103</ele>
        <time>2012-02-23T15:44:47Z</time>
      </trkpt>
      <trkpt lat="47.2317" lon="-0.88135">
        <ele>103</ele>
        <time>2012-02-23T15:44:49Z</time>
      </trkpt>
      <trkpt lat="47.23172" lon="-0.88133">
        <ele>103</ele>
        <time>2012-02-23T15:44:51Z</time>
      </trkpt>
      <trkpt lat="47.23174" lon="-0.88131">
        <ele>103</ele>
        <time>2012-02-23T15:44:53Z</time>
      </trkpt>
      <trkpt lat="47.23175" lon="-0.88129">
        <ele>103</ele>
        <time>2012-02-23T15:44:55Z</time>
      </trkpt>
      <trkpt lat="47.23177" lon="-0.88126">
        <ele>103</ele>
        <time>2012-02-23T15:44:57Z</time>
      </trkpt>
      <trkpt lat="47.23179" lon="-0.88124">
        <ele>103</ele>
        <time>2012-02-23T15:44:59Z</time>
      </trkpt>
      <trkpt lat="47.2318" lon="-0.88123">
        <ele>103</ele>
        <time>2012-02-23T15:45:00Z</time>
      </trkpt>
      <trkpt lat="47.23182" lon="-0.88121">
        <ele>103</ele>
        <time>2012-02-23T15:45:02Z</time>
      </trkpt>
      <trkpt lat="47.23184" lon="-0.88121">
        <ele>103</ele>
        <time>2012-02-23T15:45:03Z</time>
      </trkpt>
      <trkpt lat="47.23185" lon="-0.88119">
        <ele>103</ele>
        <time>2012-02-23T15:45:05Z</time>
      </trkpt>
      <trkpt lat="47.23187" lon="-0.88117">
        <ele>103</ele>
        <time>2012-02-23T15:45:07Z</time>
      </trkpt>
      <trkpt lat="47.23189" lon="-0.88116">
        <ele>103</ele>
        <time>2012-02-23T15:45:09Z</time>
      </trkpt>
      <trkpt lat="47.2319" lon="-0.88115">
        <ele>103</ele>
        <time>2012-02-23T15:45:10Z</time>
      </trkpt>
      <trkpt lat="47.23191" lon="-0.88114">
        <ele>103</ele>
        <time>2012-02-23T15:45:11Z</time>
      </trkpt>
      <trkpt lat="47.23192" lon="-0.88114">
        <ele>103</ele>
        <time>2012-02-23T15:45:12Z</time>
      </trkpt>
      <trkpt lat="47.23194" lon="-0.88113">
        <ele>103</ele>
        <time>2012-02-23T15:45:14Z</time>
      </trkpt>
      <trkpt lat="47.23196" lon="-0.88112">
        <ele>103</ele>
        <time>2012-02-23T15:45:16Z</time>
      </trkpt>
      <trkpt lat="47.23198" lon="-0.88111">
        <ele>103</ele>
        <time>2012-02-23T15:45:17Z</time>
      </trkpt>
      <trkpt lat="47.23199" lon="-0.8811">
        <ele>103</ele>
        <time>2012-02-23T15:45:18Z</time>
      </trkpt>
      <trkpt lat="47.23201" lon="-0.88109">
        <ele>103</ele>
        <time>2012-02-23T15:45:20Z</time>
      </trkpt>
      <trkpt lat="47.23203" lon="-0.88108">
        <ele>103</ele>
        <time>2012-02-23T15:45:22Z</time>
      </trkpt>
      <trkpt lat="47.23205" lon="-0.88106">
        <ele>103</ele>
        <time>2012-02-23T15:45:24Z</time>
      </trkpt>
      <trkpt lat="47.23206" lon="-0.88106">
        <ele>103</ele>
        <time>2012-02-23T15:45:25Z</time>
      </trkpt>
      <trkpt lat="47.23208" lon="-0.88104">
        <ele>103</ele>
        <time>2012-02-23T15:45:27Z</time>
      </trkpt>
      <trkpt lat="47.2321" lon="-0.88104">
        <ele>103</ele>
        <time>2012-02-23T15:45:29Z</time>
      </trkpt>
      <trkpt lat="47.23212" lon="-0.88103">
        <ele>103</ele>
        <time>2012-02-23T15:45:31Z</time>
      </trkpt>
      <trkpt lat="47.23214" lon="-0.88102">
        <ele>104</ele>
        <time>2012-02-23T15:45:33Z</time>
      </trkpt>
      <trkpt lat="47.23215" lon="-0.88101">
        <ele>104</ele>
        <time>2012-02-23T15:45:34Z</time>
      </trkpt>
      <trkpt lat="47.23217" lon="-0.881">
        <ele>104</ele>
        <time>2012-02-23T15:45:36Z</time>
      </trkpt>
      <trkpt lat="47.2322" lon="-0.881">
        <ele>104</ele>
        <time>2012-02-23T15:45:38Z</time>
      </trkpt>
      <trkpt lat="47.23221" lon="-0.881">
        <ele>104</ele>
        <time>2012-02-23T15:45:39Z</time>
      </trkpt>
      <trkpt lat="47.23222" lon="-0.88099">
        <ele>104</ele>
        <time>2012-02-23T15:45:40Z</time>
      </trkpt>
      <trkpt lat="47.23223" lon="-0.88099">
        <ele>104</ele>
        <time>2012-02-23T15:45:41Z</time>
      </trkpt>
      <trkpt lat="47.23224" lon="-0.88099">
        <ele>104</ele>
        <time>2012-02-23T15:45:42Z</time>
      </trkpt>
      <trkpt lat="47.23227" lon="-0.88098">
        <ele>105</ele>
        <time>2012-02-23T15:45:44Z</time>
      </trkpt>
      <trkpt lat="47.23228" lon="-0.88098">
        <ele>105</ele>
        <time>2012-02-23T15:45:45Z</time>
      </trkpt>
      <trkpt lat="47.23229" lon="-0.88098">
        <ele>105</ele>
        <time>2012-02-23T15:45:46Z</time>
      </trkpt>
      <trkpt lat="47.2323" lon="-0.88098">
        <ele>105</ele>
        <time>2012-02-23T15:45:47Z</time>
      </trkpt>
      <trkpt lat="47.23231" lon="-0.88097">
        <ele>105</ele>
        <time>2012-02-23T15:45:48Z</time>
      </trkpt>
      <trkpt lat="47.23233" lon="-0.88097">
        <ele>105</ele>
        <time>2012-02-23T15:45:50Z</time>
      </trkpt>
      <trkpt lat="47.23235" lon="-0.88097">
        <ele>105</ele>
        <time>2012-02-23T15:45:51Z</time>
      </trkpt>
      <trkpt lat="47.23236" lon="-0.88096">
        <ele>105</ele>
        <time>2012-02-23T15:45:52Z</time>
      </trkpt>
      <trkpt lat="47.23237" lon="-0.88096">
        <ele>105</ele>
        <time>2012-02-23T15:45:53Z</time>
      </trkpt>
      <trkpt lat="47.23239" lon="-0.88096">
        <ele>105</ele>
        <time>2012-02-23T15:45:55Z</time>
      </trkpt>
      <trkpt lat="47.2324" lon="-0.88096">
        <ele>105</ele>
        <time>2012-02-23T15:45:56Z</time>
      </trkpt>
      <trkpt lat="47.23241" lon="-0.88096">
        <ele>105</ele>
        <time>2012-02-23T15:45:57Z</time>
      </trkpt>
      <trkpt lat="47.23243" lon="-0.88096">
        <ele>105</ele>
        <time>2012-02-23T15:45:58Z</time>
      </trkpt>
      <trkpt lat="47.23245" lon="-0.88096">
        <ele>105</ele>
        <time>2012-02-23T15:46:00Z</time>
      </trkpt>
      <trkpt lat="47.23246" lon="-0.88096">
        <ele>105</ele>
        <time>2012-02-23T15:46:01Z</time>
      </trkpt>
      <trkpt lat="47.23247" lon="-0.88096">
        <ele>105</ele>
        <time>2012-02-23T15:46:02Z</time>
      </trkpt>
      <trkpt lat="47.23249" lon="-0.88096">
        <ele>105</ele>
        <time>2012-02-23T15:46:04Z</time>
      </trkpt>
      <trkpt lat="47.23251" lon="-0.88095">
        <ele>105</ele>
        <time>2012-02-23T15:46:06Z</time>
      </trkpt>
      <trkpt lat="47.23254" lon="-0.88096">
        <ele>105</ele>
        <time>2012-02-23T15:46:08Z</time>
      </trkpt>
      <trkpt lat="47.23255" lon="-0.88096">
        <ele>105</ele>
        <time>2012-02-23T15:46:09Z</time>
      </trkpt>
      <trkpt lat="47.23256" lon="-0.88096">
        <ele>105</ele>
        <time>2012-02-23T15:46:10Z</time>
      </trkpt>
      <trkpt lat="47.23258" lon="-0.88096">
        <ele>105</ele>
        <time>2012-02-23T15:46:12Z</time>
      </trkpt>
      <trkpt lat="47.23259" lon="-0.88097">
        <ele>105</ele>
        <time>2012-02-23T15:46:13Z</time>
      </trkpt>
      <trkpt lat="47.2326" lon="-0.88097">
        <ele>105</ele>
        <time>2012-02-23T15:46:14Z</time>
      </trkpt>
      <trkpt lat="47.23262" lon="-0.88097">
        <ele>105</ele>
        <time>2012-02-23T15:46:15Z</time>
      </trkpt>
      <trkpt lat="47.23263" lon="-0.88098">
        <ele>105</ele>
        <time>2012-02-23T15:46:16Z</time>
      </trkpt>
      <trkpt lat="47.23264" lon="-0.88098">
        <ele>105</ele>
        <time>2012-02-23T15:46:17Z</time>
      </trkpt>
      <trkpt lat="47.23265" lon="-0.88098">
        <ele>105</ele>
        <time>2012-02-23T15:46:18Z</time>
      </trkpt>
      <trkpt lat="47.23267" lon="-0.88098">
        <ele>105</ele>
        <time>2012-02-23T15:46:19Z</time>
      </trkpt>
      <trkpt lat="47.23268" lon="-0.88098">
        <ele>105</ele>
        <time>2012-02-23T15:46:20Z</time>
      </trkpt>
      <trkpt lat="47.23269" lon="-0.88098">
        <ele>105</ele>
        <time>2012-02-23T15:46:21Z</time>
      </trkpt>
      <trkpt lat="47.2327" lon="-0.88099">
        <ele>105</ele>
        <time>2012-02-23T15:46:22Z</time>
      </trkpt>
      <trkpt lat="47.23271" lon="-0.88099">
        <ele>105</ele>
        <time>2012-02-23T15:46:23Z</time>
      </trkpt>
      <trkpt lat="47.23272" lon="-0.88099">
        <ele>105</ele>
        <time>2012-02-23T15:46:24Z</time>
      </trkpt>
      <trkpt lat="47.23275" lon="-0.881">
        <ele>105</ele>
        <time>2012-02-23T15:46:26Z</time>
      </trkpt>
      <trkpt lat="47.23276" lon="-0.881">
        <ele>105</ele>
        <time>2012-02-23T15:46:27Z</time>
      </trkpt>
      <trkpt lat="47.23277" lon="-0.881">
        <ele>105</ele>
        <time>2012-02-23T15:46:28Z</time>
      </trkpt>
      <trkpt lat="47.23278" lon="-0.881">
        <ele>105</ele>
        <time>2012-02-23T15:46:29Z</time>
      </trkpt>
      <trkpt lat="47.23279" lon="-0.881">
        <ele>105</ele>
        <time>2012-02-23T15:46:30Z</time>
      </trkpt>
      <trkpt lat="47.2328" lon="-0.881">
        <ele>105</ele>
        <time>2012-02-23T15:46:31Z</time>
      </trkpt>
      <trkpt lat="47.23282" lon="-0.881">
        <ele>105</ele>
        <time>2012-02-23T15:46:32Z</time>
      </trkpt>
      <trkpt lat="47.23283" lon="-0.881">
        <ele>105</ele>
        <time>2012-02-23T15:46:33Z</time>
      </trkpt>
      <trkpt lat="47.23284" lon="-0.88101">
        <ele>105</ele>
        <time>2012-02-23T15:46:34Z</time>
      </trkpt>
      <trkpt lat="47.23286" lon="-0.88101">
        <ele>105</ele>
        <time>2012-02-23T15:46:35Z</time>
      </trkpt>
      <trkpt lat="47.23287" lon="-0.881">
        <ele>105</ele>
        <time>2012-02-23T15:46:36Z</time>
      </trkpt>
      <trkpt lat="47.23289" lon="-0.881">
        <ele>105</ele>
        <time>2012-02-23T15:46:38Z</time>
      </trkpt>
      <trkpt lat="47.2329" lon="-0.881">
        <ele>105</ele>
        <time>2012-02-23T15:46:39Z</time>
      </trkpt>
      <trkpt lat="47.23291" lon="-0.881">
        <ele>105</ele>
        <time>2012-02-23T15:46:40Z</time>
      </trkpt>
      <trkpt lat="47.23293" lon="-0.88099">
        <ele>105</ele>
        <time>2012-02-23T15:46:42Z</time>
      </trkpt>
      <trkpt lat="47.23294" lon="-0.88099">
        <ele>105</ele>
        <time>2012-02-23T15:46:43Z</time>
      </trkpt>
      <trkpt lat="47.23296" lon="-0.88099">
        <ele>105</ele>
        <time>2012-02-23T15:46:44Z</time>
      </trkpt>
      <trkpt lat="47.23297" lon="-0.88099">
        <ele>105</ele>
        <time>2012-02-23T15:46:45Z</time>
      </trkpt>
      <trkpt lat="47.23299" lon="-0.88098">
        <ele>105</ele>
        <time>2012-02-23T15:46:46Z</time>
      </trkpt>
      <trkpt lat="47.233" lon="-0.88098">
        <ele>105</ele>
        <time>2012-02-23T15:46:47Z</time>
      </trkpt>
      <trkpt lat="47.23301" lon="-0.88097">
        <ele>105</ele>
        <time>2012-02-23T15:46:48Z</time>
      </trkpt>
      <trkpt lat="47.23302" lon="-0.88096">
        <ele>105</ele>
        <time>2012-02-23T15:46:49Z</time>
      </trkpt>
      <trkpt lat="47.23303" lon="-0.88096">
        <ele>105</ele>
        <time>2012-02-23T15:46:50Z</time>
      </trkpt>
      <trkpt lat="47.23304" lon="-0.88096">
        <ele>105</ele>
        <time>2012-02-23T15:46:51Z</time>
      </trkpt>
      <trkpt lat="47.23306" lon="-0.88096">
        <ele>105</ele>
        <time>2012-02-23T15:46:52Z</time>
      </trkpt>
      <trkpt lat="47.23307" lon="-0.88095">
        <ele>105</ele>
        <time>2012-02-23T15:46:53Z</time>
      </trkpt>
      <trkpt lat="47.23308" lon="-0.88095">
        <ele>105</ele>
        <time>2012-02-23T15:46:54Z</time>
      </trkpt>
      <trkpt lat="47.2331" lon="-0.88093">
        <ele>105</ele>
        <time>2012-02-23T15:46:56Z</time>
      </trkpt>
      <trkpt lat="47.23312" lon="-0.88092">
        <ele>105</ele>
        <time>2012-02-23T15:46:58Z</time>
      </trkpt>
      <trkpt lat="47.23314" lon="-0.8809">
        <ele>105</ele>
        <time>2012-02-23T15:47:00Z</time>
      </trkpt>
      <trkpt lat="47.23315" lon="-0.8809">
        <ele>105</ele>
        <time>2012-02-23T15:47:01Z</time>
      </trkpt>
      <trkpt lat="47.23317" lon="-0.88088">
        <ele>105</ele>
        <time>2012-02-23T15:47:03Z</time>
      </trkpt>
      <trkpt lat="47.23319" lon="-0.88087">
        <ele>105</ele>
        <time>2012-02-23T15:47:05Z</time>
      </trkpt>
      <trkpt lat="47.23321" lon="-0.88086">
        <ele>105</ele>
        <time>2012-02-23T15:47:07Z</time>
      </trkpt>
      <trkpt lat="47.23323" lon="-0.88085">
        <ele>105</ele>
        <time>2012-02-23T15:47:09Z</time>
      </trkpt>
      <trkpt lat="47.23324" lon="-0.88084">
        <ele>105</ele>
        <time>2012-02-23T15:47:10Z</time>
      </trkpt>
      <trkpt lat="47.23326" lon="-0.88082">
        <ele>105</ele>
        <time>2012-02-23T15:47:12Z</time>
      </trkpt>
      <trkpt lat="47.23328" lon="-0.8808">
        <ele>105</ele>
        <time>2012-02-23T15:47:14Z</time>
      </trkpt>
      <trkpt lat="47.23329" lon="-0.88079">
        <ele>105</ele>
        <time>2012-02-23T15:47:15Z</time>
      </trkpt>
      <trkpt lat="47.23331" lon="-0.88078">
        <ele>105</ele>
        <time>2012-02-23T15:47:16Z</time>
      </trkpt>
      <trkpt lat="47.23333" lon="-0.88077">
        <ele>105</ele>
        <time>2012-02-23T15:47:18Z</time>
      </trkpt>
      <trkpt lat="47.23335" lon="-0.88075">
        <ele>105</ele>
        <time>2012-02-23T15:47:20Z</time>
      </trkpt>
      <trkpt lat="47.23337" lon="-0.88074">
        <ele>105</ele>
        <time>2012-02-23T15:47:22Z</time>
      </trkpt>
      <trkpt lat="47.23338" lon="-0.88073">
        <ele>105</ele>
        <time>2012-02-23T15:47:23Z</time>
      </trkpt>
      <trkpt lat="47.23339" lon="-0.88072">
        <ele>105</ele>
        <time>2012-02-23T15:47:24Z</time>
      </trkpt>
      <trkpt lat="47.2334" lon="-0.88071">
        <ele>105</ele>
        <time>2012-02-23T15:47:25Z</time>
      </trkpt>
      <trkpt lat="47.23341" lon="-0.8807">
        <ele>105</ele>
        <time>2012-02-23T15:47:26Z</time>
      </trkpt>
      <trkpt lat="47.23343" lon="-0.88069">
        <ele>105</ele>
        <time>2012-02-23T15:47:28Z</time>
      </trkpt>
      <trkpt lat="47.23344" lon="-0.88069">
        <ele>105</ele>
        <time>2012-02-23T15:47:29Z</time>
      </trkpt>
      <trkpt lat="47.23346" lon="-0.88068">
        <ele>105</ele>
        <time>2012-02-23T15:47:30Z</time>
      </trkpt>
      <trkpt lat="47.23347" lon="-0.88068">
        <ele>105</ele>
        <time>2012-02-23T15:47:31Z</time>
      </trkpt>
      <trkpt lat="47.23348" lon="-0.88067">
        <ele>105</ele>
        <time>2012-02-23T15:47:32Z</time>
      </trkpt>
      <trkpt lat="47.23349" lon="-0.88067">
        <ele>105</ele>
        <time>2012-02-23T15:47:33Z</time>
      </trkpt>
      <trkpt lat="47.23351" lon="-0.88066">
        <ele>105</ele>
        <time>2012-02-23T15:47:34Z</time>
      </trkpt>
      <trkpt lat="47.23352" lon="-0.88066">
        <ele>105</ele>
        <time>2012-02-23T15:47:35Z</time>
      </trkpt>
      <trkpt lat="47.23353" lon="-0.88066">
        <ele>105</ele>
        <time>2012-02-23T15:47:36Z</time>
      </trkpt>
      <trkpt lat="47.23354" lon="-0.88066">
        <ele>105</ele>
        <time>2012-02-23T15:47:37Z</time>
      </trkpt>
      <trkpt lat="47.23356" lon="-0.88065">
        <ele>105</ele>
        <time>2012-02-23T15:47:38Z</time>
      </trkpt>
      <trkpt lat="47.23358" lon="-0.88065">
        <ele>105</ele>
        <time>2012-02-23T15:47:40Z</time>
      </trkpt>
      <trkpt lat="47.23359" lon="-0.88065">
        <ele>105</ele>
        <time>2012-02-23T15:47:41Z</time>
      </trkpt>
      <trkpt lat="47.2336" lon="-0.88065">
        <ele>105</ele>
        <time>2012-02-23T15:47:42Z</time>
      </trkpt>
      <trkpt lat="47.23362" lon="-0.88065">
        <ele>105</ele>
        <time>2012-02-23T15:47:43Z</time>
      </trkpt>
      <trkpt lat="47.23363" lon="-0.88065">
        <ele>105</ele>
        <time>2012-02-23T15:47:44Z</time>
      </trkpt>
      <trkpt lat="47.23365" lon="-0.88066">
        <ele>105</ele>
        <time>2012-02-23T15:47:46Z</time>
      </trkpt>
      <trkpt lat="47.23366" lon="-0.88066">
        <ele>105</ele>
        <time>2012-02-23T15:47:47Z</time>
      </trkpt>
      <trkpt lat="47.23367" lon="-0.88066">
        <ele>105</ele>
        <time>2012-02-23T15:47:48Z</time>
      </trkpt>
      <trkpt lat="47.23369" lon="-0.88067">
        <ele>106</ele>
        <time>2012-02-23T15:47:49Z</time>
      </trkpt>
      <trkpt lat="47.2337" lon="-0.88068">
        <ele>106</ele>
        <time>2012-02-23T15:47:50Z</time>
      </trkpt>
      <trkpt lat="47.23371" lon="-0.88069">
        <ele>106</ele>
        <time>2012-02-23T15:47:51Z</time>
      </trkpt>
      <trkpt lat="47.23373" lon="-0.88069">
        <ele>106</ele>
        <time>2012-02-23T15:47:52Z</time>
      </trkpt>
      <trkpt lat="47.23374" lon="-0.8807">
        <ele>106</ele>
        <time>2012-02-23T15:47:53Z</time>
      </trkpt>
      <trkpt lat="47.23375" lon="-0.88071">
        <ele>106</ele>
        <time>2012-02-23T15:47:54Z</time>
      </trkpt>
      <trkpt lat="47.23376" lon="-0.88072">
        <ele>106</ele>
        <time>2012-02-23T15:47:55Z</time>
      </trkpt>
      <trkpt lat="47.23378" lon="-0.88072">
        <ele>106</ele>
        <time>2012-02-23T15:47:56Z</time>
      </trkpt>
      <trkpt lat="47.23379" lon="-0.88073">
        <ele>106</ele>
        <time>2012-02-23T15:47:57Z</time>
      </trkpt>
      <trkpt lat="47.23381" lon="-0.88074">
        <ele>106</ele>
        <time>2012-02-23T15:47:59Z</time>
      </trkpt>
      <trkpt lat="47.23382" lon="-0.88075">
        <ele>106</ele>
        <time>2012-02-23T15:48:00Z</time>
      </trkpt>
      <trkpt lat="47.23383" lon="-0.88076">
        <ele>106</ele>
        <time>2012-02-23T15:48:01Z</time>
      </trkpt>
      <trkpt lat="47.23385" lon="-0.88077">
        <ele>106</ele>
        <time>2012-02-23T15:48:03Z</time>
      </trkpt>
      <trkpt lat="47.23387" lon="-0.88079">
        <ele>106</ele>
        <time>2012-02-23T15:48:05Z</time>
      </trkpt>
      <trkpt lat="47.23389" lon="-0.8808">
        <ele>106</ele>
        <time>2012-02-23T15:48:06Z</time>
      </trkpt>
      <trkpt lat="47.2339" lon="-0.8808">
        <ele>106</ele>
        <time>2012-02-23T15:48:07Z</time>
      </trkpt>
      <trkpt lat="47.23392" lon="-0.88082">
        <ele>105</ele>
        <time>2012-02-23T15:48:09Z</time>
      </trkpt>
      <trkpt lat="47.23394" lon="-0.88084">
        <ele>104</ele>
        <time>2012-02-23T15:48:11Z</time>
      </trkpt>
      <trkpt lat="47.23396" lon="-0.88086">
        <ele>104</ele>
        <time>2012-02-23T15:48:13Z</time>
      </trkpt>
      <trkpt lat="47.23397" lon="-0.88089">
        <ele>104</ele>
        <time>2012-02-23T15:48:15Z</time>
      </trkpt>
      <trkpt lat="47.23398" lon="-0.88091">
        <ele>104</ele>
        <time>2012-02-23T15:48:17Z</time>
      </trkpt>
      <trkpt lat="47.23399" lon="-0.88093">
        <ele>104</ele>
        <time>2012-02-23T15:48:19Z</time>
      </trkpt>
      <trkpt lat="47.234" lon="-0.88095">
        <ele>104</ele>
        <time>2012-02-23T15:48:21Z</time>
      </trkpt>
      <trkpt lat="47.23402" lon="-0.88098">
        <ele>104</ele>
        <time>2012-02-23T15:48:23Z</time>
      </trkpt>
      <trkpt lat="47.23402" lon="-0.881">
        <ele>104</ele>
        <time>2012-02-23T15:48:25Z</time>
      </trkpt>
      <trkpt lat="47.23404" lon="-0.88103">
        <ele>104</ele>
        <time>2012-02-23T15:48:27Z</time>
      </trkpt>
      <trkpt lat="47.23405" lon="-0.88105">
        <ele>104</ele>
        <time>2012-02-23T15:48:29Z</time>
      </trkpt>
      <trkpt lat="47.23406" lon="-0.88108">
        <ele>104</ele>
        <time>2012-02-23T15:48:31Z</time>
      </trkpt>
      <trkpt lat="47.23407" lon="-0.88111">
        <ele>104</ele>
        <time>2012-02-23T15:48:33Z</time>
      </trkpt>
      <trkpt lat="47.23408" lon="-0.88113">
        <ele>104</ele>
        <time>2012-02-23T15:48:35Z</time>
      </trkpt>
      <trkpt lat="47.2341" lon="-0.88116">
        <ele>104</ele>
        <time>2012-02-23T15:48:37Z</time>
      </trkpt>
      <trkpt lat="47.2341" lon="-0.88118">
        <ele>104</ele>
        <time>2012-02-23T15:48:39Z</time>
      </trkpt>
      <trkpt lat="47.23412" lon="-0.88121">
        <ele>104</ele>
        <time>2012-02-23T15:48:41Z</time>
      </trkpt>
      <trkpt lat="47.23412" lon="-0.88123">
        <ele>104</ele>
        <time>2012-02-23T15:48:42Z</time>
      </trkpt>
      <trkpt lat="47.23414" lon="-0.88125">
        <ele>104</ele>
        <time>2012-02-23T15:48:44Z</time>
      </trkpt>
      <trkpt lat="47.23415" lon="-0.88127">
        <ele>104</ele>
        <time>2012-02-23T15:48:46Z</time>
      </trkpt>
      <trkpt lat="47.23417" lon="-0.8813">
        <ele>104</ele>
        <time>2012-02-23T15:48:48Z</time>
      </trkpt>
      <trkpt lat="47.23418" lon="-0.88133">
        <ele>104</ele>
        <time>2012-02-23T15:48:50Z</time>
      </trkpt>
      <trkpt lat="47.2342" lon="-0.88135">
        <ele>104</ele>
        <time>2012-02-23T15:48:52Z</time>
      </trkpt>
      <trkpt lat="47.23421" lon="-0.88138">
        <ele>104</ele>
        <time>2012-02-23T15:48:54Z</time>
      </trkpt>
      <trkpt lat="47.23423" lon="-0.88141">
        <ele>104</ele>
        <time>2012-02-23T15:48:56Z</time>
      </trkpt>
      <trkpt lat="47.23424" lon="-0.88143">
        <ele>104</ele>
        <time>2012-02-23T15:48:58Z</time>
      </trkpt>
      <trkpt lat="47.23426" lon="-0.88146">
        <ele>104</ele>
        <time>2012-02-23T15:49:00Z</time>
      </trkpt>
      <trkpt lat="47.23428" lon="-0.88148">
        <ele>104</ele>
        <time>2012-02-23T15:49:02Z</time>
      </trkpt>
      <trkpt lat="47.23429" lon="-0.88151">
        <ele>104</ele>
        <time>2012-02-23T15:49:04Z</time>
      </trkpt>
      <trkpt lat="47.23431" lon="-0.88153">
        <ele>104</ele>
        <time>2012-02-23T15:49:06Z</time>
      </trkpt>
      <trkpt lat="47.23432" lon="-0.88155">
        <ele>103</ele>
        <time>2012-02-23T15:49:08Z</time>
      </trkpt>
      <trkpt lat="47.23434" lon="-0.88158">
        <ele>103</ele>
        <time>2012-02-23T15:49:10Z</time>
      </trkpt>
      <trkpt lat="47.23434" lon="-0.88159">
        <ele>102</ele>
        <time>2012-02-23T15:49:11Z</time>
      </trkpt>
      <trkpt lat="47.23436" lon="-0.88162">
        <ele>102</ele>
        <time>2012-02-23T15:49:13Z</time>
      </trkpt>
      <trkpt lat="47.23438" lon="-0.88164">
        <ele>102</ele>
        <time>2012-02-23T15:49:15Z</time>
      </trkpt>
      <trkpt lat="47.23439" lon="-0.88165">
        <ele>102</ele>
        <time>2012-02-23T15:49:16Z</time>
      </trkpt>
      <trkpt lat="47.2344" lon="-0.88168">
        <ele>102</ele>
        <time>2012-02-23T15:49:18Z</time>
      </trkpt>
      <trkpt lat="47.23441" lon="-0.8817">
        <ele>102</ele>
        <time>2012-02-23T15:49:19Z</time>
      </trkpt>
      <trkpt lat="47.23442" lon="-0.88171">
        <ele>102</ele>
        <time>2012-02-23T15:49:20Z</time>
      </trkpt>
      <trkpt lat="47.23442" lon="-0.88173">
        <ele>102</ele>
        <time>2012-02-23T15:49:21Z</time>
      </trkpt>
      <trkpt lat="47.23443" lon="-0.88174">
        <ele>102</ele>
        <time>2012-02-23T15:49:22Z</time>
      </trkpt>
      <trkpt lat="47.23444" lon="-0.88176">
        <ele>102</ele>
        <time>2012-02-23T15:49:23Z</time>
      </trkpt>
      <trkpt lat="47.23446" lon="-0.88178">
        <ele>102</ele>
        <time>2012-02-23T15:49:25Z</time>
      </trkpt>
      <trkpt lat="47.23446" lon="-0.8818">
        <ele>102</ele>
        <time>2012-02-23T15:49:26Z</time>
      </trkpt>
      <trkpt lat="47.23447" lon="-0.88182">
        <ele>102</ele>
        <time>2012-02-23T15:49:28Z</time>
      </trkpt>
      <trkpt lat="47.23449" lon="-0.88184">
        <ele>101</ele>
        <time>2012-02-23T15:49:30Z</time>
      </trkpt>
      <trkpt lat="47.2345" lon="-0.88186">
        <ele>101</ele>
        <time>2012-02-23T15:49:33Z</time>
      </trkpt>
      <trkpt lat="47.23451" lon="-0.88188">
        <ele>100</ele>
        <time>2012-02-23T15:49:36Z</time>
      </trkpt>
      <trkpt lat="47.23452" lon="-0.8819">
        <ele>100</ele>
        <time>2012-02-23T15:49:38Z</time>
      </trkpt>
      <trkpt lat="47.23452" lon="-0.88191">
        <ele>100</ele>
        <time>2012-02-23T15:49:40Z</time>
      </trkpt>
      <trkpt lat="47.23453" lon="-0.88193">
        <ele>100</ele>
        <time>2012-02-23T15:49:41Z</time>
      </trkpt>
      <trkpt lat="47.23453" lon="-0.88195">
        <ele>100</ele>
        <time>2012-02-23T15:49:42Z</time>
      </trkpt>
      <trkpt lat="47.23454" lon="-0.88197">
        <ele>100</ele>
        <time>2012-02-23T15:49:43Z</time>
      </trkpt>
      <trkpt lat="47.23455" lon="-0.88199">
        <ele>100</ele>
        <time>2012-02-23T15:49:44Z</time>
      </trkpt>
      <trkpt lat="47.23455" lon="-0.88201">
        <ele>100</ele>
        <time>2012-02-23T15:49:45Z</time>
      </trkpt>
      <trkpt lat="47.23456" lon="-0.88203">
        <ele>100</ele>
        <time>2012-02-23T15:49:46Z</time>
      </trkpt>
      <trkpt lat="47.23458" lon="-0.88206">
        <ele>100</ele>
        <time>2012-02-23T15:49:48Z</time>
      </trkpt>
      <trkpt lat="47.23459" lon="-0.88208">
        <ele>100</ele>
        <time>2012-02-23T15:49:50Z</time>
      </trkpt>
      <trkpt lat="47.2346" lon="-0.88211">
        <ele>100</ele>
        <time>2012-02-23T15:49:52Z</time>
      </trkpt>
      <trkpt lat="47.23462" lon="-0.88214">
        <ele>100</ele>
        <time>2012-02-23T15:49:54Z</time>
      </trkpt>
      <trkpt lat="47.23463" lon="-0.88217">
        <ele>100</ele>
        <time>2012-02-23T15:49:56Z</time>
      </trkpt>
      <trkpt lat="47.23464" lon="-0.88219">
        <ele>100</ele>
        <time>2012-02-23T15:49:58Z</time>
      </trkpt>
      <trkpt lat="47.23466" lon="-0.88221">
        <ele>100</ele>
        <time>2012-02-23T15:50:00Z</time>
      </trkpt>
      <trkpt lat="47.23468" lon="-0.88224">
        <ele>100</ele>
        <time>2012-02-23T15:50:02Z</time>
      </trkpt>
      <trkpt lat="47.23469" lon="-0.88226">
        <ele>100</ele>
        <time>2012-02-23T15:50:04Z</time>
      </trkpt>
      <trkpt lat="47.23471" lon="-0.88228">
        <ele>100</ele>
        <time>2012-02-23T15:50:06Z</time>
      </trkpt>
      <trkpt lat="47.23472" lon="-0.88231">
        <ele>99</ele>
        <time>2012-02-23T15:50:08Z</time>
      </trkpt>
      <trkpt lat="47.23473" lon="-0.88232">
        <ele>99</ele>
        <time>2012-02-23T15:50:10Z</time>
      </trkpt>
      <trkpt lat="47.23473" lon="-0.88234">
        <ele>99</ele>
        <time>2012-02-23T15:50:11Z</time>
      </trkpt>
      <trkpt lat="47.23474" lon="-0.88236">
        <ele>99</ele>
        <time>2012-02-23T15:50:12Z</time>
      </trkpt>
      <trkpt lat="47.23474" lon="-0.88238">
        <ele>99</ele>
        <time>2012-02-23T15:50:13Z</time>
      </trkpt>
      <trkpt lat="47.23476" lon="-0.8824">
        <ele>99</ele>
        <time>2012-02-23T15:50:15Z</time>
      </trkpt>
      <trkpt lat="47.23478" lon="-0.88243">
        <ele>99</ele>
        <time>2012-02-23T15:50:17Z</time>
      </trkpt>
      <trkpt lat="47.23479" lon="-0.88245">
        <ele>99</ele>
        <time>2012-02-23T15:50:18Z</time>
      </trkpt>
      <trkpt lat="47.23481" lon="-0.88248">
        <ele>99</ele>
        <time>2012-02-23T15:50:20Z</time>
      </trkpt>
      <trkpt lat="47.23482" lon="-0.8825">
        <ele>99</ele>
        <time>2012-02-23T15:50:22Z</time>
      </trkpt>
      <trkpt lat="47.23483" lon="-0.88252">
        <ele>99</ele>
        <time>2012-02-23T15:50:23Z</time>
      </trkpt>
      <trkpt lat="47.23483" lon="-0.88253">
        <ele>99</ele>
        <time>2012-02-23T15:50:24Z</time>
      </trkpt>
      <trkpt lat="47.23484" lon="-0.88255">
        <ele>99</ele>
        <time>2012-02-23T15:50:25Z</time>
      </trkpt>
      <trkpt lat="47.23485" lon="-0.88258">
        <ele>99</ele>
        <time>2012-02-23T15:50:27Z</time>
      </trkpt>
      <trkpt lat="47.23486" lon="-0.88259">
        <ele>99</ele>
        <time>2012-02-23T15:50:28Z</time>
      </trkpt>
      <trkpt lat="47.23487" lon="-0.88261">
        <ele>99</ele>
        <time>2012-02-23T15:50:29Z</time>
      </trkpt>
      <trkpt lat="47.23487" lon="-0.88263">
        <ele>99</ele>
        <time>2012-02-23T15:50:31Z</time>
      </trkpt>
      <trkpt lat="47.23489" lon="-0.88266">
        <ele>99</ele>
        <time>2012-02-23T15:50:33Z</time>
      </trkpt>
      <trkpt lat="47.23489" lon="-0.88268">
        <ele>98</ele>
        <time>2012-02-23T15:50:35Z</time>
      </trkpt>
      <trkpt lat="47.23489" lon="-0.88271">
        <ele>97</ele>
        <time>2012-02-23T15:50:37Z</time>
      </trkpt>
      <trkpt lat="47.23488" lon="-0.88274">
        <ele>97</ele>
        <time>2012-02-23T15:50:39Z</time>
      </trkpt>
      <trkpt lat="47.23487" lon="-0.88275">
        <ele>97</ele>
        <time>2012-02-23T15:50:40Z</time>
      </trkpt>
      <trkpt lat="47.23486" lon="-0.88278">
        <ele>97</ele>
        <time>2012-02-23T15:50:42Z</time>
      </trkpt>
      <trkpt lat="47.23484" lon="-0.8828">
        <ele>97</ele>
        <time>2012-02-23T15:50:44Z</time>
      </trkpt>
      <trkpt lat="47.23483" lon="-0.88282">
        <ele>97</ele>
        <time>2012-02-23T15:50:45Z</time>
      </trkpt>
      <trkpt lat="47.23483" lon="-0.88283">
        <ele>97</ele>
        <time>2012-02-23T15:50:46Z</time>
      </trkpt>
      <trkpt lat="47.23482" lon="-0.88285">
        <ele>97</ele>
        <time>2012-02-23T15:50:47Z</time>
      </trkpt>
      <trkpt lat="47.23482" lon="-0.88286">
        <ele>97</ele>
        <time>2012-02-23T15:50:48Z</time>
      </trkpt>
      <trkpt lat="47.23482" lon="-0.88288">
        <ele>97</ele>
        <time>2012-02-23T15:50:49Z</time>
      </trkpt>
      <trkpt lat="47.23482" lon="-0.8829">
        <ele>97</ele>
        <time>2012-02-23T15:50:50Z</time>
      </trkpt>
      <trkpt lat="47.23483" lon="-0.88292">
        <ele>97</ele>
        <time>2012-02-23T15:50:51Z</time>
      </trkpt>
      <trkpt lat="47.23483" lon="-0.88294">
        <ele>97</ele>
        <time>2012-02-23T15:50:52Z</time>
      </trkpt>
      <trkpt lat="47.23483" lon="-0.88296">
        <ele>97</ele>
        <time>2012-02-23T15:50:53Z</time>
      </trkpt>
      <trkpt lat="47.23484" lon="-0.88297">
        <ele>97</ele>
        <time>2012-02-23T15:50:54Z</time>
      </trkpt>
      <trkpt lat="47.23486" lon="-0.883">
        <ele>97</ele>
        <time>2012-02-23T15:50:56Z</time>
      </trkpt>
      <trkpt lat="47.23487" lon="-0.88302">
        <ele>97</ele>
        <time>2012-02-23T15:50:58Z</time>
      </trkpt>
      <trkpt lat="47.23488" lon="-0.88304">
        <ele>97</ele>
        <time>2012-02-23T15:50:59Z</time>
      </trkpt>
      <trkpt lat="47.23489" lon="-0.88306">
        <ele>97</ele>
        <time>2012-02-23T15:51:00Z</time>
      </trkpt>
      <trkpt lat="47.23489" lon="-0.88307">
        <ele>97</ele>
        <time>2012-02-23T15:51:01Z</time>
      </trkpt>
      <trkpt lat="47.2349" lon="-0.88309">
        <ele>97</ele>
        <time>2012-02-23T15:51:02Z</time>
      </trkpt>
      <trkpt lat="47.23491" lon="-0.88311">
        <ele>97</ele>
        <time>2012-02-23T15:51:03Z</time>
      </trkpt>
      <trkpt lat="47.23493" lon="-0.88314">
        <ele>97</ele>
        <time>2012-02-23T15:51:05Z</time>
      </trkpt>
      <trkpt lat="47.23494" lon="-0.88315">
        <ele>97</ele>
        <time>2012-02-23T15:51:06Z</time>
      </trkpt>
      <trkpt lat="47.23494" lon="-0.88317">
        <ele>97</ele>
        <time>2012-02-23T15:51:07Z</time>
      </trkpt>
      <trkpt lat="47.23495" lon="-0.88318">
        <ele>97</ele>
        <time>2012-02-23T15:51:08Z</time>
      </trkpt>
      <trkpt lat="47.23497" lon="-0.8832">
        <ele>97</ele>
        <time>2012-02-23T15:51:10Z</time>
      </trkpt>
      <trkpt lat="47.23498" lon="-0.88322">
        <ele>97</ele>
        <time>2012-02-23T15:51:11Z</time>
      </trkpt>
      <trkpt lat="47.23499" lon="-0.88323">
        <ele>97</ele>
        <time>2012-02-23T15:51:12Z</time>
      </trkpt>
      <trkpt lat="47.23501" lon="-0.88326">
        <ele>97</ele>
        <time>2012-02-23T15:51:14Z</time>
      </trkpt>
      <trkpt lat="47.23502" lon="-0.88328">
        <ele>97</ele>
        <time>2012-02-23T15:51:15Z</time>
      </trkpt>
      <trkpt lat="47.23503" lon="-0.8833">
        <ele>97</ele>
        <time>2012-02-23T15:51:17Z</time>
      </trkpt>
      <trkpt lat="47.23504" lon="-0.88331">
        <ele>97</ele>
        <time>2012-02-23T15:51:18Z</time>
      </trkpt>
      <trkpt lat="47.23506" lon="-0.88332">
        <ele>97</ele>
        <time>2012-02-23T15:51:20Z</time>
      </trkpt>
      <trkpt lat="47.23508" lon="-0.88333">
        <ele>97</ele>
        <time>2012-02-23T15:51:22Z</time>
      </trkpt>
      <trkpt lat="47.23509" lon="-0.88334">
        <ele>97</ele>
        <time>2012-02-23T15:51:23Z</time>
      </trkpt>
      <trkpt lat="47.2351" lon="-0.88335">
        <ele>97</ele>
        <time>2012-02-23T15:51:24Z</time>
      </trkpt>
      <trkpt lat="47.23512" lon="-0.88336">
        <ele>97</ele>
        <time>2012-02-23T15:51:26Z</time>
      </trkpt>
      <trkpt lat="47.23514" lon="-0.88337">
        <ele>97</ele>
        <time>2012-02-23T15:51:28Z</time>
      </trkpt>
      <trkpt lat="47.23516" lon="-0.88339">
        <ele>97</ele>
        <time>2012-02-23T15:51:30Z</time>
      </trkpt>
      <trkpt lat="47.23517" lon="-0.88341">
        <ele>97</ele>
        <time>2012-02-23T15:51:32Z</time>
      </trkpt>
      <trkpt lat="47.23519" lon="-0.88342">
        <ele>97</ele>
        <time>2012-02-23T15:51:34Z</time>
      </trkpt>
      <trkpt lat="47.2352" lon="-0.88343">
        <ele>97</ele>
        <time>2012-02-23T15:51:35Z</time>
      </trkpt>
      <trkpt lat="47.23522" lon="-0.88344">
        <ele>97</ele>
        <time>2012-02-23T15:51:36Z</time>
      </trkpt>
      <trkpt lat="47.23523" lon="-0.88345">
        <ele>97</ele>
        <time>2012-02-23T15:51:37Z</time>
      </trkpt>
      <trkpt lat="47.23524" lon="-0.88347">
        <ele>97</ele>
        <time>2012-02-23T15:51:39Z</time>
      </trkpt>
      <trkpt lat="47.23526" lon="-0.8835">
        <ele>97</ele>
        <time>2012-02-23T15:51:41Z</time>
      </trkpt>
      <trkpt lat="47.23528" lon="-0.88352">
        <ele>97</ele>
        <time>2012-02-23T15:51:43Z</time>
      </trkpt>
      <trkpt lat="47.2353" lon="-0.88355">
        <ele>97</ele>
        <time>2012-02-23T15:51:45Z</time>
      </trkpt>
      <trkpt lat="47.23531" lon="-0.88357">
        <ele>97</ele>
        <time>2012-02-23T15:51:47Z</time>
      </trkpt>
      <trkpt lat="47.23533" lon="-0.8836">
        <ele>97</ele>
        <time>2012-02-23T15:51:49Z</time>
      </trkpt>
      <trkpt lat="47.23533" lon="-0.88362">
        <ele>97</ele>
        <time>2012-02-23T15:51:50Z</time>
      </trkpt>
      <trkpt lat="47.23535" lon="-0.88364">
        <ele>97</ele>
        <time>2012-02-23T15:51:52Z</time>
      </trkpt>
      <trkpt lat="47.23536" lon="-0.88366">
        <ele>97</ele>
        <time>2012-02-23T15:51:53Z</time>
      </trkpt>
      <trkpt lat="47.23538" lon="-0.88368">
        <ele>97</ele>
        <time>2012-02-23T15:51:55Z</time>
      </trkpt>
      <trkpt lat="47.23539" lon="-0.88371">
        <ele>97</ele>
        <time>2012-02-23T15:51:57Z</time>
      </trkpt>
      <trkpt lat="47.2354" lon="-0.88374">
        <ele>97</ele>
        <time>2012-02-23T15:51:59Z</time>
      </trkpt>
      <trkpt lat="47.23541" lon="-0.88375">
        <ele>97</ele>
        <time>2012-02-23T15:52:00Z</time>
      </trkpt>
      <trkpt lat="47.23541" lon="-0.88377">
        <ele>97</ele>
        <time>2012-02-23T15:52:01Z</time>
      </trkpt>
      <trkpt lat="47.23542" lon="-0.88379">
        <ele>97</ele>
        <time>2012-02-23T15:52:02Z</time>
      </trkpt>
      <trkpt lat="47.23542" lon="-0.88381">
        <ele>97</ele>
        <time>2012-02-23T15:52:04Z</time>
      </trkpt>
      <trkpt lat="47.23543" lon="-0.88383">
        <ele>97</ele>
        <time>2012-02-23T15:52:05Z</time>
      </trkpt>
      <trkpt lat="47.23542" lon="-0.88384">
        <ele>97</ele>
        <time>2012-02-23T15:52:06Z</time>
      </trkpt>
      <trkpt lat="47.23542" lon="-0.88386">
        <ele>97</ele>
        <time>2012-02-23T15:52:07Z</time>
      </trkpt>
      <trkpt lat="47.23542" lon="-0.88388">
        <ele>97</ele>
        <time>2012-02-23T15:52:08Z</time>
      </trkpt>
      <trkpt lat="47.23542" lon="-0.8839">
        <ele>97</ele>
        <time>2012-02-23T15:52:09Z</time>
      </trkpt>
      <trkpt lat="47.23542" lon="-0.88391">
        <ele>97</ele>
        <time>2012-02-23T15:52:10Z</time>
      </trkpt>
      <trkpt lat="47.23541" lon="-0.88393">
        <ele>97</ele>
        <time>2012-02-23T15:52:11Z</time>
      </trkpt>
      <trkpt lat="47.2354" lon="-0.88396">
        <ele>97</ele>
        <time>2012-02-23T15:52:13Z</time>
      </trkpt>
      <trkpt lat="47.23539" lon="-0.88397">
        <ele>97</ele>
        <time>2012-02-23T15:52:14Z</time>
      </trkpt>
      <trkpt lat="47.23538" lon="-0.88399">
        <ele>97</ele>
        <time>2012-02-23T15:52:16Z</time>
      </trkpt>
      <trkpt lat="47.23537" lon="-0.88401">
        <ele>97</ele>
        <time>2012-02-23T15:52:18Z</time>
      </trkpt>
      <trkpt lat="47.23536" lon="-0.88402">
        <ele>97</ele>
        <time>2012-02-23T15:52:19Z</time>
      </trkpt>
      <trkpt lat="47.23535" lon="-0.88405">
        <ele>97</ele>
        <time>2012-02-23T15:52:21Z</time>
      </trkpt>
      <trkpt lat="47.23534" lon="-0.88408">
        <ele>97</ele>
        <time>2012-02-23T15:52:23Z</time>
      </trkpt>
      <trkpt lat="47.23532" lon="-0.8841">
        <ele>97</ele>
        <time>2012-02-23T15:52:25Z</time>
      </trkpt>
      <trkpt lat="47.23532" lon="-0.88413">
        <ele>97</ele>
        <time>2012-02-23T15:52:27Z</time>
      </trkpt>
      <trkpt lat="47.23532" lon="-0.88415">
        <ele>97</ele>
        <time>2012-02-23T15:52:28Z</time>
      </trkpt>
      <trkpt lat="47.23531" lon="-0.88416">
        <ele>97</ele>
        <time>2012-02-23T15:52:29Z</time>
      </trkpt>
      <trkpt lat="47.23531" lon="-0.88418">
        <ele>97</ele>
        <time>2012-02-23T15:52:30Z</time>
      </trkpt>
      <trkpt lat="47.2353" lon="-0.88419">
        <ele>97</ele>
        <time>2012-02-23T15:52:31Z</time>
      </trkpt>
      <trkpt lat="47.23529" lon="-0.88421">
        <ele>97</ele>
        <time>2012-02-23T15:52:32Z</time>
      </trkpt>
      <trkpt lat="47.23529" lon="-0.88423">
        <ele>97</ele>
        <time>2012-02-23T15:52:33Z</time>
      </trkpt>
      <trkpt lat="47.23528" lon="-0.88424">
        <ele>97</ele>
        <time>2012-02-23T15:52:34Z</time>
      </trkpt>
      <trkpt lat="47.23528" lon="-0.88426">
        <ele>97</ele>
        <time>2012-02-23T15:52:35Z</time>
      </trkpt>
      <trkpt lat="47.23527" lon="-0.88428">
        <ele>97</ele>
        <time>2012-02-23T15:52:36Z</time>
      </trkpt>
      <trkpt lat="47.23526" lon="-0.88429">
        <ele>97</ele>
        <time>2012-02-23T15:52:37Z</time>
      </trkpt>
      <trkpt lat="47.23526" lon="-0.88431">
        <ele>97</ele>
        <time>2012-02-23T15:52:38Z</time>
      </trkpt>
      <trkpt lat="47.23525" lon="-0.88432">
        <ele>97</ele>
        <time>2012-02-23T15:52:39Z</time>
      </trkpt>
      <trkpt lat="47.23524" lon="-0.88434">
        <ele>97</ele>
        <time>2012-02-23T15:52:40Z</time>
      </trkpt>
      <trkpt lat="47.23524" lon="-0.88435">
        <ele>97</ele>
        <time>2012-02-23T15:52:41Z</time>
      </trkpt>
      <trkpt lat="47.23523" lon="-0.88437">
        <ele>97</ele>
        <time>2012-02-23T15:52:42Z</time>
      </trkpt>
      <trkpt lat="47.23523" lon="-0.88439">
        <ele>97</ele>
        <time>2012-02-23T15:52:44Z</time>
      </trkpt>
      <trkpt lat="47.23522" lon="-0.88441">
        <ele>97</ele>
        <time>2012-02-23T15:52:45Z</time>
      </trkpt>
      <trkpt lat="47.23521" lon="-0.88442">
        <ele>97</ele>
        <time>2012-02-23T15:52:46Z</time>
      </trkpt>
      <trkpt lat="47.2352" lon="-0.88445">
        <ele>97</ele>
        <time>2012-02-23T15:52:48Z</time>
      </trkpt>
      <trkpt lat="47.23518" lon="-0.88448">
        <ele>97</ele>
        <time>2012-02-23T15:52:50Z</time>
      </trkpt>
      <trkpt lat="47.23518" lon="-0.8845">
        <ele>97</ele>
        <time>2012-02-23T15:52:51Z</time>
      </trkpt>
      <trkpt lat="47.23518" lon="-0.88451">
        <ele>97</ele>
        <time>2012-02-23T15:52:52Z</time>
      </trkpt>
      <trkpt lat="47.23517" lon="-0.88453">
        <ele>97</ele>
        <time>2012-02-23T15:52:53Z</time>
      </trkpt>
      <trkpt lat="47.23516" lon="-0.88454">
        <ele>97</ele>
        <time>2012-02-23T15:52:54Z</time>
      </trkpt>
      <trkpt lat="47.23516" lon="-0.88455">
        <ele>97</ele>
        <time>2012-02-23T15:52:55Z</time>
      </trkpt>
      <trkpt lat="47.23515" lon="-0.88457">
        <ele>97</ele>
        <time>2012-02-23T15:52:56Z</time>
      </trkpt>
      <trkpt lat="47.23514" lon="-0.88459">
        <ele>97</ele>
        <time>2012-02-23T15:52:57Z</time>
      </trkpt>
      <trkpt lat="47.23514" lon="-0.8846">
        <ele>97</ele>
        <time>2012-02-23T15:52:58Z</time>
      </trkpt>
      <trkpt lat="47.23513" lon="-0.88462">
        <ele>97</ele>
        <time>2012-02-23T15:52:59Z</time>
      </trkpt>
      <trkpt lat="47.23513" lon="-0.88464">
        <ele>97</ele>
        <time>2012-02-23T15:53:00Z</time>
      </trkpt>
      <trkpt lat="47.23512" lon="-0.88465">
        <ele>97</ele>
        <time>2012-02-23T15:53:01Z</time>
      </trkpt>
      <trkpt lat="47.23511" lon="-0.88468">
        <ele>97</ele>
        <time>2012-02-23T15:53:03Z</time>
      </trkpt>
      <trkpt lat="47.2351" lon="-0.8847">
        <ele>97</ele>
        <time>2012-02-23T15:53:04Z</time>
      </trkpt>
      <trkpt lat="47.2351" lon="-0.88471">
        <ele>97</ele>
        <time>2012-02-23T15:53:05Z</time>
      </trkpt>
      <trkpt lat="47.23509" lon="-0.88473">
        <ele>97</ele>
        <time>2012-02-23T15:53:06Z</time>
      </trkpt>
      <trkpt lat="47.23508" lon="-0.88475">
        <ele>97</ele>
        <time>2012-02-23T15:53:08Z</time>
      </trkpt>
      <trkpt lat="47.23507" lon="-0.88477">
        <ele>97</ele>
        <time>2012-02-23T15:53:09Z</time>
      </trkpt>
      <trkpt lat="47.23507" lon="-0.88478">
        <ele>97</ele>
        <time>2012-02-23T15:53:10Z</time>
      </trkpt>
      <trkpt lat="47.23506" lon="-0.8848">
        <ele>97</ele>
        <time>2012-02-23T15:53:11Z</time>
      </trkpt>
      <trkpt lat="47.23505" lon="-0.88483">
        <ele>97</ele>
        <time>2012-02-23T15:53:13Z</time>
      </trkpt>
      <trkpt lat="47.23505" lon="-0.88485">
        <ele>97</ele>
        <time>2012-02-23T15:53:14Z</time>
      </trkpt>
      <trkpt lat="47.23504" lon="-0.88486">
        <ele>97</ele>
        <time>2012-02-23T15:53:15Z</time>
      </trkpt>
      <trkpt lat="47.23504" lon="-0.88488">
        <ele>97</ele>
        <time>2012-02-23T15:53:16Z</time>
      </trkpt>
      <trkpt lat="47.23503" lon="-0.8849">
        <ele>97</ele>
        <time>2012-02-23T15:53:18Z</time>
      </trkpt>
      <trkpt lat="47.23502" lon="-0.88493">
        <ele>97</ele>
        <time>2012-02-23T15:53:20Z</time>
      </trkpt>
      <trkpt lat="47.23501" lon="-0.88495">
        <ele>97</ele>
        <time>2012-02-23T15:53:21Z</time>
      </trkpt>
      <trkpt lat="47.235" lon="-0.88496">
        <ele>97</ele>
        <time>2012-02-23T15:53:22Z</time>
      </trkpt>
      <trkpt lat="47.23499" lon="-0.88499">
        <ele>97</ele>
        <time>2012-02-23T15:53:24Z</time>
      </trkpt>
      <trkpt lat="47.23499" lon="-0.88501">
        <ele>97</ele>
        <time>2012-02-23T15:53:25Z</time>
      </trkpt>
      <trkpt lat="47.23498" lon="-0.88503">
        <ele>97</ele>
        <time>2012-02-23T15:53:26Z</time>
      </trkpt>
      <trkpt lat="47.23497" lon="-0.88506">
        <ele>97</ele>
        <time>2012-02-23T15:53:28Z</time>
      </trkpt>
      <trkpt lat="47.23496" lon="-0.88507">
        <ele>97</ele>
        <time>2012-02-23T15:53:29Z</time>
      </trkpt>
      <trkpt lat="47.23495" lon="-0.88509">
        <ele>97</ele>
        <time>2012-02-23T15:53:30Z</time>
      </trkpt>
      <trkpt lat="47.23495" lon="-0.8851">
        <ele>97</ele>
        <time>2012-02-23T15:53:31Z</time>
      </trkpt>
      <trkpt lat="47.23494" lon="-0.88512">
        <ele>97</ele>
        <time>2012-02-23T15:53:32Z</time>
      </trkpt>
      <trkpt lat="47.23493" lon="-0.88514">
        <ele>97</ele>
        <time>2012-02-23T15:53:33Z</time>
      </trkpt>
      <trkpt lat="47.23492" lon="-0.88515">
        <ele>97</ele>
        <time>2012-02-23T15:53:34Z</time>
      </trkpt>
      <trkpt lat="47.23491" lon="-0.88518">
        <ele>97</ele>
        <time>2012-02-23T15:53:36Z</time>
      </trkpt>
      <trkpt lat="47.23491" lon="-0.8852">
        <ele>97</ele>
        <time>2012-02-23T15:53:37Z</time>
      </trkpt>
      <trkpt lat="47.23491" lon="-0.88521">
        <ele>97</ele>
        <time>2012-02-23T15:53:38Z</time>
      </trkpt>
      <trkpt lat="47.2349" lon="-0.88524">
        <ele>97</ele>
        <time>2012-02-23T15:53:39Z</time>
      </trkpt>
      <trkpt lat="47.23489" lon="-0.88525">
        <ele>97</ele>
        <time>2012-02-23T15:53:40Z</time>
      </trkpt>
      <trkpt lat="47.23488" lon="-0.88528">
        <ele>97</ele>
        <time>2012-02-23T15:53:42Z</time>
      </trkpt>
      <trkpt lat="47.23488" lon="-0.8853">
        <ele>97</ele>
        <time>2012-02-23T15:53:43Z</time>
      </trkpt>
      <trkpt lat="47.23487" lon="-0.88532">
        <ele>97</ele>
        <time>2012-02-23T15:53:45Z</time>
      </trkpt>
      <trkpt lat="47.23486" lon="-0.88534">
        <ele>97</ele>
        <time>2012-02-23T15:53:47Z</time>
      </trkpt>
      <trkpt lat="47.23486" lon="-0.88536">
        <ele>97</ele>
        <time>2012-02-23T15:53:48Z</time>
      </trkpt>
      <trkpt lat="47.23485" lon="-0.88538">
        <ele>97</ele>
        <time>2012-02-23T15:53:49Z</time>
      </trkpt>
      <trkpt lat="47.23484" lon="-0.8854">
        <ele>97</ele>
        <time>2012-02-23T15:53:50Z</time>
      </trkpt>
      <trkpt lat="47.23484" lon="-0.88542">
        <ele>97</ele>
        <time>2012-02-23T15:53:51Z</time>
      </trkpt>
      <trkpt lat="47.23483" lon="-0.88543">
        <ele>97</ele>
        <time>2012-02-23T15:53:52Z</time>
      </trkpt>
      <trkpt lat="47.23482" lon="-0.88546">
        <ele>97</ele>
        <time>2012-02-23T15:53:54Z</time>
      </trkpt>
      <trkpt lat="47.23481" lon="-0.88548">
        <ele>97</ele>
        <time>2012-02-23T15:53:55Z</time>
      </trkpt>
      <trkpt lat="47.2348" lon="-0.88551">
        <ele>97</ele>
        <time>2012-02-23T15:53:57Z</time>
      </trkpt>
      <trkpt lat="47.2348" lon="-0.88552">
        <ele>97</ele>
        <time>2012-02-23T15:53:58Z</time>
      </trkpt>
      <trkpt lat="47.23479" lon="-0.88554">
        <ele>97</ele>
        <time>2012-02-23T15:53:59Z</time>
      </trkpt>
      <trkpt lat="47.23478" lon="-0.88556">
        <ele>97</ele>
        <time>2012-02-23T15:54:00Z</time>
      </trkpt>
      <trkpt lat="47.23478" lon="-0.88558">
        <ele>97</ele>
        <time>2012-02-23T15:54:01Z</time>
      </trkpt>
      <trkpt lat="47.23477" lon="-0.88559">
        <ele>98</ele>
        <time>2012-02-23T15:54:02Z</time>
      </trkpt>
      <trkpt lat="47.23476" lon="-0.88561">
        <ele>98</ele>
        <time>2012-02-23T15:54:03Z</time>
      </trkpt>
      <trkpt lat="47.23476" lon="-0.88563">
        <ele>98</ele>
        <time>2012-02-23T15:54:04Z</time>
      </trkpt>
      <trkpt lat="47.23475" lon="-0.88565">
        <ele>98</ele>
        <time>2012-02-23T15:54:06Z</time>
      </trkpt>
      <trkpt lat="47.23474" lon="-0.88567">
        <ele>98</ele>
        <time>2012-02-23T15:54:07Z</time>
      </trkpt>
      <trkpt lat="47.23474" lon="-0.88569">
        <ele>98</ele>
        <time>2012-02-23T15:54:08Z</time>
      </trkpt>
      <trkpt lat="47.23473" lon="-0.8857">
        <ele>98</ele>
        <time>2012-02-23T15:54:09Z</time>
      </trkpt>
      <trkpt lat="47.23471" lon="-0.88572">
        <ele>99</ele>
        <time>2012-02-23T15:54:11Z</time>
      </trkpt>
      <trkpt lat="47.23471" lon="-0.88574">
        <ele>99</ele>
        <time>2012-02-23T15:54:12Z</time>
      </trkpt>
      <trkpt lat="47.23469" lon="-0.88577">
        <ele>99</ele>
        <time>2012-02-23T15:54:14Z</time>
      </trkpt>
      <trkpt lat="47.23468" lon="-0.88578">
        <ele>99</ele>
        <time>2012-02-23T15:54:15Z</time>
      </trkpt>
      <trkpt lat="47.23467" lon="-0.88581">
        <ele>99</ele>
        <time>2012-02-23T15:54:17Z</time>
      </trkpt>
      <trkpt lat="47.23466" lon="-0.88582">
        <ele>99</ele>
        <time>2012-02-23T15:54:18Z</time>
      </trkpt>
      <trkpt lat="47.23466" lon="-0.88584">
        <ele>99</ele>
        <time>2012-02-23T15:54:19Z</time>
      </trkpt>
      <trkpt lat="47.23465" lon="-0.88586">
        <ele>99</ele>
        <time>2012-02-23T15:54:20Z</time>
      </trkpt>
      <trkpt lat="47.23464" lon="-0.88589">
        <ele>99</ele>
        <time>2012-02-23T15:54:22Z</time>
      </trkpt>
      <trkpt lat="47.23463" lon="-0.88591">
        <ele>99</ele>
        <time>2012-02-23T15:54:24Z</time>
      </trkpt>
      <trkpt lat="47.23462" lon="-0.88593">
        <ele>99</ele>
        <time>2012-02-23T15:54:25Z</time>
      </trkpt>
      <trkpt lat="47.23461" lon="-0.88595">
        <ele>99</ele>
        <time>2012-02-23T15:54:27Z</time>
      </trkpt>
      <trkpt lat="47.23459" lon="-0.88598">
        <ele>99</ele>
        <time>2012-02-23T15:54:29Z</time>
      </trkpt>
      <trkpt lat="47.23458" lon="-0.886">
        <ele>99</ele>
        <time>2012-02-23T15:54:31Z</time>
      </trkpt>
      <trkpt lat="47.23457" lon="-0.88602">
        <ele>99</ele>
        <time>2012-02-23T15:54:33Z</time>
      </trkpt>
      <trkpt lat="47.23456" lon="-0.88604">
        <ele>99</ele>
        <time>2012-02-23T15:54:35Z</time>
      </trkpt>
      <trkpt lat="47.23454" lon="-0.88607">
        <ele>99</ele>
        <time>2012-02-23T15:54:37Z</time>
      </trkpt>
      <trkpt lat="47.23453" lon="-0.88609">
        <ele>99</ele>
        <time>2012-02-23T15:54:39Z</time>
      </trkpt>
      <trkpt lat="47.23452" lon="-0.88611">
        <ele>99</ele>
        <time>2012-02-23T15:54:40Z</time>
      </trkpt>
      <trkpt lat="47.23451" lon="-0.88612">
        <ele>99</ele>
        <time>2012-02-23T15:54:41Z</time>
      </trkpt>
      <trkpt lat="47.2345" lon="-0.88614">
        <ele>99</ele>
        <time>2012-02-23T15:54:42Z</time>
      </trkpt>
      <trkpt lat="47.23449" lon="-0.88616">
        <ele>99</ele>
        <time>2012-02-23T15:54:44Z</time>
      </trkpt>
      <trkpt lat="47.23447" lon="-0.88619">
        <ele>99</ele>
        <time>2012-02-23T15:54:46Z</time>
      </trkpt>
      <trkpt lat="47.23446" lon="-0.88622">
        <ele>99</ele>
        <time>2012-02-23T15:54:48Z</time>
      </trkpt>
      <trkpt lat="47.23445" lon="-0.88624">
        <ele>99</ele>
        <time>2012-02-23T15:54:49Z</time>
      </trkpt>
      <trkpt lat="47.23444" lon="-0.88625">
        <ele>99</ele>
        <time>2012-02-23T15:54:50Z</time>
      </trkpt>
      <trkpt lat="47.23444" lon="-0.88627">
        <ele>99</ele>
        <time>2012-02-23T15:54:51Z</time>
      </trkpt>
      <trkpt lat="47.23443" lon="-0.88628">
        <ele>99</ele>
        <time>2012-02-23T15:54:52Z</time>
      </trkpt>
      <trkpt lat="47.23441" lon="-0.88631">
        <ele>99</ele>
        <time>2012-02-23T15:54:54Z</time>
      </trkpt>
      <trkpt lat="47.2344" lon="-0.88633">
        <ele>99</ele>
        <time>2012-02-23T15:54:56Z</time>
      </trkpt>
      <trkpt lat="47.23439" lon="-0.88636">
        <ele>99</ele>
        <time>2012-02-23T15:54:58Z</time>
      </trkpt>
      <trkpt lat="47.23439" lon="-0.88637">
        <ele>99</ele>
        <time>2012-02-23T15:54:59Z</time>
      </trkpt>
      <trkpt lat="47.23438" lon="-0.88639">
        <ele>99</ele>
        <time>2012-02-23T15:55:00Z</time>
      </trkpt>
      <trkpt lat="47.23437" lon="-0.8864">
        <ele>99</ele>
        <time>2012-02-23T15:55:01Z</time>
      </trkpt>
      <trkpt lat="47.23436" lon="-0.88643">
        <ele>99</ele>
        <time>2012-02-23T15:55:03Z</time>
      </trkpt>
      <trkpt lat="47.23435" lon="-0.88645">
        <ele>99</ele>
        <time>2012-02-23T15:55:04Z</time>
      </trkpt>
      <trkpt lat="47.23434" lon="-0.88646">
        <ele>99</ele>
        <time>2012-02-23T15:55:05Z</time>
      </trkpt>
      <trkpt lat="47.23434" lon="-0.88648">
        <ele>99</ele>
        <time>2012-02-23T15:55:06Z</time>
      </trkpt>
      <trkpt lat="47.23432" lon="-0.8865">
        <ele>99</ele>
        <time>2012-02-23T15:55:08Z</time>
      </trkpt>
      <trkpt lat="47.23431" lon="-0.88653">
        <ele>99</ele>
        <time>2012-02-23T15:55:10Z</time>
      </trkpt>
      <trkpt lat="47.2343" lon="-0.88655">
        <ele>99</ele>
        <time>2012-02-23T15:55:11Z</time>
      </trkpt>
      <trkpt lat="47.23429" lon="-0.88656">
        <ele>99</ele>
        <time>2012-02-23T15:55:12Z</time>
      </trkpt>
      <trkpt lat="47.23428" lon="-0.88658">
        <ele>99</ele>
        <time>2012-02-23T15:55:13Z</time>
      </trkpt>
      <trkpt lat="47.23427" lon="-0.88661">
        <ele>99</ele>
        <time>2012-02-23T15:55:15Z</time>
      </trkpt>
      <trkpt lat="47.23427" lon="-0.88662">
        <ele>99</ele>
        <time>2012-02-23T15:55:16Z</time>
      </trkpt>
      <trkpt lat="47.23425" lon="-0.88665">
        <ele>99</ele>
        <time>2012-02-23T15:55:18Z</time>
      </trkpt>
      <trkpt lat="47.23424" lon="-0.88668">
        <ele>99</ele>
        <time>2012-02-23T15:55:20Z</time>
      </trkpt>
      <trkpt lat="47.23424" lon="-0.8867">
        <ele>99</ele>
        <time>2012-02-23T15:55:21Z</time>
      </trkpt>
      <trkpt lat="47.23424" lon="-0.88671">
        <ele>99</ele>
        <time>2012-02-23T15:55:23Z</time>
      </trkpt>
      <trkpt lat="47.23423" lon="-0.88674">
        <ele>99</ele>
        <time>2012-02-23T15:55:25Z</time>
      </trkpt>
      <trkpt lat="47.23422" lon="-0.88676">
        <ele>99</ele>
        <time>2012-02-23T15:55:26Z</time>
      </trkpt>
      <trkpt lat="47.23422" lon="-0.88678">
        <ele>99</ele>
        <time>2012-02-23T15:55:27Z</time>
      </trkpt>
      <trkpt lat="47.23422" lon="-0.88679">
        <ele>99</ele>
        <time>2012-02-23T15:55:28Z</time>
      </trkpt>
      <trkpt lat="47.23421" lon="-0.88681">
        <ele>99</ele>
        <time>2012-02-23T15:55:29Z</time>
      </trkpt>
      <trkpt lat="47.23421" lon="-0.88683">
        <ele>99</ele>
        <time>2012-02-23T15:55:30Z</time>
      </trkpt>
      <trkpt lat="47.23421" lon="-0.88684">
        <ele>99</ele>
        <time>2012-02-23T15:55:31Z</time>
      </trkpt>
      <trkpt lat="47.23421" lon="-0.88686">
        <ele>99</ele>
        <time>2012-02-23T15:55:32Z</time>
      </trkpt>
      <trkpt lat="47.23421" lon="-0.88688">
        <ele>99</ele>
        <time>2012-02-23T15:55:33Z</time>
      </trkpt>
      <trkpt lat="47.23421" lon="-0.8869">
        <ele>99</ele>
        <time>2012-02-23T15:55:34Z</time>
      </trkpt>
      <trkpt lat="47.23421" lon="-0.88691">
        <ele>99</ele>
        <time>2012-02-23T15:55:35Z</time>
      </trkpt>
      <trkpt lat="47.2342" lon="-0.88693">
        <ele>99</ele>
        <time>2012-02-23T15:55:36Z</time>
      </trkpt>
      <trkpt lat="47.2342" lon="-0.88695">
        <ele>99</ele>
        <time>2012-02-23T15:55:37Z</time>
      </trkpt>
      <trkpt lat="47.2342" lon="-0.88697">
        <ele>99</ele>
        <time>2012-02-23T15:55:38Z</time>
      </trkpt>
      <trkpt lat="47.23419" lon="-0.88699">
        <ele>99</ele>
        <time>2012-02-23T15:55:39Z</time>
      </trkpt>
      <trkpt lat="47.23419" lon="-0.88701">
        <ele>99</ele>
        <time>2012-02-23T15:55:40Z</time>
      </trkpt>
      <trkpt lat="47.23419" lon="-0.88702">
        <ele>99</ele>
        <time>2012-02-23T15:55:41Z</time>
      </trkpt>
      <trkpt lat="47.23419" lon="-0.88704">
        <ele>99</ele>
        <time>2012-02-23T15:55:42Z</time>
      </trkpt>
      <trkpt lat="47.23418" lon="-0.88706">
        <ele>99</ele>
        <time>2012-02-23T15:55:43Z</time>
      </trkpt>
      <trkpt lat="47.23418" lon="-0.88709">
        <ele>99</ele>
        <time>2012-02-23T15:55:44Z</time>
      </trkpt>
      <trkpt lat="47.23418" lon="-0.8871">
        <ele>99</ele>
        <time>2012-02-23T15:55:45Z</time>
      </trkpt>
      <trkpt lat="47.23417" lon="-0.88712">
        <ele>99</ele>
        <time>2012-02-23T15:55:46Z</time>
      </trkpt>
      <trkpt lat="47.23417" lon="-0.88713">
        <ele>99</ele>
        <time>2012-02-23T15:55:47Z</time>
      </trkpt>
      <trkpt lat="47.23416" lon="-0.88715">
        <ele>99</ele>
        <time>2012-02-23T15:55:48Z</time>
      </trkpt>
      <trkpt lat="47.23416" lon="-0.88717">
        <ele>99</ele>
        <time>2012-02-23T15:55:49Z</time>
      </trkpt>
      <trkpt lat="47.23416" lon="-0.88718">
        <ele>99</ele>
        <time>2012-02-23T15:55:50Z</time>
      </trkpt>
      <trkpt lat="47.23416" lon="-0.8872">
        <ele>99</ele>
        <time>2012-02-23T15:55:51Z</time>
      </trkpt>
      <trkpt lat="47.23415" lon="-0.88721">
        <ele>99</ele>
        <time>2012-02-23T15:55:52Z</time>
      </trkpt>
      <trkpt lat="47.23415" lon="-0.88723">
        <ele>99</ele>
        <time>2012-02-23T15:55:53Z</time>
      </trkpt>
      <trkpt lat="47.23415" lon="-0.88725">
        <ele>99</ele>
        <time>2012-02-23T15:55:54Z</time>
      </trkpt>
      <trkpt lat="47.23414" lon="-0.88727">
        <ele>99</ele>
        <time>2012-02-23T15:55:56Z</time>
      </trkpt>
      <trkpt lat="47.23413" lon="-0.88729">
        <ele>99</ele>
        <time>2012-02-23T15:55:57Z</time>
      </trkpt>
      <trkpt lat="47.23413" lon="-0.88731">
        <ele>99</ele>
        <time>2012-02-23T15:55:58Z</time>
      </trkpt>
      <trkpt lat="47.23413" lon="-0.88732">
        <ele>99</ele>
        <time>2012-02-23T15:55:59Z</time>
      </trkpt>
      <trkpt lat="47.23412" lon="-0.88735">
        <ele>99</ele>
        <time>2012-02-23T15:56:01Z</time>
      </trkpt>
      <trkpt lat="47.23412" lon="-0.88736">
        <ele>99</ele>
        <time>2012-02-23T15:56:02Z</time>
      </trkpt>
      <trkpt lat="47.23412" lon="-0.88738">
        <ele>99</ele>
        <time>2012-02-23T15:56:03Z</time>
      </trkpt>
      <trkpt lat="47.23412" lon="-0.8874">
        <ele>99</ele>
        <time>2012-02-23T15:56:04Z</time>
      </trkpt>
      <trkpt lat="47.23411" lon="-0.88743">
        <ele>99</ele>
        <time>2012-02-23T15:56:06Z</time>
      </trkpt>
      <trkpt lat="47.2341" lon="-0.88744">
        <ele>99</ele>
        <time>2012-02-23T15:56:07Z</time>
      </trkpt>
      <trkpt lat="47.2341" lon="-0.88746">
        <ele>99</ele>
        <time>2012-02-23T15:56:08Z</time>
      </trkpt>
      <trkpt lat="47.23409" lon="-0.88749">
        <ele>99</ele>
        <time>2012-02-23T15:56:10Z</time>
      </trkpt>
      <trkpt lat="47.23409" lon="-0.8875">
        <ele>99</ele>
        <time>2012-02-23T15:56:11Z</time>
      </trkpt>
      <trkpt lat="47.23408" lon="-0.88752">
        <ele>99</ele>
        <time>2012-02-23T15:56:12Z</time>
      </trkpt>
      <trkpt lat="47.23407" lon="-0.88754">
        <ele>99</ele>
        <time>2012-02-23T15:56:13Z</time>
      </trkpt>
      <trkpt lat="47.23407" lon="-0.88755">
        <ele>99</ele>
        <time>2012-02-23T15:56:14Z</time>
      </trkpt>
      <trkpt lat="47.23406" lon="-0.88757">
        <ele>99</ele>
        <time>2012-02-23T15:56:15Z</time>
      </trkpt>
      <trkpt lat="47.23406" lon="-0.88758">
        <ele>99</ele>
        <time>2012-02-23T15:56:16Z</time>
      </trkpt>
      <trkpt lat="47.23405" lon="-0.8876">
        <ele>99</ele>
        <time>2012-02-23T15:56:17Z</time>
      </trkpt>
      <trkpt lat="47.23404" lon="-0.88762">
        <ele>99</ele>
        <time>2012-02-23T15:56:18Z</time>
      </trkpt>
      <trkpt lat="47.23404" lon="-0.88763">
        <ele>99</ele>
        <time>2012-02-23T15:56:19Z</time>
      </trkpt>
      <trkpt lat="47.23403" lon="-0.88766">
        <ele>99</ele>
        <time>2012-02-23T15:56:21Z</time>
      </trkpt>
      <trkpt lat="47.23403" lon="-0.88767">
        <ele>99</ele>
        <time>2012-02-23T15:56:22Z</time>
      </trkpt>
      <trkpt lat="47.23402" lon="-0.88769">
        <ele>99</ele>
        <time>2012-02-23T15:56:23Z</time>
      </trkpt>
      <trkpt lat="47.23402" lon="-0.88771">
        <ele>99</ele>
        <time>2012-02-23T15:56:24Z</time>
      </trkpt>
      <trkpt lat="47.23401" lon="-0.88774">
        <ele>99</ele>
        <time>2012-02-23T15:56:26Z</time>
      </trkpt>
      <trkpt lat="47.23401" lon="-0.88775">
        <ele>99</ele>
        <time>2012-02-23T15:56:27Z</time>
      </trkpt>
      <trkpt lat="47.234" lon="-0.88777">
        <ele>99</ele>
        <time>2012-02-23T15:56:28Z</time>
      </trkpt>
      <trkpt lat="47.234" lon="-0.88779">
        <ele>98</ele>
        <time>2012-02-23T15:56:30Z</time>
      </trkpt>
      <trkpt lat="47.23399" lon="-0.88782">
        <ele>98</ele>
        <time>2012-02-23T15:56:32Z</time>
      </trkpt>
      <trkpt lat="47.23398" lon="-0.88784">
        <ele>98</ele>
        <time>2012-02-23T15:56:33Z</time>
      </trkpt>
      <trkpt lat="47.23397" lon="-0.88786">
        <ele>98</ele>
        <time>2012-02-23T15:56:34Z</time>
      </trkpt>
      <trkpt lat="47.23397" lon="-0.88788">
        <ele>98</ele>
        <time>2012-02-23T15:56:36Z</time>
      </trkpt>
      <trkpt lat="47.23396" lon="-0.8879">
        <ele>98</ele>
        <time>2012-02-23T15:56:37Z</time>
      </trkpt>
      <trkpt lat="47.23396" lon="-0.88792">
        <ele>98</ele>
        <time>2012-02-23T15:56:38Z</time>
      </trkpt>
      <trkpt lat="47.23395" lon="-0.88793">
        <ele>98</ele>
        <time>2012-02-23T15:56:39Z</time>
      </trkpt>
      <trkpt lat="47.23394" lon="-0.88795">
        <ele>98</ele>
        <time>2012-02-23T15:56:40Z</time>
      </trkpt>
      <trkpt lat="47.23393" lon="-0.88796">
        <ele>98</ele>
        <time>2012-02-23T15:56:41Z</time>
      </trkpt>
      <trkpt lat="47.23393" lon="-0.88798">
        <ele>98</ele>
        <time>2012-02-23T15:56:42Z</time>
      </trkpt>
      <trkpt lat="47.23392" lon="-0.888">
        <ele>98</ele>
        <time>2012-02-23T15:56:43Z</time>
      </trkpt>
      <trkpt lat="47.23391" lon="-0.88803">
        <ele>98</ele>
        <time>2012-02-23T15:56:45Z</time>
      </trkpt>
      <trkpt lat="47.23391" lon="-0.88804">
        <ele>98</ele>
        <time>2012-02-23T15:56:46Z</time>
      </trkpt>
      <trkpt lat="47.23391" lon="-0.88806">
        <ele>98</ele>
        <time>2012-02-23T15:56:47Z</time>
      </trkpt>
      <trkpt lat="47.2339" lon="-0.88808">
        <ele>98</ele>
        <time>2012-02-23T15:56:48Z</time>
      </trkpt>
      <trkpt lat="47.23389" lon="-0.8881">
        <ele>98</ele>
        <time>2012-02-23T15:56:50Z</time>
      </trkpt>
      <trkpt lat="47.23389" lon="-0.88812">
        <ele>98</ele>
        <time>2012-02-23T15:56:51Z</time>
      </trkpt>
      <trkpt lat="47.23388" lon="-0.88813">
        <ele>98</ele>
        <time>2012-02-23T15:56:52Z</time>
      </trkpt>
      <trkpt lat="47.23388" lon="-0.88815">
        <ele>98</ele>
        <time>2012-02-23T15:56:53Z</time>
      </trkpt>
      <trkpt lat="47.23387" lon="-0.88818">
        <ele>98</ele>
        <time>2012-02-23T15:56:55Z</time>
      </trkpt>
      <trkpt lat="47.23386" lon="-0.88819">
        <ele>98</ele>
        <time>2012-02-23T15:56:56Z</time>
      </trkpt>
      <trkpt lat="47.23386" lon="-0.88821">
        <ele>98</ele>
        <time>2012-02-23T15:56:57Z</time>
      </trkpt>
      <trkpt lat="47.23385" lon="-0.88823">
        <ele>98</ele>
        <time>2012-02-23T15:56:58Z</time>
      </trkpt>
      <trkpt lat="47.23384" lon="-0.88826">
        <ele>98</ele>
        <time>2012-02-23T15:57:00Z</time>
      </trkpt>
      <trkpt lat="47.23384" lon="-0.88827">
        <ele>98</ele>
        <time>2012-02-23T15:57:01Z</time>
      </trkpt>
      <trkpt lat="47.23383" lon="-0.88829">
        <ele>98</ele>
        <time>2012-02-23T15:57:02Z</time>
      </trkpt>
      <trkpt lat="47.23382" lon="-0.88832">
        <ele>98</ele>
        <time>2012-02-23T15:57:04Z</time>
      </trkpt>
      <trkpt lat="47.23381" lon="-0.88833">
        <ele>98</ele>
        <time>2012-02-23T15:57:05Z</time>
      </trkpt>
      <trkpt lat="47.2338" lon="-0.88835">
        <ele>98</ele>
        <time>2012-02-23T15:57:06Z</time>
      </trkpt>
      <trkpt lat="47.2338" lon="-0.88836">
        <ele>98</ele>
        <time>2012-02-23T15:57:07Z</time>
      </trkpt>
      <trkpt lat="47.23379" lon="-0.88838">
        <ele>98</ele>
        <time>2012-02-23T15:57:08Z</time>
      </trkpt>
      <trkpt lat="47.23378" lon="-0.88841">
        <ele>98</ele>
        <time>2012-02-23T15:57:10Z</time>
      </trkpt>
      <trkpt lat="47.23377" lon="-0.88843">
        <ele>98</ele>
        <time>2012-02-23T15:57:11Z</time>
      </trkpt>
      <trkpt lat="47.23377" lon="-0.88844">
        <ele>98</ele>
        <time>2012-02-23T15:57:12Z</time>
      </trkpt>
      <trkpt lat="47.23376" lon="-0.88846">
        <ele>98</ele>
        <time>2012-02-23T15:57:13Z</time>
      </trkpt>
      <trkpt lat="47.23375" lon="-0.88848">
        <ele>98</ele>
        <time>2012-02-23T15:57:14Z</time>
      </trkpt>
      <trkpt lat="47.23374" lon="-0.8885">
        <ele>98</ele>
        <time>2012-02-23T15:57:16Z</time>
      </trkpt>
      <trkpt lat="47.23374" lon="-0.88852">
        <ele>98</ele>
        <time>2012-02-23T15:57:17Z</time>
      </trkpt>
      <trkpt lat="47.23373" lon="-0.88854">
        <ele>98</ele>
        <time>2012-02-23T15:57:18Z</time>
      </trkpt>
      <trkpt lat="47.23372" lon="-0.88856">
        <ele>98</ele>
        <time>2012-02-23T15:57:20Z</time>
      </trkpt>
      <trkpt lat="47.23371" lon="-0.88859">
        <ele>98</ele>
        <time>2012-02-23T15:57:22Z</time>
      </trkpt>
      <trkpt lat="47.2337" lon="-0.88861">
        <ele>98</ele>
        <time>2012-02-23T15:57:23Z</time>
      </trkpt>
      <trkpt lat="47.23369" lon="-0.88863">
        <ele>98</ele>
        <time>2012-02-23T15:57:25Z</time>
      </trkpt>
      <trkpt lat="47.23367" lon="-0.88866">
        <ele>98</ele>
        <time>2012-02-23T15:57:27Z</time>
      </trkpt>
      <trkpt lat="47.23365" lon="-0.88869">
        <ele>98</ele>
        <time>2012-02-23T15:57:29Z</time>
      </trkpt>
      <trkpt lat="47.23364" lon="-0.88871">
        <ele>98</ele>
        <time>2012-02-23T15:57:31Z</time>
      </trkpt>
      <trkpt lat="47.23362" lon="-0.88874">
        <ele>98</ele>
        <time>2012-02-23T15:57:33Z</time>
      </trkpt>
      <trkpt lat="47.23362" lon="-0.88875">
        <ele>98</ele>
        <time>2012-02-23T15:57:34Z</time>
      </trkpt>
      <trkpt lat="47.2336" lon="-0.88877">
        <ele>98</ele>
        <time>2012-02-23T15:57:36Z</time>
      </trkpt>
      <trkpt lat="47.23359" lon="-0.8888">
        <ele>98</ele>
        <time>2012-02-23T15:57:38Z</time>
      </trkpt>
      <trkpt lat="47.23358" lon="-0.88882">
        <ele>98</ele>
        <time>2012-02-23T15:57:39Z</time>
      </trkpt>
      <trkpt lat="47.23357" lon="-0.88884">
        <ele>98</ele>
        <time>2012-02-23T15:57:41Z</time>
      </trkpt>
      <trkpt lat="47.23355" lon="-0.88887">
        <ele>98</ele>
        <time>2012-02-23T15:57:43Z</time>
      </trkpt>
      <trkpt lat="47.23355" lon="-0.88888">
        <ele>98</ele>
        <time>2012-02-23T15:57:44Z</time>
      </trkpt>
      <trkpt lat="47.23354" lon="-0.88891">
        <ele>98</ele>
        <time>2012-02-23T15:57:46Z</time>
      </trkpt>
      <trkpt lat="47.23353" lon="-0.88892">
        <ele>98</ele>
        <time>2012-02-23T15:57:47Z</time>
      </trkpt>
      <trkpt lat="47.23351" lon="-0.88895">
        <ele>98</ele>
        <time>2012-02-23T15:57:49Z</time>
      </trkpt>
      <trkpt lat="47.2335" lon="-0.88897">
        <ele>98</ele>
        <time>2012-02-23T15:57:51Z</time>
      </trkpt>
      <trkpt lat="47.23349" lon="-0.88898">
        <ele>98</ele>
        <time>2012-02-23T15:57:52Z</time>
      </trkpt>
      <trkpt lat="47.23347" lon="-0.88901">
        <ele>98</ele>
        <time>2012-02-23T15:57:54Z</time>
      </trkpt>
      <trkpt lat="47.23346" lon="-0.88903">
        <ele>98</ele>
        <time>2012-02-23T15:57:56Z</time>
      </trkpt>
      <trkpt lat="47.23345" lon="-0.88905">
        <ele>98</ele>
        <time>2012-02-23T15:57:57Z</time>
      </trkpt>
      <trkpt lat="47.23344" lon="-0.88907">
        <ele>98</ele>
        <time>2012-02-23T15:57:58Z</time>
      </trkpt>
      <trkpt lat="47.23343" lon="-0.88909">
        <ele>98</ele>
        <time>2012-02-23T15:57:59Z</time>
      </trkpt>
      <trkpt lat="47.23342" lon="-0.88911">
        <ele>98</ele>
        <time>2012-02-23T15:58:01Z</time>
      </trkpt>
      <trkpt lat="47.2334" lon="-0.88914">
        <ele>98</ele>
        <time>2012-02-23T15:58:03Z</time>
      </trkpt>
      <trkpt lat="47.23338" lon="-0.88916">
        <ele>98</ele>
        <time>2012-02-23T15:58:05Z</time>
      </trkpt>
      <trkpt lat="47.23337" lon="-0.88918">
        <ele>98</ele>
        <time>2012-02-23T15:58:07Z</time>
      </trkpt>
      <trkpt lat="47.23336" lon="-0.8892">
        <ele>98</ele>
        <time>2012-02-23T15:58:08Z</time>
      </trkpt>
      <trkpt lat="47.23335" lon="-0.88922">
        <ele>98</ele>
        <time>2012-02-23T15:58:10Z</time>
      </trkpt>
      <trkpt lat="47.23333" lon="-0.88924">
        <ele>98</ele>
        <time>2012-02-23T15:58:12Z</time>
      </trkpt>
      <trkpt lat="47.23332" lon="-0.88926">
        <ele>98</ele>
        <time>2012-02-23T15:58:13Z</time>
      </trkpt>
      <trkpt lat="47.23331" lon="-0.88928">
        <ele>98</ele>
        <time>2012-02-23T15:58:15Z</time>
      </trkpt>
      <trkpt lat="47.23329" lon="-0.8893">
        <ele>98</ele>
        <time>2012-02-23T15:58:17Z</time>
      </trkpt>
      <trkpt lat="47.23328" lon="-0.88932">
        <ele>98</ele>
        <time>2012-02-23T15:58:18Z</time>
      </trkpt>
      <trkpt lat="47.23327" lon="-0.88933">
        <ele>98</ele>
        <time>2012-02-23T15:58:19Z</time>
      </trkpt>
      <trkpt lat="47.23326" lon="-0.88936">
        <ele>98</ele>
        <time>2012-02-23T15:58:21Z</time>
      </trkpt>
      <trkpt lat="47.23324" lon="-0.88938">
        <ele>98</ele>
        <time>2012-02-23T15:58:23Z</time>
      </trkpt>
      <trkpt lat="47.23323" lon="-0.8894">
        <ele>98</ele>
        <time>2012-02-23T15:58:24Z</time>
      </trkpt>
      <trkpt lat="47.23322" lon="-0.88941">
        <ele>98</ele>
        <time>2012-02-23T15:58:25Z</time>
      </trkpt>
      <trkpt lat="47.23321" lon="-0.88941">
        <ele>98</ele>
        <time>2012-02-23T15:58:26Z</time>
      </trkpt>
      <trkpt lat="47.23319" lon="-0.88943">
        <ele>98</ele>
        <time>2012-02-23T15:58:28Z</time>
      </trkpt>
      <trkpt lat="47.23318" lon="-0.88946">
        <ele>98</ele>
        <time>2012-02-23T15:58:30Z</time>
      </trkpt>
      <trkpt lat="47.23317" lon="-0.88948">
        <ele>98</ele>
        <time>2012-02-23T15:58:31Z</time>
      </trkpt>
      <trkpt lat="47.23315" lon="-0.8895">
        <ele>98</ele>
        <time>2012-02-23T15:58:33Z</time>
      </trkpt>
      <trkpt lat="47.23315" lon="-0.88952">
        <ele>98</ele>
        <time>2012-02-23T15:58:34Z</time>
      </trkpt>
      <trkpt lat="47.23315" lon="-0.88954">
        <ele>98</ele>
        <time>2012-02-23T15:58:35Z</time>
      </trkpt>
      <trkpt lat="47.23314" lon="-0.88955">
        <ele>98</ele>
        <time>2012-02-23T15:58:36Z</time>
      </trkpt>
      <trkpt lat="47.23312" lon="-0.88958">
        <ele>98</ele>
        <time>2012-02-23T15:58:38Z</time>
      </trkpt>
      <trkpt lat="47.2331" lon="-0.8896">
        <ele>98</ele>
        <time>2012-02-23T15:58:40Z</time>
      </trkpt>
      <trkpt lat="47.2331" lon="-0.88962">
        <ele>98</ele>
        <time>2012-02-23T15:58:41Z</time>
      </trkpt>
      <trkpt lat="47.23309" lon="-0.88964">
        <ele>98</ele>
        <time>2012-02-23T15:58:42Z</time>
      </trkpt>
      <trkpt lat="47.23307" lon="-0.88966">
        <ele>98</ele>
        <time>2012-02-23T15:58:44Z</time>
      </trkpt>
      <trkpt lat="47.23306" lon="-0.88969">
        <ele>98</ele>
        <time>2012-02-23T15:58:46Z</time>
      </trkpt>
      <trkpt lat="47.23305" lon="-0.8897">
        <ele>98</ele>
        <time>2012-02-23T15:58:47Z</time>
      </trkpt>
      <trkpt lat="47.23304" lon="-0.88972">
        <ele>98</ele>
        <time>2012-02-23T15:58:48Z</time>
      </trkpt>
      <trkpt lat="47.23302" lon="-0.88974">
        <ele>98</ele>
        <time>2012-02-23T15:58:50Z</time>
      </trkpt>
      <trkpt lat="47.23301" lon="-0.88977">
        <ele>98</ele>
        <time>2012-02-23T15:58:52Z</time>
      </trkpt>
      <trkpt lat="47.23299" lon="-0.88978">
        <ele>98</ele>
        <time>2012-02-23T15:58:54Z</time>
      </trkpt>
      <trkpt lat="47.23298" lon="-0.88981">
        <ele>98</ele>
        <time>2012-02-23T15:58:56Z</time>
      </trkpt>
      <trkpt lat="47.23297" lon="-0.88982">
        <ele>98</ele>
        <time>2012-02-23T15:58:57Z</time>
      </trkpt>
      <trkpt lat="47.23296" lon="-0.88984">
        <ele>98</ele>
        <time>2012-02-23T15:58:59Z</time>
      </trkpt>
      <trkpt lat="47.23294" lon="-0.88986">
        <ele>98</ele>
        <time>2012-02-23T15:59:01Z</time>
      </trkpt>
      <trkpt lat="47.23293" lon="-0.88989">
        <ele>98</ele>
        <time>2012-02-23T15:59:03Z</time>
      </trkpt>
      <trkpt lat="47.23291" lon="-0.88991">
        <ele>98</ele>
        <time>2012-02-23T15:59:05Z</time>
      </trkpt>
      <trkpt lat="47.2329" lon="-0.88992">
        <ele>98</ele>
        <time>2012-02-23T15:59:06Z</time>
      </trkpt>
      <trkpt lat="47.23288" lon="-0.88995">
        <ele>98</ele>
        <time>2012-02-23T15:59:08Z</time>
      </trkpt>
      <trkpt lat="47.23288" lon="-0.88998">
        <ele>98</ele>
        <time>2012-02-23T15:59:09Z</time>
      </trkpt>
      <trkpt lat="47.23288" lon="-0.89">
        <ele>98</ele>
        <time>2012-02-23T15:59:10Z</time>
      </trkpt>
      <trkpt lat="47.23287" lon="-0.89002">
        <ele>98</ele>
        <time>2012-02-23T15:59:11Z</time>
      </trkpt>
      <trkpt lat="47.23286" lon="-0.89004">
        <ele>98</ele>
        <time>2012-02-23T15:59:13Z</time>
      </trkpt>
      <trkpt lat="47.23284" lon="-0.89007">
        <ele>98</ele>
        <time>2012-02-23T15:59:15Z</time>
      </trkpt>
      <trkpt lat="47.23282" lon="-0.89009">
        <ele>98</ele>
        <time>2012-02-23T15:59:17Z</time>
      </trkpt>
      <trkpt lat="47.23281" lon="-0.89011">
        <ele>98</ele>
        <time>2012-02-23T15:59:19Z</time>
      </trkpt>
      <trkpt lat="47.2328" lon="-0.89012">
        <ele>98</ele>
        <time>2012-02-23T15:59:20Z</time>
      </trkpt>
      <trkpt lat="47.23278" lon="-0.89015">
        <ele>98</ele>
        <time>2012-02-23T15:59:22Z</time>
      </trkpt>
      <trkpt lat="47.23277" lon="-0.89017">
        <ele>98</ele>
        <time>2012-02-23T15:59:24Z</time>
      </trkpt>
      <trkpt lat="47.23275" lon="-0.89019">
        <ele>98</ele>
        <time>2012-02-23T15:59:26Z</time>
      </trkpt>
      <trkpt lat="47.23273" lon="-0.89021">
        <ele>98</ele>
        <time>2012-02-23T15:59:28Z</time>
      </trkpt>
      <trkpt lat="47.23272" lon="-0.89023">
        <ele>98</ele>
        <time>2012-02-23T15:59:30Z</time>
      </trkpt>
      <trkpt lat="47.23271" lon="-0.89024">
        <ele>98</ele>
        <time>2012-02-23T15:59:31Z</time>
      </trkpt>
      <trkpt lat="47.23269" lon="-0.89027">
        <ele>98</ele>
        <time>2012-02-23T15:59:33Z</time>
      </trkpt>
      <trkpt lat="47.23268" lon="-0.89029">
        <ele>98</ele>
        <time>2012-02-23T15:59:35Z</time>
      </trkpt>
      <trkpt lat="47.23266" lon="-0.89031">
        <ele>98</ele>
        <time>2012-02-23T15:59:37Z</time>
      </trkpt>
      <trkpt lat="47.23265" lon="-0.89033">
        <ele>98</ele>
        <time>2012-02-23T15:59:38Z</time>
      </trkpt>
      <trkpt lat="47.23263" lon="-0.89034">
        <ele>98</ele>
        <time>2012-02-23T15:59:40Z</time>
      </trkpt>
      <trkpt lat="47.23262" lon="-0.89037">
        <ele>98</ele>
        <time>2012-02-23T15:59:42Z</time>
      </trkpt>
      <trkpt lat="47.23261" lon="-0.89038">
        <ele>98</ele>
        <time>2012-02-23T15:59:43Z</time>
      </trkpt>
      <trkpt lat="47.2326" lon="-0.8904">
        <ele>98</ele>
        <time>2012-02-23T15:59:44Z</time>
      </trkpt>
      <trkpt lat="47.23258" lon="-0.89043">
        <ele>98</ele>
        <time>2012-02-23T15:59:46Z</time>
      </trkpt>
      <trkpt lat="47.23257" lon="-0.89045">
        <ele>98</ele>
        <time>2012-02-23T15:59:48Z</time>
      </trkpt>
      <trkpt lat="47.23255" lon="-0.89047">
        <ele>98</ele>
        <time>2012-02-23T15:59:50Z</time>
      </trkpt>
      <trkpt lat="47.23253" lon="-0.8905">
        <ele>98</ele>
        <time>2012-02-23T15:59:52Z</time>
      </trkpt>
      <trkpt lat="47.23251" lon="-0.89052">
        <ele>98</ele>
        <time>2012-02-23T15:59:54Z</time>
      </trkpt>
      <trkpt lat="47.2325" lon="-0.89054">
        <ele>98</ele>
        <time>2012-02-23T15:59:56Z</time>
      </trkpt>
      <trkpt lat="47.23248" lon="-0.89056">
        <ele>98</ele>
        <time>2012-02-23T15:59:58Z</time>
      </trkpt>
      <trkpt lat="47.23247" lon="-0.89058">
        <ele>98</ele>
        <time>2012-02-23T15:59:59Z</time>
      </trkpt>
      <trkpt lat="47.23246" lon="-0.89061">
        <ele>98</ele>
        <time>2012-02-23T16:00:01Z</time>
      </trkpt>
      <trkpt lat="47.23244" lon="-0.89063">
        <ele>98</ele>
        <time>2012-02-23T16:00:03Z</time>
      </trkpt>
      <trkpt lat="47.23242" lon="-0.89065">
        <ele>98</ele>
        <time>2012-02-23T16:00:05Z</time>
      </trkpt>
      <trkpt lat="47.2324" lon="-0.89068">
        <ele>98</ele>
        <time>2012-02-23T16:00:07Z</time>
      </trkpt>
      <trkpt lat="47.23238" lon="-0.89069">
        <ele>98</ele>
        <time>2012-02-23T16:00:09Z</time>
      </trkpt>
      <trkpt lat="47.23237" lon="-0.89072">
        <ele>98</ele>
        <time>2012-02-23T16:00:11Z</time>
      </trkpt>
      <trkpt lat="47.23235" lon="-0.89073">
        <ele>98</ele>
        <time>2012-02-23T16:00:12Z</time>
      </trkpt>
      <trkpt lat="47.23234" lon="-0.89076">
        <ele>98</ele>
        <time>2012-02-23T16:00:14Z</time>
      </trkpt>
      <trkpt lat="47.23232" lon="-0.89078">
        <ele>98</ele>
        <time>2012-02-23T16:00:16Z</time>
      </trkpt>
      <trkpt lat="47.23232" lon="-0.8908">
        <ele>98</ele>
        <time>2012-02-23T16:00:17Z</time>
      </trkpt>
      <trkpt lat="47.23229" lon="-0.89082">
        <ele>97</ele>
        <time>2012-02-23T16:00:19Z</time>
      </trkpt>
      <trkpt lat="47.23227" lon="-0.89084">
        <ele>97</ele>
        <time>2012-02-23T16:00:21Z</time>
      </trkpt>
      <trkpt lat="47.23226" lon="-0.89086">
        <ele>97</ele>
        <time>2012-02-23T16:00:23Z</time>
      </trkpt>
      <trkpt lat="47.23225" lon="-0.89088">
        <ele>97</ele>
        <time>2012-02-23T16:00:24Z</time>
      </trkpt>
      <trkpt lat="47.23225" lon="-0.8909">
        <ele>96</ele>
        <time>2012-02-23T16:00:25Z</time>
      </trkpt>
      <trkpt lat="47.23224" lon="-0.89091">
        <ele>96</ele>
        <time>2012-02-23T16:00:26Z</time>
      </trkpt>
      <trkpt lat="47.23222" lon="-0.89093">
        <ele>96</ele>
        <time>2012-02-23T16:00:28Z</time>
      </trkpt>
      <trkpt lat="47.23221" lon="-0.89096">
        <ele>96</ele>
        <time>2012-02-23T16:00:30Z</time>
      </trkpt>
      <trkpt lat="47.2322" lon="-0.89097">
        <ele>95</ele>
        <time>2012-02-23T16:00:31Z</time>
      </trkpt>
      <trkpt lat="47.23219" lon="-0.89099">
        <ele>95</ele>
        <time>2012-02-23T16:00:32Z</time>
      </trkpt>
      <trkpt lat="47.23218" lon="-0.89101">
        <ele>95</ele>
        <time>2012-02-23T16:00:33Z</time>
      </trkpt>
      <trkpt lat="47.23217" lon="-0.89104">
        <ele>95</ele>
        <time>2012-02-23T16:00:35Z</time>
      </trkpt>
      <trkpt lat="47.23216" lon="-0.89105">
        <ele>95</ele>
        <time>2012-02-23T16:00:36Z</time>
      </trkpt>
      <trkpt lat="47.23215" lon="-0.89107">
        <ele>95</ele>
        <time>2012-02-23T16:00:37Z</time>
      </trkpt>
      <trkpt lat="47.23215" lon="-0.89108">
        <ele>95</ele>
        <time>2012-02-23T16:00:38Z</time>
      </trkpt>
      <trkpt lat="47.23213" lon="-0.89111">
        <ele>95</ele>
        <time>2012-02-23T16:00:40Z</time>
      </trkpt>
      <trkpt lat="47.23213" lon="-0.89112">
        <ele>95</ele>
        <time>2012-02-23T16:00:41Z</time>
      </trkpt>
      <trkpt lat="47.23212" lon="-0.89115">
        <ele>95</ele>
        <time>2012-02-23T16:00:43Z</time>
      </trkpt>
      <trkpt lat="47.23211" lon="-0.89117">
        <ele>95</ele>
        <time>2012-02-23T16:00:44Z</time>
      </trkpt>
      <trkpt lat="47.23209" lon="-0.8912">
        <ele>95</ele>
        <time>2012-02-23T16:00:46Z</time>
      </trkpt>
      <trkpt lat="47.23208" lon="-0.89122">
        <ele>95</ele>
        <time>2012-02-23T16:00:48Z</time>
      </trkpt>
      <trkpt lat="47.23207" lon="-0.89124">
        <ele>95</ele>
        <time>2012-02-23T16:00:49Z</time>
      </trkpt>
      <trkpt lat="47.23206" lon="-0.89126">
        <ele>95</ele>
        <time>2012-02-23T16:00:50Z</time>
      </trkpt>
      <trkpt lat="47.23206" lon="-0.89127">
        <ele>95</ele>
        <time>2012-02-23T16:00:51Z</time>
      </trkpt>
      <trkpt lat="47.23205" lon="-0.89129">
        <ele>95</ele>
        <time>2012-02-23T16:00:52Z</time>
      </trkpt>
      <trkpt lat="47.23204" lon="-0.89131">
        <ele>95</ele>
        <time>2012-02-23T16:00:53Z</time>
      </trkpt>
      <trkpt lat="47.23202" lon="-0.89134">
        <ele>94</ele>
        <time>2012-02-23T16:00:55Z</time>
      </trkpt>
      <trkpt lat="47.23201" lon="-0.89135">
        <ele>94</ele>
        <time>2012-02-23T16:00:56Z</time>
      </trkpt>
      <trkpt lat="47.23201" lon="-0.89137">
        <ele>94</ele>
        <time>2012-02-23T16:00:57Z</time>
      </trkpt>
      <trkpt lat="47.232" lon="-0.89139">
        <ele>94</ele>
        <time>2012-02-23T16:00:58Z</time>
      </trkpt>
      <trkpt lat="47.23199" lon="-0.8914">
        <ele>94</ele>
        <time>2012-02-23T16:00:59Z</time>
      </trkpt>
      <trkpt lat="47.23198" lon="-0.89142">
        <ele>94</ele>
        <time>2012-02-23T16:01:00Z</time>
      </trkpt>
      <trkpt lat="47.23198" lon="-0.89144">
        <ele>94</ele>
        <time>2012-02-23T16:01:01Z</time>
      </trkpt>
      <trkpt lat="47.23196" lon="-0.89146">
        <ele>93</ele>
        <time>2012-02-23T16:01:03Z</time>
      </trkpt>
      <trkpt lat="47.23196" lon="-0.89148">
        <ele>93</ele>
        <time>2012-02-23T16:01:04Z</time>
      </trkpt>
      <trkpt lat="47.23195" lon="-0.8915">
        <ele>93</ele>
        <time>2012-02-23T16:01:05Z</time>
      </trkpt>
      <trkpt lat="47.23194" lon="-0.89151">
        <ele>93</ele>
        <time>2012-02-23T16:01:06Z</time>
      </trkpt>
      <trkpt lat="47.23193" lon="-0.89154">
        <ele>92</ele>
        <time>2012-02-23T16:01:08Z</time>
      </trkpt>
      <trkpt lat="47.23191" lon="-0.89157">
        <ele>92</ele>
        <time>2012-02-23T16:01:10Z</time>
      </trkpt>
      <trkpt lat="47.23191" lon="-0.89158">
        <ele>92</ele>
        <time>2012-02-23T16:01:11Z</time>
      </trkpt>
      <trkpt lat="47.2319" lon="-0.8916">
        <ele>92</ele>
        <time>2012-02-23T16:01:12Z</time>
      </trkpt>
      <trkpt lat="47.23189" lon="-0.89162">
        <ele>91</ele>
        <time>2012-02-23T16:01:14Z</time>
      </trkpt>
      <trkpt lat="47.23188" lon="-0.89164">
        <ele>91</ele>
        <time>2012-02-23T16:01:16Z</time>
      </trkpt>
      <trkpt lat="47.23187" lon="-0.89166">
        <ele>91</ele>
        <time>2012-02-23T16:01:17Z</time>
      </trkpt>
      <trkpt lat="47.23186" lon="-0.89168">
        <ele>91</ele>
        <time>2012-02-23T16:01:18Z</time>
      </trkpt>
      <trkpt lat="47.23185" lon="-0.89169">
        <ele>91</ele>
        <time>2012-02-23T16:01:19Z</time>
      </trkpt>
      <trkpt lat="47.23185" lon="-0.89171">
        <ele>91</ele>
        <time>2012-02-23T16:01:20Z</time>
      </trkpt>
      <trkpt lat="47.23183" lon="-0.89173">
        <ele>91</ele>
        <time>2012-02-23T16:01:22Z</time>
      </trkpt>
      <trkpt lat="47.23183" lon="-0.89174">
        <ele>91</ele>
        <time>2012-02-23T16:01:23Z</time>
      </trkpt>
      <trkpt lat="47.23182" lon="-0.89176">
        <ele>91</ele>
        <time>2012-02-23T16:01:24Z</time>
      </trkpt>
      <trkpt lat="47.23181" lon="-0.89178">
        <ele>91</ele>
        <time>2012-02-23T16:01:25Z</time>
      </trkpt>
      <trkpt lat="47.2318" lon="-0.89179">
        <ele>91</ele>
        <time>2012-02-23T16:01:26Z</time>
      </trkpt>
      <trkpt lat="47.23179" lon="-0.89182">
        <ele>91</ele>
        <time>2012-02-23T16:01:28Z</time>
      </trkpt>
      <trkpt lat="47.23178" lon="-0.89185">
        <ele>90</ele>
        <time>2012-02-23T16:01:30Z</time>
      </trkpt>
      <trkpt lat="47.23177" lon="-0.89187">
        <ele>90</ele>
        <time>2012-02-23T16:01:31Z</time>
      </trkpt>
      <trkpt lat="47.23177" lon="-0.89188">
        <ele>90</ele>
        <time>2012-02-23T16:01:32Z</time>
      </trkpt>
      <trkpt lat="47.23176" lon="-0.8919">
        <ele>90</ele>
        <time>2012-02-23T16:01:33Z</time>
      </trkpt>
      <trkpt lat="47.23175" lon="-0.89192">
        <ele>90</ele>
        <time>2012-02-23T16:01:35Z</time>
      </trkpt>
      <trkpt lat="47.23175" lon="-0.89194">
        <ele>90</ele>
        <time>2012-02-23T16:01:36Z</time>
      </trkpt>
      <trkpt lat="47.23174" lon="-0.89196">
        <ele>90</ele>
        <time>2012-02-23T16:01:37Z</time>
      </trkpt>
      <trkpt lat="47.23173" lon="-0.89197">
        <ele>90</ele>
        <time>2012-02-23T16:01:38Z</time>
      </trkpt>
      <trkpt lat="47.23172" lon="-0.89199">
        <ele>90</ele>
        <time>2012-02-23T16:01:39Z</time>
      </trkpt>
      <trkpt lat="47.23172" lon="-0.89201">
        <ele>90</ele>
        <time>2012-02-23T16:01:40Z</time>
      </trkpt>
      <trkpt lat="47.23171" lon="-0.89202">
        <ele>89</ele>
        <time>2012-02-23T16:01:41Z</time>
      </trkpt>
      <trkpt lat="47.2317" lon="-0.89205">
        <ele>89</ele>
        <time>2012-02-23T16:01:43Z</time>
      </trkpt>
      <trkpt lat="47.23169" lon="-0.89206">
        <ele>89</ele>
        <time>2012-02-23T16:01:44Z</time>
      </trkpt>
      <trkpt lat="47.23169" lon="-0.89208">
        <ele>89</ele>
        <time>2012-02-23T16:01:45Z</time>
      </trkpt>
      <trkpt lat="47.23168" lon="-0.8921">
        <ele>89</ele>
        <time>2012-02-23T16:01:46Z</time>
      </trkpt>
      <trkpt lat="47.23167" lon="-0.89211">
        <ele>89</ele>
        <time>2012-02-23T16:01:47Z</time>
      </trkpt>
      <trkpt lat="47.23167" lon="-0.89213">
        <ele>89</ele>
        <time>2012-02-23T16:01:48Z</time>
      </trkpt>
      <trkpt lat="47.23165" lon="-0.89215">
        <ele>89</ele>
        <time>2012-02-23T16:01:50Z</time>
      </trkpt>
      <trkpt lat="47.23165" lon="-0.89217">
        <ele>89</ele>
        <time>2012-02-23T16:01:51Z</time>
      </trkpt>
      <trkpt lat="47.23164" lon="-0.89218">
        <ele>89</ele>
        <time>2012-02-23T16:01:52Z</time>
      </trkpt>
      <trkpt lat="47.23163" lon="-0.8922">
        <ele>89</ele>
        <time>2012-02-23T16:01:53Z</time>
      </trkpt>
      <trkpt lat="47.23163" lon="-0.89222">
        <ele>89</ele>
        <time>2012-02-23T16:01:54Z</time>
      </trkpt>
      <trkpt lat="47.23162" lon="-0.89223">
        <ele>89</ele>
        <time>2012-02-23T16:01:55Z</time>
      </trkpt>
      <trkpt lat="47.23161" lon="-0.89225">
        <ele>89</ele>
        <time>2012-02-23T16:01:56Z</time>
      </trkpt>
      <trkpt lat="47.23161" lon="-0.89226">
        <ele>89</ele>
        <time>2012-02-23T16:01:57Z</time>
      </trkpt>
      <trkpt lat="47.2316" lon="-0.89228">
        <ele>89</ele>
        <time>2012-02-23T16:01:58Z</time>
      </trkpt>
      <trkpt lat="47.2316" lon="-0.8923">
        <ele>89</ele>
        <time>2012-02-23T16:01:59Z</time>
      </trkpt>
      <trkpt lat="47.23159" lon="-0.89232">
        <ele>89</ele>
        <time>2012-02-23T16:02:00Z</time>
      </trkpt>
      <trkpt lat="47.23159" lon="-0.89233">
        <ele>89</ele>
        <time>2012-02-23T16:02:01Z</time>
      </trkpt>
      <trkpt lat="47.23157" lon="-0.89236">
        <ele>88</ele>
        <time>2012-02-23T16:02:03Z</time>
      </trkpt>
      <trkpt lat="47.23156" lon="-0.89239">
        <ele>88</ele>
        <time>2012-02-23T16:02:05Z</time>
      </trkpt>
      <trkpt lat="47.23156" lon="-0.8924">
        <ele>88</ele>
        <time>2012-02-23T16:02:06Z</time>
      </trkpt>
      <trkpt lat="47.23156" lon="-0.89242">
        <ele>88</ele>
        <time>2012-02-23T16:02:07Z</time>
      </trkpt>
      <trkpt lat="47.23155" lon="-0.89244">
        <ele>88</ele>
        <time>2012-02-23T16:02:08Z</time>
      </trkpt>
      <trkpt lat="47.23155" lon="-0.89246">
        <ele>87</ele>
        <time>2012-02-23T16:02:09Z</time>
      </trkpt>
      <trkpt lat="47.23154" lon="-0.89248">
        <ele>87</ele>
        <time>2012-02-23T16:02:10Z</time>
      </trkpt>
      <trkpt lat="47.23154" lon="-0.89249">
        <ele>87</ele>
        <time>2012-02-23T16:02:11Z</time>
      </trkpt>
      <trkpt lat="47.23153" lon="-0.89251">
        <ele>87</ele>
        <time>2012-02-23T16:02:12Z</time>
      </trkpt>
      <trkpt lat="47.23152" lon="-0.89253">
        <ele>87</ele>
        <time>2012-02-23T16:02:13Z</time>
      </trkpt>
      <trkpt lat="47.23151" lon="-0.89254">
        <ele>87</ele>
        <time>2012-02-23T16:02:14Z</time>
      </trkpt>
      <trkpt lat="47.2315" lon="-0.89257">
        <ele>87</ele>
        <time>2012-02-23T16:02:15Z</time>
      </trkpt>
      <trkpt lat="47.23149" lon="-0.89258">
        <ele>87</ele>
        <time>2012-02-23T16:02:16Z</time>
      </trkpt>
      <trkpt lat="47.23149" lon="-0.8926">
        <ele>87</ele>
        <time>2012-02-23T16:02:17Z</time>
      </trkpt>
      <trkpt lat="47.23148" lon="-0.89262">
        <ele>87</ele>
        <time>2012-02-23T16:02:18Z</time>
      </trkpt>
      <trkpt lat="47.23147" lon="-0.89264">
        <ele>87</ele>
        <time>2012-02-23T16:02:19Z</time>
      </trkpt>
      <trkpt lat="47.23146" lon="-0.89266">
        <ele>87</ele>
        <time>2012-02-23T16:02:20Z</time>
      </trkpt>
      <trkpt lat="47.23146" lon="-0.89267">
        <ele>87</ele>
        <time>2012-02-23T16:02:21Z</time>
      </trkpt>
      <trkpt lat="47.23145" lon="-0.89269">
        <ele>87</ele>
        <time>2012-02-23T16:02:22Z</time>
      </trkpt>
      <trkpt lat="47.23145" lon="-0.8927">
        <ele>86</ele>
        <time>2012-02-23T16:02:23Z</time>
      </trkpt>
      <trkpt lat="47.23144" lon="-0.89272">
        <ele>86</ele>
        <time>2012-02-23T16:02:24Z</time>
      </trkpt>
      <trkpt lat="47.23143" lon="-0.89274">
        <ele>86</ele>
        <time>2012-02-23T16:02:25Z</time>
      </trkpt>
      <trkpt lat="47.23143" lon="-0.89275">
        <ele>86</ele>
        <time>2012-02-23T16:02:26Z</time>
      </trkpt>
      <trkpt lat="47.23141" lon="-0.89278">
        <ele>86</ele>
        <time>2012-02-23T16:02:28Z</time>
      </trkpt>
      <trkpt lat="47.2314" lon="-0.89281">
        <ele>86</ele>
        <time>2012-02-23T16:02:30Z</time>
      </trkpt>
      <trkpt lat="47.23139" lon="-0.89284">
        <ele>86</ele>
        <time>2012-02-23T16:02:32Z</time>
      </trkpt>
      <trkpt lat="47.23138" lon="-0.89286">
        <ele>86</ele>
        <time>2012-02-23T16:02:34Z</time>
      </trkpt>
      <trkpt lat="47.23136" lon="-0.89289">
        <ele>85</ele>
        <time>2012-02-23T16:02:36Z</time>
      </trkpt>
      <trkpt lat="47.23135" lon="-0.8929">
        <ele>85</ele>
        <time>2012-02-23T16:02:37Z</time>
      </trkpt>
      <trkpt lat="47.23134" lon="-0.89292">
        <ele>85</ele>
        <time>2012-02-23T16:02:38Z</time>
      </trkpt>
      <trkpt lat="47.23133" lon="-0.89294">
        <ele>84</ele>
        <time>2012-02-23T16:02:39Z</time>
      </trkpt>
      <trkpt lat="47.23133" lon="-0.89296">
        <ele>84</ele>
        <time>2012-02-23T16:02:40Z</time>
      </trkpt>
      <trkpt lat="47.23132" lon="-0.89297">
        <ele>84</ele>
        <time>2012-02-23T16:02:41Z</time>
      </trkpt>
      <trkpt lat="47.23131" lon="-0.89298">
        <ele>84</ele>
        <time>2012-02-23T16:02:42Z</time>
      </trkpt>
      <trkpt lat="47.2313" lon="-0.89301">
        <ele>83</ele>
        <time>2012-02-23T16:02:44Z</time>
      </trkpt>
      <trkpt lat="47.23128" lon="-0.89304">
        <ele>83</ele>
        <time>2012-02-23T16:02:46Z</time>
      </trkpt>
      <trkpt lat="47.23127" lon="-0.89306">
        <ele>82</ele>
        <time>2012-02-23T16:02:47Z</time>
      </trkpt>
      <trkpt lat="47.23127" lon="-0.89307">
        <ele>82</ele>
        <time>2012-02-23T16:02:48Z</time>
      </trkpt>
      <trkpt lat="47.23126" lon="-0.89309">
        <ele>82</ele>
        <time>2012-02-23T16:02:49Z</time>
      </trkpt>
      <trkpt lat="47.23125" lon="-0.8931">
        <ele>82</ele>
        <time>2012-02-23T16:02:50Z</time>
      </trkpt>
      <trkpt lat="47.23125" lon="-0.89312">
        <ele>81</ele>
        <time>2012-02-23T16:02:51Z</time>
      </trkpt>
      <trkpt lat="47.23124" lon="-0.89313">
        <ele>81</ele>
        <time>2012-02-23T16:02:52Z</time>
      </trkpt>
      <trkpt lat="47.23123" lon="-0.89316">
        <ele>81</ele>
        <time>2012-02-23T16:02:54Z</time>
      </trkpt>
      <trkpt lat="47.23121" lon="-0.89319">
        <ele>81</ele>
        <time>2012-02-23T16:02:56Z</time>
      </trkpt>
      <trkpt lat="47.23121" lon="-0.8932">
        <ele>81</ele>
        <time>2012-02-23T16:02:57Z</time>
      </trkpt>
      <trkpt lat="47.2312" lon="-0.89322">
        <ele>81</ele>
        <time>2012-02-23T16:02:58Z</time>
      </trkpt>
      <trkpt lat="47.23119" lon="-0.89323">
        <ele>81</ele>
        <time>2012-02-23T16:02:59Z</time>
      </trkpt>
      <trkpt lat="47.23118" lon="-0.89326">
        <ele>81</ele>
        <time>2012-02-23T16:03:01Z</time>
      </trkpt>
      <trkpt lat="47.23117" lon="-0.89329">
        <ele>81</ele>
        <time>2012-02-23T16:03:03Z</time>
      </trkpt>
      <trkpt lat="47.23117" lon="-0.8933">
        <ele>81</ele>
        <time>2012-02-23T16:03:04Z</time>
      </trkpt>
      <trkpt lat="47.23116" lon="-0.89332">
        <ele>81</ele>
        <time>2012-02-23T16:03:05Z</time>
      </trkpt>
      <trkpt lat="47.23116" lon="-0.89333">
        <ele>80</ele>
        <time>2012-02-23T16:03:06Z</time>
      </trkpt>
      <trkpt lat="47.23115" lon="-0.89335">
        <ele>80</ele>
        <time>2012-02-23T16:03:07Z</time>
      </trkpt>
      <trkpt lat="47.23115" lon="-0.89336">
        <ele>80</ele>
        <time>2012-02-23T16:03:08Z</time>
      </trkpt>
      <trkpt lat="47.23114" lon="-0.89339">
        <ele>80</ele>
        <time>2012-02-23T16:03:10Z</time>
      </trkpt>
      <trkpt lat="47.23114" lon="-0.89341">
        <ele>80</ele>
        <time>2012-02-23T16:03:11Z</time>
      </trkpt>
      <trkpt lat="47.23114" lon="-0.89346">
        <ele>79</ele>
        <time>2012-02-23T16:03:13Z</time>
      </trkpt>
      <trkpt lat="47.23114" lon="-0.89349">
        <ele>79</ele>
        <time>2012-02-23T16:03:14Z</time>
      </trkpt>
      <trkpt lat="47.23114" lon="-0.89351">
        <ele>78</ele>
        <time>2012-02-23T16:03:15Z</time>
      </trkpt>
      <trkpt lat="47.23114" lon="-0.89353">
        <ele>78</ele>
        <time>2012-02-23T16:03:16Z</time>
      </trkpt>
      <trkpt lat="47.23113" lon="-0.89355">
        <ele>78</ele>
        <time>2012-02-23T16:03:17Z</time>
      </trkpt>
      <trkpt lat="47.23112" lon="-0.89358">
        <ele>78</ele>
        <time>2012-02-23T16:03:19Z</time>
      </trkpt>
      <trkpt lat="47.23111" lon="-0.89359">
        <ele>78</ele>
        <time>2012-02-23T16:03:20Z</time>
      </trkpt>
      <trkpt lat="47.23111" lon="-0.89361">
        <ele>78</ele>
        <time>2012-02-23T16:03:21Z</time>
      </trkpt>
      <trkpt lat="47.23111" lon="-0.89362">
        <ele>77</ele>
        <time>2012-02-23T16:03:22Z</time>
      </trkpt>
      <trkpt lat="47.23111" lon="-0.89364">
        <ele>77</ele>
        <time>2012-02-23T16:03:23Z</time>
      </trkpt>
      <trkpt lat="47.23111" lon="-0.89366">
        <ele>77</ele>
        <time>2012-02-23T16:03:24Z</time>
      </trkpt>
      <trkpt lat="47.23111" lon="-0.89368">
        <ele>77</ele>
        <time>2012-02-23T16:03:25Z</time>
      </trkpt>
      <trkpt lat="47.23111" lon="-0.89371">
        <ele>77</ele>
        <time>2012-02-23T16:03:27Z</time>
      </trkpt>
      <trkpt lat="47.2311" lon="-0.89373">
        <ele>77</ele>
        <time>2012-02-23T16:03:29Z</time>
      </trkpt>
      <trkpt lat="47.23109" lon="-0.89376">
        <ele>77</ele>
        <time>2012-02-23T16:03:31Z</time>
      </trkpt>
      <trkpt lat="47.23109" lon="-0.89377">
        <ele>77</ele>
        <time>2012-02-23T16:03:32Z</time>
      </trkpt>
      <trkpt lat="47.23109" lon="-0.89379">
        <ele>77</ele>
        <time>2012-02-23T16:03:33Z</time>
      </trkpt>
      <trkpt lat="47.23109" lon="-0.89381">
        <ele>76</ele>
        <time>2012-02-23T16:03:34Z</time>
      </trkpt>
      <trkpt lat="47.23109" lon="-0.89383">
        <ele>76</ele>
        <time>2012-02-23T16:03:35Z</time>
      </trkpt>
      <trkpt lat="47.23109" lon="-0.89385">
        <ele>76</ele>
        <time>2012-02-23T16:03:36Z</time>
      </trkpt>
      <trkpt lat="47.23108" lon="-0.89386">
        <ele>76</ele>
        <time>2012-02-23T16:03:37Z</time>
      </trkpt>
      <trkpt lat="47.23108" lon="-0.89389">
        <ele>76</ele>
        <time>2012-02-23T16:03:38Z</time>
      </trkpt>
      <trkpt lat="47.23107" lon="-0.89392">
        <ele>76</ele>
        <time>2012-02-23T16:03:40Z</time>
      </trkpt>
      <trkpt lat="47.23106" lon="-0.89394">
        <ele>76</ele>
        <time>2012-02-23T16:03:41Z</time>
      </trkpt>
      <trkpt lat="47.23106" lon="-0.89396">
        <ele>76</ele>
        <time>2012-02-23T16:03:42Z</time>
      </trkpt>
      <trkpt lat="47.23106" lon="-0.89398">
        <ele>76</ele>
        <time>2012-02-23T16:03:43Z</time>
      </trkpt>
      <trkpt lat="47.23106" lon="-0.89399">
        <ele>76</ele>
        <time>2012-02-23T16:03:44Z</time>
      </trkpt>
      <trkpt lat="47.23105" lon="-0.89401">
        <ele>76</ele>
        <time>2012-02-23T16:03:45Z</time>
      </trkpt>
      <trkpt lat="47.23105" lon="-0.89403">
        <ele>76</ele>
        <time>2012-02-23T16:03:46Z</time>
      </trkpt>
      <trkpt lat="47.23104" lon="-0.89405">
        <ele>76</ele>
        <time>2012-02-23T16:03:47Z</time>
      </trkpt>
      <trkpt lat="47.23104" lon="-0.89407">
        <ele>76</ele>
        <time>2012-02-23T16:03:48Z</time>
      </trkpt>
      <trkpt lat="47.23104" lon="-0.89408">
        <ele>76</ele>
        <time>2012-02-23T16:03:49Z</time>
      </trkpt>
      <trkpt lat="47.23104" lon="-0.8941">
        <ele>76</ele>
        <time>2012-02-23T16:03:50Z</time>
      </trkpt>
      <trkpt lat="47.23104" lon="-0.89412">
        <ele>76</ele>
        <time>2012-02-23T16:03:51Z</time>
      </trkpt>
      <trkpt lat="47.23103" lon="-0.89414">
        <ele>76</ele>
        <time>2012-02-23T16:03:52Z</time>
      </trkpt>
      <trkpt lat="47.23103" lon="-0.89416">
        <ele>76</ele>
        <time>2012-02-23T16:03:53Z</time>
      </trkpt>
      <trkpt lat="47.23103" lon="-0.89417">
        <ele>76</ele>
        <time>2012-02-23T16:03:54Z</time>
      </trkpt>
      <trkpt lat="47.23103" lon="-0.8942">
        <ele>76</ele>
        <time>2012-02-23T16:03:55Z</time>
      </trkpt>
      <trkpt lat="47.23103" lon="-0.89421">
        <ele>76</ele>
        <time>2012-02-23T16:03:56Z</time>
      </trkpt>
      <trkpt lat="47.23103" lon="-0.89423">
        <ele>76</ele>
        <time>2012-02-23T16:03:57Z</time>
      </trkpt>
      <trkpt lat="47.23103" lon="-0.89425">
        <ele>76</ele>
        <time>2012-02-23T16:03:58Z</time>
      </trkpt>
      <trkpt lat="47.23102" lon="-0.89427">
        <ele>76</ele>
        <time>2012-02-23T16:03:59Z</time>
      </trkpt>
      <trkpt lat="47.23102" lon="-0.89429">
        <ele>76</ele>
        <time>2012-02-23T16:04:00Z</time>
      </trkpt>
      <trkpt lat="47.23102" lon="-0.89431">
        <ele>76</ele>
        <time>2012-02-23T16:04:01Z</time>
      </trkpt>
      <trkpt lat="47.23102" lon="-0.89433">
        <ele>76</ele>
        <time>2012-02-23T16:04:02Z</time>
      </trkpt>
      <trkpt lat="47.23102" lon="-0.89434">
        <ele>76</ele>
        <time>2012-02-23T16:04:03Z</time>
      </trkpt>
      <trkpt lat="47.23102" lon="-0.89437">
        <ele>76</ele>
        <time>2012-02-23T16:04:04Z</time>
      </trkpt>
      <trkpt lat="47.23102" lon="-0.89438">
        <ele>76</ele>
        <time>2012-02-23T16:04:05Z</time>
      </trkpt>
      <trkpt lat="47.23101" lon="-0.8944">
        <ele>76</ele>
        <time>2012-02-23T16:04:06Z</time>
      </trkpt>
      <trkpt lat="47.23101" lon="-0.89442">
        <ele>76</ele>
        <time>2012-02-23T16:04:07Z</time>
      </trkpt>
      <trkpt lat="47.23101" lon="-0.89444">
        <ele>76</ele>
        <time>2012-02-23T16:04:08Z</time>
      </trkpt>
      <trkpt lat="47.23101" lon="-0.89446">
        <ele>76</ele>
        <time>2012-02-23T16:04:09Z</time>
      </trkpt>
      <trkpt lat="47.23101" lon="-0.89447">
        <ele>76</ele>
        <time>2012-02-23T16:04:10Z</time>
      </trkpt>
      <trkpt lat="47.23101" lon="-0.8945">
        <ele>76</ele>
        <time>2012-02-23T16:04:11Z</time>
      </trkpt>
      <trkpt lat="47.23101" lon="-0.89451">
        <ele>76</ele>
        <time>2012-02-23T16:04:12Z</time>
      </trkpt>
      <trkpt lat="47.23101" lon="-0.89453">
        <ele>76</ele>
        <time>2012-02-23T16:04:13Z</time>
      </trkpt>
      <trkpt lat="47.23101" lon="-0.89455">
        <ele>76</ele>
        <time>2012-02-23T16:04:14Z</time>
      </trkpt>
      <trkpt lat="47.23101" lon="-0.89456">
        <ele>76</ele>
        <time>2012-02-23T16:04:15Z</time>
      </trkpt>
      <trkpt lat="47.23101" lon="-0.89458">
        <ele>76</ele>
        <time>2012-02-23T16:04:16Z</time>
      </trkpt>
      <trkpt lat="47.23101" lon="-0.8946">
        <ele>76</ele>
        <time>2012-02-23T16:04:17Z</time>
      </trkpt>
      <trkpt lat="47.23102" lon="-0.89462">
        <ele>76</ele>
        <time>2012-02-23T16:04:18Z</time>
      </trkpt>
      <trkpt lat="47.23102" lon="-0.89464">
        <ele>76</ele>
        <time>2012-02-23T16:04:19Z</time>
      </trkpt>
      <trkpt lat="47.23101" lon="-0.89465">
        <ele>76</ele>
        <time>2012-02-23T16:04:20Z</time>
      </trkpt>
      <trkpt lat="47.23101" lon="-0.89467">
        <ele>76</ele>
        <time>2012-02-23T16:04:21Z</time>
      </trkpt>
      <trkpt lat="47.23102" lon="-0.89469">
        <ele>76</ele>
        <time>2012-02-23T16:04:22Z</time>
      </trkpt>
      <trkpt lat="47.23102" lon="-0.89471">
        <ele>76</ele>
        <time>2012-02-23T16:04:23Z</time>
      </trkpt>
      <trkpt lat="47.23102" lon="-0.89472">
        <ele>76</ele>
        <time>2012-02-23T16:04:24Z</time>
      </trkpt>
      <trkpt lat="47.23102" lon="-0.89474">
        <ele>76</ele>
        <time>2012-02-23T16:04:25Z</time>
      </trkpt>
      <trkpt lat="47.23102" lon="-0.89476">
        <ele>76</ele>
        <time>2012-02-23T16:04:26Z</time>
      </trkpt>
      <trkpt lat="47.23102" lon="-0.89477">
        <ele>76</ele>
        <time>2012-02-23T16:04:27Z</time>
      </trkpt>
      <trkpt lat="47.23102" lon="-0.89479">
        <ele>76</ele>
        <time>2012-02-23T16:04:28Z</time>
      </trkpt>
      <trkpt lat="47.23103" lon="-0.89481">
        <ele>76</ele>
        <time>2012-02-23T16:04:29Z</time>
      </trkpt>
      <trkpt lat="47.23103" lon="-0.89482">
        <ele>76</ele>
        <time>2012-02-23T16:04:30Z</time>
      </trkpt>
      <trkpt lat="47.23103" lon="-0.89484">
        <ele>76</ele>
        <time>2012-02-23T16:04:31Z</time>
      </trkpt>
      <trkpt lat="47.23103" lon="-0.89486">
        <ele>76</ele>
        <time>2012-02-23T16:04:32Z</time>
      </trkpt>
      <trkpt lat="47.23104" lon="-0.89488">
        <ele>76</ele>
        <time>2012-02-23T16:04:33Z</time>
      </trkpt>
      <trkpt lat="47.23104" lon="-0.8949">
        <ele>76</ele>
        <time>2012-02-23T16:04:34Z</time>
      </trkpt>
      <trkpt lat="47.23104" lon="-0.89491">
        <ele>76</ele>
        <time>2012-02-23T16:04:35Z</time>
      </trkpt>
      <trkpt lat="47.23104" lon="-0.89493">
        <ele>76</ele>
        <time>2012-02-23T16:04:36Z</time>
      </trkpt>
      <trkpt lat="47.23105" lon="-0.89495">
        <ele>76</ele>
        <time>2012-02-23T16:04:37Z</time>
      </trkpt>
      <trkpt lat="47.23105" lon="-0.89497">
        <ele>76</ele>
        <time>2012-02-23T16:04:38Z</time>
      </trkpt>
      <trkpt lat="47.23105" lon="-0.89499">
        <ele>76</ele>
        <time>2012-02-23T16:04:39Z</time>
      </trkpt>
      <trkpt lat="47.23105" lon="-0.895">
        <ele>76</ele>
        <time>2012-02-23T16:04:40Z</time>
      </trkpt>
      <trkpt lat="47.23106" lon="-0.89502">
        <ele>76</ele>
        <time>2012-02-23T16:04:41Z</time>
      </trkpt>
      <trkpt lat="47.23106" lon="-0.89504">
        <ele>76</ele>
        <time>2012-02-23T16:04:42Z</time>
      </trkpt>
      <trkpt lat="47.23106" lon="-0.89506">
        <ele>76</ele>
        <time>2012-02-23T16:04:43Z</time>
      </trkpt>
      <trkpt lat="47.23106" lon="-0.89508">
        <ele>76</ele>
        <time>2012-02-23T16:04:44Z</time>
      </trkpt>
      <trkpt lat="47.23106" lon="-0.89509">
        <ele>76</ele>
        <time>2012-02-23T16:04:45Z</time>
      </trkpt>
      <trkpt lat="47.23106" lon="-0.89511">
        <ele>76</ele>
        <time>2012-02-23T16:04:46Z</time>
      </trkpt>
      <trkpt lat="47.23106" lon="-0.89513">
        <ele>76</ele>
        <time>2012-02-23T16:04:47Z</time>
      </trkpt>
      <trkpt lat="47.23106" lon="-0.89515">
        <ele>76</ele>
        <time>2012-02-23T16:04:48Z</time>
      </trkpt>
      <trkpt lat="47.23106" lon="-0.89517">
        <ele>76</ele>
        <time>2012-02-23T16:04:49Z</time>
      </trkpt>
      <trkpt lat="47.23106" lon="-0.89519">
        <ele>76</ele>
        <time>2012-02-23T16:04:50Z</time>
      </trkpt>
      <trkpt lat="47.23106" lon="-0.89521">
        <ele>76</ele>
        <time>2012-02-23T16:04:51Z</time>
      </trkpt>
      <trkpt lat="47.23106" lon="-0.89523">
        <ele>76</ele>
        <time>2012-02-23T16:04:52Z</time>
      </trkpt>
      <trkpt lat="47.23106" lon="-0.89525">
        <ele>76</ele>
        <time>2012-02-23T16:04:53Z</time>
      </trkpt>
      <trkpt lat="47.23106" lon="-0.89526">
        <ele>76</ele>
        <time>2012-02-23T16:04:54Z</time>
      </trkpt>
      <trkpt lat="47.23106" lon="-0.89528">
        <ele>76</ele>
        <time>2012-02-23T16:04:55Z</time>
      </trkpt>
      <trkpt lat="47.23106" lon="-0.8953">
        <ele>76</ele>
        <time>2012-02-23T16:04:56Z</time>
      </trkpt>
      <trkpt lat="47.23107" lon="-0.89532">
        <ele>76</ele>
        <time>2012-02-23T16:04:57Z</time>
      </trkpt>
      <trkpt lat="47.23107" lon="-0.89534">
        <ele>76</ele>
        <time>2012-02-23T16:04:58Z</time>
      </trkpt>
      <trkpt lat="47.23108" lon="-0.89535">
        <ele>76</ele>
        <time>2012-02-23T16:04:59Z</time>
      </trkpt>
      <trkpt lat="47.23108" lon="-0.89537">
        <ele>76</ele>
        <time>2012-02-23T16:05:00Z</time>
      </trkpt>
      <trkpt lat="47.23108" lon="-0.89539">
        <ele>76</ele>
        <time>2012-02-23T16:05:01Z</time>
      </trkpt>
      <trkpt lat="47.23108" lon="-0.8954">
        <ele>76</ele>
        <time>2012-02-23T16:05:02Z</time>
      </trkpt>
      <trkpt lat="47.23109" lon="-0.89542">
        <ele>76</ele>
        <time>2012-02-23T16:05:03Z</time>
      </trkpt>
      <trkpt lat="47.23109" lon="-0.89544">
        <ele>76</ele>
        <time>2012-02-23T16:05:04Z</time>
      </trkpt>
      <trkpt lat="47.23109" lon="-0.89546">
        <ele>76</ele>
        <time>2012-02-23T16:05:05Z</time>
      </trkpt>
      <trkpt lat="47.23109" lon="-0.89547">
        <ele>76</ele>
        <time>2012-02-23T16:05:06Z</time>
      </trkpt>
      <trkpt lat="47.23109" lon="-0.89549">
        <ele>76</ele>
        <time>2012-02-23T16:05:07Z</time>
      </trkpt>
      <trkpt lat="47.23109" lon="-0.89551">
        <ele>76</ele>
        <time>2012-02-23T16:05:08Z</time>
      </trkpt>
      <trkpt lat="47.23109" lon="-0.89553">
        <ele>76</ele>
        <time>2012-02-23T16:05:09Z</time>
      </trkpt>
      <trkpt lat="47.23109" lon="-0.89555">
        <ele>76</ele>
        <time>2012-02-23T16:05:10Z</time>
      </trkpt>
      <trkpt lat="47.2311" lon="-0.89557">
        <ele>76</ele>
        <time>2012-02-23T16:05:11Z</time>
      </trkpt>
      <trkpt lat="47.2311" lon="-0.89559">
        <ele>76</ele>
        <time>2012-02-23T16:05:12Z</time>
      </trkpt>
      <trkpt lat="47.2311" lon="-0.8956">
        <ele>76</ele>
        <time>2012-02-23T16:05:13Z</time>
      </trkpt>
      <trkpt lat="47.2311" lon="-0.89562">
        <ele>76</ele>
        <time>2012-02-23T16:05:14Z</time>
      </trkpt>
      <trkpt lat="47.2311" lon="-0.89564">
        <ele>76</ele>
        <time>2012-02-23T16:05:15Z</time>
      </trkpt>
      <trkpt lat="47.23111" lon="-0.89565">
        <ele>76</ele>
        <time>2012-02-23T16:05:16Z</time>
      </trkpt>
      <trkpt lat="47.23111" lon="-0.89567">
        <ele>76</ele>
        <time>2012-02-23T16:05:17Z</time>
      </trkpt>
      <trkpt lat="47.23111" lon="-0.89569">
        <ele>76</ele>
        <time>2012-02-23T16:05:18Z</time>
      </trkpt>
      <trkpt lat="47.23111" lon="-0.89571">
        <ele>76</ele>
        <time>2012-02-23T16:05:19Z</time>
      </trkpt>
      <trkpt lat="47.23111" lon="-0.89573">
        <ele>76</ele>
        <time>2012-02-23T16:05:20Z</time>
      </trkpt>
      <trkpt lat="47.23111" lon="-0.89575">
        <ele>76</ele>
        <time>2012-02-23T16:05:21Z</time>
      </trkpt>
      <trkpt lat="47.23112" lon="-0.89577">
        <ele>76</ele>
        <time>2012-02-23T16:05:22Z</time>
      </trkpt>
      <trkpt lat="47.23112" lon="-0.89578">
        <ele>76</ele>
        <time>2012-02-23T16:05:23Z</time>
      </trkpt>
      <trkpt lat="47.23112" lon="-0.89581">
        <ele>76</ele>
        <time>2012-02-23T16:05:24Z</time>
      </trkpt>
      <trkpt lat="47.23113" lon="-0.89583">
        <ele>76</ele>
        <time>2012-02-23T16:05:25Z</time>
      </trkpt>
      <trkpt lat="47.23113" lon="-0.89584">
        <ele>76</ele>
        <time>2012-02-23T16:05:26Z</time>
      </trkpt>
      <trkpt lat="47.23114" lon="-0.89586">
        <ele>76</ele>
        <time>2012-02-23T16:05:27Z</time>
      </trkpt>
      <trkpt lat="47.23114" lon="-0.89588">
        <ele>76</ele>
        <time>2012-02-23T16:05:28Z</time>
      </trkpt>
      <trkpt lat="47.23114" lon="-0.8959">
        <ele>76</ele>
        <time>2012-02-23T16:05:29Z</time>
      </trkpt>
      <trkpt lat="47.23114" lon="-0.89592">
        <ele>76</ele>
        <time>2012-02-23T16:05:30Z</time>
      </trkpt>
      <trkpt lat="47.23114" lon="-0.89593">
        <ele>75</ele>
        <time>2012-02-23T16:05:31Z</time>
      </trkpt>
      <trkpt lat="47.23114" lon="-0.89595">
        <ele>75</ele>
        <time>2012-02-23T16:05:32Z</time>
      </trkpt>
      <trkpt lat="47.23115" lon="-0.89597">
        <ele>75</ele>
        <time>2012-02-23T16:05:33Z</time>
      </trkpt>
      <trkpt lat="47.23115" lon="-0.89599">
        <ele>75</ele>
        <time>2012-02-23T16:05:34Z</time>
      </trkpt>
      <trkpt lat="47.23115" lon="-0.89601">
        <ele>75</ele>
        <time>2012-02-23T16:05:35Z</time>
      </trkpt>
      <trkpt lat="47.23115" lon="-0.89603">
        <ele>75</ele>
        <time>2012-02-23T16:05:36Z</time>
      </trkpt>
      <trkpt lat="47.23115" lon="-0.89604">
        <ele>75</ele>
        <time>2012-02-23T16:05:37Z</time>
      </trkpt>
      <trkpt lat="47.23115" lon="-0.89606">
        <ele>75</ele>
        <time>2012-02-23T16:05:38Z</time>
      </trkpt>
      <trkpt lat="47.23115" lon="-0.89608">
        <ele>75</ele>
        <time>2012-02-23T16:05:39Z</time>
      </trkpt>
      <trkpt lat="47.23115" lon="-0.8961">
        <ele>75</ele>
        <time>2012-02-23T16:05:40Z</time>
      </trkpt>
      <trkpt lat="47.23115" lon="-0.89612">
        <ele>75</ele>
        <time>2012-02-23T16:05:41Z</time>
      </trkpt>
      <trkpt lat="47.23115" lon="-0.89614">
        <ele>75</ele>
        <time>2012-02-23T16:05:42Z</time>
      </trkpt>
      <trkpt lat="47.23115" lon="-0.89616">
        <ele>75</ele>
        <time>2012-02-23T16:05:43Z</time>
      </trkpt>
      <trkpt lat="47.23115" lon="-0.89618">
        <ele>75</ele>
        <time>2012-02-23T16:05:44Z</time>
      </trkpt>
      <trkpt lat="47.23115" lon="-0.89619">
        <ele>75</ele>
        <time>2012-02-23T16:05:45Z</time>
      </trkpt>
      <trkpt lat="47.23115" lon="-0.89621">
        <ele>75</ele>
        <time>2012-02-23T16:05:46Z</time>
      </trkpt>
      <trkpt lat="47.23115" lon="-0.89623">
        <ele>75</ele>
        <time>2012-02-23T16:05:47Z</time>
      </trkpt>
      <trkpt lat="47.23114" lon="-0.89625">
        <ele>75</ele>
        <time>2012-02-23T16:05:48Z</time>
      </trkpt>
      <trkpt lat="47.23115" lon="-0.89627">
        <ele>75</ele>
        <time>2012-02-23T16:05:49Z</time>
      </trkpt>
      <trkpt lat="47.23114" lon="-0.89629">
        <ele>75</ele>
        <time>2012-02-23T16:05:50Z</time>
      </trkpt>
      <trkpt lat="47.23114" lon="-0.89631">
        <ele>75</ele>
        <time>2012-02-23T16:05:51Z</time>
      </trkpt>
      <trkpt lat="47.23114" lon="-0.89632">
        <ele>75</ele>
        <time>2012-02-23T16:05:52Z</time>
      </trkpt>
      <trkpt lat="47.23114" lon="-0.89634">
        <ele>75</ele>
        <time>2012-02-23T16:05:53Z</time>
      </trkpt>
      <trkpt lat="47.23114" lon="-0.89636">
        <ele>75</ele>
        <time>2012-02-23T16:05:54Z</time>
      </trkpt>
      <trkpt lat="47.23114" lon="-0.89638">
        <ele>75</ele>
        <time>2012-02-23T16:05:55Z</time>
      </trkpt>
      <trkpt lat="47.23114" lon="-0.8964">
        <ele>75</ele>
        <time>2012-02-23T16:05:56Z</time>
      </trkpt>
      <trkpt lat="47.23114" lon="-0.89641">
        <ele>75</ele>
        <time>2012-02-23T16:05:57Z</time>
      </trkpt>
      <trkpt lat="47.23114" lon="-0.89643">
        <ele>75</ele>
        <time>2012-02-23T16:05:58Z</time>
      </trkpt>
      <trkpt lat="47.23114" lon="-0.89645">
        <ele>75</ele>
        <time>2012-02-23T16:05:59Z</time>
      </trkpt>
      <trkpt lat="47.23114" lon="-0.89647">
        <ele>75</ele>
        <time>2012-02-23T16:06:00Z</time>
      </trkpt>
      <trkpt lat="47.23113" lon="-0.89648">
        <ele>75</ele>
        <time>2012-02-23T16:06:01Z</time>
      </trkpt>
      <trkpt lat="47.23113" lon="-0.8965">
        <ele>75</ele>
        <time>2012-02-23T16:06:02Z</time>
      </trkpt>
      <trkpt lat="47.23113" lon="-0.89652">
        <ele>75</ele>
        <time>2012-02-23T16:06:03Z</time>
      </trkpt>
      <trkpt lat="47.23113" lon="-0.89654">
        <ele>75</ele>
        <time>2012-02-23T16:06:04Z</time>
      </trkpt>
      <trkpt lat="47.23112" lon="-0.89656">
        <ele>75</ele>
        <time>2012-02-23T16:06:05Z</time>
      </trkpt>
      <trkpt lat="47.23112" lon="-0.89657">
        <ele>75</ele>
        <time>2012-02-23T16:06:06Z</time>
      </trkpt>
      <trkpt lat="47.23112" lon="-0.89659">
        <ele>75</ele>
        <time>2012-02-23T16:06:07Z</time>
      </trkpt>
      <trkpt lat="47.23111" lon="-0.89661">
        <ele>75</ele>
        <time>2012-02-23T16:06:08Z</time>
      </trkpt>
      <trkpt lat="47.23111" lon="-0.89663">
        <ele>75</ele>
        <time>2012-02-23T16:06:09Z</time>
      </trkpt>
      <trkpt lat="47.23111" lon="-0.89665">
        <ele>75</ele>
        <time>2012-02-23T16:06:10Z</time>
      </trkpt>
      <trkpt lat="47.2311" lon="-0.89666">
        <ele>75</ele>
        <time>2012-02-23T16:06:11Z</time>
      </trkpt>
      <trkpt lat="47.23109" lon="-0.89669">
        <ele>75</ele>
        <time>2012-02-23T16:06:13Z</time>
      </trkpt>
      <trkpt lat="47.23109" lon="-0.89671">
        <ele>75</ele>
        <time>2012-02-23T16:06:14Z</time>
      </trkpt>
      <trkpt lat="47.23109" lon="-0.89673">
        <ele>75</ele>
        <time>2012-02-23T16:06:15Z</time>
      </trkpt>
      <trkpt lat="47.23108" lon="-0.89675">
        <ele>75</ele>
        <time>2012-02-23T16:06:16Z</time>
      </trkpt>
      <trkpt lat="47.23108" lon="-0.89677">
        <ele>75</ele>
        <time>2012-02-23T16:06:17Z</time>
      </trkpt>
      <trkpt lat="47.23107" lon="-0.89679">
        <ele>75</ele>
        <time>2012-02-23T16:06:18Z</time>
      </trkpt>
      <trkpt lat="47.23107" lon="-0.89681">
        <ele>75</ele>
        <time>2012-02-23T16:06:19Z</time>
      </trkpt>
      <trkpt lat="47.23106" lon="-0.89683">
        <ele>75</ele>
        <time>2012-02-23T16:06:20Z</time>
      </trkpt>
      <trkpt lat="47.23106" lon="-0.89684">
        <ele>75</ele>
        <time>2012-02-23T16:06:21Z</time>
      </trkpt>
      <trkpt lat="47.23105" lon="-0.89686">
        <ele>75</ele>
        <time>2012-02-23T16:06:22Z</time>
      </trkpt>
      <trkpt lat="47.23104" lon="-0.89688">
        <ele>75</ele>
        <time>2012-02-23T16:06:23Z</time>
      </trkpt>
      <trkpt lat="47.23103" lon="-0.89689">
        <ele>75</ele>
        <time>2012-02-23T16:06:24Z</time>
      </trkpt>
      <trkpt lat="47.23103" lon="-0.89691">
        <ele>75</ele>
        <time>2012-02-23T16:06:25Z</time>
      </trkpt>
      <trkpt lat="47.23101" lon="-0.89694">
        <ele>75</ele>
        <time>2012-02-23T16:06:27Z</time>
      </trkpt>
      <trkpt lat="47.231" lon="-0.89695">
        <ele>75</ele>
        <time>2012-02-23T16:06:28Z</time>
      </trkpt>
      <trkpt lat="47.231" lon="-0.89697">
        <ele>75</ele>
        <time>2012-02-23T16:06:29Z</time>
      </trkpt>
      <trkpt lat="47.23098" lon="-0.89699">
        <ele>75</ele>
        <time>2012-02-23T16:06:31Z</time>
      </trkpt>
      <trkpt lat="47.23096" lon="-0.897">
        <ele>75</ele>
        <time>2012-02-23T16:06:32Z</time>
      </trkpt>
      <trkpt lat="47.23095" lon="-0.89701">
        <ele>75</ele>
        <time>2012-02-23T16:06:33Z</time>
      </trkpt>
      <trkpt lat="47.23094" lon="-0.89702">
        <ele>75</ele>
        <time>2012-02-23T16:06:34Z</time>
      </trkpt>
      <trkpt lat="47.23093" lon="-0.89702">
        <ele>75</ele>
        <time>2012-02-23T16:06:35Z</time>
      </trkpt>
      <trkpt lat="47.23092" lon="-0.89702">
        <ele>75</ele>
        <time>2012-02-23T16:06:36Z</time>
      </trkpt>
      <trkpt lat="47.2309" lon="-0.89702">
        <ele>75</ele>
        <time>2012-02-23T16:06:38Z</time>
      </trkpt>
      <trkpt lat="47.23088" lon="-0.89701">
        <ele>75</ele>
        <time>2012-02-23T16:06:40Z</time>
      </trkpt>
      <trkpt lat="47.23086" lon="-0.89701">
        <ele>75</ele>
        <time>2012-02-23T16:06:42Z</time>
      </trkpt>
      <trkpt lat="47.23085" lon="-0.89701">
        <ele>75</ele>
        <time>2012-02-23T16:06:43Z</time>
      </trkpt>
      <trkpt lat="47.23083" lon="-0.89701">
        <ele>75</ele>
        <time>2012-02-23T16:06:44Z</time>
      </trkpt>
      <trkpt lat="47.23082" lon="-0.89701">
        <ele>75</ele>
        <time>2012-02-23T16:06:45Z</time>
      </trkpt>
      <trkpt lat="47.23081" lon="-0.89701">
        <ele>75</ele>
        <time>2012-02-23T16:06:46Z</time>
      </trkpt>
      <trkpt lat="47.2308" lon="-0.897">
        <ele>75</ele>
        <time>2012-02-23T16:06:47Z</time>
      </trkpt>
      <trkpt lat="47.23078" lon="-0.89699">
        <ele>75</ele>
        <time>2012-02-23T16:06:48Z</time>
      </trkpt>
      <trkpt lat="47.23077" lon="-0.89699">
        <ele>75</ele>
        <time>2012-02-23T16:06:49Z</time>
      </trkpt>
      <trkpt lat="47.23076" lon="-0.89699">
        <ele>75</ele>
        <time>2012-02-23T16:06:50Z</time>
      </trkpt>
      <trkpt lat="47.23074" lon="-0.89699">
        <ele>75</ele>
        <time>2012-02-23T16:06:51Z</time>
      </trkpt>
      <trkpt lat="47.23073" lon="-0.89699">
        <ele>75</ele>
        <time>2012-02-23T16:06:52Z</time>
      </trkpt>
      <trkpt lat="47.23071" lon="-0.89698">
        <ele>75</ele>
        <time>2012-02-23T16:06:54Z</time>
      </trkpt>
      <trkpt lat="47.2307" lon="-0.89697">
        <ele>75</ele>
        <time>2012-02-23T16:06:55Z</time>
      </trkpt>
      <trkpt lat="47.23068" lon="-0.89697">
        <ele>75</ele>
        <time>2012-02-23T16:06:57Z</time>
      </trkpt>
      <trkpt lat="47.23066" lon="-0.89697">
        <ele>75</ele>
        <time>2012-02-23T16:06:58Z</time>
      </trkpt>
      <trkpt lat="47.23065" lon="-0.89697">
        <ele>75</ele>
        <time>2012-02-23T16:06:59Z</time>
      </trkpt>
      <trkpt lat="47.23064" lon="-0.89696">
        <ele>75</ele>
        <time>2012-02-23T16:07:00Z</time>
      </trkpt>
      <trkpt lat="47.23063" lon="-0.89696">
        <ele>75</ele>
        <time>2012-02-23T16:07:01Z</time>
      </trkpt>
      <trkpt lat="47.23061" lon="-0.89697">
        <ele>75</ele>
        <time>2012-02-23T16:07:02Z</time>
      </trkpt>
      <trkpt lat="47.2306" lon="-0.89697">
        <ele>75</ele>
        <time>2012-02-23T16:07:03Z</time>
      </trkpt>
      <trkpt lat="47.23058" lon="-0.89697">
        <ele>75</ele>
        <time>2012-02-23T16:07:05Z</time>
      </trkpt>
      <trkpt lat="47.23057" lon="-0.89696">
        <ele>75</ele>
        <time>2012-02-23T16:07:06Z</time>
      </trkpt>
      <trkpt lat="47.23055" lon="-0.89695">
        <ele>75</ele>
        <time>2012-02-23T16:07:07Z</time>
      </trkpt>
      <trkpt lat="47.23053" lon="-0.89692">
        <ele>75</ele>
        <time>2012-02-23T16:07:08Z</time>
      </trkpt>
      <trkpt lat="47.23051" lon="-0.89691">
        <ele>75</ele>
        <time>2012-02-23T16:07:09Z</time>
      </trkpt>
      <trkpt lat="47.2305" lon="-0.89691">
        <ele>75</ele>
        <time>2012-02-23T16:07:10Z</time>
      </trkpt>
      <trkpt lat="47.23048" lon="-0.89692">
        <ele>75</ele>
        <time>2012-02-23T16:07:11Z</time>
      </trkpt>
      <trkpt lat="47.23047" lon="-0.89692">
        <ele>75</ele>
        <time>2012-02-23T16:07:12Z</time>
      </trkpt>
      <trkpt lat="47.23046" lon="-0.89692">
        <ele>75</ele>
        <time>2012-02-23T16:07:13Z</time>
      </trkpt>
      <trkpt lat="47.23045" lon="-0.89692">
        <ele>75</ele>
        <time>2012-02-23T16:07:14Z</time>
      </trkpt>
      <trkpt lat="47.23044" lon="-0.89692">
        <ele>75</ele>
        <time>2012-02-23T16:07:15Z</time>
      </trkpt>
      <trkpt lat="47.23043" lon="-0.89693">
        <ele>75</ele>
        <time>2012-02-23T16:07:16Z</time>
      </trkpt>
      <trkpt lat="47.23042" lon="-0.89693">
        <ele>75</ele>
        <time>2012-02-23T16:07:17Z</time>
      </trkpt>
      <trkpt lat="47.2304" lon="-0.89693">
        <ele>75</ele>
        <time>2012-02-23T16:07:19Z</time>
      </trkpt>
      <trkpt lat="47.23038" lon="-0.89693">
        <ele>74</ele>
        <time>2012-02-23T16:07:21Z</time>
      </trkpt>
      <trkpt lat="47.23037" lon="-0.89694">
        <ele>74</ele>
        <time>2012-02-23T16:07:22Z</time>
      </trkpt>
      <trkpt lat="47.23035" lon="-0.89694">
        <ele>74</ele>
        <time>2012-02-23T16:07:23Z</time>
      </trkpt>
      <trkpt lat="47.23033" lon="-0.89694">
        <ele>74</ele>
        <time>2012-02-23T16:07:25Z</time>
      </trkpt>
      <trkpt lat="47.23031" lon="-0.89694">
        <ele>74</ele>
        <time>2012-02-23T16:07:27Z</time>
      </trkpt>
      <trkpt lat="47.2303" lon="-0.89694">
        <ele>74</ele>
        <time>2012-02-23T16:07:28Z</time>
      </trkpt>
      <trkpt lat="47.23029" lon="-0.89694">
        <ele>74</ele>
        <time>2012-02-23T16:07:29Z</time>
      </trkpt>
      <trkpt lat="47.23027" lon="-0.89693">
        <ele>74</ele>
        <time>2012-02-23T16:07:30Z</time>
      </trkpt>
      <trkpt lat="47.23026" lon="-0.89692">
        <ele>74</ele>
        <time>2012-02-23T16:07:31Z</time>
      </trkpt>
      <trkpt lat="47.23024" lon="-0.89691">
        <ele>74</ele>
        <time>2012-02-23T16:07:33Z</time>
      </trkpt>
      <trkpt lat="47.23023" lon="-0.89691">
        <ele>74</ele>
        <time>2012-02-23T16:07:34Z</time>
      </trkpt>
      <trkpt lat="47.23021" lon="-0.89691">
        <ele>74</ele>
        <time>2012-02-23T16:07:35Z</time>
      </trkpt>
      <trkpt lat="47.2302" lon="-0.89692">
        <ele>74</ele>
        <time>2012-02-23T16:07:36Z</time>
      </trkpt>
      <trkpt lat="47.23018" lon="-0.89692">
        <ele>74</ele>
        <time>2012-02-23T16:07:37Z</time>
      </trkpt>
      <trkpt lat="47.23016" lon="-0.89692">
        <ele>74</ele>
        <time>2012-02-23T16:07:39Z</time>
      </trkpt>
      <trkpt lat="47.23015" lon="-0.89691">
        <ele>74</ele>
        <time>2012-02-23T16:07:40Z</time>
      </trkpt>
      <trkpt lat="47.23014" lon="-0.89691">
        <ele>74</ele>
        <time>2012-02-23T16:07:41Z</time>
      </trkpt>
      <trkpt lat="47.23013" lon="-0.89691">
        <ele>74</ele>
        <time>2012-02-23T16:07:42Z</time>
      </trkpt>
      <trkpt lat="47.23011" lon="-0.89691">
        <ele>74</ele>
        <time>2012-02-23T16:07:43Z</time>
      </trkpt>
      <trkpt lat="47.2301" lon="-0.89691">
        <ele>74</ele>
        <time>2012-02-23T16:07:44Z</time>
      </trkpt>
      <trkpt lat="47.23009" lon="-0.89691">
        <ele>74</ele>
        <time>2012-02-23T16:07:45Z</time>
      </trkpt>
      <trkpt lat="47.23008" lon="-0.89691">
        <ele>74</ele>
        <time>2012-02-23T16:07:46Z</time>
      </trkpt>
      <trkpt lat="47.23007" lon="-0.89691">
        <ele>74</ele>
        <time>2012-02-23T16:07:47Z</time>
      </trkpt>
      <trkpt lat="47.23006" lon="-0.89691">
        <ele>74</ele>
        <time>2012-02-23T16:07:48Z</time>
      </trkpt>
      <trkpt lat="47.23003" lon="-0.89692">
        <ele>74</ele>
        <time>2012-02-23T16:07:50Z</time>
      </trkpt>
      <trkpt lat="47.23001" lon="-0.89692">
        <ele>74</ele>
        <time>2012-02-23T16:07:52Z</time>
      </trkpt>
      <trkpt lat="47.23" lon="-0.89692">
        <ele>74</ele>
        <time>2012-02-23T16:07:53Z</time>
      </trkpt>
      <trkpt lat="47.22999" lon="-0.89692">
        <ele>74</ele>
        <time>2012-02-23T16:07:54Z</time>
      </trkpt>
      <trkpt lat="47.22998" lon="-0.89691">
        <ele>74</ele>
        <time>2012-02-23T16:07:55Z</time>
      </trkpt>
      <trkpt lat="47.22996" lon="-0.89691">
        <ele>74</ele>
        <time>2012-02-23T16:07:56Z</time>
      </trkpt>
      <trkpt lat="47.22995" lon="-0.89691">
        <ele>74</ele>
        <time>2012-02-23T16:07:57Z</time>
      </trkpt>
      <trkpt lat="47.22994" lon="-0.89691">
        <ele>74</ele>
        <time>2012-02-23T16:07:58Z</time>
      </trkpt>
      <trkpt lat="47.22992" lon="-0.89691">
        <ele>74</ele>
        <time>2012-02-23T16:07:59Z</time>
      </trkpt>
      <trkpt lat="47.22991" lon="-0.8969">
        <ele>74</ele>
        <time>2012-02-23T16:08:00Z</time>
      </trkpt>
      <trkpt lat="47.22989" lon="-0.8969">
        <ele>74</ele>
        <time>2012-02-23T16:08:02Z</time>
      </trkpt>
      <trkpt lat="47.22988" lon="-0.89689">
        <ele>74</ele>
        <time>2012-02-23T16:08:03Z</time>
      </trkpt>
      <trkpt lat="47.22987" lon="-0.89689">
        <ele>74</ele>
        <time>2012-02-23T16:08:04Z</time>
      </trkpt>
      <trkpt lat="47.22985" lon="-0.89689">
        <ele>74</ele>
        <time>2012-02-23T16:08:05Z</time>
      </trkpt>
      <trkpt lat="47.22983" lon="-0.89688">
        <ele>74</ele>
        <time>2012-02-23T16:08:07Z</time>
      </trkpt>
      <trkpt lat="47.22982" lon="-0.89688">
        <ele>74</ele>
        <time>2012-02-23T16:08:08Z</time>
      </trkpt>
      <trkpt lat="47.2298" lon="-0.89688">
        <ele>74</ele>
        <time>2012-02-23T16:08:09Z</time>
      </trkpt>
      <trkpt lat="47.22979" lon="-0.89688">
        <ele>74</ele>
        <time>2012-02-23T16:08:10Z</time>
      </trkpt>
      <trkpt lat="47.22978" lon="-0.89687">
        <ele>74</ele>
        <time>2012-02-23T16:08:11Z</time>
      </trkpt>
      <trkpt lat="47.22977" lon="-0.89687">
        <ele>74</ele>
        <time>2012-02-23T16:08:12Z</time>
      </trkpt>
      <trkpt lat="47.22976" lon="-0.89687">
        <ele>74</ele>
        <time>2012-02-23T16:08:13Z</time>
      </trkpt>
      <trkpt lat="47.22974" lon="-0.89688">
        <ele>74</ele>
        <time>2012-02-23T16:08:14Z</time>
      </trkpt>
      <trkpt lat="47.22973" lon="-0.89688">
        <ele>74</ele>
        <time>2012-02-23T16:08:15Z</time>
      </trkpt>
      <trkpt lat="47.22972" lon="-0.89687">
        <ele>74</ele>
        <time>2012-02-23T16:08:16Z</time>
      </trkpt>
      <trkpt lat="47.2297" lon="-0.89687">
        <ele>74</ele>
        <time>2012-02-23T16:08:18Z</time>
      </trkpt>
      <trkpt lat="47.22968" lon="-0.89687">
        <ele>74</ele>
        <time>2012-02-23T16:08:19Z</time>
      </trkpt>
      <trkpt lat="47.22967" lon="-0.89687">
        <ele>74</ele>
        <time>2012-02-23T16:08:20Z</time>
      </trkpt>
      <trkpt lat="47.22965" lon="-0.89687">
        <ele>74</ele>
        <time>2012-02-23T16:08:21Z</time>
      </trkpt>
      <trkpt lat="47.22964" lon="-0.89686">
        <ele>74</ele>
        <time>2012-02-23T16:08:22Z</time>
      </trkpt>
      <trkpt lat="47.22962" lon="-0.89686">
        <ele>74</ele>
        <time>2012-02-23T16:08:24Z</time>
      </trkpt>
      <trkpt lat="47.22961" lon="-0.89687">
        <ele>74</ele>
        <time>2012-02-23T16:08:25Z</time>
      </trkpt>
      <trkpt lat="47.2296" lon="-0.89687">
        <ele>74</ele>
        <time>2012-02-23T16:08:26Z</time>
      </trkpt>
      <trkpt lat="47.22958" lon="-0.89687">
        <ele>74</ele>
        <time>2012-02-23T16:08:27Z</time>
      </trkpt>
      <trkpt lat="47.22956" lon="-0.89687">
        <ele>74</ele>
        <time>2012-02-23T16:08:29Z</time>
      </trkpt>
      <trkpt lat="47.22955" lon="-0.89687">
        <ele>74</ele>
        <time>2012-02-23T16:08:30Z</time>
      </trkpt>
      <trkpt lat="47.22954" lon="-0.89687">
        <ele>74</ele>
        <time>2012-02-23T16:08:31Z</time>
      </trkpt>
      <trkpt lat="47.22953" lon="-0.89686">
        <ele>74</ele>
        <time>2012-02-23T16:08:32Z</time>
      </trkpt>
      <trkpt lat="47.2295" lon="-0.89685">
        <ele>74</ele>
        <time>2012-02-23T16:08:34Z</time>
      </trkpt>
      <trkpt lat="47.22949" lon="-0.89685">
        <ele>74</ele>
        <time>2012-02-23T16:08:35Z</time>
      </trkpt>
      <trkpt lat="47.22948" lon="-0.89685">
        <ele>74</ele>
        <time>2012-02-23T16:08:36Z</time>
      </trkpt>
      <trkpt lat="47.22947" lon="-0.89685">
        <ele>74</ele>
        <time>2012-02-23T16:08:37Z</time>
      </trkpt>
      <trkpt lat="47.22946" lon="-0.89684">
        <ele>74</ele>
        <time>2012-02-23T16:08:38Z</time>
      </trkpt>
      <trkpt lat="47.22944" lon="-0.89685">
        <ele>74</ele>
        <time>2012-02-23T16:08:40Z</time>
      </trkpt>
      <trkpt lat="47.22943" lon="-0.89685">
        <ele>74</ele>
        <time>2012-02-23T16:08:41Z</time>
      </trkpt>
      <trkpt lat="47.22942" lon="-0.89685">
        <ele>74</ele>
        <time>2012-02-23T16:08:42Z</time>
      </trkpt>
      <trkpt lat="47.2294" lon="-0.89686">
        <ele>74</ele>
        <time>2012-02-23T16:08:44Z</time>
      </trkpt>
      <trkpt lat="47.22938" lon="-0.89686">
        <ele>74</ele>
        <time>2012-02-23T16:08:46Z</time>
      </trkpt>
      <trkpt lat="47.22936" lon="-0.89686">
        <ele>74</ele>
        <time>2012-02-23T16:08:48Z</time>
      </trkpt>
      <trkpt lat="47.22934" lon="-0.89687">
        <ele>74</ele>
        <time>2012-02-23T16:08:50Z</time>
      </trkpt>
      <trkpt lat="47.22933" lon="-0.89687">
        <ele>74</ele>
        <time>2012-02-23T16:08:51Z</time>
      </trkpt>
      <trkpt lat="47.22932" lon="-0.89687">
        <ele>74</ele>
        <time>2012-02-23T16:08:52Z</time>
      </trkpt>
      <trkpt lat="47.2293" lon="-0.89687">
        <ele>74</ele>
        <time>2012-02-23T16:08:53Z</time>
      </trkpt>
      <trkpt lat="47.22928" lon="-0.89686">
        <ele>74</ele>
        <time>2012-02-23T16:08:55Z</time>
      </trkpt>
      <trkpt lat="47.22926" lon="-0.89686">
        <ele>74</ele>
        <time>2012-02-23T16:08:56Z</time>
      </trkpt>
      <trkpt lat="47.22924" lon="-0.89686">
        <ele>74</ele>
        <time>2012-02-23T16:08:57Z</time>
      </trkpt>
      <trkpt lat="47.22923" lon="-0.89687">
        <ele>74</ele>
        <time>2012-02-23T16:08:58Z</time>
      </trkpt>
      <trkpt lat="47.22921" lon="-0.89686">
        <ele>74</ele>
        <time>2012-02-23T16:08:59Z</time>
      </trkpt>
      <trkpt lat="47.2292" lon="-0.89686">
        <ele>74</ele>
        <time>2012-02-23T16:09:00Z</time>
      </trkpt>
      <trkpt lat="47.22918" lon="-0.89686">
        <ele>74</ele>
        <time>2012-02-23T16:09:01Z</time>
      </trkpt>
      <trkpt lat="47.22917" lon="-0.89685">
        <ele>74</ele>
        <time>2012-02-23T16:09:02Z</time>
      </trkpt>
      <trkpt lat="47.22916" lon="-0.89685">
        <ele>74</ele>
        <time>2012-02-23T16:09:03Z</time>
      </trkpt>
      <trkpt lat="47.22915" lon="-0.89685">
        <ele>74</ele>
        <time>2012-02-23T16:09:04Z</time>
      </trkpt>
      <trkpt lat="47.22913" lon="-0.89685">
        <ele>74</ele>
        <time>2012-02-23T16:09:05Z</time>
      </trkpt>
      <trkpt lat="47.22912" lon="-0.89685">
        <ele>74</ele>
        <time>2012-02-23T16:09:06Z</time>
      </trkpt>
      <trkpt lat="47.22911" lon="-0.89684">
        <ele>74</ele>
        <time>2012-02-23T16:09:07Z</time>
      </trkpt>
      <trkpt lat="47.2291" lon="-0.89684">
        <ele>74</ele>
        <time>2012-02-23T16:09:08Z</time>
      </trkpt>
      <trkpt lat="47.22908" lon="-0.89684">
        <ele>74</ele>
        <time>2012-02-23T16:09:09Z</time>
      </trkpt>
      <trkpt lat="47.22907" lon="-0.89683">
        <ele>74</ele>
        <time>2012-02-23T16:09:10Z</time>
      </trkpt>
      <trkpt lat="47.22905" lon="-0.89683">
        <ele>74</ele>
        <time>2012-02-23T16:09:11Z</time>
      </trkpt>
      <trkpt lat="47.22904" lon="-0.89682">
        <ele>74</ele>
        <time>2012-02-23T16:09:12Z</time>
      </trkpt>
      <trkpt lat="47.22903" lon="-0.89682">
        <ele>74</ele>
        <time>2012-02-23T16:09:13Z</time>
      </trkpt>
      <trkpt lat="47.22902" lon="-0.89682">
        <ele>74</ele>
        <time>2012-02-23T16:09:14Z</time>
      </trkpt>
      <trkpt lat="47.229" lon="-0.89682">
        <ele>74</ele>
        <time>2012-02-23T16:09:16Z</time>
      </trkpt>
      <trkpt lat="47.22898" lon="-0.89681">
        <ele>74</ele>
        <time>2012-02-23T16:09:17Z</time>
      </trkpt>
      <trkpt lat="47.22897" lon="-0.89681">
        <ele>74</ele>
        <time>2012-02-23T16:09:18Z</time>
      </trkpt>
      <trkpt lat="47.22896" lon="-0.8968">
        <ele>74</ele>
        <time>2012-02-23T16:09:19Z</time>
      </trkpt>
      <trkpt lat="47.22895" lon="-0.8968">
        <ele>74</ele>
        <time>2012-02-23T16:09:20Z</time>
      </trkpt>
      <trkpt lat="47.22894" lon="-0.8968">
        <ele>74</ele>
        <time>2012-02-23T16:09:21Z</time>
      </trkpt>
      <trkpt lat="47.22892" lon="-0.8968">
        <ele>74</ele>
        <time>2012-02-23T16:09:22Z</time>
      </trkpt>
      <trkpt lat="47.22891" lon="-0.8968">
        <ele>74</ele>
        <time>2012-02-23T16:09:23Z</time>
      </trkpt>
      <trkpt lat="47.22889" lon="-0.89679">
        <ele>74</ele>
        <time>2012-02-23T16:09:25Z</time>
      </trkpt>
      <trkpt lat="47.22886" lon="-0.89679">
        <ele>74</ele>
        <time>2012-02-23T16:09:27Z</time>
      </trkpt>
      <trkpt lat="47.22884" lon="-0.89679">
        <ele>74</ele>
        <time>2012-02-23T16:09:28Z</time>
      </trkpt>
      <trkpt lat="47.22883" lon="-0.89679">
        <ele>74</ele>
        <time>2012-02-23T16:09:29Z</time>
      </trkpt>
      <trkpt lat="47.22881" lon="-0.89679">
        <ele>74</ele>
        <time>2012-02-23T16:09:30Z</time>
      </trkpt>
      <trkpt lat="47.22879" lon="-0.8968">
        <ele>74</ele>
        <time>2012-02-23T16:09:32Z</time>
      </trkpt>
      <trkpt lat="47.22878" lon="-0.8968">
        <ele>74</ele>
        <time>2012-02-23T16:09:33Z</time>
      </trkpt>
      <trkpt lat="47.22876" lon="-0.8968">
        <ele>74</ele>
        <time>2012-02-23T16:09:35Z</time>
      </trkpt>
      <trkpt lat="47.22875" lon="-0.89681">
        <ele>74</ele>
        <time>2012-02-23T16:09:37Z</time>
      </trkpt>
      <trkpt lat="47.22873" lon="-0.89682">
        <ele>74</ele>
        <time>2012-02-23T16:09:39Z</time>
      </trkpt>
      <trkpt lat="47.22872" lon="-0.89682">
        <ele>74</ele>
        <time>2012-02-23T16:09:40Z</time>
      </trkpt>
      <trkpt lat="47.22869" lon="-0.89681">
        <ele>74</ele>
        <time>2012-02-23T16:09:42Z</time>
      </trkpt>
      <trkpt lat="47.22868" lon="-0.89681">
        <ele>74</ele>
        <time>2012-02-23T16:09:43Z</time>
      </trkpt>
      <trkpt lat="47.22866" lon="-0.89682">
        <ele>74</ele>
        <time>2012-02-23T16:09:44Z</time>
      </trkpt>
      <trkpt lat="47.22864" lon="-0.89682">
        <ele>74</ele>
        <time>2012-02-23T16:09:45Z</time>
      </trkpt>
      <trkpt lat="47.22863" lon="-0.89682">
        <ele>74</ele>
        <time>2012-02-23T16:09:46Z</time>
      </trkpt>
      <trkpt lat="47.2286" lon="-0.89682">
        <ele>74</ele>
        <time>2012-02-23T16:09:47Z</time>
      </trkpt>
      <trkpt lat="47.22859" lon="-0.89682">
        <ele>74</ele>
        <time>2012-02-23T16:09:48Z</time>
      </trkpt>
      <trkpt lat="47.22858" lon="-0.89681">
        <ele>74</ele>
        <time>2012-02-23T16:09:49Z</time>
      </trkpt>
      <trkpt lat="47.22856" lon="-0.89681">
        <ele>74</ele>
        <time>2012-02-23T16:09:50Z</time>
      </trkpt>
      <trkpt lat="47.22854" lon="-0.8968">
        <ele>74</ele>
        <time>2012-02-23T16:09:52Z</time>
      </trkpt>
      <trkpt lat="47.22852" lon="-0.8968">
        <ele>74</ele>
        <time>2012-02-23T16:09:53Z</time>
      </trkpt>
      <trkpt lat="47.22851" lon="-0.8968">
        <ele>74</ele>
        <time>2012-02-23T16:09:54Z</time>
      </trkpt>
      <trkpt lat="47.2285" lon="-0.89681">
        <ele>75</ele>
        <time>2012-02-23T16:09:55Z</time>
      </trkpt>
      <trkpt lat="47.22848" lon="-0.89681">
        <ele>76</ele>
        <time>2012-02-23T16:09:57Z</time>
      </trkpt>
      <trkpt lat="47.22847" lon="-0.89681">
        <ele>76</ele>
        <time>2012-02-23T16:09:58Z</time>
      </trkpt>
      <trkpt lat="47.22845" lon="-0.89681">
        <ele>77</ele>
        <time>2012-02-23T16:09:59Z</time>
      </trkpt>
      <trkpt lat="47.22844" lon="-0.89681">
        <ele>77</ele>
        <time>2012-02-23T16:10:00Z</time>
      </trkpt>
      <trkpt lat="47.22842" lon="-0.8968">
        <ele>77</ele>
        <time>2012-02-23T16:10:02Z</time>
      </trkpt>
      <trkpt lat="47.22841" lon="-0.89679">
        <ele>77</ele>
        <time>2012-02-23T16:10:03Z</time>
      </trkpt>
      <trkpt lat="47.22839" lon="-0.89679">
        <ele>77</ele>
        <time>2012-02-23T16:10:04Z</time>
      </trkpt>
      <trkpt lat="47.22837" lon="-0.89678">
        <ele>77</ele>
        <time>2012-02-23T16:10:06Z</time>
      </trkpt>
      <trkpt lat="47.22836" lon="-0.89677">
        <ele>77</ele>
        <time>2012-02-23T16:10:09Z</time>
      </trkpt>
      <trkpt lat="47.22834" lon="-0.89677">
        <ele>77</ele>
        <time>2012-02-23T16:10:11Z</time>
      </trkpt>
      <trkpt lat="47.22833" lon="-0.89676">
        <ele>76</ele>
        <time>2012-02-23T16:10:12Z</time>
      </trkpt>
      <trkpt lat="47.22831" lon="-0.89676">
        <ele>75</ele>
        <time>2012-02-23T16:10:14Z</time>
      </trkpt>
      <trkpt lat="47.2283" lon="-0.89677">
        <ele>74</ele>
        <time>2012-02-23T16:10:16Z</time>
      </trkpt>
      <trkpt lat="47.22826" lon="-0.89677">
        <ele>74</ele>
        <time>2012-02-23T16:10:18Z</time>
      </trkpt>
      <trkpt lat="47.22825" lon="-0.89677">
        <ele>74</ele>
        <time>2012-02-23T16:10:19Z</time>
      </trkpt>
      <trkpt lat="47.22822" lon="-0.89678">
        <ele>74</ele>
        <time>2012-02-23T16:10:20Z</time>
      </trkpt>
      <trkpt lat="47.22821" lon="-0.89677">
        <ele>74</ele>
        <time>2012-02-23T16:10:21Z</time>
      </trkpt>
      <trkpt lat="47.2282" lon="-0.89676">
        <ele>74</ele>
        <time>2012-02-23T16:10:22Z</time>
      </trkpt>
      <trkpt lat="47.22818" lon="-0.89676">
        <ele>74</ele>
        <time>2012-02-23T16:10:23Z</time>
      </trkpt>
      <trkpt lat="47.22817" lon="-0.89675">
        <ele>74</ele>
        <time>2012-02-23T16:10:24Z</time>
      </trkpt>
      <trkpt lat="47.22815" lon="-0.89675">
        <ele>74</ele>
        <time>2012-02-23T16:10:25Z</time>
      </trkpt>
      <trkpt lat="47.22814" lon="-0.89675">
        <ele>74</ele>
        <time>2012-02-23T16:10:26Z</time>
      </trkpt>
      <trkpt lat="47.22813" lon="-0.89675">
        <ele>74</ele>
        <time>2012-02-23T16:10:27Z</time>
      </trkpt>
      <trkpt lat="47.22812" lon="-0.89674">
        <ele>74</ele>
        <time>2012-02-23T16:10:28Z</time>
      </trkpt>
      <trkpt lat="47.2281" lon="-0.89673">
        <ele>74</ele>
        <time>2012-02-23T16:10:29Z</time>
      </trkpt>
      <trkpt lat="47.22808" lon="-0.89673">
        <ele>74</ele>
        <time>2012-02-23T16:10:30Z</time>
      </trkpt>
      <trkpt lat="47.22807" lon="-0.89674">
        <ele>74</ele>
        <time>2012-02-23T16:10:31Z</time>
      </trkpt>
      <trkpt lat="47.22805" lon="-0.89674">
        <ele>74</ele>
        <time>2012-02-23T16:10:32Z</time>
      </trkpt>
      <trkpt lat="47.22804" lon="-0.89675">
        <ele>74</ele>
        <time>2012-02-23T16:10:33Z</time>
      </trkpt>
      <trkpt lat="47.22802" lon="-0.89675">
        <ele>74</ele>
        <time>2012-02-23T16:10:34Z</time>
      </trkpt>
      <trkpt lat="47.22801" lon="-0.89675">
        <ele>74</ele>
        <time>2012-02-23T16:10:35Z</time>
      </trkpt>
      <trkpt lat="47.22799" lon="-0.89675">
        <ele>75</ele>
        <time>2012-02-23T16:10:37Z</time>
      </trkpt>
      <trkpt lat="47.22798" lon="-0.89675">
        <ele>76</ele>
        <time>2012-02-23T16:10:38Z</time>
      </trkpt>
      <trkpt lat="47.22797" lon="-0.89675">
        <ele>76</ele>
        <time>2012-02-23T16:10:39Z</time>
      </trkpt>
      <trkpt lat="47.22795" lon="-0.89676">
        <ele>76</ele>
        <time>2012-02-23T16:10:41Z</time>
      </trkpt>
      <trkpt lat="47.22794" lon="-0.89676">
        <ele>76</ele>
        <time>2012-02-23T16:10:42Z</time>
      </trkpt>
      <trkpt lat="47.22792" lon="-0.89677">
        <ele>76</ele>
        <time>2012-02-23T16:10:44Z</time>
      </trkpt>
      <trkpt lat="47.2279" lon="-0.89678">
        <ele>76</ele>
        <time>2012-02-23T16:10:46Z</time>
      </trkpt>
      <trkpt lat="47.22788" lon="-0.89678">
        <ele>76</ele>
        <time>2012-02-23T16:10:47Z</time>
      </trkpt>
      <trkpt lat="47.22787" lon="-0.89678">
        <ele>76</ele>
        <time>2012-02-23T16:10:48Z</time>
      </trkpt>
      <trkpt lat="47.22785" lon="-0.89677">
        <ele>76</ele>
        <time>2012-02-23T16:10:49Z</time>
      </trkpt>
      <trkpt lat="47.22782" lon="-0.89677">
        <ele>76</ele>
        <time>2012-02-23T16:10:51Z</time>
      </trkpt>
      <trkpt lat="47.22781" lon="-0.89677">
        <ele>76</ele>
        <time>2012-02-23T16:10:52Z</time>
      </trkpt>
      <trkpt lat="47.2278" lon="-0.89678">
        <ele>76</ele>
        <time>2012-02-23T16:10:53Z</time>
      </trkpt>
      <trkpt lat="47.22778" lon="-0.89677">
        <ele>76</ele>
        <time>2012-02-23T16:10:54Z</time>
      </trkpt>
      <trkpt lat="47.22777" lon="-0.89678">
        <ele>76</ele>
        <time>2012-02-23T16:10:55Z</time>
      </trkpt>
      <trkpt lat="47.22776" lon="-0.89678">
        <ele>76</ele>
        <time>2012-02-23T16:10:56Z</time>
      </trkpt>
      <trkpt lat="47.22774" lon="-0.89678">
        <ele>76</ele>
        <time>2012-02-23T16:10:57Z</time>
      </trkpt>
      <trkpt lat="47.22773" lon="-0.89678">
        <ele>76</ele>
        <time>2012-02-23T16:10:58Z</time>
      </trkpt>
      <trkpt lat="47.22771" lon="-0.89677">
        <ele>76</ele>
        <time>2012-02-23T16:10:59Z</time>
      </trkpt>
      <trkpt lat="47.22769" lon="-0.89676">
        <ele>76</ele>
        <time>2012-02-23T16:11:00Z</time>
      </trkpt>
      <trkpt lat="47.22768" lon="-0.89676">
        <ele>76</ele>
        <time>2012-02-23T16:11:01Z</time>
      </trkpt>
      <trkpt lat="47.22766" lon="-0.89675">
        <ele>77</ele>
        <time>2012-02-23T16:11:02Z</time>
      </trkpt>
      <trkpt lat="47.22765" lon="-0.89675">
        <ele>77</ele>
        <time>2012-02-23T16:11:03Z</time>
      </trkpt>
      <trkpt lat="47.22764" lon="-0.89675">
        <ele>77</ele>
        <time>2012-02-23T16:11:04Z</time>
      </trkpt>
      <trkpt lat="47.22763" lon="-0.89675">
        <ele>77</ele>
        <time>2012-02-23T16:11:05Z</time>
      </trkpt>
      <trkpt lat="47.2276" lon="-0.89675">
        <ele>77</ele>
        <time>2012-02-23T16:11:07Z</time>
      </trkpt>
      <trkpt lat="47.22758" lon="-0.89674">
        <ele>77</ele>
        <time>2012-02-23T16:11:09Z</time>
      </trkpt>
      <trkpt lat="47.22757" lon="-0.89671">
        <ele>77</ele>
        <time>2012-02-23T16:11:11Z</time>
      </trkpt>
      <trkpt lat="47.22757" lon="-0.89669">
        <ele>77</ele>
        <time>2012-02-23T16:11:12Z</time>
      </trkpt>
      <trkpt lat="47.22756" lon="-0.89667">
        <ele>77</ele>
        <time>2012-02-23T16:11:13Z</time>
      </trkpt>
      <trkpt lat="47.22755" lon="-0.89665">
        <ele>77</ele>
        <time>2012-02-23T16:11:14Z</time>
      </trkpt>
      <trkpt lat="47.22754" lon="-0.89663">
        <ele>77</ele>
        <time>2012-02-23T16:11:15Z</time>
      </trkpt>
      <trkpt lat="47.22753" lon="-0.89662">
        <ele>77</ele>
        <time>2012-02-23T16:11:16Z</time>
      </trkpt>
      <trkpt lat="47.22752" lon="-0.89658">
        <ele>77</ele>
        <time>2012-02-23T16:11:18Z</time>
      </trkpt>
      <trkpt lat="47.22752" lon="-0.89657">
        <ele>77</ele>
        <time>2012-02-23T16:11:19Z</time>
      </trkpt>
      <trkpt lat="47.22751" lon="-0.89655">
        <ele>77</ele>
        <time>2012-02-23T16:11:20Z</time>
      </trkpt>
      <trkpt lat="47.22749" lon="-0.89652">
        <ele>77</ele>
        <time>2012-02-23T16:11:22Z</time>
      </trkpt>
      <trkpt lat="47.22749" lon="-0.8965">
        <ele>77</ele>
        <time>2012-02-23T16:11:23Z</time>
      </trkpt>
      <trkpt lat="47.22749" lon="-0.89648">
        <ele>77</ele>
        <time>2012-02-23T16:11:24Z</time>
      </trkpt>
      <trkpt lat="47.22749" lon="-0.89647">
        <ele>77</ele>
        <time>2012-02-23T16:11:25Z</time>
      </trkpt>
      <trkpt lat="47.22749" lon="-0.89645">
        <ele>77</ele>
        <time>2012-02-23T16:11:26Z</time>
      </trkpt>
      <trkpt lat="47.22748" lon="-0.89643">
        <ele>77</ele>
        <time>2012-02-23T16:11:27Z</time>
      </trkpt>
      <trkpt lat="47.22748" lon="-0.89641">
        <ele>77</ele>
        <time>2012-02-23T16:11:28Z</time>
      </trkpt>
      <trkpt lat="47.22748" lon="-0.8964">
        <ele>77</ele>
        <time>2012-02-23T16:11:29Z</time>
      </trkpt>
      <trkpt lat="47.22748" lon="-0.8964">
        <ele>77</ele>
        <time>2012-02-23T16:11:29Z</time>
      </trkpt>
    </trkseg>
  </trk>
</gpx>